GFSSE_sfc_wetblb_000.txt.gz
Wetbulb
63.73 66.45 70.29 71.61 72.12 72.25 72.34 71.93 72.70 72.66 72.88 72.92 72.50 72.18 71.50 70.43 69.67 69.40 69.25 69.35 69.58 70.27 69.44 68.41 68.67 69.65 69.50 70.03 69.73 70.09 70.26 71.08 70.44 71.69 72.40 71.33 70.58 70.68 70.28 71.45 70.68 70.85 72.54
63.75 66.21 69.11 70.62 71.34 72.05 72.36 71.92 72.25 72.73 72.86 72.73 72.15 71.63 70.87 70.03 69.26 69.50 69.33 69.45 68.29 68.84 67.60 67.61 68.77 69.38 69.67 69.35 69.02 69.21 69.55 68.59 70.05 70.44 71.21 71.61 71.41 71.14 70.97 70.98 70.41 70.60 72.11
63.39 65.79 67.62 69.27 70.63 71.60 72.11 72.26 72.32 72.85 73.02 72.60 72.09 71.41 70.76 70.05 69.53 69.42 69.21 66.95 65.65 66.51 65.93 66.58 68.57 68.70 69.06 67.96 66.40 67.44 68.69 68.94 68.51 69.28 70.61 67.76 67.35 70.80 70.42 69.76 69.77 71.77 71.82
64.73 67.05 67.49 69.18 70.08 70.83 70.83 71.21 71.48 71.64 71.61 72.05 71.45 71.01 70.71 69.99 69.71 69.20 67.04 65.38 64.58 64.31 66.20 67.84 67.39 66.37 67.53 65.47 64.18 63.61 67.38 68.97 68.61 69.05 68.49 68.63 68.11 70.21 70.62 69.33 69.81 71.59 71.39
65.48 66.88 67.46 68.01 69.32 70.47 70.46 70.62 70.57 70.65 70.77 71.29 70.76 70.78 70.47 70.02 69.53 68.62 65.98 65.68 65.17 65.29 66.35 67.43 67.91 66.73 65.83 64.60 64.25 63.86 66.66 67.43 68.22 68.30 67.22 67.01 66.20 69.14 70.48 69.33 70.94 70.69 70.32
64.28 65.23 67.06 67.73 68.63 70.03 70.29 69.99 70.15 70.23 69.87 70.30 70.95 70.48 69.82 69.29 68.60 68.37 66.36 65.69 65.98 66.43 66.88 67.63 66.81 67.78 65.28 65.01 66.05 66.56 67.11 67.14 67.07 66.25 67.05 66.90 66.70 69.72 70.63 70.06 69.46 70.15 69.86
64.57 66.14 66.99 67.24 68.27 68.88 68.95 69.04 69.45 69.63 69.62 69.66 69.93 69.94 69.15 68.47 67.14 65.57 65.54 66.33 66.87 66.21 66.95 66.75 68.32 66.80 66.24 66.24 65.87 66.41 66.46 66.12 66.59 66.24 66.19 65.23 63.88 70.22 70.75 69.81 69.73 69.76 69.56
65.43 66.52 66.79 67.96 67.64 67.69 67.88 67.81 67.76 68.11 68.64 69.03 68.77 68.64 68.71 68.12 67.56 67.23 67.05 67.07 65.81 65.11 64.22 64.57 64.68 65.68 64.07 64.68 64.64 65.26 64.35 65.43 66.64 66.57 66.30 65.39 65.73 69.84 71.07 70.15 68.94 68.83 68.97
65.90 65.68 65.70 65.99 66.25 66.33 65.99 65.89 65.74 66.70 67.56 68.20 67.73 67.33 66.75 66.59 66.90 65.93 65.52 65.53 65.19 65.87 66.38 66.55 65.02 64.76 65.55 66.08 65.32 64.99 65.19 65.66 65.52 65.29 65.70 64.41 66.73 68.99 71.00 70.75 69.86 69.28 68.88
66.10 65.54 64.23 64.58 63.91 62.00 61.85 64.98 65.29 65.42 66.47 67.20 66.73 66.01 65.08 65.26 65.28 64.52 64.14 64.48 63.85 63.71 63.27 63.25 64.35 64.93 65.11 64.68 64.42 64.15 63.93 64.11 62.84 62.75 63.12 63.37 67.32 69.82 70.48 70.50 69.78 69.86 69.00
63.68 65.18 64.90 64.79 64.18 61.82 60.92 63.40 65.12 65.81 65.89 66.39 66.86 65.34 63.60 61.70 61.52 61.12 61.91 63.75 62.86 62.66 61.84 61.17 61.18 62.01 61.38 60.96 62.09 62.00 62.55 61.61 61.16 60.72 61.18 64.00 66.89 67.95 69.58 69.37 69.62 69.29 68.98
59.04 60.29 61.30 62.63 63.03 62.73 63.65 63.16 62.46 64.39 63.78 63.70 64.03 63.72 62.21 60.15 59.39 60.24 61.74 62.75 61.52 61.42 61.09 60.80 60.65 60.27 58.23 56.17 56.27 58.03 59.34 59.66 59.56 58.81 58.89 62.83 66.16 67.13 67.93 68.57 68.82 68.64 68.77
55.64 57.31 59.26 60.58 61.07 60.23 61.20 62.37 62.65 62.23 62.23 62.26 61.21 60.90 59.37 58.74 58.71 58.74 58.10 58.38 56.96 59.02 56.46 57.17 56.28 55.66 55.22 55.56 55.44 55.46 56.25 56.89 58.30 59.20 60.33 62.37 65.00 66.64 67.25 68.18 68.38 68.57 68.29
53.07 54.70 58.07 59.28 59.48 58.73 58.54 61.44 60.83 60.64 61.03 59.93 59.68 59.18 58.25 57.44 56.42 56.92 56.52 57.30 56.10 55.94 55.04 54.78 54.55 54.32 52.85 53.47 54.29 54.11 54.57 55.16 56.04 57.52 59.10 60.93 62.46 65.07 66.45 67.13 67.27 67.41 67.60
51.73 53.32 56.11 57.87 58.82 58.29 56.33 54.61 54.50 54.58 55.66 55.25 55.53 56.14 58.49 57.26 56.48 56.80 56.70 55.92 55.34 55.52 55.00 53.85 54.49 57.09 56.12 56.41 56.30 55.28 55.50 55.64 56.24 56.95 57.46 60.27 61.25 63.16 64.38 65.72 66.56 67.12 67.30
51.30 52.40 55.16 56.13 57.53 57.75 55.62 54.19 52.58 52.39 52.08 52.53 53.77 54.60 56.52 55.54 54.34 55.40 55.62 55.60 53.71 53.32 52.86 52.01 51.07 50.65 50.93 52.18 54.46 57.10 57.85 57.40 57.20 57.04 57.25 57.81 59.51 61.17 62.81 63.30 64.40 65.48 66.19
50.06 51.17 52.77 53.97 55.00 54.20 55.65 54.58 52.98 51.64 51.39 51.74 52.68 53.26 54.15 52.32 50.25 50.05 49.92 51.58 51.74 51.96 52.23 51.29 49.50 49.58 48.72 50.91 49.95 51.20 52.62 53.54 53.90 55.28 57.10 58.01 58.47 59.03 60.06 61.90 63.21 63.38 64.15
48.92 50.55 50.64 54.40 53.11 52.39 53.78 53.66 53.38 51.66 49.54 50.34 52.02 51.93 52.24 52.78 51.34 49.81 48.79 48.00 47.42 47.74 49.22 44.41 44.25 44.20 43.82 44.09 44.22 44.93 47.58 50.24 48.68 48.87 50.64 54.67 58.30 59.78 60.21 60.59 61.53 62.64 63.06
48.74 48.97 46.99 49.52 50.05 49.63 49.40 49.77 48.84 49.79 47.88 48.22 51.40 51.45 51.69 51.77 50.97 48.82 49.41 47.91 46.92 46.97 45.68 45.04 44.24 43.90 42.62 43.10 43.47 44.03 43.08 42.77 43.47 46.97 47.17 48.67 52.39 59.04 59.93 59.96 59.99 60.32 61.47
46.83 47.47 46.88 45.96 47.04 48.45 47.61 46.51 45.77 46.12 46.32 46.29 49.21 50.92 51.33 50.46 50.05 47.05 48.49 47.78 46.50 45.84 45.16 44.46 43.73 43.80 43.62 42.84 44.91 43.85 42.47 42.73 43.17 42.95 44.25 48.28 51.53 55.68 57.88 59.49 59.34 58.95 58.74
46.01 46.55 46.93 46.91 46.63 45.94 44.86 44.43 43.66 43.85 45.06 45.28 46.32 50.66 50.40 49.60 49.37 46.56 46.05 47.56 47.09 45.22 45.17 44.37 43.47 43.08 42.08 42.43 40.88 41.48 41.26 41.85 42.20 43.19 44.36 45.69 50.08 53.64 55.32 56.91 59.15 59.37 60.00
45.79 45.88 45.97 46.32 46.42 46.06 44.74 44.54 44.75 43.78 44.26 45.38 45.88 46.11 49.05 49.01 47.72 46.98 45.66 45.93 45.76 44.81 43.91 44.13 44.18 42.49 42.39 42.30 40.62 38.97 37.04 40.26 41.34 42.71 44.03 43.88 44.16 47.02 50.96 50.37 52.86 57.19 58.37
45.47 45.79 46.62 46.46 46.26 46.49 46.14 44.56 43.94 43.64 43.54 43.80 43.92 44.40 46.21 47.69 48.19 47.15 46.05 45.22 44.22 43.78 43.10 43.06 42.52 41.81 40.17 41.60 41.60 40.31 36.61 34.79 39.70 41.98 42.17 43.80 43.60 44.09 45.46 47.76 50.07 53.46 55.93
46.16 45.52 45.95 46.97 46.81 46.78 46.29 44.22 43.44 45.47 44.90 46.32 46.57 43.84 45.24 47.40 47.13 46.73 46.25 45.26 44.19 43.92 43.29 43.37 43.65 42.03 41.11 39.19 41.26 43.50 41.49 39.84 36.82 36.26 40.76 42.90 44.53 44.77 44.64 45.43 48.03 50.28 53.34
46.28 46.32 46.50 46.83 46.98 48.03 47.34 45.97 44.66 44.08 45.64 46.57 43.00 42.79 42.91 44.23 45.76 46.29 45.69 44.65 44.03 44.08 42.72 41.10 40.69 39.17 40.57 38.90 38.85 38.51 38.42 38.71 38.35 36.63 34.11 37.55 41.84 43.89 44.67 44.45 44.64 47.35 48.69
46.53 46.43 47.71 47.08 47.59 48.03 47.71 47.02 44.91 43.74 45.35 43.94 43.91 43.37 43.13 41.65 41.55 42.89 43.13 42.19 41.42 40.74 40.37 39.82 39.94 37.77 38.11 38.74 37.36 37.94 37.43 35.64 35.76 35.23 34.48 34.82 35.78 39.31 42.08 42.93 42.22 42.01 43.64

GFSSE_sfc_wetblb_003.txt.gz
Wetbulb
62.26 66.63 70.52 71.70 72.12 72.23 72.44 72.87 72.34 72.38 72.58 72.39 71.68 71.09 70.44 70.16 69.90 69.88 69.93 69.89 70.17 70.80 69.15 68.88 69.16 69.35 70.11 69.74 69.61 70.08 70.00 70.16 71.02 71.83 71.51 70.80 69.19 69.77 70.49 71.06 70.01 69.44 71.56
63.00 66.27 69.56 70.78 72.03 72.41 72.34 72.76 72.60 72.49 72.50 71.74 71.32 70.51 70.04 69.55 69.52 69.62 69.93 67.76 67.79 68.00 66.75 67.15 68.14 69.09 69.93 69.60 69.00 69.22 69.45 69.45 69.66 70.48 71.83 72.17 71.14 70.80 70.24 70.43 69.21 69.96 71.32
63.79 66.16 67.68 69.76 71.36 71.87 72.17 72.54 72.97 73.16 72.34 71.47 70.99 70.48 69.75 69.22 69.32 69.62 68.60 66.40 65.91 65.76 65.09 67.74 68.12 69.42 69.21 68.33 68.27 68.37 68.34 68.68 69.53 70.20 70.87 68.46 67.96 70.59 70.50 71.01 69.33 70.99 70.97
65.12 66.50 67.16 69.79 70.51 70.99 71.13 71.46 71.95 72.43 71.92 71.51 70.86 70.51 69.98 69.48 68.66 68.68 66.74 65.84 65.31 64.31 65.41 65.56 67.10 68.30 68.42 69.08 68.51 67.92 68.27 68.27 68.36 69.49 68.94 68.48 68.49 69.98 69.69 70.34 70.19 70.36 70.58
64.91 65.54 66.69 69.15 69.77 70.27 70.42 70.39 70.59 70.82 71.34 70.87 70.51 70.22 69.52 68.82 68.69 68.20 66.63 65.14 64.61 64.52 64.79 65.85 67.14 66.73 65.97 65.58 65.50 66.24 67.44 67.33 67.20 67.70 66.34 67.68 67.46 69.51 69.97 70.30 70.48 70.91 70.56
63.18 63.86 66.29 68.12 69.33 69.83 69.65 69.49 69.53 69.72 70.02 70.50 69.94 69.34 68.79 68.17 67.25 67.01 64.93 64.52 65.04 65.26 65.47 66.37 66.63 67.73 66.93 65.50 65.81 66.59 66.75 66.74 66.66 63.72 65.43 67.17 67.50 68.67 70.18 70.22 69.99 70.40 70.12
63.04 64.64 65.58 66.98 68.28 69.23 68.86 68.70 69.07 69.20 69.30 69.48 70.01 69.40 68.67 67.76 66.57 64.38 65.30 65.87 65.63 66.11 66.29 67.02 67.99 66.88 66.47 65.74 65.48 65.53 65.45 64.98 64.81 64.16 64.82 65.24 65.87 67.87 70.08 70.09 69.98 69.75 69.76
63.98 65.15 65.52 67.13 67.33 67.67 68.32 68.39 68.20 68.43 68.51 68.37 68.38 68.75 68.06 66.79 66.18 65.58 65.12 65.51 65.74 65.67 64.97 65.09 64.90 64.71 64.38 63.76 64.43 64.68 64.50 64.03 64.76 64.74 64.94 64.53 66.54 68.65 69.30 70.41 69.49 69.61 69.58
64.93 64.59 64.39 64.92 65.57 66.30 65.90 66.32 66.53 67.23 67.88 67.64 67.30 67.03 66.72 66.36 66.41 65.22 65.20 65.12 64.78 65.50 65.82 65.38 65.13 64.27 64.42 65.58 64.41 64.39 63.96 64.83 63.06 63.99 64.93 64.66 66.55 68.22 68.50 69.46 69.18 69.21 69.32
63.88 64.15 63.12 63.38 63.30 62.14 62.08 65.27 65.38 66.29 66.79 66.77 66.39 65.59 64.85 65.19 65.34 64.03 63.33 63.58 63.31 63.35 62.19 61.97 62.65 63.24 63.07 62.96 62.76 62.25 62.48 63.54 61.87 62.27 62.62 62.86 66.34 68.12 68.52 69.66 69.56 68.71 68.78
64.82 63.48 63.02 62.94 62.25 61.11 60.01 62.72 65.03 65.79 66.30 66.34 65.56 64.83 62.93 60.64 59.52 59.51 61.83 62.69 62.79 62.08 61.54 61.39 60.92 60.42 59.23 58.27 59.06 60.04 60.55 59.89 60.24 60.55 60.06 62.59 65.04 67.70 68.36 69.17 68.90 68.49 68.48
61.66 63.30 63.66 63.00 62.64 61.49 62.71 61.83 61.33 62.69 63.07 63.56 64.15 62.07 60.44 58.34 58.00 59.18 60.95 62.15 61.52 60.98 60.42 60.24 59.97 59.20 57.25 54.92 55.22 57.27 55.85 57.29 58.15 59.08 59.79 62.80 64.03 66.13 67.40 67.77 67.74 68.20 67.84
61.34 61.29 61.76 62.32 61.60 61.42 61.55 61.40 60.60 61.01 60.92 61.00 61.13 61.03 59.31 58.36 57.79 57.61 57.01 57.86 56.13 58.49 55.51 55.76 54.46 53.50 52.22 52.53 53.16 53.66 54.32 55.02 56.11 57.33 58.44 61.25 62.22 64.31 66.24 67.48 67.65 67.83 67.52
54.67 56.84 58.39 59.42 59.10 57.84 60.26 61.04 60.95 60.46 60.62 60.17 59.63 58.74 57.39 55.93 55.47 56.37 56.33 56.41 55.89 55.03 54.23 54.03 53.74 53.73 53.24 53.51 53.77 53.60 54.18 54.43 54.85 56.05 57.15 60.16 61.43 62.69 63.98 65.72 66.99 67.40 67.24
52.52 54.12 56.88 57.57 57.99 56.64 56.09 54.51 56.46 57.48 60.12 59.01 57.95 57.86 57.67 56.15 55.07 55.65 55.51 55.69 54.63 54.51 54.04 52.98 52.43 52.84 53.48 53.88 54.22 54.72 55.08 55.22 56.19 56.61 56.41 59.65 60.58 61.76 63.34 64.45 65.61 66.46 66.75
51.11 52.60 54.87 56.39 57.49 55.92 53.84 52.81 52.84 53.39 54.43 54.23 54.06 54.41 56.94 56.67 55.43 55.11 55.71 54.69 53.99 52.62 51.63 50.51 49.24 48.39 48.46 49.84 51.22 52.01 53.38 54.29 54.65 55.24 55.83 56.29 58.64 59.69 60.70 62.87 63.87 64.26 65.19
50.44 51.85 54.20 54.60 55.55 55.37 54.87 53.50 51.90 51.33 51.66 51.59 52.70 53.94 55.10 53.75 51.44 52.56 53.56 53.23 52.43 50.96 50.77 49.83 46.64 47.45 45.59 47.67 46.73 47.33 47.40 49.45 51.89 50.30 51.08 53.39 54.59 57.49 59.58 60.92 62.09 63.21 63.37
48.00 50.16 51.35 54.75 53.44 52.37 53.82 53.54 52.86 51.77 50.20 50.11 51.37 51.68 52.80 51.89 49.58 48.16 48.04 49.13 48.63 46.73 50.04 45.23 42.50 42.95 42.95 42.62 42.92 43.19 43.92 46.48 45.71 44.58 46.28 47.99 51.77 53.85 57.58 60.21 61.10 61.59 62.55
47.55 48.81 48.01 51.23 51.26 50.56 50.93 51.34 50.29 50.07 48.43 47.98 49.58 50.88 50.69 51.15 50.75 49.17 48.22 47.57 46.61 45.80 44.91 43.64 43.32 43.13 41.98 42.11 42.43 42.88 42.04 42.09 42.32 44.82 43.91 44.83 46.93 50.29 55.40 59.26 60.37 60.54 61.27
46.93 46.67 45.94 47.64 48.07 47.74 46.94 45.72 44.52 44.77 45.94 46.40 46.92 49.73 51.05 50.22 50.33 47.53 47.63 48.27 46.40 44.96 44.31 43.87 43.39 42.84 42.58 42.27 43.62 43.30 41.61 42.17 41.73 41.60 41.88 45.29 46.06 49.55 51.47 53.57 56.63 58.87 58.93
44.83 45.48 44.72 44.77 44.85 45.07 44.24 43.80 43.28 43.59 43.99 44.71 45.10 47.22 49.97 50.43 49.49 47.18 46.20 47.35 46.65 44.80 44.51 44.33 42.87 42.09 41.59 41.33 40.18 40.18 40.74 41.12 41.26 41.57 42.25 43.00 44.21 46.14 46.97 49.62 50.66 52.38 56.15
44.33 44.72 44.85 45.52 45.50 44.82 43.99 43.78 43.98 42.93 43.29 43.81 44.52 45.35 48.48 50.18 49.72 47.84 45.85 46.35 46.81 45.52 43.92 43.75 42.86 41.61 41.48 41.52 39.39 37.79 35.70 37.70 39.60 42.27 41.89 42.92 43.55 44.07 46.23 47.15 47.34 49.16 51.51
43.44 43.91 44.99 45.27 45.13 45.22 44.99 43.67 43.07 42.64 42.77 42.39 43.52 43.11 44.97 48.07 50.22 48.57 46.25 45.62 45.69 45.93 44.71 42.88 42.58 41.93 39.63 40.16 40.62 38.81 34.69 33.33 36.66 39.38 39.88 41.49 41.45 42.26 43.94 44.98 46.60 48.86 50.23
44.30 44.04 44.61 45.03 44.85 45.45 45.28 44.28 42.86 43.64 44.20 46.50 46.07 45.62 45.41 45.28 47.20 48.97 47.96 45.24 44.54 43.57 41.95 41.40 42.01 40.64 39.53 37.31 38.41 41.92 39.58 38.42 32.11 30.92 36.79 37.08 38.39 40.65 41.56 43.85 44.91 45.74 48.02
43.79 43.85 44.61 45.85 46.79 46.89 46.25 45.46 44.83 43.58 45.30 46.28 45.48 42.32 43.09 43.16 44.90 46.63 47.64 45.89 43.34 44.23 43.74 42.83 40.78 39.28 37.93 37.23 36.34 36.02 35.55 35.83 36.19 33.95 30.04 33.04 36.49 37.64 39.66 41.87 43.28 44.19 44.67
45.00 45.12 45.53 46.11 46.58 47.41 46.94 46.37 44.60 43.15 43.99 43.63 43.81 42.43 43.47 41.40 41.91 43.21 43.90 44.14 42.04 41.51 40.30 37.84 38.50 38.36 38.38 37.84 37.38 37.88 36.43 34.10 32.45 32.09 31.02 32.08 33.52 35.84 38.32 39.90 40.48 41.59 43.56

GFSSE_sfc_wetblb_006.txt.gz
Wetbulb
60.66 65.73 70.60 71.97 72.33 72.27 71.39 71.97 71.96 72.33 72.60 72.26 71.75 71.27 71.30 71.03 70.59 70.92 70.72 70.53 71.13 70.01 69.10 69.10 69.32 69.35 69.60 69.05 69.53 70.61 70.69 71.25 70.80 70.98 71.11 70.40 69.45 70.05 70.83 71.19 70.75 70.05 71.70
62.23 65.12 69.62 71.21 71.92 72.48 72.49 72.12 71.79 72.11 72.49 71.76 71.26 70.96 70.60 70.35 70.29 70.40 68.37 67.43 67.42 67.32 67.35 68.63 68.78 68.59 69.38 69.07 69.02 69.70 69.80 69.75 70.52 71.28 71.41 70.97 70.36 70.25 70.23 71.03 70.36 69.79 70.70
63.88 65.39 67.07 70.31 71.26 72.07 72.64 72.54 72.24 72.49 71.72 71.41 70.89 70.18 69.69 69.12 69.24 69.31 67.98 66.77 66.02 65.41 65.83 67.16 68.34 68.93 69.29 69.03 69.35 69.47 69.36 69.48 69.68 70.04 71.18 68.17 68.28 71.10 70.11 70.75 70.60 71.52 70.89
64.37 65.46 67.05 69.97 70.46 71.12 71.51 72.11 72.34 72.35 71.49 71.26 70.81 70.32 69.78 69.23 69.20 68.68 67.60 66.66 65.06 64.90 65.42 66.42 66.54 68.11 68.41 67.49 67.87 68.03 68.42 68.28 68.38 69.23 68.67 68.22 68.10 70.15 70.17 70.51 70.29 70.58 70.60
63.90 64.39 67.29 69.02 69.43 70.22 70.22 70.55 70.95 71.57 71.54 71.34 70.72 70.29 69.64 69.08 68.35 68.14 66.54 64.89 65.11 65.45 65.36 66.18 67.19 67.07 67.57 66.54 66.45 66.51 66.89 67.44 67.20 66.08 65.42 67.24 67.88 68.97 69.52 70.44 70.24 70.77 70.54
61.86 62.75 66.76 68.04 68.79 69.55 69.50 69.20 69.45 69.94 69.96 69.85 69.76 69.46 68.91 68.20 67.12 66.94 66.16 65.36 66.04 66.18 66.31 66.91 66.87 67.44 67.40 66.18 65.85 65.80 66.59 65.80 65.52 64.40 64.84 66.50 67.74 68.06 69.85 69.99 69.16 69.98 70.07
61.56 62.87 64.83 67.20 68.30 69.14 68.98 68.56 68.91 68.96 69.23 69.54 69.59 69.12 68.59 67.76 66.42 64.33 64.44 65.69 65.67 66.37 66.25 65.87 66.09 65.59 65.76 65.34 64.84 65.35 65.37 64.78 63.28 64.20 64.69 65.13 66.06 68.03 68.76 70.10 69.38 69.17 69.57
62.57 63.51 63.75 66.88 67.47 68.21 68.34 68.18 67.96 68.10 67.99 68.15 68.46 68.77 67.78 66.84 66.40 66.13 65.70 65.62 65.73 65.95 66.07 65.80 65.50 64.71 64.34 64.36 65.22 64.38 63.81 64.25 64.73 63.91 64.90 64.83 66.13 68.12 68.88 69.88 69.33 68.60 69.13
63.00 62.86 62.85 63.60 64.90 66.27 66.07 66.34 66.48 67.09 67.45 67.08 66.88 67.11 66.69 66.44 65.68 64.92 64.75 64.58 64.20 64.09 63.31 63.37 63.62 64.36 64.40 63.48 63.19 62.42 62.77 64.26 62.08 62.39 63.42 64.21 66.10 67.51 68.34 69.27 69.56 68.45 69.10
62.63 62.49 61.89 61.84 62.09 61.51 61.73 65.15 65.51 66.15 66.62 66.35 65.93 65.15 64.71 65.06 64.44 63.53 61.99 63.22 62.92 62.80 62.28 61.94 61.60 61.71 60.69 60.06 60.21 60.42 61.17 61.47 60.69 61.02 61.34 61.93 64.38 66.42 68.07 68.16 69.21 68.87 68.94
63.11 62.18 61.76 61.78 61.20 59.64 59.56 62.44 64.78 65.79 66.26 66.08 65.22 64.56 62.44 59.72 58.27 57.59 61.21 62.40 62.18 61.57 61.12 60.88 60.86 60.01 59.08 58.14 58.71 59.02 58.19 57.55 59.01 59.40 59.43 62.31 63.75 65.52 66.93 67.77 68.45 68.43 68.34
61.59 62.18 62.00 61.79 61.16 60.07 61.27 60.43 60.54 61.86 62.71 63.36 63.06 61.50 59.76 58.09 57.07 58.53 59.99 61.82 61.01 60.51 60.19 60.05 58.96 57.79 54.86 52.86 53.30 55.71 54.15 55.17 56.12 56.91 58.09 60.73 62.01 63.82 65.27 66.59 67.11 67.63 67.26
60.82 62.21 63.13 62.16 61.36 60.74 60.46 60.09 59.35 59.53 60.01 60.57 61.35 60.31 58.76 58.26 56.68 56.84 55.68 56.38 55.20 58.03 54.04 54.95 54.05 53.62 52.55 52.28 53.18 53.82 54.28 54.62 54.76 55.96 57.61 60.58 61.92 63.22 63.92 64.43 65.51 66.29 66.68
59.43 61.80 61.61 61.28 60.57 59.48 59.80 60.10 59.46 59.49 59.49 59.41 59.18 59.10 57.58 56.04 54.54 55.32 55.17 55.14 55.31 54.86 53.48 53.13 53.19 53.42 53.51 53.71 53.73 53.49 53.81 53.94 54.79 56.16 57.24 59.43 60.05 61.73 63.45 64.13 64.48 65.25 66.00
56.92 57.35 57.63 58.05 58.04 56.81 58.29 58.18 58.62 59.04 59.49 59.18 58.64 57.87 57.16 55.58 54.60 54.56 55.26 54.69 55.01 54.11 53.65 53.17 51.75 50.80 50.13 50.81 51.67 52.74 52.92 53.69 54.34 54.66 54.42 56.22 57.05 56.71 57.91 60.71 63.70 64.58 64.82
53.44 54.30 56.01 56.27 57.06 55.43 53.27 53.44 54.32 55.25 56.82 56.94 56.38 56.84 56.53 56.24 54.86 54.14 54.62 54.53 53.53 53.37 52.32 50.70 48.69 47.58 47.02 47.96 49.33 49.00 49.03 49.52 51.52 51.47 50.02 49.84 54.08 55.03 56.40 58.09 59.79 62.11 64.39
51.57 51.67 53.79 55.12 55.93 54.79 53.57 52.43 51.13 51.52 52.26 52.31 53.28 53.52 53.73 55.39 54.62 53.87 53.38 53.65 53.57 52.14 49.90 49.20 47.33 46.28 44.66 45.68 44.95 45.98 45.98 46.93 50.01 48.23 46.24 47.66 49.04 52.31 54.87 57.69 59.21 60.15 61.56
48.59 50.60 52.86 55.36 54.26 53.44 53.07 52.93 52.09 50.88 49.98 49.97 50.85 51.58 52.85 53.92 52.11 50.16 50.10 50.93 51.97 49.83 49.49 48.31 42.65 42.42 42.69 42.54 42.75 42.98 43.35 43.97 44.70 44.25 45.15 45.17 46.94 49.11 53.00 57.35 58.54 59.84 60.32
47.93 49.78 50.68 50.80 51.99 51.15 51.25 51.94 51.43 50.78 49.85 48.93 48.71 50.07 50.91 51.63 51.17 48.17 47.55 47.89 48.40 45.85 45.84 46.12 42.26 42.79 41.76 41.49 42.00 42.19 42.15 42.19 42.84 44.42 43.71 44.82 45.87 47.58 51.00 53.82 55.17 57.84 57.57
45.98 48.16 47.86 48.95 49.91 48.87 46.76 45.64 44.97 44.36 45.07 46.50 46.37 47.29 50.03 50.33 50.49 49.04 47.78 47.52 46.74 44.95 43.90 42.91 42.39 42.34 42.33 41.84 43.42 43.00 41.63 42.32 42.02 42.08 42.92 44.57 44.87 46.55 47.01 48.25 50.89 51.28 53.30
44.82 44.94 44.77 45.27 45.52 44.73 43.93 43.87 43.25 43.93 43.58 44.18 44.92 46.37 47.46 49.61 50.07 49.42 48.14 47.09 47.03 45.41 45.41 43.57 42.75 42.03 41.23 41.39 40.53 39.87 40.23 41.24 41.07 41.71 42.52 43.55 44.53 45.68 46.27 47.33 47.83 48.23 50.18
44.74 44.90 44.29 44.25 44.07 43.20 42.81 42.52 42.67 41.97 42.57 42.62 43.57 44.18 45.32 46.47 48.46 49.44 48.47 46.89 46.30 46.70 43.99 43.36 42.37 40.91 41.13 40.86 38.99 37.54 35.41 37.16 38.86 41.36 42.06 41.51 42.93 43.52 44.32 45.58 45.58 47.09 49.09
42.86 42.71 43.43 43.49 43.32 43.46 43.88 43.13 42.70 42.36 42.96 42.97 44.08 43.39 44.87 45.00 46.81 48.54 48.91 47.89 46.29 46.44 46.00 44.65 43.37 41.58 40.82 40.03 40.18 38.03 34.37 32.86 35.15 37.98 38.50 40.10 39.20 40.06 41.89 42.23 44.50 45.72 45.85
42.67 43.04 43.89 44.55 44.84 45.71 45.46 44.07 43.02 41.99 41.94 44.26 44.18 44.67 45.36 44.75 44.43 46.18 48.46 47.52 46.13 45.79 45.50 44.13 43.50 42.26 39.97 38.11 38.98 41.42 38.81 37.38 31.43 31.01 36.05 38.68 38.18 38.85 39.34 41.19 42.21 43.25 44.79
42.55 43.30 43.86 45.25 45.45 45.43 44.68 44.35 43.77 43.51 43.51 44.24 44.36 43.20 43.92 43.95 42.82 43.60 44.82 45.65 44.71 42.77 42.28 43.57 41.38 40.08 39.57 37.78 36.62 36.49 35.62 36.86 36.38 32.86 30.18 33.12 36.38 38.14 39.03 39.83 40.76 42.18 42.53
43.24 43.48 43.80 44.43 44.99 45.40 44.40 43.68 42.13 40.89 41.10 41.61 42.41 41.83 42.54 42.11 40.68 40.54 41.78 41.85 40.48 39.25 37.95 37.89 39.64 38.83 36.57 38.50 37.79 37.37 36.24 34.47 33.23 32.34 31.50 31.55 32.47 35.85 37.87 38.47 39.53 40.15 41.36

GFSSE_sfc_wetblb_009.txt.gz
Wetbulb
65.39 69.27 70.49 71.80 71.83 72.35 72.24 72.12 71.96 71.65 71.97 72.09 71.85 72.13 71.87 71.57 71.34 70.09 68.79 68.67 68.86 67.84 68.25 69.02 69.37 69.28 69.87 69.28 69.24 69.90 70.84 71.30 70.81 71.23 70.84 69.92 70.24 71.05 71.22 72.10 71.78 71.04 72.18
67.38 69.64 69.59 71.36 72.06 72.15 71.83 71.52 71.23 71.84 72.10 72.00 71.45 71.34 71.07 70.82 70.30 68.93 68.08 67.38 67.11 66.99 66.95 67.79 68.28 69.41 69.74 69.68 69.39 69.49 69.76 69.90 70.66 70.83 70.86 69.56 69.07 69.56 70.58 70.90 70.87 70.92 71.94
67.53 69.16 70.16 70.41 71.45 71.97 72.14 71.96 71.66 72.10 71.70 71.41 71.03 70.54 70.04 69.88 69.34 69.13 68.28 67.53 66.51 66.17 66.46 67.28 67.18 69.23 70.00 69.43 69.00 68.76 69.05 69.17 69.11 69.65 70.35 69.18 68.51 70.19 70.06 70.52 70.63 71.04 71.30
66.57 68.44 69.70 69.87 70.55 71.47 72.24 72.08 72.20 72.17 71.75 71.18 70.62 70.06 69.55 69.34 69.30 68.62 68.20 66.71 65.76 66.23 66.43 67.30 67.93 67.55 67.52 67.07 66.77 66.59 67.02 67.85 67.98 68.24 68.94 68.95 68.46 70.34 70.18 70.37 70.06 70.41 70.71
65.82 67.79 69.29 69.04 69.59 70.25 70.88 71.59 71.93 71.99 71.70 71.28 70.65 70.34 69.86 69.28 68.69 68.54 66.96 65.51 66.07 66.65 66.94 67.22 67.08 67.64 67.49 66.65 65.75 66.06 66.90 66.70 66.79 66.93 68.42 68.53 68.97 69.13 69.82 70.59 70.31 70.59 70.62
65.37 67.63 68.08 67.92 68.93 69.43 69.52 69.81 69.91 70.02 69.91 69.92 69.86 69.61 69.29 68.49 67.98 67.04 66.48 66.25 66.36 66.73 67.19 66.78 67.22 66.83 66.71 66.09 65.24 65.33 65.57 65.35 65.22 66.25 67.25 67.79 68.39 68.30 69.59 69.97 69.93 69.94 69.62
64.59 66.37 67.66 67.06 68.18 69.13 68.68 68.68 68.78 68.90 69.13 69.41 69.30 68.89 68.54 67.63 66.25 65.28 64.86 65.77 66.24 66.48 66.53 66.60 65.88 64.99 64.54 64.02 64.62 64.28 64.49 64.97 65.56 65.58 65.92 67.52 67.86 67.91 68.73 68.61 69.50 69.32 68.93
64.13 65.77 66.79 67.47 67.94 68.10 68.22 68.10 67.84 67.91 68.04 68.04 68.20 68.39 67.77 67.16 66.65 66.12 66.10 65.64 65.28 64.76 64.46 64.87 65.11 65.33 65.18 65.15 64.62 64.10 64.48 64.84 66.12 66.51 66.36 66.60 66.59 67.54 67.91 68.66 68.89 68.92 68.57
65.44 65.61 66.20 66.61 66.93 66.65 66.24 66.45 66.51 67.07 67.11 66.91 66.80 66.67 66.25 66.10 65.32 64.72 64.50 64.37 64.08 63.71 63.24 63.14 63.24 62.94 62.53 61.88 61.61 61.12 62.12 62.96 65.59 65.43 64.58 66.40 64.81 66.36 67.62 67.62 68.45 68.42 68.00
66.04 65.93 66.07 66.41 66.09 66.13 66.32 65.29 65.79 66.14 66.44 66.19 65.85 64.87 64.70 64.75 63.75 63.34 61.69 62.79 62.97 62.66 62.36 62.04 61.33 61.20 60.42 60.29 60.31 59.75 59.55 60.64 63.29 63.80 64.20 64.32 64.04 65.68 66.47 67.14 67.30 68.54 68.24
65.28 66.01 66.35 66.14 65.48 65.19 65.44 65.49 65.35 66.00 66.26 65.97 65.66 64.42 64.31 65.69 64.36 62.50 61.89 61.82 62.08 61.53 61.02 60.77 60.30 59.48 58.00 57.66 58.40 58.24 58.13 61.04 61.15 61.84 62.45 61.14 62.79 64.39 65.26 66.21 66.36 67.44 68.57
64.95 66.10 66.08 66.43 66.03 64.90 63.63 65.42 65.88 65.77 67.18 67.88 67.30 66.39 66.08 64.93 63.90 62.63 61.94 61.20 61.26 60.66 59.95 59.72 59.17 57.47 57.02 59.31 60.53 58.90 61.11 61.30 62.04 61.89 62.29 61.21 62.44 63.73 64.39 64.60 65.15 66.72 67.18
66.09 66.37 66.09 66.62 66.87 65.83 64.84 65.72 65.78 65.76 66.19 66.74 66.77 66.38 65.45 64.76 64.42 64.08 63.25 62.88 63.01 60.64 61.74 60.27 60.80 61.21 60.92 60.87 60.69 60.50 59.92 60.10 61.29 61.93 60.83 60.21 60.60 62.33 63.54 64.07 64.48 65.08 66.29
65.36 66.84 67.19 66.96 66.57 66.90 66.62 66.10 65.69 65.07 65.32 65.47 65.76 65.55 65.47 64.58 63.74 62.74 62.18 62.13 62.48 63.02 61.85 61.55 61.49 60.79 60.06 59.73 58.69 58.35 58.06 58.78 59.10 59.60 57.81 57.11 56.65 57.04 58.75 60.57 62.33 64.21 64.83
64.29 65.76 66.94 66.82 65.96 65.18 63.97 65.11 65.36 65.17 65.23 65.52 65.30 65.05 64.43 63.68 63.15 62.18 61.59 61.69 61.95 62.15 61.54 61.08 60.36 57.77 56.05 55.34 56.29 55.79 55.23 55.64 56.84 56.46 55.68 53.26 54.76 55.57 57.17 58.67 59.76 61.21 63.49
63.24 64.17 64.52 63.56 63.45 62.78 62.50 63.35 64.10 64.32 64.79 64.62 64.91 64.78 64.07 63.48 62.96 62.00 61.53 61.40 61.49 61.48 61.23 60.59 58.00 55.79 54.89 54.39 54.68 54.19 53.77 54.37 55.94 55.48 54.14 54.45 52.69 54.27 57.16 58.58 59.69 60.14 61.32
61.93 61.79 61.34 61.91 62.61 62.43 60.99 60.04 60.00 60.62 60.67 62.62 63.18 63.46 62.80 62.37 62.02 61.61 61.22 61.01 61.04 61.32 60.68 58.30 56.04 55.27 53.92 52.92 52.81 52.99 53.07 53.17 54.66 53.43 53.62 53.95 54.30 53.74 55.36 56.74 58.41 59.23 58.22
58.26 59.10 60.08 60.18 61.20 61.57 60.68 60.59 60.23 59.60 58.95 58.73 58.90 59.50 60.07 59.92 60.29 60.46 59.54 59.45 60.18 60.20 59.47 57.71 56.30 53.75 51.98 52.15 52.14 52.49 52.19 52.27 52.29 52.26 52.79 53.14 53.24 53.90 54.59 53.90 54.86 54.63 55.18
57.05 58.03 59.10 59.89 59.98 60.10 59.04 59.28 59.57 59.09 58.92 58.68 58.01 57.61 58.19 58.58 59.00 58.92 58.36 58.16 58.08 57.41 57.31 56.49 55.13 53.08 51.67 51.75 51.12 51.73 51.84 51.46 51.81 50.76 51.17 51.78 52.52 53.32 53.67 52.47 52.46 52.04 52.84
55.26 56.69 58.09 57.73 58.11 57.63 57.05 55.87 55.33 54.75 54.93 54.91 55.31 55.51 55.89 56.51 57.43 57.58 57.54 56.84 56.60 55.17 54.83 53.96 53.06 52.67 51.57 51.62 49.72 49.79 51.63 51.82 51.57 51.38 51.05 50.07 52.15 51.95 52.24 52.04 52.04 51.68 51.46
53.39 54.86 55.70 55.20 54.96 54.43 53.24 52.72 53.31 52.82 52.88 53.36 53.61 53.55 53.61 53.92 54.60 55.43 55.60 55.99 55.83 54.22 54.38 54.16 52.92 51.44 50.70 51.11 49.66 49.88 50.12 51.12 50.87 50.69 50.51 51.08 49.85 51.35 51.31 51.15 49.61 49.18 49.78
53.04 52.89 51.00 50.46 50.82 50.72 51.40 51.81 51.81 51.43 52.14 51.80 52.29 53.23 53.55 52.98 53.01 52.88 53.86 53.96 54.42 53.70 54.26 54.13 52.34 51.52 50.57 51.27 48.75 48.46 45.45 47.59 48.38 49.19 49.10 49.11 50.09 49.37 48.97 47.85 47.58 47.69 48.16
49.99 49.66 49.82 50.26 51.20 51.73 51.74 52.04 52.44 52.51 52.48 52.18 51.99 52.03 52.53 52.76 52.47 52.24 52.13 52.57 53.00 53.30 52.15 54.07 53.46 51.41 50.44 50.62 50.39 48.74 44.94 43.06 46.31 47.52 47.47 46.90 47.75 47.22 47.11 47.15 47.10 46.11 47.63
49.56 51.35 51.76 51.84 51.92 51.50 51.73 50.67 49.75 48.59 47.76 49.55 49.88 50.37 50.78 51.86 51.61 51.31 50.79 50.97 51.48 52.00 51.74 51.96 52.76 52.08 50.77 49.48 48.09 47.57 47.30 45.68 43.27 42.91 44.46 45.60 45.30 44.66 45.13 47.17 46.45 46.47 46.71
50.27 50.59 51.17 51.27 51.09 50.94 50.29 49.20 49.06 48.57 48.84 48.93 48.86 48.62 48.82 49.91 50.41 49.57 49.08 49.11 49.29 49.91 50.64 50.48 50.51 49.07 49.36 48.42 46.72 45.93 44.38 43.73 43.99 40.69 39.53 41.52 42.28 43.57 44.51 44.86 44.74 46.25 45.12
50.65 50.85 51.20 50.92 50.70 50.94 50.40 48.72 48.33 47.77 47.58 47.55 48.02 47.60 48.20 48.62 48.13 47.02 46.54 47.19 46.42 46.35 45.82 45.83 45.38 45.52 45.11 45.10 43.94 43.92 43.22 41.07 39.87 39.44 37.96 38.62 39.42 41.77 42.75 43.11 43.99 44.56 46.00

GFSSE_sfc_wetblb_012.txt.gz
Wetbulb
67.49 71.74 70.91 71.98 72.50 72.51 72.06 71.70 71.62 71.83 72.57 72.14 72.36 72.70 72.55 71.58 70.34 69.75 69.28 68.26 67.87 67.72 68.28 68.64 68.86 69.40 69.91 69.90 69.80 69.26 69.64 70.30 69.65 69.40 70.10 69.81 70.08 70.63 70.85 71.38 71.66 71.28 71.72
69.22 71.70 70.47 71.62 72.53 72.40 72.19 71.54 71.49 71.91 72.02 71.92 71.58 71.35 71.75 70.43 69.51 68.90 68.22 67.87 67.67 67.72 67.88 68.00 67.88 69.13 70.02 70.12 69.40 69.27 69.21 69.67 69.96 69.94 69.57 69.62 68.85 69.63 70.01 70.18 70.61 71.42 71.40
68.91 71.49 72.02 70.91 72.19 72.55 72.39 72.03 72.03 71.87 71.68 71.47 71.18 70.43 69.96 69.98 69.59 69.08 68.61 67.66 66.59 66.98 66.94 67.55 67.86 69.25 69.13 67.76 67.27 67.52 67.68 67.85 68.62 68.75 69.45 68.98 68.59 69.87 69.74 69.77 69.79 70.28 71.33
68.38 70.46 71.33 70.02 71.64 72.61 72.17 72.20 72.43 71.79 71.47 70.90 70.47 70.13 69.72 69.62 69.47 69.19 67.61 66.46 66.68 67.01 67.08 67.17 67.92 68.40 67.92 67.02 66.07 66.32 66.82 66.57 67.23 67.61 69.37 68.95 68.28 69.80 70.14 69.89 69.64 69.88 70.72
67.47 69.24 70.47 69.64 70.22 71.24 71.53 71.65 71.94 71.57 71.28 70.87 70.61 70.51 70.02 69.49 68.75 67.82 66.62 66.28 66.92 67.31 67.72 68.09 68.38 68.11 67.30 66.38 65.73 65.53 65.97 65.78 65.73 66.65 69.09 69.25 69.16 69.25 69.05 69.92 70.18 69.91 70.11
65.41 67.68 68.29 68.73 69.36 69.86 69.70 70.06 70.14 70.12 69.93 70.01 69.94 69.71 69.19 68.51 67.70 65.84 65.87 66.41 66.54 67.09 67.00 66.88 66.55 65.77 65.28 65.06 64.38 64.57 64.87 65.12 65.09 68.17 68.62 68.73 68.49 68.24 68.24 69.38 69.40 69.97 69.52
65.62 67.13 67.63 67.77 68.51 68.98 68.51 68.55 68.81 68.99 69.21 69.16 69.13 68.76 68.59 67.26 66.61 66.51 65.96 66.47 66.61 66.61 66.38 66.49 65.90 65.26 64.76 65.42 65.16 64.94 64.60 64.43 66.70 67.65 67.75 68.63 69.13 67.74 68.14 68.96 69.70 69.45 69.56
65.81 67.20 67.13 66.93 67.91 68.33 68.26 67.86 68.04 67.82 67.68 67.87 68.19 68.21 67.61 67.11 66.49 66.22 65.86 65.50 65.19 64.53 64.56 64.72 65.55 65.27 64.47 63.48 62.62 62.70 63.86 64.24 66.54 67.70 67.87 68.09 66.32 66.92 67.42 68.22 68.94 68.48 69.06
65.96 66.52 67.57 67.79 67.88 67.04 66.87 67.01 67.16 67.42 66.87 66.61 66.76 66.59 66.35 66.01 65.13 64.62 64.51 64.22 63.76 63.43 63.17 63.01 63.01 62.67 62.04 61.41 60.91 60.56 61.15 62.04 66.84 67.12 66.72 67.17 64.99 65.97 66.97 66.85 66.97 67.91 68.40
66.93 67.07 67.94 68.66 68.11 68.79 68.26 65.64 66.47 66.55 66.86 65.86 65.32 64.61 64.37 64.76 63.73 62.85 61.88 62.87 62.90 62.28 61.98 61.76 61.36 60.80 60.25 60.08 60.01 59.58 59.54 60.99 65.38 66.39 67.78 65.65 63.31 65.26 66.10 66.23 65.67 65.57 66.96
67.08 68.08 68.73 68.50 68.73 69.21 68.51 67.36 65.38 65.86 66.29 66.02 66.06 64.26 64.91 68.01 67.03 65.03 61.89 61.42 61.54 61.07 60.77 60.43 59.47 58.17 57.57 58.43 58.77 58.47 59.13 64.01 63.92 64.30 64.93 61.78 62.67 64.22 64.93 65.38 65.29 64.98 65.93
66.80 68.30 69.44 69.66 69.17 69.14 66.97 68.61 69.00 68.41 69.40 69.63 68.98 68.55 68.28 67.85 67.46 64.60 63.33 60.97 60.81 60.41 59.16 59.15 59.05 58.83 59.17 61.66 62.46 60.37 62.22 62.33 62.31 62.27 63.55 61.37 62.33 63.39 64.15 64.44 64.63 65.19 65.42
67.21 68.37 69.07 69.99 69.90 69.04 68.48 68.80 68.36 68.42 69.00 69.29 68.89 68.95 68.58 67.81 67.59 66.79 66.26 65.24 64.95 61.96 63.64 62.50 62.93 62.07 62.05 62.14 61.22 61.59 61.12 61.24 61.06 61.48 61.14 57.63 57.24 58.54 60.36 61.71 63.42 64.56 65.20
66.21 68.04 69.39 69.93 69.97 69.82 68.57 67.83 68.51 67.46 67.99 67.52 68.28 68.66 68.33 67.22 66.65 66.17 65.06 64.19 63.81 63.41 63.32 62.95 62.42 62.89 61.95 60.53 59.75 58.80 58.39 58.39 58.65 60.05 58.54 54.95 55.46 56.18 57.45 58.80 59.95 61.87 64.08
66.72 68.41 69.82 70.51 70.21 68.82 67.80 67.90 67.97 67.84 67.35 67.67 67.55 67.29 68.11 66.47 65.61 65.05 64.14 63.38 62.81 62.70 62.33 62.00 61.74 61.17 59.33 57.90 57.38 57.23 56.69 56.93 57.49 57.79 58.34 52.69 54.21 56.27 57.79 58.70 59.28 60.26 61.44
67.07 68.00 70.10 70.29 69.89 67.11 66.22 66.80 66.94 67.76 67.00 66.99 65.92 65.74 67.15 66.81 64.85 63.49 62.42 61.63 61.34 61.29 61.45 61.20 60.76 59.97 58.52 57.80 56.57 57.27 56.53 56.32 56.56 57.17 56.71 56.02 52.85 55.73 57.17 57.89 59.81 60.03 59.98
66.35 67.22 68.69 69.14 67.76 66.36 65.17 64.85 65.18 65.38 64.43 64.01 63.87 64.66 65.31 65.41 64.01 63.38 61.83 61.25 61.15 61.47 61.74 61.61 60.99 59.89 58.43 57.15 55.88 56.07 56.25 56.23 55.89 56.13 55.51 55.91 54.87 54.53 55.35 56.40 56.20 56.41 56.88
64.22 65.23 67.38 66.47 65.55 65.26 64.27 64.52 64.11 64.14 63.68 62.99 63.02 62.93 63.11 63.08 63.11 62.54 61.24 61.00 61.61 61.47 60.70 60.03 59.53 58.25 57.67 56.46 55.55 55.45 55.58 55.71 55.28 55.44 55.30 55.37 55.17 55.13 53.94 54.30 53.83 53.90 55.43
61.56 63.52 65.74 66.10 64.25 63.31 63.62 63.27 63.30 63.05 62.94 62.51 62.29 61.22 61.29 61.39 61.51 61.41 60.44 60.56 61.58 60.52 59.79 59.32 58.77 58.35 56.96 55.94 55.06 55.24 55.56 55.21 55.17 54.46 54.50 54.86 55.21 54.83 55.40 52.57 52.51 51.68 51.93
60.82 62.64 64.72 64.21 62.36 62.04 63.03 62.07 60.49 60.05 60.03 59.88 59.41 59.10 58.99 58.83 59.12 59.36 59.24 59.98 60.33 59.45 58.81 58.45 58.08 58.01 57.03 56.14 54.00 53.66 54.67 55.39 55.46 54.82 54.58 54.25 54.14 54.81 54.88 54.86 54.77 53.36 50.84
59.86 60.13 60.62 60.35 57.50 59.50 59.12 57.05 57.55 57.16 57.47 58.10 58.67 58.37 58.42 58.27 57.93 57.86 57.47 57.80 58.27 57.74 58.08 58.37 57.85 57.08 56.28 56.80 54.13 53.58 54.02 55.18 55.21 54.62 54.71 54.21 53.48 53.84 54.47 54.13 53.32 53.23 52.50
57.37 57.02 56.38 55.79 55.98 56.36 57.46 57.52 57.45 57.02 57.71 57.62 57.94 57.60 57.18 56.15 56.12 55.60 56.02 55.77 56.13 55.76 56.41 56.76 56.89 55.96 56.19 56.48 53.20 52.39 49.18 51.79 53.84 54.10 54.26 53.42 53.70 53.30 53.03 52.09 51.40 51.23 51.49
56.19 56.31 55.88 56.50 56.62 56.75 56.75 57.36 57.36 57.40 56.96 55.54 54.37 54.51 54.65 54.70 54.44 54.50 54.48 54.60 54.71 54.78 54.00 55.15 55.49 55.13 53.64 55.67 56.42 52.27 48.88 47.26 50.60 53.29 52.78 52.81 52.83 52.35 52.14 50.96 50.52 49.79 50.00
56.09 56.87 56.37 56.36 56.02 55.83 55.98 54.98 54.35 53.43 52.11 53.23 53.49 53.68 53.54 53.97 53.40 53.04 53.24 53.39 53.73 53.71 53.41 53.70 53.91 54.22 54.00 52.17 54.32 55.12 54.61 53.04 48.36 47.17 50.45 51.60 51.68 50.61 50.71 49.99 49.73 49.76 49.99
55.89 56.17 56.60 55.96 55.47 55.18 54.67 54.35 53.95 53.16 53.19 53.37 53.19 52.36 52.23 52.31 52.34 52.12 52.31 52.14 52.44 52.85 53.01 53.08 52.90 52.77 53.02 52.07 51.42 51.43 50.05 51.04 51.20 46.52 46.60 46.15 49.37 49.67 48.77 48.94 49.34 49.21 49.67
56.15 56.16 55.76 55.04 54.30 54.76 54.57 53.24 52.49 52.28 51.87 51.41 50.95 49.89 49.77 50.13 50.36 51.06 51.17 51.06 51.37 51.09 50.72 50.48 50.15 49.02 48.54 47.74 47.99 47.68 45.99 41.99 42.84 42.89 44.79 46.51 46.89 47.33 48.12 48.51 47.93 48.18 49.30

GFSSE_sfc_wetblb_015.txt.gz
Wetbulb
70.37 71.61 71.87 72.27 72.33 72.71 72.00 71.66 71.54 72.36 72.73 72.77 72.57 72.09 71.36 70.75 70.02 69.53 69.18 68.02 68.40 68.79 68.71 69.00 68.69 69.47 69.86 70.54 69.85 69.58 69.77 69.85 70.66 69.84 69.51 69.00 69.43 70.12 70.80 71.16 71.39 70.17 70.74
71.36 72.37 71.27 72.30 72.55 72.68 72.02 71.73 72.10 71.73 72.20 71.88 71.43 71.20 70.68 69.88 69.33 68.65 68.56 68.17 68.16 68.35 68.35 68.63 68.28 70.34 70.36 69.22 68.85 68.55 68.90 68.97 69.30 70.19 69.86 69.59 69.78 69.71 70.33 70.24 71.27 70.27 69.99
71.41 72.00 72.35 72.04 72.62 72.32 71.95 71.81 72.06 71.67 71.61 71.44 70.61 70.19 70.40 69.72 69.41 68.92 67.92 67.22 67.54 67.51 67.75 68.04 68.81 69.04 68.55 67.86 66.98 67.06 67.45 67.22 67.83 68.26 69.17 67.27 68.15 70.18 70.26 69.52 69.78 70.06 69.78
70.95 71.87 72.03 71.07 72.30 72.62 72.54 72.35 72.07 71.61 71.15 70.63 70.29 70.12 69.92 69.60 69.38 68.40 67.13 67.05 67.27 67.80 68.23 68.29 67.67 68.28 67.53 66.65 66.30 66.27 66.79 66.90 66.92 67.57 67.48 68.01 67.69 70.67 70.22 69.99 69.31 69.65 69.87
69.13 70.86 70.74 70.04 70.97 71.78 71.88 72.13 71.83 71.48 71.11 70.85 70.59 70.23 69.84 69.36 68.69 67.53 66.66 66.95 67.17 67.83 67.80 67.78 67.79 67.53 67.24 66.56 65.79 65.15 65.57 66.23 66.55 66.48 67.80 68.18 68.73 69.24 68.92 69.33 69.72 70.26 70.70
66.90 68.95 68.73 69.37 69.96 70.36 70.28 70.33 70.31 70.05 70.09 70.16 70.08 69.69 69.33 68.74 66.91 66.04 66.60 66.89 67.42 67.52 67.40 67.40 66.47 65.52 64.90 64.80 65.04 65.34 64.57 65.10 65.81 66.34 66.66 68.04 68.11 68.97 68.02 68.54 69.45 69.97 69.78
65.07 66.51 68.22 68.23 69.07 69.01 68.65 68.67 68.88 68.91 69.08 69.19 69.15 68.96 68.29 67.48 67.20 66.83 66.79 66.75 66.19 65.87 66.05 66.26 66.56 66.22 65.95 65.49 65.11 64.94 65.36 65.26 65.38 66.39 65.46 66.39 67.05 68.14 68.23 68.77 68.81 69.48 69.64
65.14 66.16 66.11 67.10 68.07 68.20 67.94 67.83 67.74 67.71 67.74 68.06 68.37 68.08 67.40 66.82 66.21 66.12 65.80 65.42 65.14 64.70 64.43 64.57 64.67 64.28 63.75 62.91 62.18 62.11 62.84 63.57 66.12 66.50 66.16 65.65 66.72 67.00 67.85 67.92 67.99 67.93 68.33
65.41 66.06 66.83 67.14 67.41 67.25 67.13 67.24 67.18 67.03 66.78 66.46 66.28 66.41 66.31 65.60 65.04 64.52 64.33 64.12 64.01 63.54 63.11 62.58 62.38 62.06 61.68 61.33 61.02 60.63 60.71 61.87 63.96 65.90 65.51 65.01 65.27 66.06 66.55 66.96 66.82 66.65 66.68
65.90 66.92 67.57 68.06 67.88 68.43 68.17 66.30 66.49 66.57 66.41 65.64 65.22 64.48 64.55 65.31 64.78 63.60 63.18 63.32 62.79 62.18 61.70 61.28 60.87 60.31 60.30 60.45 60.10 59.82 60.63 61.56 63.49 64.25 65.12 62.51 63.91 65.05 65.78 66.14 66.14 65.96 65.31
66.03 67.69 67.97 67.80 67.59 67.39 66.55 66.87 65.15 66.10 66.50 66.06 66.04 65.25 65.56 67.22 66.89 66.11 62.60 61.91 61.60 61.08 60.74 60.39 59.66 59.14 59.87 60.08 60.20 60.26 60.77 63.26 62.85 62.41 63.84 62.67 63.30 63.91 64.93 64.89 65.24 65.68 65.64
65.52 66.86 68.18 69.20 68.08 67.43 65.70 67.35 67.47 66.77 67.70 67.74 68.04 68.08 67.47 67.69 67.05 65.47 63.75 62.76 62.54 62.11 61.90 61.20 60.88 60.80 60.63 61.80 61.84 60.73 61.93 61.59 60.94 60.67 62.57 60.84 60.60 61.73 63.41 64.17 64.59 64.94 65.49
65.81 65.80 67.52 70.31 69.78 67.97 66.77 66.11 66.82 67.05 67.21 67.62 68.22 68.15 67.68 67.11 67.16 66.15 65.65 65.45 65.25 62.72 63.60 62.82 63.01 62.52 62.74 61.94 60.95 60.81 60.52 60.30 59.60 59.89 58.88 57.34 56.65 58.03 59.70 60.88 61.95 63.36 64.58
64.50 65.48 67.24 70.05 70.21 68.93 67.35 65.90 66.01 66.28 66.60 66.34 66.89 67.20 66.53 65.45 65.62 65.14 63.86 63.42 63.20 62.43 62.44 62.38 61.94 62.56 62.40 61.41 59.70 59.05 58.74 58.11 57.24 57.91 57.84 55.47 54.45 55.91 57.45 58.92 60.03 61.14 62.68
64.16 65.40 66.78 69.05 70.89 68.39 67.42 65.99 66.65 66.48 66.36 66.56 66.75 66.00 65.56 64.67 64.32 63.72 63.14 62.40 62.00 61.84 61.45 61.35 61.04 60.82 60.81 59.89 59.17 58.21 57.75 57.76 57.89 57.69 58.12 55.17 54.05 56.38 57.81 58.32 59.37 60.22 61.13
64.71 65.49 67.04 68.36 70.62 68.08 65.17 65.85 66.08 66.73 66.22 65.86 65.22 64.22 64.63 64.66 64.34 63.16 62.48 61.60 61.25 61.23 61.06 60.85 60.54 60.32 59.79 59.11 58.54 58.11 57.49 57.42 57.23 57.63 57.30 55.91 55.17 56.08 56.71 57.70 59.59 59.86 59.65
64.57 65.57 66.73 68.50 70.35 67.14 64.86 64.52 64.73 64.42 63.14 63.63 63.54 63.83 63.55 63.73 63.43 63.17 61.99 61.65 61.46 62.21 62.69 61.61 60.92 60.51 59.69 59.25 58.21 57.54 57.26 57.49 56.86 56.90 57.02 56.44 55.55 55.14 56.33 56.95 56.55 56.37 56.87
63.94 63.74 65.55 68.03 68.77 66.68 64.19 64.29 64.13 63.84 63.37 62.59 63.06 63.46 62.75 62.85 62.77 62.46 61.13 61.16 62.22 62.24 61.12 60.68 59.64 58.95 58.71 58.27 58.00 57.38 57.13 56.85 56.75 56.65 56.50 56.27 56.04 56.11 55.10 55.56 55.16 55.30 55.84
62.65 62.54 63.57 67.94 67.13 65.17 63.92 63.35 63.80 63.28 62.78 62.31 62.18 61.35 61.37 61.17 61.13 60.94 60.31 60.73 62.77 60.82 61.41 60.55 59.94 59.90 58.13 58.22 57.66 58.09 57.45 56.32 57.05 55.79 55.91 56.22 56.57 55.84 55.94 55.81 54.55 53.96 53.53
61.76 62.91 64.44 66.65 65.17 63.48 63.19 62.76 61.00 60.78 60.49 60.88 60.12 60.07 60.10 60.00 60.05 59.59 59.23 60.25 60.35 58.62 58.91 59.67 60.23 59.47 59.40 58.69 56.80 56.51 58.44 57.87 57.40 57.37 55.91 55.66 55.67 56.29 55.59 55.56 53.60 52.47 53.19
62.96 63.36 64.18 63.09 60.32 60.58 59.99 58.31 58.28 57.89 58.64 59.24 59.80 59.71 59.74 59.03 58.08 57.78 57.05 57.37 57.95 56.60 57.73 59.07 58.56 58.00 57.43 59.27 57.49 57.28 57.68 58.17 58.00 57.05 57.55 56.51 55.68 55.67 56.39 55.75 55.04 54.58 52.08
59.51 59.67 59.24 58.50 58.31 58.40 58.55 58.51 58.90 58.37 58.61 58.91 59.33 58.66 58.22 57.29 56.57 55.69 55.54 55.12 55.37 54.44 56.60 57.09 57.09 55.87 56.74 57.97 55.41 55.19 52.29 54.25 57.03 57.12 56.63 56.60 56.83 56.03 55.18 55.54 55.29 54.49 53.77
58.30 58.32 57.99 58.13 58.25 58.13 58.14 58.39 58.04 58.15 58.07 57.14 57.08 56.52 56.76 56.53 55.65 55.14 54.52 54.53 54.94 55.27 54.32 55.92 55.72 55.11 53.23 55.29 56.83 53.83 49.67 48.66 52.71 56.34 57.14 56.21 56.32 55.80 55.49 55.14 54.87 52.56 52.50
57.85 58.38 58.15 57.64 57.39 57.33 57.56 56.73 56.31 55.15 54.16 55.38 55.59 55.77 55.21 55.02 53.94 53.41 53.23 54.11 54.68 53.76 53.76 54.33 53.71 54.99 54.12 51.74 53.82 53.34 55.07 53.68 48.74 48.12 53.92 54.34 53.93 53.48 55.53 54.80 53.93 51.71 51.74
57.99 58.24 58.10 57.30 57.03 57.19 57.08 56.14 55.05 54.30 54.59 54.89 54.52 53.85 53.04 53.11 52.84 52.20 52.34 53.26 52.77 52.51 52.67 52.62 51.85 51.55 51.22 50.04 49.96 49.83 49.09 49.36 49.66 45.30 45.99 49.85 50.14 51.20 51.38 52.62 52.66 51.97 51.15
57.77 58.01 57.86 57.12 56.72 56.65 56.69 55.99 54.53 53.53 53.08 52.19 52.00 50.87 50.92 50.85 50.65 51.30 50.61 51.46 52.07 51.53 51.21 50.86 49.46 48.40 46.62 46.00 44.77 43.52 41.28 40.84 40.71 40.87 39.50 44.86 44.56 48.47 49.98 49.99 50.28 50.34 50.85

GFSSE_sfc_wetblb_018.txt.gz
Wetbulb
69.42 70.67 72.31 73.03 73.42 72.75 72.55 72.47 72.59 72.73 72.73 72.97 72.30 71.78 71.03 70.48 70.26 69.49 69.62 69.82 69.82 69.42 69.47 69.58 69.21 70.80 70.77 70.08 69.60 69.43 69.48 69.99 70.57 71.16 71.24 70.68 70.69 70.27 71.17 71.91 71.22 68.85 70.77
70.54 71.16 71.85 72.93 73.16 72.87 72.52 72.56 72.61 72.46 72.32 72.34 71.93 71.39 70.91 70.31 69.90 69.71 68.72 68.65 68.93 68.73 68.83 69.31 69.28 69.69 69.25 68.42 68.12 68.07 68.48 68.84 68.99 69.47 70.22 69.71 70.87 69.71 70.24 71.06 70.09 67.59 68.73
69.96 71.28 71.52 72.14 72.60 72.69 72.84 72.86 72.35 72.25 72.06 71.62 71.41 71.28 70.71 70.08 69.54 68.59 68.21 68.18 68.35 68.92 68.99 68.66 69.08 69.11 68.35 67.51 67.17 67.07 67.38 68.33 68.36 68.52 69.02 66.27 65.74 70.75 69.83 70.67 70.76 71.18 70.20
70.86 71.03 71.49 71.72 72.16 72.48 72.64 72.71 72.19 71.60 71.11 71.35 70.96 70.50 70.11 69.81 69.08 68.06 67.60 67.98 68.26 68.50 68.45 68.57 68.89 68.54 67.97 67.40 66.81 66.40 66.50 67.16 67.42 67.70 64.98 65.58 67.66 68.33 70.14 69.91 70.11 70.53 70.72
69.63 70.04 70.42 70.59 71.30 72.10 72.03 72.09 71.79 71.63 71.49 71.44 71.09 70.42 70.06 69.30 67.75 67.12 67.23 67.66 67.89 67.92 67.70 67.50 66.90 66.21 65.94 65.75 65.69 65.68 65.45 66.09 66.62 65.56 63.53 65.25 66.10 68.00 68.61 68.64 70.23 70.62 70.48
67.63 68.46 68.46 69.07 70.13 70.78 71.06 71.09 70.77 70.46 70.59 70.59 70.27 69.77 69.12 67.75 66.88 67.08 67.29 67.46 67.03 66.77 66.84 66.99 66.73 66.32 66.01 66.06 65.84 65.82 65.73 65.97 65.64 61.96 62.57 64.90 65.93 68.07 67.84 67.87 68.95 69.24 69.04
65.70 67.05 67.25 68.02 68.94 69.47 69.62 69.27 69.49 69.42 69.62 69.44 69.34 68.56 67.78 67.51 67.29 66.88 66.44 65.89 65.57 65.41 65.54 66.05 65.95 65.45 64.63 64.03 63.75 63.57 64.21 64.43 63.31 62.57 63.40 64.48 65.67 67.86 68.23 68.35 68.78 68.69 69.26
64.42 64.87 65.30 68.04 68.55 68.42 68.67 68.67 68.41 68.32 68.48 68.69 68.87 67.90 67.24 66.60 66.26 66.02 65.78 65.36 64.68 64.41 64.05 63.82 63.83 63.81 63.50 62.88 62.68 62.68 62.39 62.83 61.84 61.96 65.18 64.57 66.87 67.34 67.31 67.32 68.13 67.97 68.12
63.98 64.03 65.09 65.16 66.73 67.13 67.05 67.35 67.24 67.26 67.19 67.16 67.16 66.90 66.60 66.22 65.85 65.30 64.85 64.40 63.80 63.43 62.91 62.29 61.89 61.93 61.95 61.93 62.02 62.04 61.57 62.02 59.93 60.84 64.05 62.87 66.70 66.61 66.71 66.87 66.67 66.88 66.73
64.88 65.50 65.61 66.00 65.95 65.86 65.12 66.37 66.62 66.85 66.55 66.27 66.06 65.75 65.68 65.71 65.61 64.77 64.91 63.95 62.81 61.80 61.51 61.18 61.12 61.07 61.15 61.37 61.74 61.90 61.13 61.26 58.15 59.67 61.81 62.97 65.40 65.79 65.96 65.65 65.83 66.17 66.39
64.41 66.30 66.19 65.76 65.95 66.51 65.95 65.69 66.29 66.89 66.43 66.01 65.97 65.18 64.41 65.22 64.67 64.03 63.28 63.69 62.68 62.21 62.01 61.64 61.17 61.24 60.84 61.02 61.50 61.50 61.32 57.82 58.96 57.34 60.52 63.51 63.80 63.91 64.40 64.90 64.98 65.40 66.03
64.14 65.32 66.76 66.89 66.09 65.79 64.21 65.01 66.21 66.70 65.97 66.10 66.58 66.44 66.18 65.79 65.06 64.65 64.16 63.34 63.63 63.21 63.23 62.73 62.48 61.89 61.24 58.09 58.40 60.60 58.35 58.73 57.09 57.11 59.04 61.66 60.91 60.97 61.37 63.36 64.30 64.65 65.36
63.96 64.98 66.76 68.60 67.78 66.56 65.84 63.68 65.43 65.43 65.50 66.84 67.53 65.80 66.00 65.02 65.79 64.10 63.45 63.14 62.29 62.55 61.82 61.11 60.93 59.60 60.37 59.17 58.37 57.57 57.14 55.77 54.93 55.25 57.44 59.14 58.77 57.76 58.86 60.75 61.80 62.77 64.07
63.75 64.02 67.41 68.68 68.65 66.96 65.84 64.74 64.66 64.93 64.59 65.00 65.02 65.60 64.38 63.35 63.45 62.21 61.51 60.28 60.04 59.40 59.26 59.16 58.28 59.76 59.28 59.81 58.18 56.52 55.77 55.26 53.91 54.04 53.99 57.32 57.21 55.64 57.04 59.41 60.77 61.60 62.44
62.62 64.32 65.59 68.53 69.16 67.66 65.79 65.50 65.36 64.74 65.47 64.59 64.62 64.63 63.86 62.41 62.37 62.08 61.01 60.41 59.81 59.19 58.31 57.91 57.46 57.48 57.66 57.45 57.37 56.40 55.21 54.90 54.97 54.18 53.57 55.91 56.56 56.21 57.23 58.97 60.02 61.11 61.87
63.67 64.88 66.62 67.66 69.46 67.46 64.50 64.15 64.43 65.16 65.10 64.79 63.18 62.38 62.84 62.25 62.01 61.24 60.23 60.07 59.39 59.05 58.67 57.72 56.79 57.02 56.77 57.12 56.32 56.27 55.01 54.21 54.11 54.06 53.50 51.84 55.85 57.86 58.26 58.08 59.53 60.42 61.28
63.69 64.54 64.92 63.26 68.95 66.35 64.19 63.58 63.17 62.54 61.06 61.27 62.02 61.86 61.58 61.38 60.72 60.46 59.67 59.31 59.28 59.51 59.01 58.12 57.59 56.83 56.18 56.93 55.80 55.91 55.32 54.42 54.22 54.06 53.84 53.66 52.10 56.67 58.07 58.39 59.63 59.09 58.66
63.57 61.58 63.68 66.54 68.13 66.02 64.53 62.94 62.38 62.38 61.50 60.96 61.17 61.60 61.07 61.26 60.68 59.63 58.84 58.87 59.38 59.35 58.32 57.57 56.71 55.64 55.16 54.81 54.45 54.73 54.00 53.86 54.02 53.91 53.78 53.42 52.55 52.56 55.97 58.49 58.58 57.77 57.82
62.57 62.66 62.94 67.33 66.76 65.67 63.58 62.04 62.17 61.70 60.72 61.09 59.89 59.41 59.57 59.25 60.02 58.35 57.40 57.81 58.73 57.42 56.82 56.73 55.60 55.42 54.31 54.32 54.61 54.08 54.26 53.64 52.91 54.57 52.65 52.78 52.60 52.57 52.03 55.74 57.13 57.01 57.90
62.75 63.15 63.98 64.19 63.63 63.14 62.20 61.04 60.21 59.51 59.40 59.77 58.92 58.58 58.91 57.91 57.99 56.81 55.93 56.69 57.34 54.92 54.40 54.42 54.49 54.37 54.13 54.04 55.61 55.19 54.54 54.83 54.58 52.51 52.39 54.03 52.47 52.60 52.33 52.49 52.95 52.20 55.23
63.04 61.67 62.50 59.87 60.16 59.39 58.30 56.84 56.99 56.56 57.13 57.67 57.75 58.97 57.58 57.27 56.07 54.86 53.82 53.59 53.19 52.23 52.21 52.81 52.26 51.22 51.59 52.43 52.29 52.17 52.99 54.54 54.53 54.48 54.09 52.04 52.11 52.62 52.49 52.43 50.97 49.82 50.39
58.60 58.83 58.53 58.10 58.10 57.38 57.42 57.01 57.00 56.60 57.20 56.88 57.45 57.18 57.03 55.75 55.01 54.12 53.34 52.29 51.90 50.72 50.37 50.36 50.59 50.40 50.32 51.06 49.88 49.57 46.76 49.26 51.81 53.29 54.24 53.36 52.20 53.31 52.54 52.25 52.40 51.65 49.80
57.52 57.64 57.26 57.49 57.38 57.14 57.05 56.61 56.28 56.30 55.95 55.10 54.80 54.57 55.62 55.01 53.91 52.82 51.98 51.12 50.79 50.57 49.19 48.50 48.68 48.56 47.76 48.95 49.51 47.91 44.88 43.12 46.47 49.65 50.30 51.48 52.71 53.15 52.81 52.47 51.91 52.06 50.84
57.04 57.95 57.37 57.51 57.14 56.91 56.91 55.40 54.54 53.59 51.95 53.43 53.58 53.51 53.04 52.97 52.54 50.99 50.49 50.03 49.19 49.65 48.67 48.54 49.91 48.53 47.84 45.97 47.30 47.32 44.85 44.90 42.85 42.46 46.90 49.37 50.71 51.15 52.47 52.58 51.94 51.65 50.20
57.59 57.51 57.69 57.56 56.94 56.90 56.22 55.60 53.56 52.57 52.59 52.64 51.98 51.38 50.69 50.47 49.93 49.63 48.87 48.17 47.91 48.42 48.08 48.64 48.04 46.11 45.04 43.28 42.22 41.82 40.84 40.87 42.21 40.10 38.46 41.66 45.29 48.75 49.17 50.28 49.33 50.29 49.65
57.75 57.62 57.49 56.65 56.38 56.78 55.43 54.72 53.62 52.51 51.40 50.43 49.80 48.47 47.49 47.08 47.06 47.46 48.25 47.31 47.73 47.97 46.70 46.42 45.16 44.09 42.83 42.40 41.71 40.53 39.30 37.87 36.78 36.72 36.58 36.60 37.48 41.90 43.56 46.24 48.26 48.65 49.29

GFSSE_sfc_wetblb_021.txt.gz
Wetbulb
68.03 70.61 72.05 72.51 72.25 72.01 72.17 72.17 72.19 72.42 72.56 72.51 71.69 71.06 70.83 70.48 70.35 70.31 70.24 70.20 70.30 69.69 69.72 69.89 70.45 70.16 69.84 69.18 68.83 68.55 68.67 68.66 68.95 69.21 69.40 69.82 69.49 69.65 70.99 71.09 71.23 69.34 70.71
69.77 71.47 71.38 72.02 72.19 72.36 72.56 72.28 72.14 72.29 72.29 71.38 71.01 70.97 70.78 70.59 69.82 69.08 68.91 69.27 69.62 69.48 69.56 69.38 69.54 69.42 68.59 67.95 67.53 67.55 67.84 68.47 68.52 68.45 68.34 68.54 68.08 70.02 70.03 70.20 68.98 69.46 70.67
69.36 71.04 71.43 71.44 72.11 72.49 72.49 72.36 72.26 72.08 71.51 71.21 70.94 71.12 70.88 69.60 68.90 68.49 68.51 68.85 68.84 68.88 68.97 69.09 69.15 68.90 68.50 67.86 67.15 66.83 66.76 67.28 67.85 67.92 67.76 64.22 65.79 69.33 68.88 68.59 69.72 69.56 69.42
70.13 70.86 71.05 71.14 71.92 72.23 71.90 71.73 71.46 71.58 71.21 71.30 70.89 70.36 69.94 69.21 68.49 68.03 68.04 68.35 68.18 68.25 68.11 67.84 67.52 67.16 66.60 66.18 66.15 66.10 66.18 66.34 66.74 66.84 63.52 64.01 66.27 68.35 67.26 66.60 68.44 70.78 71.12
69.25 70.43 70.56 70.51 71.14 71.77 71.59 71.52 71.55 71.50 71.24 71.01 70.83 70.13 69.12 67.96 67.60 67.44 67.68 68.46 67.61 67.48 67.23 67.14 66.76 66.22 66.22 65.99 65.99 65.81 65.89 65.91 66.22 64.74 60.29 62.82 66.04 65.17 63.78 63.09 68.12 68.80 69.81
66.21 67.51 68.53 69.05 70.16 71.02 71.06 70.96 70.78 70.48 70.30 70.15 69.94 68.96 68.03 67.59 67.58 67.62 67.13 66.48 66.50 66.29 66.55 66.60 66.47 66.13 65.08 64.68 64.31 64.15 64.16 64.44 64.93 60.85 60.63 64.79 65.46 65.74 65.64 66.88 68.13 68.26 68.88
64.40 65.79 67.09 67.76 68.91 69.78 69.88 69.49 69.77 69.60 69.36 69.42 68.97 68.56 67.72 67.33 67.01 66.55 66.16 65.65 65.16 64.81 64.90 64.66 64.52 64.30 63.99 63.82 63.45 63.44 63.08 63.04 60.85 58.49 60.66 63.63 65.38 68.39 67.79 67.38 67.05 67.58 68.11
63.15 64.05 65.86 68.07 68.13 68.31 68.52 68.31 68.03 68.26 68.51 68.65 68.36 68.01 67.04 66.81 66.79 66.02 65.51 64.75 64.19 63.62 63.15 62.89 62.80 62.79 62.85 63.12 63.37 63.08 62.35 62.56 60.06 57.14 62.12 63.94 67.70 67.91 67.33 66.87 67.51 67.49 67.65
62.06 61.68 63.29 64.94 66.42 66.76 66.52 66.52 66.35 66.85 66.99 67.14 66.95 66.91 66.30 66.06 65.92 66.02 65.33 64.48 63.72 62.94 62.19 61.67 61.72 62.15 62.48 62.47 62.80 62.37 61.85 62.11 59.06 56.80 62.17 62.33 67.62 67.36 66.75 66.72 66.39 66.15 66.76
60.95 61.75 60.72 62.64 63.68 63.49 64.08 65.64 65.71 65.64 65.56 65.46 65.67 65.82 65.31 65.24 65.05 65.18 64.83 64.77 63.94 62.97 62.22 61.66 62.07 62.14 62.08 61.90 61.75 61.65 61.50 61.70 55.64 56.14 60.33 61.91 66.30 66.03 65.72 65.50 65.15 65.37 66.03
61.17 61.32 61.91 61.79 62.60 62.14 62.68 64.87 65.57 65.98 65.59 65.14 65.08 64.85 63.88 63.05 63.37 62.88 63.52 63.81 63.93 63.36 62.93 62.65 62.39 61.95 61.43 60.89 60.75 61.24 61.15 57.63 56.15 54.80 58.91 63.46 64.06 63.84 64.16 64.35 64.45 64.68 65.28
60.38 61.39 61.70 60.90 61.86 63.06 64.18 63.38 62.96 64.42 64.15 63.84 63.78 63.38 62.78 61.85 62.41 63.18 62.75 63.41 63.65 63.31 63.13 63.01 63.17 62.45 61.54 57.87 56.73 60.05 57.22 56.64 54.33 53.65 58.54 62.36 61.94 60.99 61.17 61.91 63.32 64.07 64.74
61.04 62.20 62.92 61.88 61.47 61.36 60.63 61.06 62.46 62.63 62.70 62.87 63.19 61.55 60.94 62.14 60.81 59.52 60.22 60.44 59.52 61.80 59.80 61.22 60.03 59.41 58.21 57.59 56.48 55.29 55.03 53.34 52.26 51.89 57.34 60.36 60.00 58.82 58.97 59.86 61.32 62.24 63.21
59.99 62.93 63.85 63.09 61.94 61.37 60.41 59.71 60.26 60.04 60.51 61.51 61.49 60.75 59.51 59.26 57.49 57.98 56.61 56.17 56.31 56.70 57.35 55.91 55.56 55.79 55.87 56.77 57.10 55.64 53.98 52.35 52.18 51.63 53.13 58.00 58.39 57.55 57.21 58.13 59.90 61.24 62.20
59.95 63.10 64.50 64.03 62.24 62.37 60.53 59.98 59.66 60.55 60.11 59.74 60.30 60.20 59.07 58.85 57.49 57.36 57.27 56.65 56.17 55.75 54.79 54.38 54.21 54.71 54.91 55.07 55.08 54.79 54.09 53.12 52.81 52.51 50.95 56.69 57.36 57.89 57.63 57.95 59.24 60.28 61.41
59.77 62.88 64.57 64.14 65.07 63.21 60.77 59.65 59.64 59.67 59.63 59.88 58.44 58.55 59.28 58.02 57.31 57.26 56.05 56.73 55.81 55.89 55.80 55.11 54.33 54.16 54.25 54.54 54.81 54.66 54.09 52.54 52.10 52.24 51.71 51.19 56.44 57.55 58.61 58.57 59.08 59.81 60.81
59.45 64.83 62.85 61.79 59.59 63.45 60.29 59.04 58.30 58.74 56.34 56.71 57.21 57.78 58.25 57.87 56.40 56.25 55.74 55.80 56.11 56.46 55.68 55.30 54.99 54.71 53.62 54.42 53.61 53.92 53.84 53.30 52.30 51.82 51.72 51.31 51.66 56.41 57.66 59.55 58.74 59.51 60.72
60.67 61.91 63.43 64.63 59.29 61.70 59.34 57.25 57.29 56.29 55.97 55.48 55.96 56.75 57.07 57.62 56.69 55.04 54.04 53.87 55.18 55.30 54.63 53.89 53.75 53.52 52.92 52.59 51.77 52.15 52.59 52.82 52.04 52.32 52.55 51.72 50.65 51.81 55.48 58.00 59.17 60.67 59.75
56.98 59.61 61.39 63.55 62.34 60.48 58.02 56.78 56.63 56.61 55.78 55.63 54.28 54.93 55.70 55.91 55.32 53.01 52.59 52.43 53.14 53.36 52.40 52.48 52.00 51.81 51.41 51.56 52.71 53.34 51.52 51.03 51.72 53.66 51.61 51.78 50.63 50.83 50.24 55.19 57.59 58.88 59.32
58.24 57.70 57.44 58.10 57.96 58.10 55.94 55.32 54.36 54.10 54.05 54.03 53.63 53.89 54.13 53.65 53.22 51.67 51.15 50.78 50.41 49.54 49.36 49.16 48.37 49.17 48.96 49.54 51.43 51.79 52.03 52.01 52.18 51.54 51.84 52.07 51.02 51.08 50.51 50.39 53.29 54.27 56.82
54.81 55.19 54.39 53.99 53.03 53.25 52.36 51.24 51.19 50.79 51.58 52.20 53.23 53.15 53.77 52.89 52.16 50.89 50.29 49.51 49.26 48.24 47.69 47.90 47.43 47.26 47.49 48.27 47.41 48.11 48.01 49.59 50.11 51.87 52.45 51.05 50.73 51.35 51.32 50.68 51.08 51.50 52.59
51.90 52.59 52.67 52.65 52.55 52.48 51.51 51.21 51.78 50.70 51.66 51.80 52.22 52.65 52.75 51.05 50.37 49.73 47.74 47.51 47.54 47.46 46.90 46.55 45.70 45.09 44.98 46.15 44.52 45.52 42.72 45.13 46.52 48.07 48.54 49.97 50.12 51.20 52.31 52.56 51.72 50.80 48.94
50.66 50.98 52.26 52.33 52.33 51.83 51.71 51.45 50.87 51.11 50.23 49.89 50.08 50.19 49.57 49.24 48.62 47.65 47.08 46.23 46.27 46.08 45.79 45.12 44.95 44.88 44.26 45.07 44.72 42.96 40.17 40.13 40.42 45.98 46.64 47.98 47.46 49.34 49.65 51.32 51.19 51.49 49.85
50.54 51.37 51.80 51.96 51.82 52.60 51.81 50.28 49.37 47.93 47.07 48.43 48.13 47.80 47.35 47.17 46.76 46.87 46.18 45.66 45.24 45.07 44.42 44.66 46.44 44.11 42.93 40.77 42.14 43.16 41.41 41.58 37.46 36.25 42.36 43.57 42.51 45.22 44.74 47.47 49.61 51.13 50.72
51.61 51.11 51.53 52.02 51.91 51.65 51.40 50.51 48.63 47.71 48.04 48.17 47.09 45.52 44.61 45.15 45.78 45.97 45.64 44.56 44.55 45.24 44.68 43.93 43.55 43.63 43.42 42.42 40.71 40.33 39.75 37.77 37.30 34.84 33.80 36.49 38.96 40.54 42.25 43.63 45.53 47.50 50.65
51.09 50.85 50.63 51.02 51.30 51.42 51.46 50.33 48.40 47.11 46.44 45.10 43.79 42.80 42.80 43.10 43.55 43.79 45.08 44.51 44.34 42.74 42.73 42.96 43.02 41.44 41.04 40.99 40.37 39.82 39.04 36.66 36.09 35.55 34.06 34.02 34.09 36.53 38.49 40.91 42.88 45.56 47.63

GFSSE_sfc_wetblb_024.txt.gz
Wetbulb
68.15 70.85 71.49 72.07 72.30 72.16 72.00 72.05 72.10 72.27 72.35 71.58 70.93 70.52 70.42 69.87 69.70 70.06 70.09 70.53 70.54 69.86 70.01 69.97 69.61 69.22 68.88 68.32 67.95 67.72 67.95 68.00 67.87 67.98 68.78 68.98 69.10 68.92 69.76 71.08 70.34 69.95 70.63
69.87 70.90 70.81 71.80 72.39 72.34 72.28 72.11 72.02 72.02 71.81 70.93 70.32 70.39 70.25 69.47 69.04 68.94 69.24 69.22 69.49 69.27 69.27 69.24 68.88 68.70 68.45 67.97 67.23 67.04 67.10 67.08 67.48 67.09 67.70 67.35 67.11 68.64 68.62 68.95 68.61 69.88 69.94
69.82 70.39 70.66 71.35 72.03 72.41 72.42 72.32 72.22 72.13 71.23 70.66 70.48 70.09 69.42 68.81 68.62 68.53 68.55 68.48 68.24 68.53 68.53 68.02 67.73 67.71 67.26 66.49 66.40 66.40 66.45 66.63 66.47 66.39 65.91 62.30 66.85 68.51 68.10 67.83 69.33 68.70 69.77
70.08 70.01 70.63 71.26 71.46 71.74 71.51 71.68 71.48 71.13 70.81 70.41 70.09 69.75 69.15 68.40 67.90 67.65 68.05 68.09 67.95 67.52 67.02 66.78 66.82 66.44 66.28 66.10 66.06 65.97 66.03 66.08 65.94 65.70 61.11 61.72 66.05 68.03 67.04 66.82 67.83 69.31 69.62
69.38 69.97 70.79 70.44 70.96 71.35 71.33 71.30 71.14 71.16 70.93 70.79 70.33 69.06 68.07 67.64 67.55 67.75 67.47 66.93 66.60 66.43 66.43 66.69 66.56 66.16 65.36 64.86 64.61 64.51 64.45 64.39 64.48 62.15 59.69 63.81 64.56 66.16 66.98 65.15 66.44 68.63 69.19
68.19 68.80 68.96 69.47 70.30 71.03 71.04 70.92 70.79 70.58 70.05 70.01 69.26 68.40 67.68 67.58 67.37 66.64 66.24 65.80 65.37 65.40 65.27 65.03 64.86 64.58 64.11 63.96 63.77 63.56 63.28 63.29 62.95 57.48 58.94 64.96 64.39 65.17 65.53 63.76 67.24 68.43 68.09
64.66 66.77 68.15 68.26 69.48 70.00 69.94 69.69 69.84 69.67 69.61 69.05 68.80 68.45 67.54 66.85 66.45 65.97 65.54 64.86 64.40 63.77 63.41 63.29 63.28 63.23 63.09 63.38 63.41 63.57 63.41 62.95 58.82 56.10 60.52 62.42 63.59 67.81 67.81 67.67 68.13 67.71 68.15
64.21 65.03 66.48 68.37 68.71 68.85 68.87 68.72 68.33 68.28 68.21 68.07 68.29 68.01 67.09 66.78 66.29 65.64 65.09 64.41 63.59 62.68 62.21 61.90 61.92 62.19 62.55 62.97 62.94 62.88 62.38 62.67 59.55 55.20 57.49 62.87 65.83 67.88 67.27 66.69 67.35 67.18 67.36
62.84 63.27 64.05 65.22 66.56 66.74 66.45 66.32 66.52 67.17 67.39 67.39 67.22 66.79 66.36 66.03 66.10 66.01 65.29 64.29 63.47 62.40 61.86 61.81 62.43 62.43 62.29 62.48 62.29 61.63 61.10 61.88 56.80 55.12 62.48 62.21 66.84 67.03 66.36 66.50 66.27 66.43 66.82
60.52 62.30 61.80 62.88 63.34 62.93 63.60 65.42 65.59 65.79 65.88 65.93 66.01 65.56 65.05 64.97 65.23 65.38 64.94 64.64 64.44 63.18 62.62 62.79 62.57 62.35 62.11 61.84 61.59 61.29 61.06 60.71 55.36 54.95 59.85 60.86 66.26 66.07 65.99 65.59 65.40 65.62 65.92
59.25 59.69 60.53 61.16 61.66 62.06 62.54 64.22 65.35 65.73 65.41 65.03 64.99 64.82 63.68 62.68 62.25 62.44 63.67 63.34 64.45 63.62 63.17 63.38 63.18 62.52 61.79 61.30 61.19 61.06 61.84 56.18 55.25 53.26 57.05 61.71 64.80 65.13 64.86 64.94 64.67 64.63 65.02
58.21 59.29 60.05 60.34 60.45 61.08 63.57 62.93 62.40 63.60 63.19 62.89 62.93 62.38 61.82 61.16 61.40 62.13 62.76 63.93 64.14 63.54 63.39 63.35 63.34 63.11 62.03 57.74 56.70 58.78 55.55 55.16 53.63 51.65 54.63 61.21 62.96 62.97 62.64 62.47 63.15 63.75 64.30
59.68 60.98 60.62 61.14 61.38 60.71 61.02 61.26 60.90 61.70 61.68 61.79 62.31 61.92 61.26 61.20 61.10 61.13 59.44 59.96 58.91 60.72 59.28 59.29 59.06 57.97 57.70 56.74 56.55 55.12 54.60 53.50 51.14 51.25 54.09 60.79 61.00 61.14 60.76 60.73 61.26 61.66 62.45
60.03 60.70 60.26 60.24 60.65 59.69 59.11 59.81 60.77 61.07 61.41 61.70 61.55 59.87 58.30 56.85 56.05 55.93 55.20 54.78 55.10 54.47 55.93 54.82 55.06 54.36 54.12 54.75 55.11 55.08 54.68 52.30 51.18 51.31 51.89 58.65 60.10 60.07 59.81 59.65 59.99 60.30 61.35
60.57 61.08 60.76 60.63 59.74 59.14 58.76 59.39 59.09 59.36 60.58 60.11 59.42 59.16 58.09 57.06 55.64 55.75 56.07 55.07 55.10 54.52 53.77 53.63 53.40 53.64 53.55 53.99 54.16 53.73 53.56 53.13 52.14 51.73 50.79 55.97 58.70 59.19 59.58 59.91 59.96 60.02 60.66
61.75 61.90 62.32 63.14 62.90 61.67 59.32 59.15 58.72 59.29 58.01 59.05 57.88 57.76 58.31 57.89 56.10 56.26 54.68 54.94 54.68 54.78 55.02 53.73 53.32 52.99 53.09 53.48 53.76 54.16 53.98 53.22 52.09 51.35 50.96 51.14 57.11 58.61 59.30 59.71 59.98 60.04 60.16
62.66 63.51 63.01 62.58 61.27 61.45 59.71 58.40 57.99 57.84 57.31 57.38 56.20 56.79 57.27 56.43 55.06 54.69 54.05 52.85 53.38 53.64 52.92 52.54 52.32 52.36 51.90 52.73 51.76 52.56 52.58 52.85 52.48 51.86 51.00 50.42 51.12 56.99 57.67 59.64 60.41 60.05 59.79
63.40 62.88 63.04 63.31 59.74 59.75 60.40 56.81 56.40 54.82 54.02 54.49 55.22 55.62 56.05 55.91 54.68 52.78 51.66 51.06 51.79 51.04 50.61 50.15 50.03 49.46 48.57 48.72 48.85 49.61 50.60 51.44 51.82 51.85 51.41 50.44 50.37 51.55 54.20 57.78 59.39 60.45 60.40
60.56 61.88 60.52 59.43 57.95 59.92 57.54 55.32 55.43 54.64 53.63 53.31 53.14 53.50 54.43 54.37 53.11 50.48 49.75 49.82 49.57 48.86 48.25 48.56 47.59 47.25 46.58 47.15 47.95 48.38 48.58 49.20 50.19 52.44 51.41 51.40 50.27 50.94 50.58 53.52 57.37 58.16 59.12
57.92 59.83 59.10 58.23 58.46 58.03 54.19 52.53 52.94 52.19 51.83 52.25 51.84 51.75 51.62 51.20 50.95 49.29 49.45 48.07 48.41 47.53 47.25 46.56 45.85 46.34 45.79 44.99 47.45 47.79 46.63 48.57 49.13 49.15 50.21 51.86 50.93 50.15 49.82 50.32 50.78 54.04 56.71
53.25 53.04 53.25 52.76 51.79 51.74 51.33 50.58 50.29 49.31 49.72 51.05 51.27 50.93 49.76 49.34 49.41 47.84 46.44 46.31 46.59 45.86 45.15 45.66 45.72 44.32 44.28 44.77 44.07 45.33 45.04 46.51 46.21 46.37 47.10 47.87 48.67 50.21 50.46 50.66 49.48 50.93 52.56
50.26 51.22 50.94 51.56 50.80 50.50 50.04 49.57 49.87 49.21 49.74 49.38 49.62 48.54 48.45 48.00 47.28 47.30 45.18 44.79 44.58 44.26 43.69 43.42 43.21 42.63 43.25 44.10 42.62 42.35 40.28 43.29 42.77 43.40 44.35 45.01 44.83 46.56 45.58 47.74 49.24 50.42 50.06
48.99 49.82 50.26 50.32 50.46 50.28 50.36 49.56 49.11 48.78 48.27 47.77 46.61 45.63 46.63 47.08 46.15 45.11 44.58 43.96 43.64 43.62 43.41 43.05 43.39 42.99 42.32 42.45 42.31 41.64 38.58 36.77 37.73 40.47 41.09 42.18 41.08 42.67 43.09 44.53 45.50 48.76 51.21
48.72 49.35 49.90 50.32 50.58 50.80 50.16 49.06 47.88 46.40 45.54 45.87 44.68 43.44 43.55 44.80 44.65 44.53 44.78 44.37 43.76 44.00 42.82 43.16 44.22 44.06 43.83 41.14 42.82 42.12 41.25 40.72 34.99 33.46 37.51 38.75 39.07 39.74 40.22 40.80 43.17 46.51 48.96
49.82 49.23 49.12 50.44 50.56 50.16 49.39 48.44 47.53 46.25 45.74 44.82 43.32 42.68 42.94 43.43 43.82 44.12 44.10 43.48 42.99 42.21 41.38 40.87 40.19 39.64 40.04 38.69 37.98 37.70 39.31 37.76 36.33 34.25 31.62 33.41 36.64 37.70 38.63 38.56 40.76 43.64 47.12
48.71 48.31 48.25 48.52 49.15 49.45 48.75 47.17 45.97 44.37 43.22 41.69 41.24 40.59 40.91 41.51 41.35 41.61 42.02 42.55 41.58 40.92 40.22 39.73 39.16 38.50 38.14 38.19 37.81 36.86 36.23 35.36 34.23 34.60 33.30 33.09 33.31 34.80 36.68 37.42 39.67 41.12 43.64

GFSSE_sfc_wetblb_027.txt.gz
Wetbulb
68.56 70.12 71.25 72.05 72.30 72.25 72.17 71.99 72.01 71.94 71.57 70.93 70.46 70.00 69.64 69.42 69.37 69.42 69.71 70.56 70.45 69.84 69.65 69.36 68.94 68.65 68.43 68.11 67.78 67.53 67.26 67.10 67.13 67.41 67.99 68.30 68.63 67.82 69.65 70.60 70.21 69.76 69.72
69.26 69.97 70.86 71.63 71.99 72.24 72.17 71.94 71.75 71.67 71.10 70.41 70.04 69.48 69.16 68.95 69.10 69.00 68.93 68.67 68.55 68.73 68.62 68.36 68.09 67.87 67.43 66.91 66.65 66.63 66.57 66.45 66.28 66.44 66.78 66.45 66.97 67.43 68.04 68.84 69.46 68.96 69.88
69.24 69.84 70.82 71.06 71.90 72.24 72.13 71.74 71.85 71.09 70.68 70.43 69.81 69.28 68.80 68.68 68.44 68.01 68.20 68.13 67.85 67.20 66.82 66.60 66.63 66.47 66.45 66.37 66.24 66.44 66.27 66.09 65.89 66.14 65.06 61.29 65.70 67.70 66.46 67.70 69.07 69.08 69.25
69.14 69.60 70.31 71.03 71.53 71.75 71.61 71.63 71.37 70.68 70.29 70.03 69.59 69.06 68.53 67.86 67.69 67.73 67.50 66.97 66.40 66.29 66.21 66.24 66.18 65.93 65.34 64.89 64.60 64.45 64.51 64.38 64.52 64.29 60.37 61.24 64.28 67.95 66.27 66.11 66.99 68.35 68.94
68.63 69.89 70.23 70.11 70.55 71.28 71.20 71.08 70.82 70.68 70.45 69.89 69.21 68.32 67.70 67.60 67.47 66.77 66.39 66.02 65.77 65.50 65.50 65.36 64.96 64.56 64.09 63.77 63.70 63.48 63.28 63.22 62.85 59.27 57.36 61.26 64.26 66.90 66.68 65.09 65.87 67.46 68.57
68.93 69.36 68.86 69.35 70.13 70.84 71.05 70.81 70.64 70.49 70.02 69.41 68.83 67.65 67.60 67.14 66.46 65.90 65.53 65.04 64.79 64.45 64.35 63.81 63.86 63.34 63.18 63.15 63.07 62.77 62.54 62.44 60.90 55.01 58.85 62.55 63.71 65.08 64.75 64.12 66.21 68.07 68.03
67.33 68.23 68.61 68.52 69.60 70.34 70.33 70.05 69.88 69.62 69.17 68.77 68.58 68.07 67.03 66.43 65.91 65.34 64.74 64.04 63.76 63.53 62.74 62.27 62.32 62.27 62.29 62.94 62.87 62.51 62.26 62.39 58.26 53.99 55.91 61.67 63.11 66.45 67.57 67.48 67.98 67.63 67.97
66.54 65.99 67.37 68.92 69.07 69.24 69.50 69.27 68.80 68.55 68.00 68.18 68.18 67.81 66.70 66.53 66.06 65.07 64.32 63.59 62.96 62.11 61.87 61.99 62.41 62.07 62.29 62.73 62.51 62.29 61.52 62.29 57.10 54.14 58.25 61.79 64.90 67.25 67.68 67.43 67.52 67.21 67.38
64.61 63.62 64.54 65.53 67.02 67.50 67.12 66.92 66.70 66.87 67.00 66.99 66.92 67.01 66.55 66.12 65.83 65.52 64.95 63.87 62.79 62.09 62.25 62.76 62.80 62.44 62.64 62.63 62.40 61.94 61.42 61.53 54.39 54.38 57.58 60.76 64.87 65.92 66.14 66.03 66.44 66.68 66.73
61.53 62.31 61.97 62.61 63.30 62.72 63.17 65.72 65.77 66.12 65.98 66.15 66.10 65.65 64.75 64.90 65.18 65.44 64.95 64.67 64.27 63.22 63.11 63.23 62.98 62.75 62.59 62.28 62.20 61.74 61.48 59.41 54.29 53.03 56.36 59.28 64.50 66.05 66.25 65.53 65.48 65.71 66.03
59.73 60.17 60.41 61.21 61.43 61.17 61.31 63.64 65.14 65.70 65.36 65.23 64.89 64.68 63.18 61.39 61.27 61.52 63.29 63.62 64.27 63.73 63.37 63.73 63.65 63.29 62.57 61.83 61.20 61.05 60.96 54.75 54.01 51.88 52.20 59.37 63.27 64.98 65.02 64.27 64.57 64.92 65.23
57.32 58.64 59.55 59.82 60.03 60.65 63.05 62.28 61.89 63.16 62.63 62.14 62.19 61.66 61.29 60.56 60.31 61.46 62.05 63.62 64.28 64.02 63.86 63.69 63.47 62.90 61.58 57.33 56.44 58.48 54.82 54.15 53.23 51.02 50.64 58.88 62.30 63.60 63.02 62.82 62.80 62.79 63.58
57.35 58.52 59.77 59.35 59.28 59.71 60.48 60.89 60.34 61.08 61.03 61.12 61.47 61.12 60.70 61.08 60.00 60.49 59.20 58.41 57.87 59.26 56.97 57.78 56.23 56.19 55.08 55.11 55.03 54.65 54.52 53.90 52.00 50.96 51.94 58.16 61.73 62.08 61.89 61.56 61.39 61.20 62.25
57.41 58.82 59.53 59.65 59.81 59.16 59.34 59.86 59.39 60.18 61.18 60.76 61.15 60.94 58.64 56.56 55.41 55.61 54.45 54.15 54.04 53.73 53.24 52.93 52.88 52.95 52.74 53.18 53.34 52.90 52.97 52.62 52.03 51.32 51.56 57.37 59.96 61.38 61.56 61.53 61.22 61.13 61.85
58.00 59.44 59.25 59.29 60.05 59.63 58.15 58.61 59.65 60.29 60.74 60.92 60.67 58.92 57.67 55.47 54.91 54.85 54.39 54.21 53.63 53.81 53.55 52.49 52.32 52.33 52.16 52.56 52.45 52.34 52.52 52.62 52.23 51.64 50.88 55.92 57.43 59.09 61.40 61.90 61.84 61.48 61.39
59.44 59.49 59.52 59.54 59.12 58.43 57.77 57.77 58.22 58.58 59.68 59.39 58.74 57.86 57.50 56.45 54.85 54.65 53.78 53.18 52.53 52.53 51.78 51.02 50.79 50.30 49.68 50.39 50.30 50.69 50.78 51.30 51.69 51.67 51.15 50.67 55.51 57.46 59.11 60.46 61.49 61.73 61.53
60.39 60.95 60.16 60.68 60.58 58.91 57.56 57.09 57.27 57.64 57.41 57.43 56.21 56.33 56.34 55.73 54.09 53.05 51.47 50.48 50.45 49.98 48.94 49.07 48.43 48.14 47.60 48.61 47.83 48.77 49.26 49.88 50.37 50.54 50.66 50.39 50.83 54.18 56.50 58.38 59.45 61.14 61.67
60.79 60.31 61.00 62.16 59.33 59.38 57.98 55.21 54.79 53.41 53.29 53.35 54.39 54.24 53.60 52.94 51.50 49.39 48.68 48.23 48.44 47.98 47.80 47.56 46.77 46.48 45.97 45.40 44.96 45.01 46.17 47.40 48.20 49.39 49.90 49.86 49.36 50.89 52.57 55.27 57.29 59.06 60.81
60.98 60.57 60.02 59.19 59.48 58.18 55.45 54.76 52.14 51.71 51.84 51.43 51.44 50.66 50.12 49.65 49.47 47.59 46.81 46.70 46.98 46.44 46.14 45.88 45.59 45.15 44.24 44.41 44.98 45.71 45.16 45.12 47.08 49.81 48.86 49.37 49.60 49.71 49.67 51.84 53.74 54.97 57.49
57.09 57.21 57.45 58.63 58.56 55.63 52.68 51.72 51.37 51.17 50.45 50.48 48.90 47.87 47.74 47.38 47.03 46.21 46.16 46.57 46.46 45.08 44.49 44.19 43.09 44.22 43.30 42.53 46.44 46.16 44.70 45.59 45.71 44.60 44.59 47.46 47.44 47.13 46.39 47.09 48.00 49.96 52.69
52.42 52.45 53.48 53.30 52.05 53.03 51.75 51.37 49.30 48.93 47.86 47.77 47.08 46.87 46.47 47.49 47.27 45.38 45.15 44.47 44.22 43.58 42.86 43.41 42.88 42.39 42.24 43.43 42.56 42.99 43.24 43.64 42.30 40.87 42.53 42.37 43.98 44.79 43.81 44.24 44.71 46.42 49.14
51.02 52.18 50.38 50.40 50.17 49.71 49.49 49.25 48.83 47.70 47.23 46.68 45.28 45.20 46.49 45.89 44.71 45.15 43.66 43.68 43.54 43.70 43.33 42.86 42.17 41.96 42.40 41.78 39.30 39.35 36.19 38.53 39.66 41.25 39.82 41.20 39.40 42.20 41.58 42.49 42.68 43.79 46.97
48.56 48.47 49.22 49.00 49.37 49.66 49.66 48.85 48.26 48.24 47.26 44.99 43.44 42.87 43.83 44.43 44.23 44.35 43.98 43.31 42.81 42.60 41.48 41.42 41.19 40.39 39.30 40.88 40.15 37.71 33.88 31.95 36.29 38.00 39.36 38.19 37.75 38.20 39.06 40.33 40.47 42.88 45.80
47.21 47.93 48.71 49.21 48.96 49.32 48.74 47.84 46.98 45.48 44.66 44.14 42.39 41.70 42.25 43.29 43.59 43.67 43.19 43.01 41.97 41.85 40.37 40.42 41.18 39.04 38.63 36.86 38.24 40.32 38.20 36.69 34.76 31.40 35.28 36.82 36.43 37.24 37.22 38.21 38.41 41.78 44.56
47.98 47.00 47.86 48.63 48.92 48.61 48.17 47.64 46.52 44.98 44.50 43.36 42.22 41.69 41.85 41.97 42.65 42.21 42.11 42.15 40.79 40.62 39.56 39.11 38.22 38.07 38.40 38.05 36.22 36.27 35.39 35.54 34.47 34.93 30.93 32.79 36.61 35.86 36.24 36.40 37.24 39.92 42.55
47.71 46.23 46.19 47.55 47.58 47.71 47.10 46.69 45.48 43.55 42.09 41.01 40.41 40.10 39.73 40.03 40.02 39.89 41.12 41.21 40.42 39.82 39.33 38.71 38.10 37.48 36.76 36.36 36.12 35.48 35.70 35.90 34.69 35.24 33.21 32.69 32.88 34.08 34.38 35.37 35.71 38.37 39.74

GFSSE_sfc_wetblb_030.txt.gz
Wetbulb
68.44 69.50 71.63 72.31 72.49 72.51 72.15 71.88 71.66 71.47 71.54 70.93 70.37 69.96 69.96 69.76 69.76 69.73 69.76 70.33 69.43 68.94 68.82 68.43 68.14 67.90 67.41 67.24 67.11 66.95 67.02 66.81 66.66 67.05 67.56 67.84 68.40 68.87 69.98 70.45 70.41 69.30 70.43
69.09 69.74 70.95 71.96 72.35 72.32 72.10 71.72 71.40 71.14 71.01 70.17 69.66 69.46 69.24 69.17 69.00 68.57 68.48 68.50 68.09 67.60 67.11 66.94 66.78 66.93 66.81 66.67 66.60 66.52 66.33 65.98 66.17 66.62 66.37 66.82 68.07 67.69 68.25 68.72 69.43 69.36 69.88
68.85 69.77 70.44 71.28 71.85 71.94 71.74 71.55 71.52 70.80 70.48 69.83 69.46 68.97 68.90 68.40 67.89 68.05 67.79 67.15 66.65 66.62 66.52 66.42 66.22 65.65 64.98 64.64 64.37 64.35 64.32 64.55 64.59 65.16 65.19 61.05 63.96 68.27 67.22 68.02 69.09 68.77 69.18
68.91 69.45 70.02 71.13 71.54 71.84 71.56 71.34 70.73 70.42 70.09 69.53 69.09 68.75 68.03 67.82 67.82 67.31 66.66 66.54 66.32 65.80 65.61 65.19 64.77 64.43 63.91 63.68 63.37 63.07 63.07 63.31 62.98 62.02 58.65 61.12 62.92 68.16 67.88 66.57 67.26 68.09 68.70
68.76 69.52 70.11 70.42 70.74 71.40 71.11 70.99 70.76 70.54 70.15 69.56 68.91 67.94 67.68 67.41 66.81 66.47 66.10 65.98 65.46 64.95 64.57 64.30 63.74 63.41 62.91 62.74 62.65 62.72 62.80 62.93 61.64 57.41 58.25 60.61 64.49 65.75 67.82 66.13 64.39 66.95 68.00
68.92 69.18 68.64 69.36 70.25 70.68 70.98 70.75 70.43 70.33 69.94 69.12 68.36 67.58 67.34 66.69 66.23 65.63 65.33 64.88 64.40 64.09 63.76 63.37 63.04 62.56 62.35 63.26 63.11 62.31 62.51 62.65 59.79 54.47 56.24 62.31 64.11 66.58 66.65 67.44 67.60 67.23 66.83
67.71 68.73 68.15 68.46 69.71 70.43 70.39 70.19 70.12 69.57 69.00 68.63 68.37 67.92 66.61 66.18 65.58 64.90 64.59 64.00 63.63 62.87 63.01 62.98 62.82 62.60 63.10 63.34 63.00 62.47 62.11 62.70 56.26 54.35 58.43 61.10 62.74 67.55 68.09 68.43 67.86 67.83 67.65
67.03 67.76 67.29 69.02 69.47 69.62 69.94 69.69 68.99 68.49 68.08 68.05 68.24 67.72 66.78 66.31 65.77 64.80 64.11 63.74 63.01 62.75 62.75 62.91 63.03 62.76 63.56 63.64 63.36 62.80 62.19 61.99 55.75 54.22 58.10 60.97 64.62 66.79 66.74 67.63 67.67 67.42 67.59
65.89 64.69 65.19 66.41 67.70 68.26 67.72 67.47 67.16 67.17 67.01 67.12 67.17 66.76 66.38 65.74 65.35 65.07 64.57 64.15 63.78 63.87 64.10 64.38 64.09 63.85 63.97 63.42 62.93 62.32 61.97 60.86 53.94 53.44 56.82 59.15 64.41 65.96 66.16 66.31 66.52 66.44 66.61
61.99 62.49 62.42 63.55 63.96 63.16 64.04 66.09 65.91 65.88 65.94 65.82 66.17 65.48 64.77 64.55 64.77 64.66 64.10 63.94 64.53 64.53 64.61 64.78 64.45 64.02 63.81 63.39 62.40 61.97 61.42 58.35 53.93 52.81 52.03 54.98 62.77 63.80 64.95 65.69 65.13 65.14 65.22
60.26 60.41 60.58 60.92 60.89 60.74 61.38 64.02 65.59 66.00 65.52 65.19 64.89 64.64 62.86 60.74 60.53 61.01 63.08 63.98 64.49 64.88 64.66 64.19 64.05 63.32 62.66 60.18 60.32 60.92 59.25 54.50 53.72 52.68 51.27 56.62 61.19 62.89 64.14 64.36 64.94 64.38 64.33
57.78 59.04 59.23 59.35 59.47 60.02 62.07 61.85 61.61 62.97 62.42 62.11 61.85 61.50 60.80 59.93 59.81 61.50 61.68 62.67 62.71 61.81 60.97 61.19 60.52 59.94 57.24 54.73 54.69 56.52 54.35 54.34 53.74 52.77 51.53 57.25 60.17 62.12 62.55 63.35 64.27 63.67 63.62
56.87 58.35 59.13 59.16 59.10 59.07 59.93 60.18 59.96 60.52 60.69 60.79 60.92 60.48 60.24 60.26 59.40 59.65 58.53 56.78 55.17 56.73 54.12 54.51 53.89 53.32 52.97 52.88 53.06 52.69 52.86 53.08 52.79 52.56 52.89 57.59 58.86 61.06 62.36 62.57 63.64 63.35 63.17
55.82 57.23 58.60 58.52 58.44 58.44 58.62 59.41 59.00 59.56 60.06 59.95 60.86 61.13 59.08 57.59 55.65 55.04 53.70 53.70 53.47 53.31 52.73 52.34 51.89 52.21 51.49 51.88 51.57 51.04 51.10 51.12 51.96 52.07 52.41 57.10 58.37 60.05 61.34 61.99 62.37 63.68 63.35
55.70 56.80 58.05 58.55 58.61 58.67 58.25 58.66 58.42 59.05 60.14 60.04 60.31 59.65 57.52 54.83 54.02 54.19 53.29 52.90 52.12 51.92 50.75 50.30 49.75 49.29 49.01 49.56 49.37 49.41 49.39 50.21 50.78 51.07 51.08 55.13 56.85 58.10 59.80 61.17 61.79 61.97 63.05
56.89 57.24 58.24 58.34 59.34 58.83 57.55 57.57 57.77 58.64 58.85 59.16 58.38 56.83 56.73 55.20 54.13 52.94 50.80 50.06 49.33 48.85 48.41 48.34 47.64 47.54 46.96 47.92 47.34 47.79 48.27 48.35 48.49 49.05 50.46 50.55 54.17 55.48 56.72 58.57 59.66 60.83 61.59
57.11 58.58 58.67 59.42 59.17 57.55 56.06 56.09 56.93 56.82 56.98 56.52 54.79 54.42 54.07 52.91 50.11 48.97 47.90 47.28 47.30 47.28 46.89 46.99 46.41 46.85 45.71 46.60 45.63 46.11 46.80 46.92 47.61 48.43 49.24 49.80 50.27 52.40 53.74 55.38 56.37 57.70 58.33
57.82 59.52 60.63 60.60 58.81 57.85 56.75 56.66 54.87 54.11 53.89 52.54 51.46 50.10 49.59 49.00 47.89 46.65 45.77 45.38 45.92 45.59 45.42 45.05 44.54 44.69 43.94 43.54 42.87 43.52 44.25 45.78 46.98 48.22 48.02 48.49 49.05 48.54 48.77 51.18 51.89 53.17 55.04
59.27 59.28 58.87 59.52 57.69 56.73 54.54 53.74 51.85 51.48 50.04 48.31 47.83 47.01 46.91 47.24 46.89 45.29 44.82 44.96 45.30 44.69 43.91 43.84 43.54 43.70 42.67 43.00 44.90 45.69 44.74 44.63 45.92 45.85 44.96 46.63 47.34 46.43 45.64 47.20 48.00 48.64 50.58
57.87 59.16 59.44 57.02 55.79 54.74 53.70 52.91 50.70 48.68 47.23 46.81 45.99 45.87 46.00 47.19 47.79 47.06 46.32 44.29 44.60 44.00 44.05 43.74 42.95 43.60 42.47 42.47 44.64 44.23 43.00 44.08 43.32 41.49 42.19 44.03 44.54 44.53 44.02 43.77 43.27 44.26 47.44
54.17 56.66 57.39 54.76 54.74 54.68 52.40 49.49 47.24 46.17 45.31 44.60 44.53 45.95 47.10 46.78 45.59 44.26 43.84 43.82 43.65 42.62 42.51 42.89 42.30 41.50 41.78 41.61 40.34 39.78 41.11 42.82 40.13 40.01 41.12 40.28 41.23 42.39 41.97 41.79 42.08 41.86 44.30
53.25 54.54 54.32 53.56 53.35 50.74 49.03 47.72 47.06 45.20 44.35 43.67 43.60 43.85 43.86 44.31 44.48 44.38 43.05 42.27 41.78 40.70 40.45 40.95 40.20 39.61 40.26 40.09 37.99 37.10 34.08 36.42 38.45 39.76 39.35 39.89 38.35 39.57 40.20 40.73 40.66 40.95 43.68
50.68 48.64 48.88 48.58 48.34 48.57 48.39 48.17 46.36 45.86 45.14 42.76 41.70 41.47 42.63 43.82 43.75 43.25 42.78 41.52 40.97 40.95 39.97 39.37 38.93 37.89 37.07 38.49 38.12 36.95 32.65 30.98 34.70 37.17 38.10 37.77 37.58 37.75 38.39 39.22 39.65 40.13 43.09
45.86 46.84 47.41 48.07 47.89 48.18 47.59 46.75 45.49 44.35 43.69 42.59 41.25 40.94 41.27 42.61 42.60 42.49 42.23 41.48 40.72 40.46 39.20 39.32 40.13 38.15 37.43 35.41 37.00 39.46 37.29 36.64 32.73 31.45 37.41 37.95 37.20 37.75 37.14 37.92 38.06 39.03 41.82
46.59 46.88 46.62 47.90 48.11 47.77 47.29 46.46 45.22 43.45 42.43 41.78 41.01 40.35 40.40 40.96 41.80 41.18 41.27 41.05 40.26 40.04 39.23 38.64 37.88 37.44 37.28 36.28 35.47 35.17 34.97 34.73 35.21 34.16 31.04 33.39 37.17 37.48 37.43 37.20 37.24 37.99 40.38
46.10 47.17 48.00 48.35 47.33 47.28 46.75 46.15 44.85 42.63 41.16 40.42 40.37 39.58 39.36 39.74 39.91 39.63 39.89 40.39 39.73 39.19 38.54 38.13 37.76 36.80 35.97 35.39 35.29 34.64 34.15 34.32 33.56 34.07 31.80 31.31 32.01 34.06 35.49 36.26 36.57 37.28 38.44

GFSSE_sfc_wetblb_036.txt.gz
Wetbulb
70.32 71.97 71.54 71.95 72.49 72.35 71.85 71.68 71.52 71.47 71.67 71.26 70.79 70.84 70.73 70.47 70.03 69.84 69.50 69.33 68.63 67.69 67.76 67.46 66.65 66.04 65.71 65.43 65.27 65.07 65.44 65.62 65.80 66.69 67.74 68.16 69.89 69.24 68.96 69.28 69.84 69.55 69.97
71.32 71.87 70.75 71.66 72.00 72.08 71.94 71.68 71.62 71.48 71.39 70.45 70.37 70.09 69.76 69.21 69.16 68.60 68.62 68.59 67.46 66.72 65.85 65.21 64.84 64.29 63.97 63.90 63.98 63.99 64.45 64.57 64.80 65.32 66.47 67.64 69.65 69.74 68.32 68.48 69.67 69.39 69.72
71.34 71.12 71.37 71.06 71.75 71.99 71.57 71.65 71.63 70.86 70.30 70.11 69.81 69.32 68.79 68.67 67.80 67.38 67.65 67.91 66.47 65.93 65.27 64.56 63.83 63.53 64.02 64.11 64.05 64.38 64.57 64.38 64.03 64.55 66.60 68.40 69.33 69.29 68.04 68.04 67.94 68.40 68.35
70.56 71.30 71.40 70.55 71.13 71.74 71.67 71.68 71.32 70.47 69.96 69.59 69.11 68.53 68.21 67.48 67.23 66.89 66.75 67.43 66.72 65.11 64.72 64.04 63.33 63.78 63.88 64.00 63.97 64.19 64.33 63.35 63.56 65.82 67.92 68.51 68.13 68.53 68.73 67.97 68.76 67.98 67.94
70.58 71.60 71.93 70.42 70.86 71.44 71.50 71.26 70.86 70.48 70.28 69.81 69.13 68.01 67.35 66.82 66.55 66.32 66.15 66.49 66.27 65.27 65.02 64.23 64.02 63.95 64.06 64.14 63.96 63.81 63.56 63.30 64.57 66.53 67.50 68.54 68.88 68.14 68.43 67.43 67.76 67.69 67.38
70.92 71.72 70.27 69.64 70.66 71.20 71.27 71.13 70.42 70.20 69.76 69.08 68.84 67.92 66.81 66.01 65.56 65.43 65.70 66.35 65.48 65.27 65.07 64.87 64.53 64.34 64.46 64.41 64.09 63.55 63.07 62.98 63.84 63.53 64.47 66.38 67.51 67.17 67.52 67.19 67.39 66.72 67.44
70.21 71.50 71.71 68.08 70.12 70.91 70.84 70.23 69.85 69.28 69.04 68.88 68.56 67.90 66.85 65.44 65.12 64.91 65.00 65.00 64.96 64.81 64.74 64.50 64.54 64.64 64.46 64.16 63.62 63.43 62.49 62.86 61.38 61.33 62.05 63.33 62.92 64.62 65.69 66.61 66.59 65.93 65.58
69.85 70.41 70.62 69.45 70.04 70.14 70.24 69.97 69.18 68.53 68.52 68.54 68.17 67.87 66.56 65.96 65.71 64.79 64.62 64.78 64.78 64.85 64.77 64.69 64.66 64.59 64.00 63.35 62.93 62.48 62.07 62.26 62.34 61.42 60.54 60.90 63.23 63.61 63.91 65.02 67.26 66.68 65.31
69.87 70.25 70.46 70.81 70.24 69.04 68.59 68.36 67.52 67.64 67.75 67.64 67.51 67.19 66.41 65.98 65.84 65.45 65.41 65.10 65.07 65.11 64.95 64.49 64.10 63.42 62.41 62.12 61.78 61.29 60.75 61.03 63.07 62.47 61.61 61.86 62.24 63.29 64.00 63.85 65.22 65.89 65.45
69.81 70.17 69.40 69.40 69.31 69.13 69.09 67.15 66.57 66.53 66.64 66.64 66.67 65.63 65.12 65.13 65.35 64.67 65.44 65.09 64.81 64.27 64.06 63.28 61.95 61.32 61.21 60.93 60.57 60.49 60.71 61.97 62.06 61.86 61.95 61.87 61.76 63.65 64.00 63.73 64.03 64.66 65.10
68.28 68.08 68.53 68.03 68.08 67.65 66.99 67.10 65.87 65.97 65.99 65.70 65.60 64.80 64.33 66.58 66.34 65.82 63.91 63.92 62.71 62.46 62.18 61.29 60.44 60.48 61.21 60.50 59.44 59.18 60.69 60.82 60.97 60.49 60.65 59.46 60.04 62.10 63.18 63.50 63.69 64.95 65.24
65.31 65.98 66.88 66.94 66.59 66.27 64.96 66.13 66.20 65.37 66.71 67.50 67.13 67.11 67.93 67.91 67.81 65.90 63.57 61.84 61.17 61.10 60.64 60.03 60.22 61.14 61.59 60.29 60.21 60.74 59.33 59.38 59.27 58.85 59.00 57.35 58.55 60.63 61.49 61.91 62.65 63.29 64.66
64.38 64.37 65.10 65.81 66.02 65.04 64.50 65.72 65.86 67.02 67.50 67.95 67.74 68.25 68.08 68.68 68.82 68.47 65.77 65.16 65.25 62.17 63.15 62.63 61.52 60.04 59.81 59.40 58.82 58.78 58.46 58.62 57.96 57.43 58.52 56.42 57.14 59.05 60.47 61.03 61.50 62.15 62.46
63.32 63.55 64.16 64.81 65.13 65.39 65.39 65.82 66.40 66.81 67.52 68.45 68.53 68.58 68.87 67.78 66.19 66.09 64.63 64.14 63.38 62.13 61.34 60.55 60.19 59.51 59.20 58.61 58.10 57.68 57.59 57.29 57.05 57.00 58.10 55.60 56.07 57.69 59.05 60.08 60.41 60.43 60.74
62.17 63.57 64.20 64.59 64.48 64.89 65.35 65.99 67.14 68.31 67.86 67.79 68.17 66.78 66.74 66.33 64.72 63.56 62.55 62.16 61.10 61.05 59.87 59.12 58.52 58.07 57.73 57.35 57.12 56.58 56.06 56.29 56.57 56.46 56.52 54.86 53.81 54.37 55.67 57.02 57.16 57.58 57.75
63.06 63.79 65.20 65.04 65.38 65.38 65.67 66.06 66.32 66.60 67.11 66.59 65.26 64.05 63.22 65.42 63.67 61.99 60.63 59.46 58.75 58.29 57.80 57.43 56.74 56.44 56.18 55.94 55.23 55.45 55.14 55.20 54.78 55.28 54.88 56.52 52.27 51.12 51.71 53.25 53.78 54.41 54.97
63.48 64.35 64.87 65.51 66.19 65.06 64.02 64.02 64.13 63.52 62.48 62.46 62.69 61.87 61.80 62.05 61.11 60.08 58.39 56.90 56.53 57.53 57.28 56.57 55.57 54.62 54.15 53.53 52.92 52.57 53.36 53.00 52.87 54.09 53.72 53.97 54.15 51.86 49.74 50.34 50.76 51.38 51.90
64.09 64.51 64.66 63.45 63.04 62.43 61.76 61.46 61.05 57.92 58.41 59.53 60.14 59.28 58.34 57.55 57.34 56.93 56.41 56.00 56.20 55.68 54.12 52.89 52.19 51.47 51.13 51.29 50.46 50.30 51.72 51.15 50.80 53.47 52.89 52.33 52.55 51.89 52.88 49.79 48.86 49.44 49.38
64.07 64.94 63.72 63.94 62.62 62.28 61.97 56.60 56.23 55.63 55.22 56.13 56.54 56.36 55.85 55.69 56.15 56.08 55.71 54.75 54.38 53.13 52.38 51.25 50.60 50.49 49.85 49.80 48.70 49.06 50.04 49.54 49.95 51.21 51.27 51.08 51.12 50.94 50.45 50.55 48.45 48.25 47.55
65.25 64.71 63.48 63.97 62.32 58.53 56.63 57.87 54.18 53.91 53.69 54.17 54.15 54.06 54.93 55.50 55.98 55.79 53.98 53.04 52.69 51.48 50.67 50.28 49.74 49.88 49.16 49.00 47.15 47.61 48.81 49.61 50.85 50.86 49.88 49.14 49.31 49.45 49.34 48.88 48.95 48.68 48.11
63.89 63.02 63.55 61.84 57.93 58.23 56.87 55.77 54.46 52.50 53.19 55.00 55.82 55.56 55.91 55.77 54.34 53.54 52.80 52.58 51.69 50.52 49.70 49.69 48.61 48.20 47.56 48.94 46.70 46.14 46.84 49.23 49.91 48.88 48.69 47.99 48.16 48.51 48.10 48.02 48.16 47.96 48.06
62.82 63.84 62.58 62.13 61.36 60.47 60.30 58.84 58.61 57.37 56.67 56.39 55.88 55.57 55.57 54.12 53.33 52.13 51.82 51.47 51.19 49.80 49.67 49.55 48.97 47.38 47.09 47.73 44.61 43.65 41.19 43.79 46.63 47.11 46.60 47.11 47.17 47.23 47.12 47.40 47.19 46.94 47.33
61.73 62.67 62.90 63.72 63.12 61.79 59.86 58.58 57.74 56.64 55.63 54.94 54.71 54.95 54.65 53.88 53.39 52.88 52.12 51.31 50.90 50.63 49.02 49.27 48.83 47.41 44.90 46.37 46.26 42.95 39.41 37.95 41.12 44.41 44.45 45.00 45.53 45.52 45.56 45.59 45.83 46.01 46.61
62.92 63.85 63.63 62.65 61.34 59.84 59.22 57.86 56.84 56.85 55.17 56.65 55.56 55.61 54.49 53.26 53.20 51.69 50.96 51.28 51.03 50.62 49.80 49.26 48.08 47.80 46.18 43.65 45.10 44.74 44.50 42.74 37.83 36.57 41.63 42.21 43.28 42.83 43.77 43.96 44.17 44.53 45.05
61.42 61.44 60.97 59.98 58.99 58.45 57.89 58.36 57.94 56.42 56.45 55.60 55.32 53.21 53.88 54.18 52.58 51.68 51.36 51.20 50.87 50.30 50.10 49.33 48.12 47.11 46.40 43.37 43.19 42.36 40.85 40.04 39.40 35.58 33.62 38.04 41.35 42.06 42.42 42.72 42.98 43.30 43.96
58.21 58.27 57.99 57.50 57.19 57.71 57.78 57.48 56.99 55.53 54.35 53.67 53.25 51.99 51.29 51.53 51.63 51.48 51.09 51.12 50.84 50.33 49.74 49.10 48.26 46.07 45.59 44.80 42.72 41.19 39.05 37.33 36.87 35.81 34.20 36.40 37.34 39.39 41.15 41.55 41.77 42.29 42.37

GFSSE_sfc_wetblb_039.txt.gz
Wetbulb
69.80 71.28 71.58 72.48 72.35 72.05 71.87 71.75 71.54 71.64 71.65 71.30 71.03 70.93 70.59 70.13 69.84 69.69 69.32 69.17 68.20 67.20 66.20 65.52 64.89 64.44 64.28 64.40 64.62 65.05 65.36 65.48 65.73 66.75 67.18 69.86 70.29 69.35 68.44 68.98 69.13 68.38 70.06
70.81 71.70 71.04 71.92 72.20 71.79 71.85 71.72 71.66 71.63 71.32 70.88 70.56 69.97 69.68 69.59 69.13 68.98 68.81 68.41 66.71 65.81 65.34 64.58 64.21 64.82 65.10 65.07 65.19 65.31 65.29 64.97 65.18 66.27 67.03 69.48 69.51 68.87 68.67 67.94 69.22 68.34 69.13
70.96 71.60 71.33 71.33 71.69 71.85 71.70 71.65 71.73 70.95 70.52 70.20 69.56 69.03 68.81 67.91 67.61 67.51 68.00 67.88 66.47 65.29 64.66 64.21 64.94 65.11 64.91 64.68 64.64 64.93 64.55 64.81 65.49 66.41 68.57 67.64 68.45 69.21 68.41 69.33 69.23 68.59 68.42
70.78 71.28 71.48 70.61 71.39 71.75 71.88 71.41 71.00 70.47 70.10 69.47 68.67 68.52 67.59 67.20 67.00 66.75 66.44 67.23 66.37 65.32 64.34 64.79 64.91 64.69 64.47 64.23 64.21 64.07 63.92 65.02 65.79 66.53 67.01 67.47 66.97 68.66 67.91 68.23 68.31 66.94 67.12
70.69 70.94 71.26 70.48 70.84 71.59 71.58 71.16 70.91 70.65 70.16 69.22 69.03 67.54 66.89 66.43 66.19 65.81 66.26 67.21 66.51 65.20 65.20 65.17 65.02 64.74 64.81 64.48 64.25 63.81 64.01 65.08 65.25 65.08 65.95 66.37 66.57 67.24 67.80 67.21 67.01 66.65 66.42
70.26 70.74 69.37 69.33 70.50 71.12 71.35 70.89 70.02 69.82 69.40 69.13 68.68 67.64 66.20 65.76 65.49 65.49 66.63 66.99 65.77 65.39 65.21 64.94 64.90 64.86 64.74 64.50 64.30 63.86 64.05 64.08 63.53 61.40 62.85 64.50 63.11 64.62 66.01 67.09 66.67 65.84 66.19
69.62 69.94 70.68 68.37 69.99 70.60 70.89 70.11 69.80 69.28 69.31 68.90 68.33 67.60 66.38 65.16 65.28 65.17 65.71 65.62 65.14 64.93 64.90 64.95 64.82 64.44 63.98 63.70 63.28 63.17 63.29 63.25 63.02 61.17 60.28 62.44 62.69 64.69 64.47 65.16 66.29 65.83 65.02
68.13 69.62 70.15 69.72 69.77 70.23 70.33 69.80 69.08 68.91 69.02 68.46 68.05 67.34 66.10 65.55 65.52 65.09 65.16 65.09 65.21 64.91 64.96 64.60 64.36 63.41 63.12 62.89 62.49 62.01 62.04 62.77 63.10 62.27 61.99 62.95 63.35 64.34 64.57 64.43 65.86 66.12 65.00
69.32 69.44 69.60 70.30 70.00 69.20 68.68 67.98 67.57 67.83 67.91 67.84 67.74 66.99 66.47 66.28 66.34 66.17 65.66 65.28 65.24 65.06 64.71 64.00 62.93 62.47 61.96 61.50 61.36 61.67 61.73 62.86 62.84 61.54 61.28 62.29 62.55 63.80 64.68 64.50 64.46 65.17 65.33
69.47 69.19 68.94 68.81 68.20 68.41 68.34 66.91 66.92 67.01 66.94 66.88 66.33 65.74 65.30 65.07 65.06 65.67 65.80 64.83 64.22 64.02 63.51 62.11 61.36 61.16 61.39 60.76 60.31 60.60 61.10 61.86 61.30 60.80 61.20 60.13 60.91 62.41 63.32 63.63 64.07 64.07 64.35
67.91 66.98 67.28 67.23 67.81 67.40 66.63 66.62 66.22 66.71 66.42 65.95 65.28 65.12 64.09 65.24 65.48 65.69 63.67 63.13 62.68 62.42 61.72 60.78 60.94 60.93 61.07 60.78 59.97 59.70 60.39 60.31 60.11 59.45 59.56 59.04 59.18 60.66 62.03 62.12 62.46 63.17 63.62
64.79 65.46 66.46 66.88 66.60 66.41 64.29 65.21 65.25 65.09 65.54 66.61 66.37 65.96 67.03 66.76 66.87 65.64 63.27 62.60 61.91 61.43 61.36 60.67 61.02 60.83 62.29 61.23 60.74 61.90 60.04 60.01 59.74 59.19 59.12 58.41 58.19 59.05 60.30 61.21 61.75 62.07 62.50
65.15 65.46 65.90 66.14 66.14 65.06 65.18 64.97 65.33 66.08 67.00 67.20 67.55 67.61 68.11 67.34 67.02 66.44 65.72 64.09 65.06 61.97 63.57 62.24 62.38 61.36 61.12 60.53 59.96 59.96 59.43 59.37 58.81 58.78 59.14 57.37 57.41 58.08 59.16 60.16 60.13 60.34 60.53
63.92 63.85 64.51 65.23 65.18 65.41 64.89 65.22 65.97 66.44 66.86 67.23 67.69 67.96 67.67 66.41 66.70 65.79 64.62 64.76 63.74 62.93 62.22 61.89 61.21 61.10 60.50 60.04 59.43 58.83 58.42 57.94 57.54 57.51 58.17 56.44 55.95 56.14 56.94 57.97 57.80 57.86 57.75
62.69 63.00 63.35 64.18 64.75 65.79 66.03 66.82 67.02 67.27 68.59 68.26 68.00 67.43 66.94 65.55 65.58 64.93 64.45 63.16 62.19 61.54 60.71 60.11 59.69 58.91 58.69 58.64 58.11 57.33 56.69 56.47 56.54 55.71 55.93 55.24 54.37 53.41 53.53 55.24 55.90 55.74 55.65
62.78 63.80 64.18 64.26 65.43 65.82 66.77 66.97 67.91 68.62 67.74 66.53 65.93 64.88 64.83 64.83 65.44 64.59 63.28 61.27 59.98 59.10 58.66 57.93 57.18 56.26 55.89 56.21 55.48 55.05 53.99 54.36 54.89 54.48 54.41 54.85 53.69 52.60 51.05 51.85 52.67 53.54 53.80
63.48 64.98 65.31 66.03 66.56 66.04 65.66 65.14 64.00 63.58 63.99 64.00 63.39 62.80 63.12 63.26 62.46 61.61 58.59 57.07 56.99 57.66 57.93 56.32 55.03 54.72 53.95 53.58 53.43 52.93 52.03 52.39 53.04 51.92 52.87 53.79 53.60 52.79 51.07 50.47 50.39 50.91 51.29
65.23 64.95 65.86 65.57 65.15 63.90 62.97 61.98 60.87 61.29 61.28 60.47 60.93 61.37 60.61 59.69 59.07 58.94 56.97 56.05 56.33 56.06 54.96 53.61 52.73 51.81 51.71 51.43 51.46 50.88 50.18 51.03 51.73 51.31 51.41 52.73 52.18 51.70 53.27 51.08 49.41 49.63 49.69
65.55 65.34 64.36 64.60 63.28 61.97 59.89 58.19 57.16 57.28 57.99 58.44 58.83 57.21 56.74 56.70 57.11 57.22 56.31 55.06 55.08 54.01 53.27 52.26 51.18 50.83 49.66 49.50 49.43 49.74 49.95 50.09 50.30 50.50 51.93 51.93 51.35 50.71 49.92 51.55 51.64 50.29 47.91
65.80 65.16 64.80 64.15 63.62 62.08 60.85 60.11 56.46 55.34 55.66 57.15 55.87 55.15 56.21 56.83 57.06 56.90 54.99 54.63 54.02 52.93 51.95 51.20 50.47 50.08 49.45 48.82 48.15 48.19 49.92 49.06 49.83 51.68 51.13 50.14 49.48 49.71 49.60 49.11 48.73 49.05 50.37
66.14 64.40 63.53 62.69 62.66 61.75 59.11 58.59 55.74 55.10 54.51 55.33 55.79 57.10 57.54 57.52 55.76 55.04 54.57 53.58 52.92 51.57 50.93 51.34 50.30 49.43 48.59 49.27 46.89 46.66 46.92 49.79 49.74 49.00 49.51 48.68 48.52 48.12 48.76 48.33 47.88 47.38 47.30
64.79 64.04 63.62 63.05 62.26 63.58 60.32 61.22 60.62 58.31 57.53 58.26 57.42 57.85 57.99 55.95 55.09 54.06 53.45 52.63 52.33 51.09 51.07 50.78 50.09 48.30 48.18 48.42 44.62 44.34 41.05 43.30 46.61 47.75 47.29 46.97 47.13 47.24 46.67 46.98 46.45 46.45 46.59
63.13 62.93 64.17 63.44 63.92 63.33 63.15 61.27 60.19 59.61 58.43 57.07 56.75 56.55 56.27 55.07 54.60 53.85 52.87 52.32 51.86 51.42 49.96 50.34 49.84 48.36 45.43 46.88 47.21 43.55 39.54 37.86 41.12 44.35 45.18 45.79 46.24 45.12 45.04 45.11 45.10 45.12 45.46
63.57 65.18 64.27 63.71 63.32 62.34 60.99 59.47 58.25 56.69 55.72 57.08 57.11 57.33 56.32 55.17 54.11 53.02 52.22 52.18 52.00 51.37 50.48 50.01 49.71 48.83 47.51 44.41 45.90 45.35 45.27 43.10 37.60 35.88 41.86 42.80 43.65 43.81 44.88 44.26 43.74 44.06 44.19
64.02 63.53 63.50 63.06 61.53 60.43 60.00 59.41 58.46 57.80 58.26 58.11 57.68 55.77 55.13 54.70 53.89 52.82 52.59 52.11 51.51 50.78 50.53 50.75 50.28 48.55 47.77 45.58 44.14 43.01 42.91 41.98 41.69 37.88 34.93 37.83 41.24 43.10 43.86 43.34 43.51 43.13 43.43
62.71 62.64 61.77 60.71 59.60 59.74 59.20 59.48 58.67 57.14 55.54 54.41 54.70 53.31 52.64 52.14 51.92 52.26 51.87 51.96 51.30 49.98 49.90 49.73 49.58 47.89 47.08 46.36 45.04 43.54 41.90 39.57 38.27 37.75 36.22 36.62 37.02 39.39 41.79 42.63 43.02 43.02 43.44

GFSSE_sfc_wetblb_042.txt.gz
Wetbulb
68.10 70.02 71.96 72.49 72.40 72.29 72.02 71.80 71.57 71.56 71.83 71.91 71.59 71.18 70.77 69.94 69.71 69.61 69.30 68.27 67.46 66.07 65.44 65.28 65.76 65.88 65.88 66.11 66.09 66.05 66.03 66.07 66.40 67.67 70.37 69.84 69.29 69.26 68.67 69.53 68.95 67.63 70.34
68.93 70.16 71.37 71.91 71.87 71.86 71.74 71.67 71.46 71.40 71.61 70.68 70.55 70.51 69.84 69.44 69.29 68.79 68.37 67.90 67.15 65.46 65.62 66.09 65.96 65.82 65.55 65.53 65.42 65.40 65.76 66.85 67.36 68.06 68.93 69.00 69.33 68.98 68.81 69.19 69.11 68.54 69.68
69.15 70.13 70.76 71.15 71.57 71.68 71.84 71.76 71.65 71.40 70.51 69.76 69.49 69.51 69.03 69.00 68.57 68.32 67.96 67.37 66.87 65.27 66.02 65.90 65.52 65.35 65.12 64.75 64.69 64.69 65.55 66.32 66.39 67.04 68.59 66.19 66.71 68.34 68.37 68.95 68.15 68.13 67.59
69.76 69.73 69.95 70.85 71.25 71.71 71.58 71.35 71.00 70.63 69.76 69.75 68.98 68.69 68.62 67.88 67.17 66.54 67.62 67.45 66.65 65.80 65.90 65.70 65.60 65.28 64.92 64.73 64.53 64.82 65.58 65.81 65.81 66.31 66.15 65.70 65.40 68.09 67.71 67.68 67.34 65.71 66.84
69.10 70.18 70.04 70.13 70.62 71.38 71.22 70.92 70.70 70.10 69.67 69.13 68.37 67.88 66.77 66.26 66.22 66.55 67.54 66.97 67.08 65.92 65.82 65.58 65.27 64.97 64.61 64.73 64.87 65.03 65.11 64.91 64.92 64.85 60.62 60.78 60.90 65.17 67.16 67.26 66.03 65.62 66.07
69.78 69.70 68.92 69.13 70.04 70.74 70.76 70.89 70.33 69.61 69.14 68.50 67.84 67.64 66.33 65.93 66.43 66.53 67.31 67.01 65.97 65.77 65.55 65.30 64.88 64.58 64.98 64.85 64.57 64.31 64.07 63.99 64.50 58.33 59.54 62.06 61.84 65.47 65.10 65.97 67.10 66.65 66.15
68.23 68.51 68.67 68.26 69.50 70.40 70.48 70.19 69.68 69.26 68.56 68.19 67.49 66.94 66.77 65.91 65.81 65.87 66.54 66.43 65.95 65.43 65.23 64.92 64.32 63.94 64.27 64.09 63.84 63.55 63.54 63.32 60.98 58.07 59.70 60.13 61.56 65.11 65.05 64.79 65.95 66.32 65.70
66.80 67.63 68.35 69.39 69.49 69.79 69.94 69.38 68.89 68.72 68.32 67.71 67.26 66.72 66.73 66.20 66.38 66.26 66.46 66.31 65.82 65.42 64.97 64.58 63.65 63.26 63.42 62.88 62.47 62.26 62.15 62.62 60.09 57.77 60.01 60.09 64.01 64.66 64.92 64.74 65.87 65.72 65.76
66.83 67.12 68.27 68.66 69.25 68.40 67.72 67.45 67.67 67.71 67.57 67.54 66.92 66.60 66.45 66.45 66.35 66.54 66.41 65.95 65.45 65.28 64.42 63.42 62.70 62.82 62.05 61.23 61.37 61.30 61.48 61.85 58.35 57.33 59.42 58.25 63.23 62.84 63.51 63.62 64.11 64.58 65.38
66.63 66.43 67.13 68.05 68.16 67.15 65.98 66.43 66.65 66.51 66.55 66.34 65.92 65.61 65.11 65.11 65.62 66.29 65.46 65.00 64.64 64.15 63.06 61.93 61.98 61.89 61.96 60.41 60.46 60.14 60.73 61.54 56.78 55.70 56.02 57.09 61.44 61.28 61.72 62.73 62.97 63.19 63.79
65.27 66.42 66.71 66.63 66.77 65.99 65.66 65.97 66.34 66.59 66.17 65.29 65.10 64.97 63.74 63.05 63.65 64.66 63.72 63.88 63.56 62.97 62.43 61.53 61.37 60.62 61.58 61.00 60.66 59.81 61.39 56.67 56.52 55.88 55.22 60.63 60.65 60.85 60.70 61.23 62.18 62.43 62.77
62.97 64.18 65.59 65.92 65.64 64.26 63.45 64.06 64.03 64.47 63.97 63.82 63.87 63.60 63.94 65.37 64.13 63.70 62.28 62.73 62.92 62.39 61.67 61.14 60.71 61.27 61.71 58.07 57.37 59.83 56.48 56.72 55.98 55.67 54.99 59.94 59.35 59.87 59.68 60.13 59.93 60.08 60.03
63.49 64.11 64.46 65.21 64.56 62.93 62.78 63.31 63.49 63.99 64.51 65.91 65.95 65.70 66.24 66.00 64.60 63.67 61.35 60.33 61.11 61.86 61.27 60.09 59.83 58.77 58.65 57.62 56.82 56.50 56.15 55.02 54.09 54.22 55.95 58.78 57.73 58.18 58.12 58.17 58.16 58.01 57.67
62.49 63.26 64.01 64.01 64.72 64.37 63.61 63.72 64.66 65.27 65.95 65.78 66.08 65.93 65.44 64.74 64.20 63.10 62.17 62.22 61.02 60.65 59.06 58.59 57.81 57.47 56.72 56.99 56.71 55.64 55.13 53.77 52.89 52.74 54.05 57.26 56.53 56.17 56.09 56.27 56.40 56.37 56.19
61.39 61.92 62.55 63.60 64.53 64.59 65.23 65.68 65.21 64.81 65.25 65.25 66.30 65.18 64.50 64.34 63.72 62.98 61.73 60.83 59.15 58.08 56.70 55.80 55.16 54.65 54.23 53.84 54.52 54.01 51.77 50.95 51.67 51.75 50.39 55.90 55.32 54.10 54.12 54.36 54.46 54.31 54.22
61.26 61.48 62.17 63.01 64.82 65.57 65.41 65.37 64.67 65.18 65.43 64.87 64.12 64.04 64.18 63.85 63.45 62.11 59.00 56.70 56.12 56.02 55.19 54.57 52.89 52.67 51.55 51.64 50.81 51.78 50.40 49.52 49.14 50.54 48.90 50.81 54.96 53.35 52.50 52.68 52.79 52.75 52.70
61.31 61.63 62.41 63.78 65.83 64.23 63.34 62.34 61.76 61.85 62.00 61.81 61.75 62.26 61.96 62.07 59.53 57.22 56.50 55.75 55.40 54.99 53.69 52.44 51.32 50.55 49.71 49.99 48.65 49.29 48.50 46.98 47.97 49.10 48.12 47.72 51.65 53.68 52.64 50.71 51.09 51.22 51.70
62.66 62.44 63.82 64.93 64.25 63.01 61.83 60.92 60.24 60.35 59.84 59.53 59.80 60.01 59.47 58.41 57.69 56.61 55.21 54.07 53.94 53.70 51.17 50.29 49.41 47.39 47.10 46.79 45.62 46.67 46.65 47.15 47.07 47.53 47.56 48.73 48.64 48.03 52.03 53.08 51.91 50.67 50.87
63.35 64.08 63.97 63.16 61.22 60.46 59.87 59.39 58.35 58.93 57.77 58.28 58.61 56.25 56.12 56.15 56.61 55.27 54.37 52.45 52.36 51.77 50.70 48.96 47.54 46.54 45.20 45.11 45.45 44.73 45.38 46.13 45.90 47.88 48.08 48.55 47.58 46.35 45.98 50.98 52.20 52.00 49.60
64.54 63.92 63.27 61.72 60.97 60.21 60.10 59.34 58.80 57.70 57.04 56.54 54.94 54.60 55.31 55.72 56.14 54.99 52.90 52.19 51.46 49.73 48.49 47.93 47.09 46.92 46.09 45.32 46.70 45.48 44.71 44.46 45.44 45.99 47.14 48.43 45.48 46.02 44.77 45.24 45.02 45.25 50.04
64.11 62.81 62.36 61.31 60.98 60.04 58.93 57.05 56.42 55.29 54.53 54.81 54.29 55.03 55.84 55.92 54.68 52.49 52.22 50.99 50.04 48.83 48.08 47.99 46.65 45.51 45.00 45.35 42.81 42.34 42.52 43.75 43.00 43.77 43.63 43.34 43.87 44.37 43.76 44.04 42.79 42.07 43.08
63.52 63.57 62.12 61.51 61.13 60.79 60.20 58.93 58.20 56.73 54.86 54.90 55.20 55.89 56.65 55.23 53.42 52.93 50.95 50.19 49.61 48.15 47.84 47.89 46.74 45.02 44.32 44.74 40.57 40.45 36.73 39.24 41.67 42.71 41.88 42.34 41.38 43.15 43.33 42.83 42.21 42.43 41.40
63.38 62.32 62.40 61.61 61.21 61.70 60.00 60.85 59.48 57.24 56.02 55.48 54.86 54.89 54.67 54.37 53.48 52.09 51.01 49.77 48.80 48.37 46.74 46.79 46.10 45.31 42.15 43.07 43.39 40.44 36.18 33.32 37.56 39.64 39.50 40.41 39.99 39.74 40.58 41.47 42.09 42.17 41.06
63.21 62.72 63.19 62.67 62.21 62.60 61.76 58.68 56.81 55.09 53.50 54.46 54.49 55.09 53.48 53.66 53.03 52.13 50.57 49.52 48.90 48.50 47.20 46.81 46.86 45.39 43.98 41.05 42.22 43.84 40.68 38.92 33.79 33.20 36.69 38.18 39.42 39.55 38.73 39.47 39.40 40.64 40.69
62.17 62.78 63.35 62.98 61.55 60.84 59.49 58.55 56.95 56.29 55.18 55.22 55.00 53.99 53.89 53.51 52.90 51.65 50.86 49.73 48.38 47.91 47.03 46.73 45.98 45.01 44.35 42.80 41.02 39.93 39.72 38.90 38.24 34.64 32.11 33.72 37.21 37.71 37.80 38.38 38.92 39.03 40.02
62.82 63.02 62.51 61.34 59.83 59.01 58.78 58.47 57.59 56.44 54.77 53.59 53.36 52.51 52.07 51.29 49.68 50.32 50.32 48.42 47.07 46.22 44.77 43.83 43.78 42.87 42.11 42.64 42.02 40.82 39.48 37.97 36.60 34.38 33.48 32.99 32.73 35.08 36.76 37.12 37.14 38.06 37.94

GFSSE_sfc_wetblb_045.txt.gz
Wetbulb
68.07 70.94 71.79 72.29 72.24 72.32 71.86 71.56 71.53 71.47 71.78 71.53 70.80 70.25 69.98 69.65 69.02 68.46 67.99 67.58 67.44 66.84 66.62 66.58 66.23 66.23 66.23 66.14 66.32 66.35 66.33 66.91 68.15 69.86 70.22 69.51 69.64 68.95 68.32 69.35 69.19 67.61 69.53
69.44 71.09 71.31 71.82 71.95 71.89 71.75 71.55 71.36 71.36 71.09 70.30 69.98 69.90 69.35 69.04 68.73 68.24 67.85 67.29 67.43 66.71 66.65 66.24 65.81 65.55 65.15 65.17 65.31 66.16 66.91 67.23 67.11 68.66 69.05 68.71 68.90 68.84 67.86 67.81 68.38 67.49 68.95
69.74 70.72 71.00 70.94 71.43 71.69 71.89 71.75 71.39 71.07 70.21 69.07 69.16 69.25 68.84 68.39 67.86 67.66 67.56 67.41 67.49 66.35 66.19 65.82 65.53 65.04 65.01 64.85 65.25 66.21 66.43 66.74 66.59 66.84 68.51 65.31 65.56 67.99 67.62 67.78 67.15 66.93 66.43
69.64 70.17 70.32 70.56 70.99 71.58 71.19 71.10 70.70 70.28 69.34 69.11 68.99 68.49 68.12 67.56 66.97 66.78 67.39 67.40 67.39 66.01 65.84 65.65 65.37 65.03 64.70 64.39 65.48 65.89 66.01 66.43 67.32 67.36 61.68 61.70 63.60 67.29 67.44 66.67 66.02 65.44 65.29
68.45 69.72 70.34 70.36 70.40 70.96 70.90 70.64 70.01 69.75 68.97 68.50 68.07 67.83 66.85 66.90 66.88 66.74 67.75 67.10 67.08 65.85 65.68 65.36 64.86 64.34 64.10 64.71 64.69 64.81 65.10 65.25 64.27 61.68 58.40 59.87 60.41 64.51 66.06 66.19 65.16 65.04 64.85
68.58 69.43 69.19 69.48 69.54 70.64 70.85 70.26 69.65 69.02 68.09 67.69 67.34 67.47 66.98 67.01 66.86 66.59 67.39 66.95 65.94 65.69 65.19 64.86 64.43 63.87 64.48 63.99 63.57 63.76 63.53 64.34 61.31 57.43 58.60 62.24 61.49 65.71 65.34 65.15 65.86 65.13 65.48
67.86 68.42 68.40 68.00 69.11 70.41 70.21 69.76 69.06 68.29 67.65 67.41 67.33 67.33 67.22 66.36 66.14 66.08 66.79 66.60 65.70 65.28 64.63 64.18 63.94 63.48 63.64 63.14 63.55 63.12 62.63 63.02 56.68 56.98 58.43 59.65 61.82 65.21 65.20 64.99 64.96 65.21 65.14
66.76 66.99 67.39 68.38 69.01 69.14 69.14 68.81 68.18 67.65 67.27 66.96 67.04 67.00 67.05 66.68 66.61 66.36 66.50 66.41 65.84 65.08 64.57 63.53 63.44 63.34 62.72 62.74 63.30 62.38 61.74 62.47 57.16 55.65 57.28 57.60 63.75 63.90 63.78 63.60 63.82 65.26 64.66
65.55 65.72 66.23 67.75 68.14 67.81 67.30 67.25 66.95 67.03 66.75 66.56 66.52 66.36 66.16 66.12 66.43 66.74 66.55 65.97 65.44 64.63 63.72 62.97 62.68 62.15 61.97 61.34 62.28 61.86 61.44 61.79 53.82 55.04 56.93 56.75 63.34 62.44 62.68 62.85 62.99 63.28 63.82
64.86 65.55 66.24 66.43 66.15 65.18 65.55 66.27 66.20 66.09 65.75 65.63 65.64 65.48 65.12 65.20 65.91 65.45 64.93 65.20 64.85 64.01 63.13 61.88 61.92 61.08 61.38 60.78 61.25 61.63 60.29 59.45 53.78 53.07 54.57 57.70 62.51 61.62 61.84 62.02 61.80 61.63 61.51
64.49 65.37 65.54 65.33 64.80 64.43 64.60 65.80 65.64 65.85 65.09 64.80 64.59 64.44 62.89 62.42 63.11 63.70 63.02 63.95 64.15 63.13 62.13 62.23 61.25 60.69 61.33 60.88 61.36 61.65 59.08 54.65 53.88 52.91 54.48 61.34 60.75 60.69 60.62 60.36 59.95 59.78 59.51
62.69 63.77 64.41 65.04 63.44 63.09 64.44 63.42 63.28 63.93 62.07 61.73 61.79 61.95 61.04 61.45 62.26 61.71 62.25 63.17 63.10 62.38 61.70 61.93 60.69 61.15 59.52 55.80 55.22 57.64 53.87 53.38 52.51 52.14 54.56 60.10 59.51 59.10 59.16 58.67 58.33 58.14 57.71
62.58 62.60 63.95 64.49 62.21 60.85 61.90 61.63 61.95 61.63 61.54 61.43 61.59 61.71 62.48 62.93 61.89 60.90 58.92 59.60 58.46 61.31 58.25 58.66 56.80 55.38 54.42 54.11 54.56 53.04 52.89 51.84 49.98 51.06 56.29 58.65 57.33 57.52 57.56 57.28 56.56 56.10 55.80
62.06 61.59 61.87 61.81 60.32 60.48 61.62 61.06 61.32 61.49 62.52 63.18 64.13 64.00 63.29 62.74 61.53 61.36 59.93 60.49 57.28 56.20 54.06 54.01 52.35 52.51 52.47 51.84 51.61 51.56 49.74 48.33 48.72 49.09 53.42 57.42 56.65 56.10 56.17 55.73 55.32 54.86 54.23
60.69 60.96 60.38 60.94 60.48 60.50 60.68 62.45 63.30 63.20 63.56 63.90 63.30 63.14 63.03 61.91 60.62 58.74 55.59 54.70 53.91 53.15 52.70 51.61 49.75 50.55 49.46 49.85 48.67 49.67 48.06 47.44 46.93 48.05 47.59 56.33 56.45 55.04 54.73 54.43 54.17 53.83 53.46
60.01 59.52 59.23 60.48 60.39 63.61 62.66 62.78 63.05 63.27 62.75 62.25 61.53 61.23 61.32 59.69 56.37 55.19 53.84 53.42 53.22 51.91 51.20 49.06 48.03 47.38 46.99 47.23 46.78 47.33 46.93 45.25 45.46 46.16 45.77 45.73 55.33 54.56 53.45 52.77 52.74 52.90 53.09
59.22 59.34 59.05 60.54 62.89 61.17 59.87 59.62 59.91 60.96 60.77 60.42 60.09 59.68 59.43 56.59 55.01 53.98 53.07 51.65 51.50 51.37 48.87 48.32 46.82 46.01 45.22 46.31 44.71 45.39 45.58 45.07 45.12 45.64 45.02 45.03 51.16 54.27 53.35 51.59 51.68 51.58 51.78
58.57 58.88 60.10 63.11 60.52 59.13 58.32 57.62 57.86 57.43 58.34 58.54 57.63 57.19 56.52 55.99 54.56 52.88 51.06 49.73 50.12 48.93 48.03 46.45 45.28 44.70 43.66 43.56 42.50 41.89 43.34 43.97 44.53 44.13 44.91 46.08 45.05 46.35 52.63 53.45 50.73 51.07 50.74
59.83 60.80 60.54 59.66 58.33 58.03 57.70 56.78 56.58 56.28 55.76 56.16 54.79 53.55 54.29 54.13 53.85 52.70 49.30 48.29 49.04 47.76 46.72 46.16 44.79 43.94 42.77 43.02 43.62 42.10 42.08 42.63 42.31 45.28 44.67 45.16 43.44 44.08 43.31 50.34 50.54 49.64 48.69
61.22 60.54 59.54 58.95 57.86 56.84 56.92 56.45 55.63 54.61 53.98 53.97 51.76 51.39 52.33 53.02 53.02 50.37 49.54 48.13 47.83 46.62 45.29 44.50 44.31 44.22 43.36 42.65 45.44 43.04 40.98 41.40 41.61 40.38 41.25 43.25 42.87 42.31 41.96 42.63 40.99 42.09 48.56
60.89 59.66 58.93 57.57 57.71 57.43 55.81 54.16 52.95 51.80 51.70 50.68 50.44 51.95 52.69 52.69 50.93 49.89 48.97 47.78 46.67 45.69 44.35 44.83 43.79 42.63 42.29 42.08 39.48 39.37 39.69 40.85 40.75 39.73 40.03 39.33 40.66 41.53 41.31 40.68 40.19 39.56 41.13
60.10 59.60 58.75 57.90 57.75 57.93 56.41 54.67 53.93 51.11 50.79 50.35 50.79 51.33 52.50 51.98 50.09 49.17 47.47 46.24 45.86 45.04 44.57 44.06 42.99 41.93 41.65 41.69 38.63 37.29 35.28 37.78 38.46 40.31 38.25 39.02 38.00 39.26 40.27 41.31 40.16 40.37 39.03
59.67 59.63 58.76 58.74 58.08 58.60 58.36 55.63 54.49 52.01 50.69 50.19 49.86 50.54 50.96 50.71 50.32 49.29 47.80 46.29 45.75 45.29 43.88 43.15 42.98 42.51 40.14 40.88 40.64 38.70 34.21 31.53 34.33 37.07 37.85 37.12 37.07 37.11 37.12 38.23 39.40 39.32 39.69
59.50 60.17 59.76 59.63 59.04 59.22 58.87 56.25 53.51 50.77 49.69 50.39 50.75 50.73 49.61 50.45 49.85 49.07 47.64 46.37 45.82 45.21 43.92 43.57 44.90 41.99 41.35 39.23 39.94 42.33 38.42 36.88 32.71 31.68 34.75 36.77 36.97 37.31 36.08 35.78 36.47 38.04 38.28
60.11 60.03 60.08 59.85 59.21 59.41 59.27 56.29 53.84 50.71 50.59 51.12 51.42 50.62 49.89 50.87 50.54 48.89 47.25 45.91 44.72 44.08 42.45 41.37 40.35 39.77 39.74 39.09 38.45 38.26 37.35 37.10 36.65 33.54 31.76 31.62 35.25 35.84 35.44 35.45 35.31 35.46 36.98
60.54 60.20 60.12 59.68 59.28 58.12 56.23 54.23 52.61 51.79 51.58 51.68 51.76 51.17 50.89 50.15 47.96 46.03 45.21 42.89 42.30 41.53 40.63 39.95 39.65 39.33 38.89 38.71 39.00 39.06 37.96 37.75 37.58 37.05 32.84 31.28 31.19 32.70 34.26 34.63 34.72 34.90 35.22

GFSSE_sfc_wetblb_048.txt.gz
Wetbulb
68.87 70.83 71.82 72.59 72.30 71.98 71.50 71.45 71.40 71.27 70.89 70.14 69.70 69.67 68.78 68.37 68.01 67.74 67.98 68.13 67.77 66.78 66.50 66.03 65.77 65.82 65.87 65.86 65.97 66.08 66.24 68.35 69.37 68.75 69.18 69.40 68.82 67.88 67.22 67.81 67.79 66.78 68.79
69.72 70.70 71.18 71.90 71.96 71.77 71.76 71.36 71.19 70.75 69.94 69.20 69.07 68.92 68.73 68.32 67.79 67.84 68.20 68.17 67.47 66.17 65.89 65.54 65.56 65.48 65.50 65.61 66.33 66.44 66.08 67.28 68.99 68.71 68.35 68.30 68.17 67.87 67.21 66.46 67.21 65.50 66.67
69.94 70.65 71.13 71.02 71.47 71.62 71.65 71.52 70.93 70.31 69.15 68.25 68.49 68.34 68.34 67.96 67.47 68.13 67.96 67.76 67.27 65.82 65.80 65.64 65.29 64.95 65.39 65.63 66.41 68.35 67.56 67.39 68.23 67.36 66.46 63.59 64.35 67.01 66.65 65.93 66.13 65.20 65.44
70.22 70.44 70.40 70.68 70.88 71.31 71.00 70.80 70.14 69.32 68.49 68.56 68.11 67.69 68.06 67.21 67.13 66.96 67.33 67.26 67.05 65.80 65.71 65.22 64.64 64.27 64.31 65.64 65.55 66.05 66.35 66.24 64.92 63.65 59.19 59.99 62.71 65.80 65.77 65.02 64.65 64.56 64.41
69.31 69.72 70.00 69.97 70.37 70.90 70.52 70.10 69.41 69.14 68.71 68.29 67.93 67.50 67.25 66.86 66.89 66.60 67.35 66.92 66.72 65.50 65.00 64.59 63.80 63.44 64.59 64.59 64.54 64.86 64.56 64.02 63.05 61.45 59.18 60.12 60.57 64.49 65.71 65.33 64.61 64.50 64.07
69.12 69.63 69.18 69.42 69.96 70.15 70.27 69.85 69.08 68.60 67.71 67.51 67.93 68.20 67.26 66.94 66.70 66.53 67.21 66.70 65.97 65.03 64.76 64.22 63.42 63.59 63.96 64.03 64.09 64.00 64.06 63.04 61.04 57.85 58.88 61.95 61.14 64.95 65.13 64.99 64.79 64.79 64.89
68.55 68.80 68.52 68.42 69.32 69.71 69.86 69.12 68.54 67.76 67.22 67.34 67.81 67.72 67.52 66.37 66.10 65.89 66.83 66.55 66.05 64.56 64.19 63.62 63.11 63.75 63.58 63.63 63.69 63.32 62.29 62.00 56.30 56.27 56.94 58.73 60.52 63.96 64.12 63.81 64.01 64.48 64.76
66.39 66.94 67.64 68.13 68.11 68.45 68.78 68.12 67.38 67.23 67.07 67.27 67.23 67.26 67.15 66.83 66.56 66.22 66.32 66.21 65.52 64.42 63.95 63.37 63.80 63.31 63.36 62.87 63.28 62.24 61.11 60.29 56.30 54.60 56.15 56.25 62.64 63.09 63.49 63.14 63.20 63.52 63.35
65.16 63.89 64.02 64.94 66.75 67.66 67.06 66.74 66.31 66.29 66.45 66.66 66.63 66.25 66.32 66.24 66.30 66.45 66.50 66.03 65.18 64.46 64.00 63.71 62.90 62.50 62.56 62.27 62.45 61.34 60.73 59.53 52.65 53.93 56.99 56.65 63.11 62.56 62.33 61.96 61.60 60.85 60.65
63.79 63.34 62.92 64.50 65.72 65.43 65.43 65.99 65.74 65.67 65.91 65.64 65.73 65.47 65.24 65.33 65.60 65.77 65.42 65.44 64.98 64.09 63.16 62.52 61.75 61.68 61.85 61.63 61.95 61.34 59.58 58.05 51.72 52.62 54.62 57.61 61.70 61.17 61.02 60.48 60.13 59.68 59.04
61.52 62.04 62.60 63.80 64.12 64.32 64.50 65.22 65.42 65.57 65.11 64.75 64.88 64.66 63.31 62.51 61.89 61.13 62.91 64.13 64.04 62.73 61.98 61.98 62.46 61.57 60.08 59.71 60.75 59.89 57.62 51.55 50.63 52.56 53.87 60.97 59.94 59.79 59.62 58.97 58.61 58.00 57.64
60.86 61.94 63.84 63.58 63.44 63.36 64.05 63.14 62.61 62.90 61.83 61.59 61.59 61.14 60.44 61.07 61.71 60.96 62.19 63.42 63.04 62.05 61.73 61.71 60.59 59.11 56.49 53.42 53.82 55.30 51.72 49.93 49.12 50.56 53.11 59.60 58.78 58.44 58.50 57.48 56.91 56.29 55.77
61.21 63.13 63.43 63.18 62.42 61.44 62.04 61.54 61.10 60.17 59.93 60.18 60.38 59.93 60.20 61.43 60.79 59.49 58.74 58.24 57.84 58.94 54.97 54.45 53.15 52.21 50.77 50.05 50.29 49.53 47.76 47.02 46.01 47.29 53.98 58.08 57.36 56.55 57.29 56.49 55.56 55.09 54.73
61.56 62.47 63.84 62.56 60.70 58.97 60.55 60.33 60.09 59.82 60.63 60.81 61.81 62.01 61.26 61.14 60.29 59.04 57.25 56.03 54.80 53.30 51.80 50.29 49.98 49.77 48.57 48.28 48.01 48.02 46.44 44.73 44.30 46.69 49.38 56.50 56.38 55.39 55.94 55.58 54.35 54.07 53.81
60.94 61.68 63.23 61.67 58.96 59.81 59.52 59.51 60.41 61.55 62.72 62.25 61.74 61.94 62.06 60.30 57.97 55.41 54.48 53.45 52.19 51.46 49.31 47.68 47.27 46.78 46.59 46.21 45.74 46.26 45.41 44.21 44.11 44.81 44.42 52.51 56.13 54.78 54.78 53.98 53.11 53.05 53.30
61.01 60.29 61.95 59.84 58.25 60.83 61.20 61.48 61.82 62.20 61.79 60.81 60.22 59.64 59.80 57.78 54.40 53.25 52.25 51.51 50.17 49.24 47.81 46.56 44.60 44.23 43.98 44.37 44.21 44.41 44.38 43.76 44.14 43.89 43.03 43.13 54.72 55.54 53.56 52.39 51.56 52.33 51.79
59.95 59.55 59.86 60.64 61.55 60.85 60.44 61.66 60.31 60.57 59.83 58.87 58.71 57.85 55.76 55.27 53.61 52.39 51.02 50.05 49.44 47.53 46.44 45.15 44.54 44.06 43.57 44.57 43.19 43.35 43.30 43.20 43.25 42.93 42.88 44.43 49.86 54.53 53.65 51.33 50.89 51.20 50.99
58.88 58.69 61.61 62.34 59.68 58.61 57.89 58.06 58.01 57.90 57.92 57.56 57.08 55.77 55.04 54.36 52.79 50.37 49.17 48.37 48.84 46.83 45.46 44.40 43.43 43.00 42.26 42.01 41.02 40.24 41.14 42.52 41.90 42.59 43.56 42.45 42.55 44.88 50.13 51.62 50.47 49.82 49.46
58.39 59.52 60.12 59.19 58.17 57.70 57.02 56.02 55.48 56.00 55.86 55.34 53.83 52.95 53.48 53.09 51.93 49.61 48.61 47.73 46.96 45.73 44.62 44.65 43.02 42.54 41.50 41.42 42.60 40.50 40.32 40.55 40.35 43.13 41.15 41.18 41.38 41.02 41.78 48.25 47.98 47.72 47.10
58.39 60.57 59.31 58.49 57.92 56.34 55.96 55.09 53.87 53.37 53.46 52.85 51.25 50.98 52.16 52.39 51.27 48.84 47.70 46.35 45.92 44.61 43.75 43.23 42.71 42.47 41.90 41.22 44.12 41.79 39.67 39.95 39.43 39.12 38.96 41.13 40.28 39.89 39.85 40.51 39.08 39.99 48.07
59.45 59.35 58.60 57.17 56.30 56.10 54.78 52.90 52.18 51.59 51.94 50.76 50.53 51.31 51.78 51.62 50.53 48.37 47.24 45.63 45.14 43.80 43.58 43.84 42.50 41.52 40.95 40.69 38.45 38.11 38.53 38.96 38.69 38.27 38.41 37.53 39.09 39.52 39.01 39.26 38.20 38.02 39.23
58.46 58.60 58.01 57.23 56.38 55.96 55.52 53.78 53.36 51.40 50.79 49.69 49.94 50.51 51.43 49.29 48.50 47.91 46.16 44.66 44.63 43.94 43.31 42.64 41.58 40.67 40.73 40.39 38.31 36.20 34.66 36.82 37.29 39.48 37.67 37.87 36.24 37.50 38.49 39.57 38.03 37.88 37.02
57.82 57.81 57.41 57.02 56.80 56.63 55.73 54.12 51.40 50.27 49.29 48.11 48.16 48.73 50.52 49.45 49.06 47.76 46.41 45.02 44.61 44.10 42.76 41.74 41.34 40.65 38.89 39.56 39.21 37.95 33.83 31.58 33.16 36.15 36.99 36.17 36.11 35.97 35.45 36.22 37.34 37.56 37.25
58.04 58.39 57.64 56.95 57.07 57.26 56.39 53.97 51.17 49.27 48.49 48.84 48.62 49.20 49.17 49.00 48.48 47.73 46.62 44.90 44.36 43.70 42.66 42.37 41.71 39.23 38.73 36.11 37.91 40.67 37.62 36.24 33.02 32.66 34.20 36.31 36.22 36.38 34.93 34.40 34.89 35.91 36.13
58.78 58.11 58.06 57.55 57.14 57.58 57.30 55.19 52.43 49.39 49.29 49.23 49.20 49.03 47.89 47.82 47.69 46.69 45.61 44.14 42.76 41.83 40.88 39.77 38.39 37.61 37.46 36.84 36.10 36.43 36.19 35.59 34.71 32.38 31.23 31.23 34.77 35.82 34.86 34.51 34.36 34.54 35.25
59.04 58.46 58.31 58.00 57.97 58.22 57.68 55.48 53.15 50.41 49.45 49.06 48.82 47.49 47.07 46.65 45.35 45.13 43.27 41.87 40.84 40.45 40.02 39.01 37.35 36.87 36.63 36.31 36.40 36.59 36.66 35.64 35.03 37.00 35.23 35.20 34.32 32.85 33.38 34.69 34.33 34.01 34.21

GFSSE_sfc_wetblb_054.txt.gz
Wetbulb
68.87 70.15 71.08 71.53 71.46 71.22 70.68 70.25 70.01 69.88 69.62 69.00 68.47 68.25 68.32 68.42 68.71 68.42 68.06 68.05 68.05 66.99 67.15 67.57 67.62 67.77 67.95 69.40 68.61 68.30 68.41 68.62 68.58 68.52 67.50 67.15 67.08 66.59 66.12 65.76 65.36 63.67 65.90
69.48 70.29 70.62 71.17 71.30 71.02 70.59 70.19 69.83 69.30 68.81 67.62 68.23 68.61 68.70 68.78 68.40 68.08 68.02 67.99 68.09 67.42 67.61 68.66 69.03 68.86 67.92 68.71 68.70 67.80 67.39 67.50 67.33 66.78 65.76 65.61 65.51 65.36 65.37 64.76 65.12 63.54 65.13
69.19 70.28 70.12 70.35 70.97 70.81 70.42 70.02 69.21 68.76 68.20 67.23 67.40 68.22 68.73 68.59 68.08 68.08 67.95 67.70 67.87 67.33 68.04 68.96 68.55 68.25 68.40 68.65 67.03 66.38 65.78 65.84 65.90 65.31 64.84 61.04 62.48 65.48 65.59 64.97 64.81 64.64 64.56
69.85 70.00 69.55 70.27 70.61 70.28 69.71 69.15 68.66 68.33 68.23 68.06 67.94 67.89 68.18 68.08 68.16 68.16 67.69 67.06 67.36 67.20 66.70 67.82 68.64 68.69 67.71 66.83 66.54 65.91 65.42 65.24 64.49 63.40 59.90 60.32 62.24 65.06 65.12 64.97 64.78 64.95 64.80
69.33 69.95 69.44 69.59 69.90 69.87 69.36 68.65 68.41 68.10 68.00 67.88 68.20 67.94 67.17 67.72 67.91 67.62 66.97 66.56 66.93 66.81 65.57 65.74 66.02 65.32 65.41 65.69 65.40 64.66 64.00 63.59 62.63 60.25 59.11 59.82 60.46 63.61 64.38 64.51 64.41 64.73 64.66
69.02 69.32 68.59 68.95 69.34 69.51 69.22 68.92 68.36 68.19 67.88 67.72 68.00 68.25 67.54 67.22 66.86 67.55 66.75 66.24 66.80 66.42 65.16 64.55 64.25 64.47 64.75 64.23 64.24 63.19 62.40 61.62 59.54 56.37 57.34 60.45 60.22 63.58 63.74 63.18 63.12 63.22 63.43
66.60 68.35 68.16 68.12 68.84 69.23 69.35 68.79 68.22 68.14 67.86 67.86 67.90 67.74 67.84 67.57 67.11 67.31 66.57 66.34 65.88 65.95 65.15 64.19 63.92 63.72 63.89 64.09 62.98 62.23 61.65 60.31 55.14 54.88 55.85 58.30 59.77 62.78 62.39 61.56 61.07 61.12 61.37
64.11 64.14 67.77 68.48 67.67 68.17 68.28 67.83 67.62 67.62 67.61 67.63 67.44 67.26 67.46 67.11 66.90 66.61 66.15 65.83 65.48 65.32 65.09 64.75 64.25 63.76 63.30 62.46 62.50 61.61 60.41 58.61 55.48 55.19 56.26 57.18 61.23 61.49 61.37 60.60 59.82 59.74 59.94
62.65 61.76 62.74 64.30 64.04 66.58 66.67 66.53 66.82 67.15 67.18 67.12 66.98 66.70 66.47 66.28 66.06 65.96 65.50 65.32 64.95 64.97 64.98 64.61 63.96 62.97 62.98 61.82 60.56 60.66 59.62 57.84 52.45 54.33 56.69 56.85 60.88 60.52 60.09 59.39 58.95 58.30 58.29
60.86 59.82 60.51 62.09 63.69 64.18 64.61 65.99 66.07 66.41 66.36 66.38 66.46 65.98 65.56 65.73 65.79 65.66 64.82 64.61 64.46 64.46 63.62 62.98 62.76 61.94 61.66 60.52 58.52 56.61 56.56 55.62 51.16 52.38 53.82 57.77 59.93 59.64 59.23 58.38 57.91 57.16 56.93
60.38 60.02 61.93 59.32 59.87 63.18 63.39 64.87 65.76 66.34 65.98 65.63 65.40 64.92 62.62 61.61 61.29 60.61 63.70 63.79 64.32 63.00 61.94 60.94 59.19 58.18 57.74 57.54 56.06 53.78 51.07 46.59 49.15 51.38 52.71 60.40 59.19 58.74 58.14 57.30 56.77 56.29 56.15
57.05 58.33 59.92 61.41 63.06 63.13 63.52 61.93 62.47 63.82 62.56 62.00 61.69 60.62 60.05 59.03 58.65 61.26 62.44 63.17 62.27 61.17 59.95 58.27 56.31 54.91 51.40 47.45 46.97 48.44 44.12 45.49 47.65 50.37 52.43 58.18 56.63 57.70 57.19 56.38 56.13 55.57 55.31
55.44 56.93 57.85 59.19 62.09 62.21 61.71 61.02 60.75 60.46 59.32 59.49 59.69 59.74 60.39 59.48 58.38 58.31 56.42 55.26 53.17 54.17 50.13 49.64 48.25 47.16 46.45 46.26 45.11 43.75 43.77 43.70 43.38 43.80 48.34 54.63 55.72 55.20 56.61 55.34 55.34 54.71 54.55
55.45 55.69 57.78 58.99 60.73 61.29 61.24 59.90 59.38 58.95 58.89 58.35 58.86 60.14 60.10 57.84 57.05 56.46 54.69 52.09 50.25 48.76 47.62 46.87 46.09 45.33 44.64 44.99 44.32 43.54 43.16 42.49 42.16 42.83 43.78 52.75 54.38 54.50 56.25 54.44 54.46 53.77 53.37
56.54 58.08 59.76 60.69 60.65 59.84 59.69 58.99 58.84 58.27 58.61 58.95 59.34 59.91 60.45 58.10 56.07 54.82 51.74 50.14 47.98 47.08 45.82 44.78 44.22 43.88 43.35 43.51 43.07 42.88 42.46 42.10 42.43 42.57 42.19 51.75 53.75 54.85 55.04 53.60 53.23 53.70 52.44
57.87 59.01 61.37 60.75 60.17 59.15 58.40 57.88 58.25 59.33 59.74 60.12 59.92 60.33 59.94 58.43 54.78 52.54 49.90 48.17 46.44 45.24 44.25 43.59 43.04 42.57 41.85 42.48 42.47 42.25 42.11 41.70 41.67 41.90 43.57 48.84 56.01 55.39 53.48 52.42 52.11 52.09 51.61
58.97 60.88 61.52 60.60 58.44 58.10 57.93 58.05 58.41 59.68 59.74 59.06 58.52 58.71 57.25 55.54 52.66 51.28 48.35 46.43 44.93 44.11 43.82 44.31 42.74 42.85 42.47 42.57 41.42 41.55 41.60 41.68 41.26 41.23 41.85 43.45 46.49 51.68 52.45 51.21 51.87 51.07 50.68
58.93 59.19 60.80 60.56 57.57 57.42 57.55 57.55 57.98 58.34 57.86 57.14 56.23 55.08 54.35 54.39 52.70 49.97 48.12 45.90 45.37 44.66 44.53 43.07 42.52 41.92 41.61 41.16 40.13 40.12 40.08 40.87 40.70 40.18 40.46 41.09 41.88 44.15 48.14 49.05 48.45 48.35 48.14
58.51 58.56 58.58 57.55 56.79 56.57 56.19 55.97 56.23 56.55 56.21 55.89 54.46 54.98 52.97 51.74 50.56 49.04 48.78 46.67 45.05 45.65 43.45 43.67 42.20 41.83 40.47 40.65 40.99 39.80 39.43 39.49 39.69 40.42 39.82 40.05 40.54 40.80 41.25 44.08 46.65 46.99 48.51
57.17 57.35 58.00 57.51 56.29 55.13 54.52 54.18 54.22 54.12 53.88 53.87 53.13 52.14 51.39 50.31 48.94 47.88 46.71 45.10 44.81 43.10 42.50 42.35 41.69 41.17 40.72 40.17 42.22 41.39 38.93 38.84 38.82 38.08 38.87 40.29 39.37 39.42 39.18 39.56 39.11 39.07 45.08
55.52 57.82 57.79 56.21 55.29 55.77 55.61 54.06 52.29 52.01 51.78 51.42 52.66 52.55 50.97 48.88 47.86 47.23 45.42 44.37 43.32 42.62 42.35 41.96 40.88 40.15 39.85 39.77 38.65 38.21 37.84 38.11 38.20 37.78 38.28 37.99 38.93 39.08 39.12 38.82 38.00 37.56 38.11
55.68 57.98 57.27 57.01 55.81 56.17 56.37 52.36 52.78 51.55 51.63 51.28 52.18 50.65 50.30 48.72 47.37 46.17 44.80 43.15 42.66 42.70 41.92 41.58 40.94 40.06 39.71 39.23 36.90 35.33 33.12 35.55 37.09 38.14 38.15 38.16 37.71 37.67 38.02 38.43 37.68 38.06 37.01
55.35 57.19 57.40 57.09 55.98 56.45 55.28 52.66 50.26 50.90 50.30 49.85 48.18 48.44 49.29 48.75 47.57 46.22 44.53 43.14 42.79 42.49 41.10 40.83 40.46 39.56 37.05 37.65 38.08 35.09 29.83 29.23 32.85 36.20 36.59 37.16 36.67 36.96 36.53 37.04 37.41 37.39 37.33
55.86 57.19 57.61 57.11 55.98 55.96 54.33 53.02 51.10 50.45 48.85 48.99 47.96 48.19 48.92 48.05 47.44 45.87 43.99 43.19 42.56 42.24 41.31 39.78 39.79 38.61 36.92 34.93 36.03 38.94 36.65 35.58 32.32 31.54 35.17 35.86 36.10 37.25 37.22 37.09 36.34 36.22 36.53
55.70 56.49 57.52 56.91 56.19 56.21 54.73 53.83 52.08 51.05 51.12 50.43 49.37 47.81 48.27 45.97 45.70 45.04 43.86 42.85 42.02 40.46 38.71 38.64 38.24 37.40 36.74 36.06 34.88 34.97 34.89 34.45 33.81 32.72 31.93 32.79 37.24 38.09 37.72 37.11 35.60 35.42 35.06
54.81 55.31 55.79 56.35 55.98 55.98 55.36 53.95 52.23 51.83 51.17 50.15 47.57 47.24 45.95 44.52 43.73 43.34 43.11 41.35 40.87 40.16 39.03 39.58 38.58 38.23 37.13 35.96 35.46 35.38 35.31 34.80 34.17 32.99 31.00 31.85 34.46 34.85 37.24 36.23 34.95 33.50 32.89

GFSSE_sfc_wetblb_057.txt.gz
Wetbulb
69.14 70.77 71.20 71.78 71.62 71.25 70.70 70.63 70.35 69.88 69.68 69.43 69.12 69.07 68.94 69.02 68.87 68.61 68.82 68.67 69.10 68.72 68.62 68.83 69.72 69.90 68.89 68.51 68.07 68.04 67.70 67.65 67.54 67.53 66.53 66.14 66.09 66.27 65.88 65.44 66.28 65.17 65.67
70.05 70.91 70.48 71.28 71.34 70.93 70.71 70.17 69.73 69.30 69.04 69.04 69.08 69.06 68.89 68.58 68.56 68.68 68.60 68.92 69.38 69.47 69.77 68.97 69.52 69.35 68.47 67.01 66.93 67.10 66.45 67.11 66.81 66.51 66.19 65.85 66.03 66.07 65.80 65.23 65.63 65.06 65.27
69.73 70.24 70.77 70.55 70.87 70.74 70.68 69.93 69.44 69.18 68.68 68.70 69.13 69.06 68.75 68.58 68.68 68.58 68.65 68.87 70.34 69.89 69.97 69.06 69.75 69.21 66.46 66.35 66.71 66.28 65.86 65.58 65.81 65.57 65.77 64.53 64.83 65.57 65.56 65.18 65.18 65.17 65.05
69.66 70.05 70.42 70.02 70.21 70.30 69.83 69.19 68.88 68.68 68.97 69.08 69.28 68.97 68.68 68.73 68.51 68.45 68.11 68.26 69.95 70.51 69.89 69.43 69.75 67.33 66.02 66.34 66.41 65.77 65.40 64.86 64.28 64.94 63.96 63.84 63.75 64.85 65.13 65.08 65.11 65.23 65.00
69.53 69.74 69.97 69.48 69.27 69.46 69.04 68.62 68.26 68.45 68.69 68.69 68.72 68.90 68.97 68.58 68.33 68.21 67.44 67.29 68.26 69.18 68.98 68.97 67.17 65.66 65.63 65.91 65.68 64.78 64.09 63.64 63.33 63.61 63.66 63.83 63.72 63.70 63.89 63.84 63.55 63.96 64.06
69.28 69.59 68.38 68.57 68.73 68.91 68.81 68.51 68.42 68.26 68.19 68.05 67.90 68.48 68.68 68.31 68.02 67.46 67.08 67.03 67.21 67.59 66.53 65.73 64.75 64.56 64.93 64.66 64.19 63.28 62.54 61.80 62.85 62.71 62.75 63.24 62.87 62.58 62.42 61.99 62.05 62.38 62.18
66.18 68.75 68.49 67.85 68.44 68.89 69.02 68.56 68.18 68.08 67.96 67.85 67.85 67.97 68.07 67.85 67.73 66.98 66.60 66.52 66.14 66.23 66.11 65.32 64.37 64.36 63.96 63.66 62.93 62.21 61.50 61.15 61.36 61.46 61.52 62.11 62.17 62.04 61.53 60.99 60.75 60.83 60.97
64.06 65.85 66.60 68.11 67.68 66.58 67.73 68.16 67.59 67.48 67.69 67.47 67.44 67.49 67.64 67.42 66.99 66.77 66.11 65.98 65.84 65.50 64.95 64.43 64.00 63.94 64.16 63.07 61.17 60.77 60.27 60.45 60.15 60.22 60.45 60.97 61.35 60.98 60.42 59.61 59.13 59.22 59.37
62.67 61.79 60.83 60.67 61.61 62.09 63.99 66.92 66.82 67.14 67.24 67.04 67.23 67.00 66.86 66.50 65.98 65.67 65.44 65.58 65.47 65.10 64.83 64.41 63.88 62.95 62.08 61.26 60.09 59.50 59.33 58.48 59.10 59.62 59.26 60.34 60.30 59.88 59.58 58.59 58.16 57.91 58.00
62.14 61.64 60.55 59.27 58.50 60.06 62.77 65.35 66.30 66.42 66.48 66.38 66.34 65.96 65.61 65.47 65.54 65.39 64.77 65.17 65.14 64.98 64.32 62.88 62.73 61.39 59.30 58.33 57.62 56.31 55.75 57.36 57.77 58.24 59.25 59.76 59.62 59.53 58.68 58.02 57.60 57.40 57.26
59.79 59.81 60.15 58.24 58.65 60.10 63.98 65.54 66.16 66.43 66.01 65.48 65.40 64.88 63.85 63.67 63.34 62.82 63.89 64.05 63.66 62.99 61.88 60.70 59.46 58.48 57.83 56.35 54.79 54.25 55.96 56.54 56.87 57.26 57.96 60.23 59.10 58.64 57.99 57.56 56.67 56.56 56.63
58.93 58.55 58.57 58.70 57.67 57.10 58.09 61.69 64.81 65.09 64.49 64.42 64.13 63.84 63.38 63.46 63.17 62.16 63.06 62.49 61.83 60.91 60.11 58.06 56.06 54.20 54.39 52.54 52.30 52.52 52.37 52.83 52.63 52.94 55.66 57.60 56.72 57.93 57.18 56.88 56.10 55.83 55.47
58.31 57.06 56.97 57.86 59.85 61.76 61.76 62.84 64.10 63.60 63.50 63.59 63.20 63.29 62.76 63.13 62.82 62.23 61.12 59.21 58.14 56.12 54.46 54.28 52.76 52.35 52.76 52.33 51.94 51.53 51.40 51.42 51.81 51.68 52.03 54.59 56.15 56.62 56.56 56.11 55.51 55.13 54.68
57.42 57.11 60.17 61.01 62.30 62.14 62.69 62.89 62.95 62.49 62.56 62.49 62.66 63.55 62.45 61.74 61.55 60.51 58.00 56.55 54.73 53.66 53.19 53.13 52.30 52.76 51.57 51.08 51.31 51.17 51.08 50.81 50.66 51.00 51.03 53.22 54.33 55.71 56.30 54.84 55.58 54.09 53.54
56.29 57.74 59.22 61.55 62.81 62.66 62.09 62.13 62.11 62.27 61.85 62.83 62.96 63.52 62.49 61.01 61.03 58.96 56.23 54.92 53.64 53.55 52.16 51.74 51.57 51.01 51.05 50.98 50.72 50.31 49.90 50.14 50.60 51.88 54.65 56.80 56.82 56.09 55.30 54.34 54.12 53.27 52.71
57.14 57.74 59.74 61.06 62.92 63.27 62.17 62.10 61.72 62.44 62.64 62.46 62.21 63.14 62.83 60.52 59.82 56.79 55.11 54.19 52.71 52.47 52.11 51.87 51.50 50.88 50.27 50.60 50.03 50.18 49.92 49.89 50.27 52.14 54.66 55.20 55.01 54.80 53.82 52.84 52.29 52.19 51.87
57.94 59.07 60.41 61.65 62.87 63.14 62.08 61.72 61.82 61.93 61.86 61.83 62.13 63.39 63.70 61.72 60.07 57.37 54.66 53.07 52.09 51.76 51.57 51.33 51.10 51.32 50.50 50.12 49.69 49.82 49.88 49.42 49.40 49.94 52.64 53.93 53.47 53.59 52.67 51.90 50.87 50.10 50.22
58.72 59.70 61.87 62.55 62.49 62.86 62.06 61.79 61.64 62.10 62.56 63.19 63.28 63.84 62.92 61.34 59.01 56.53 53.97 52.22 51.61 51.68 50.40 50.32 51.26 50.45 50.25 50.22 49.92 49.74 49.40 49.67 48.32 48.47 49.02 50.72 51.59 52.13 49.96 49.36 49.00 49.02 49.34
60.48 61.27 62.46 63.50 62.52 62.34 61.82 61.76 62.23 62.60 62.99 63.31 62.53 61.66 60.70 59.57 57.63 55.74 53.38 51.66 52.20 51.51 51.81 51.35 50.57 50.71 49.78 49.97 50.05 50.55 50.15 49.54 47.99 47.35 47.86 48.49 48.80 49.70 49.50 46.16 45.95 45.67 47.79
61.53 62.18 63.14 62.98 62.55 61.90 61.31 61.18 61.57 62.11 62.51 61.94 60.79 60.28 58.88 58.11 56.15 55.19 53.25 50.55 52.41 50.59 50.93 51.03 50.51 50.14 50.17 50.40 48.20 48.78 49.11 49.12 47.93 47.77 48.65 48.03 48.47 48.12 48.30 47.44 48.26 46.95 43.94
61.90 61.69 62.30 61.88 61.42 60.32 59.10 58.34 58.00 58.57 59.77 60.04 58.91 58.52 57.42 56.61 55.08 54.43 51.44 50.48 51.85 51.44 51.21 51.19 49.87 49.74 48.98 49.81 48.72 47.91 47.91 47.73 46.72 46.89 47.76 48.28 46.85 47.80 47.51 47.56 46.57 46.30 46.18
60.34 61.16 61.11 61.50 60.82 60.69 60.44 59.96 59.87 59.40 59.59 59.70 58.66 57.82 57.21 55.62 54.73 53.80 51.03 51.50 51.45 50.74 50.52 50.38 50.18 48.59 49.06 48.59 45.87 44.68 42.28 43.73 45.53 46.68 46.72 46.87 47.19 47.50 46.76 45.52 45.51 44.79 44.79
59.68 60.47 60.67 61.07 60.82 60.59 60.56 59.16 57.48 57.82 57.01 56.42 56.62 56.85 55.98 54.73 53.54 52.32 51.66 51.42 50.97 51.17 50.01 50.15 49.85 48.82 46.39 46.72 45.88 43.27 39.92 38.78 41.63 44.82 45.38 46.14 46.02 46.89 46.09 45.28 44.99 44.93 43.81
59.67 60.86 61.25 61.32 60.75 60.27 59.57 58.54 57.62 58.05 57.43 57.20 56.61 56.48 55.81 52.69 51.15 51.07 51.50 51.11 51.08 50.67 49.66 49.18 47.87 47.55 45.99 43.28 44.36 44.90 45.33 42.87 39.05 37.90 43.74 44.80 45.13 44.63 44.88 44.35 43.89 43.89 43.22
60.40 59.89 60.84 61.19 60.67 60.47 59.40 59.35 58.52 58.25 59.13 56.02 55.41 54.95 54.47 53.78 52.72 51.38 50.97 50.35 50.18 49.98 49.01 47.75 46.40 45.74 44.97 43.23 42.61 42.90 42.61 43.31 43.06 39.66 36.88 40.13 43.10 43.54 43.52 43.37 43.26 43.28 41.60
60.29 60.02 60.43 60.17 59.87 60.12 59.46 59.00 58.23 58.10 56.29 54.20 54.14 53.21 53.17 52.90 51.70 51.68 50.14 50.25 49.97 48.53 47.17 45.26 43.78 42.70 41.95 44.35 42.44 42.21 42.20 40.96 40.47 39.81 38.02 38.56 38.56 40.56 42.28 42.31 42.52 42.86 41.62

GFSSE_sfc_wetblb_060.txt.gz
Wetbulb
69.65 71.16 71.30 72.06 72.12 72.14 71.73 71.53 71.09 70.77 70.26 69.98 69.81 69.73 69.54 69.52 69.42 69.71 69.66 69.66 70.47 71.35 71.01 70.40 70.46 69.03 68.42 68.23 67.76 67.26 66.99 67.45 67.50 67.56 66.65 66.71 66.45 66.42 66.23 66.22 67.21 65.99 65.92
70.96 71.04 70.69 71.34 71.68 71.82 71.66 71.11 70.32 69.84 69.90 69.90 69.61 69.49 69.17 69.13 69.40 69.47 69.71 69.88 70.49 70.45 70.71 69.61 69.12 67.21 67.07 66.68 66.63 66.51 66.41 66.67 66.78 67.31 67.65 66.45 66.26 66.24 66.21 65.59 66.17 66.11 65.81
70.69 70.63 71.56 70.76 71.04 71.23 70.98 70.39 69.81 69.75 69.90 69.85 69.41 69.22 69.15 69.37 69.44 69.62 70.40 70.72 70.77 70.61 70.40 69.17 67.22 66.97 66.93 66.53 66.38 66.14 65.75 65.52 66.09 66.19 67.24 65.03 65.44 65.61 65.73 65.50 65.86 65.61 65.54
71.27 70.26 69.81 70.18 70.38 70.38 69.77 69.35 69.38 69.78 69.85 69.53 69.25 69.27 69.20 69.42 69.44 70.15 70.54 70.18 70.92 70.74 70.45 67.80 66.97 66.78 66.41 66.16 65.98 65.46 64.92 64.58 65.18 66.57 64.82 64.56 63.90 64.39 64.62 64.46 65.23 65.31 65.31
71.51 70.06 70.01 69.57 69.70 69.61 69.36 69.01 68.87 69.08 69.03 68.95 68.98 69.32 69.37 69.18 69.13 69.81 69.92 69.76 70.06 71.04 69.79 67.07 66.61 66.20 65.69 66.05 65.46 64.48 63.99 63.94 64.78 64.76 64.10 64.43 63.57 63.13 63.16 63.21 63.02 63.09 62.95
70.48 70.48 69.05 68.73 69.21 69.35 69.07 68.77 68.88 68.80 68.32 68.40 68.61 68.88 68.93 68.93 68.66 68.54 68.56 69.19 70.10 69.98 67.29 66.01 65.16 64.61 65.16 64.83 64.22 63.11 62.78 62.45 64.22 62.96 63.65 63.76 62.89 62.04 62.05 61.84 61.60 61.93 61.78
65.85 69.63 69.13 67.69 68.40 68.76 69.08 69.03 68.70 68.43 67.83 68.01 68.22 68.08 68.25 68.32 68.10 67.62 67.25 67.62 67.50 67.30 65.97 64.75 64.00 63.70 64.08 63.96 62.53 62.10 62.00 62.03 61.70 61.67 62.68 62.72 62.39 61.22 60.61 60.48 60.64 60.32 60.41
61.59 62.55 66.94 67.88 67.40 66.25 66.13 66.60 67.37 67.61 67.51 67.57 67.56 67.58 67.68 67.66 67.28 67.16 66.76 66.30 66.44 66.39 65.95 64.99 64.50 63.57 62.90 61.94 61.13 60.95 60.82 61.50 61.14 61.09 62.10 61.94 60.88 60.34 59.85 59.43 59.14 58.79 59.06
60.97 60.79 60.13 59.88 61.46 61.84 63.13 63.62 64.65 66.70 67.19 67.28 67.02 67.06 66.94 66.51 66.18 66.38 66.15 65.86 65.42 64.92 64.58 63.88 63.67 63.13 61.86 60.58 59.87 59.55 59.59 59.69 60.26 60.47 60.70 61.40 60.03 59.76 59.06 58.73 58.60 58.44 58.42
60.61 60.45 59.10 57.37 57.78 58.20 58.95 62.48 64.95 66.14 66.53 66.46 66.46 65.90 65.49 65.33 65.64 65.59 65.28 65.37 65.20 64.76 63.82 62.37 61.84 61.00 59.82 58.66 57.52 57.25 58.19 58.61 58.84 58.95 60.35 60.67 59.91 59.44 58.59 57.93 57.96 57.64 57.66
59.18 58.86 59.02 57.88 58.13 58.31 59.50 63.26 65.01 66.05 65.78 65.39 65.27 64.52 63.27 63.00 63.58 63.84 64.18 64.84 64.38 63.45 62.56 60.71 59.24 58.06 57.42 56.26 55.60 56.79 57.30 57.27 57.18 57.65 58.36 60.23 59.32 59.07 58.30 57.31 56.98 56.91 56.88
58.53 58.32 58.76 59.85 58.80 57.87 60.05 62.29 64.41 64.71 64.70 64.08 63.63 63.98 63.16 63.59 63.76 64.11 63.31 62.90 62.48 61.51 59.91 58.05 56.58 57.38 58.75 56.88 55.34 55.70 55.15 54.87 54.47 55.07 56.32 56.56 57.55 58.72 57.66 56.70 56.38 55.88 55.54
58.06 57.42 58.37 58.27 57.81 60.41 61.77 61.13 62.08 64.16 64.02 64.12 64.32 63.65 64.40 64.15 64.02 63.62 61.93 61.03 60.28 59.79 57.52 56.94 57.67 57.76 56.91 55.94 54.47 54.70 54.57 54.65 54.20 53.84 53.88 55.00 56.07 58.29 57.01 56.59 55.88 55.20 54.71
55.90 56.43 56.24 57.13 59.37 59.44 59.62 59.07 60.06 61.50 62.84 62.57 63.36 64.65 64.38 63.59 63.87 63.44 62.09 61.47 60.11 59.95 58.92 58.34 57.41 56.31 55.06 54.66 54.78 54.10 53.69 53.36 53.49 53.64 54.37 54.74 54.64 56.97 56.17 56.13 55.06 54.66 53.61
55.10 56.62 57.89 61.60 61.63 60.91 61.46 62.39 62.94 62.81 62.75 63.12 63.95 64.07 64.11 63.41 63.06 62.85 62.11 60.91 60.05 59.37 58.41 57.28 56.07 55.29 54.71 54.30 54.00 53.08 52.69 52.65 53.38 55.30 56.70 57.09 56.86 57.43 55.59 54.65 55.31 53.21 52.97
56.72 58.08 59.34 60.18 61.93 62.62 62.58 63.92 63.23 62.79 63.19 63.73 63.72 64.11 64.52 63.66 63.53 62.52 61.05 59.80 58.97 59.10 58.24 56.92 55.82 54.70 54.24 53.84 53.02 52.87 52.50 52.32 53.10 54.51 55.89 55.89 55.41 55.69 54.28 53.03 52.91 52.49 52.30
58.61 60.08 61.04 61.87 63.52 63.38 62.77 63.75 63.38 62.65 62.93 62.81 63.98 65.63 64.18 63.91 63.47 62.70 60.95 59.49 58.59 58.02 57.34 56.29 55.39 54.85 54.08 53.22 52.32 52.81 53.22 52.54 52.42 52.41 55.57 56.24 54.65 53.62 52.55 51.82 51.05 50.65 50.79
60.71 60.88 61.85 61.82 63.28 64.04 63.08 63.02 62.98 63.01 62.94 63.19 64.22 66.03 66.51 64.57 64.18 61.89 59.48 58.38 58.10 56.86 56.52 55.49 55.49 54.67 54.21 53.76 54.17 54.54 54.51 53.61 52.34 52.32 53.24 55.27 55.00 51.65 50.75 49.00 48.18 48.68 48.97
60.73 60.67 61.30 61.98 62.30 64.85 64.64 63.40 63.59 63.87 63.31 63.88 65.27 65.86 66.62 66.14 63.76 61.63 60.39 59.10 57.48 56.67 54.92 55.31 55.09 54.86 53.64 54.09 54.00 54.77 54.73 53.98 51.45 50.76 50.84 51.73 52.28 51.23 50.60 48.91 45.96 45.71 47.14
61.71 62.13 62.98 62.89 63.70 65.61 65.42 64.35 63.40 63.52 63.52 64.72 65.41 65.95 66.09 64.57 63.33 62.54 60.61 58.27 57.25 56.31 56.06 55.51 54.84 54.58 54.93 55.37 52.33 52.59 53.85 52.85 51.81 51.14 50.50 50.50 51.04 50.63 50.33 49.52 49.81 49.67 44.67
62.39 62.83 63.58 63.79 64.59 65.37 64.28 62.18 61.16 61.11 62.53 63.58 64.94 65.44 64.40 63.66 62.73 61.72 59.97 57.29 56.73 56.32 55.60 55.86 54.90 53.70 53.17 54.87 52.91 52.31 52.10 51.18 50.78 50.68 50.76 50.55 50.00 49.59 50.47 49.37 49.10 48.82 48.62
62.41 62.78 63.37 64.26 65.47 65.21 64.52 62.97 61.82 61.74 62.89 63.47 64.54 64.49 64.17 62.88 62.10 61.01 59.65 56.83 55.11 56.39 55.68 55.38 54.44 53.24 54.05 53.88 51.04 49.36 48.76 49.48 49.41 49.82 50.35 49.35 50.01 49.64 48.72 48.86 48.72 48.51 48.54
62.94 63.25 63.42 64.27 65.13 65.07 65.25 63.64 62.44 62.45 62.75 62.39 62.71 62.30 62.51 61.87 61.04 59.99 57.50 55.83 55.34 56.53 55.17 55.09 54.83 53.57 51.98 51.72 49.82 47.26 47.21 46.08 46.89 49.14 48.32 48.48 48.65 48.53 49.14 48.68 48.20 47.16 47.44
63.10 63.96 64.12 64.42 64.87 65.00 65.44 63.55 61.61 60.20 59.26 61.44 62.76 62.56 62.68 61.21 60.08 59.04 55.57 54.96 55.69 55.60 55.54 55.03 54.58 54.03 52.28 49.12 47.33 45.83 47.76 47.07 43.86 42.77 47.02 47.03 48.40 47.34 48.05 47.71 46.91 46.50 46.38
64.15 64.23 64.40 64.08 64.39 64.96 64.88 64.39 62.68 61.11 60.76 62.49 62.88 61.81 60.80 59.22 57.49 55.50 55.59 53.89 54.32 55.42 55.64 54.72 53.32 52.06 47.89 44.33 44.76 45.29 45.81 46.68 46.07 42.65 40.42 43.22 46.31 46.84 46.90 46.40 46.19 45.91 45.77
64.84 64.95 64.65 64.17 64.08 64.90 64.83 64.33 63.81 62.84 62.04 61.30 60.54 60.27 59.79 59.35 57.74 56.38 53.46 53.62 54.60 55.30 54.80 53.61 52.22 48.18 46.15 43.60 43.55 43.62 43.01 43.04 43.17 42.73 41.49 42.22 42.44 44.25 45.96 45.36 44.87 44.77 44.93

GFSSE_sfc_wetblb_063.txt.gz
Wetbulb
70.01 71.59 71.85 72.78 72.84 72.48 72.14 71.85 71.39 70.96 70.77 70.47 70.23 70.15 70.33 70.38 70.50 70.46 71.24 71.39 71.76 71.75 70.47 69.75 69.30 68.51 68.02 67.75 67.40 67.12 67.29 67.99 67.82 67.87 67.17 66.86 66.81 66.68 66.72 67.39 66.95 65.59 66.32
70.91 71.43 71.12 72.13 72.46 72.27 71.99 71.40 70.90 70.25 70.37 70.23 70.05 69.98 69.86 70.11 69.96 70.28 70.80 71.49 71.71 71.15 69.15 68.35 67.65 67.09 67.00 66.80 66.76 66.37 66.11 66.75 67.52 67.82 67.69 66.51 66.29 66.54 66.55 66.23 66.54 65.54 65.81
71.74 70.74 72.26 71.16 71.77 71.80 71.68 71.03 70.44 70.24 70.37 70.13 69.81 69.62 69.84 70.04 70.08 70.36 70.60 70.87 71.12 70.42 68.00 67.64 67.27 67.21 67.02 66.52 66.13 65.48 65.19 65.63 65.57 66.24 68.27 64.00 64.29 65.60 66.08 65.76 65.84 65.72 65.94
71.00 69.94 72.16 70.49 70.97 71.43 70.81 70.19 70.09 70.25 70.17 69.88 69.50 69.67 69.89 70.23 70.74 70.94 70.60 70.50 70.75 69.87 67.59 67.54 67.25 66.77 66.35 66.10 65.45 65.08 64.81 64.93 64.97 65.73 64.45 63.08 62.76 64.53 64.46 63.99 63.95 64.12 64.55
70.12 69.02 71.72 70.08 70.20 70.59 70.05 69.71 69.59 69.77 69.26 69.27 69.27 69.79 70.06 70.96 71.18 71.18 70.66 70.22 70.26 68.86 67.43 67.27 66.77 66.06 65.52 65.60 65.07 64.44 64.21 64.62 65.04 64.28 62.87 62.44 61.56 62.61 63.00 63.03 62.85 62.67 62.39
71.09 68.84 69.21 68.85 69.46 69.60 69.60 69.39 69.29 68.95 68.43 68.58 68.91 69.57 70.01 70.81 70.81 70.39 69.90 69.71 69.65 68.27 66.92 66.12 65.43 64.65 64.72 64.49 63.54 62.71 63.01 63.45 64.21 63.25 62.70 62.09 60.74 61.64 61.92 61.73 61.35 61.28 61.38
65.64 64.16 68.82 67.69 68.41 68.88 69.37 69.37 68.82 68.41 68.47 68.63 68.73 68.64 69.17 69.39 69.55 69.73 69.56 68.91 67.84 67.39 65.69 64.55 64.02 63.60 63.47 63.08 62.29 62.36 62.83 62.52 62.27 62.54 61.83 60.83 60.41 60.66 60.84 60.35 60.19 60.32 60.02
64.24 64.31 66.48 66.40 65.46 66.35 67.41 67.72 67.59 67.80 68.13 67.98 68.06 67.99 68.21 67.88 67.85 68.10 67.58 66.93 66.60 66.16 65.36 64.39 63.85 62.72 61.99 61.62 61.25 60.98 61.31 61.81 61.65 62.30 61.80 60.41 60.13 60.06 60.06 59.72 59.40 59.07 59.00
63.00 64.10 62.43 62.26 61.89 62.16 62.97 63.56 65.11 65.98 66.91 67.40 67.23 67.09 66.93 66.67 66.43 66.55 66.64 66.64 66.13 65.68 65.02 63.61 62.92 62.59 60.82 60.44 59.92 59.67 59.27 60.44 60.83 61.10 61.17 60.12 59.82 59.32 59.40 59.16 58.89 58.68 58.56
60.11 60.17 60.11 60.44 59.44 58.19 58.80 61.33 62.81 64.85 66.44 66.53 66.23 65.63 65.36 65.68 65.55 65.58 65.07 65.20 64.87 64.27 63.41 62.35 61.75 60.73 59.41 58.06 57.50 58.74 58.22 60.02 59.14 59.73 60.29 59.76 59.45 58.95 58.76 58.49 58.20 57.92 57.71
58.83 58.66 58.77 58.03 58.74 59.04 59.60 60.87 63.67 65.48 65.68 65.37 65.35 64.39 63.29 63.74 63.01 63.26 64.16 64.57 64.59 63.57 62.01 60.76 59.73 58.53 58.33 57.39 57.93 57.18 57.55 56.62 56.70 58.17 59.07 60.55 59.22 58.94 58.35 57.60 57.23 57.26 56.73
56.95 57.73 58.41 58.53 58.80 58.48 59.06 60.13 62.86 63.55 64.21 64.44 63.82 63.58 63.38 63.58 63.85 63.58 63.37 63.52 62.83 61.77 60.55 59.57 58.69 58.98 58.84 56.80 55.59 56.88 55.41 55.74 55.01 55.23 56.53 57.53 58.93 58.64 57.64 57.14 56.41 55.98 55.52
57.84 58.14 58.43 59.02 59.11 59.32 59.49 59.72 62.16 62.70 62.98 63.30 64.47 64.39 63.72 63.91 63.69 63.59 62.04 60.72 60.45 59.97 57.29 56.96 56.54 58.27 58.24 56.83 55.86 55.78 55.18 54.83 54.35 53.96 53.91 55.33 57.16 58.76 57.89 56.64 55.64 55.18 54.41
56.53 56.66 57.64 58.22 58.44 58.53 59.87 61.46 62.03 62.69 63.20 63.23 63.43 65.70 65.10 63.57 64.31 63.32 61.76 61.59 60.67 60.29 59.16 60.11 59.13 58.02 56.79 56.08 55.43 55.08 54.53 54.10 53.52 53.78 54.62 54.98 54.98 58.07 56.88 57.19 55.47 54.37 53.72
56.13 56.37 56.91 57.77 58.83 59.93 59.54 58.92 59.35 60.89 62.38 63.89 63.31 64.93 65.14 64.41 64.74 63.29 63.29 62.00 61.67 61.26 60.59 59.80 57.91 56.89 55.89 55.31 54.87 54.07 53.51 53.74 54.36 56.25 55.95 57.53 57.06 57.98 55.79 55.27 55.67 53.14 53.24
55.36 55.19 57.36 58.67 59.26 58.72 58.70 61.11 61.72 62.36 62.43 63.30 63.29 64.35 66.03 65.24 64.97 62.87 62.93 61.74 61.27 61.15 60.51 59.68 58.36 57.06 55.81 55.40 53.97 53.64 53.25 53.36 54.27 55.50 56.50 55.46 56.16 56.50 54.82 53.68 53.15 52.77 52.58
56.33 57.94 58.21 58.76 61.04 61.29 61.79 63.08 62.90 62.55 62.30 62.35 63.08 64.98 64.90 65.01 65.01 64.43 62.41 61.59 61.09 61.48 60.71 59.32 57.82 57.18 55.71 54.71 53.88 53.64 53.75 53.28 53.08 53.55 54.95 56.01 54.35 54.55 54.11 52.40 51.06 50.67 50.84
59.36 58.33 58.92 59.60 61.45 62.88 63.37 63.53 62.52 62.15 62.69 63.29 63.71 64.29 64.96 64.23 64.32 63.91 62.58 61.82 62.06 60.39 59.48 58.49 57.62 56.71 55.66 54.67 54.07 53.93 54.51 53.64 52.94 52.81 54.24 54.94 55.14 52.52 52.81 51.14 48.77 47.88 48.17
59.74 60.68 60.54 61.86 62.47 62.51 62.80 62.90 63.36 65.00 63.01 62.36 63.59 64.55 65.55 64.35 64.67 63.75 62.28 61.63 60.90 59.48 58.94 58.09 57.94 57.48 54.92 54.44 54.27 54.65 55.30 54.49 52.91 52.24 52.09 52.28 52.42 50.89 50.67 49.93 48.70 47.54 47.05
61.82 61.98 61.57 61.65 62.52 63.13 64.05 63.49 62.47 62.70 62.32 63.02 63.24 64.17 65.67 65.71 64.90 63.88 62.78 61.90 60.10 59.18 57.75 57.85 58.03 57.16 55.88 55.39 53.25 53.22 55.16 54.64 54.03 52.87 52.16 51.87 51.77 51.19 51.05 50.88 50.25 50.09 47.52
62.12 61.69 61.66 61.38 62.07 63.34 62.83 61.49 60.70 60.44 61.50 62.11 63.70 64.94 65.82 65.36 64.91 64.03 63.37 61.88 59.86 58.88 58.56 58.63 57.64 55.92 54.70 55.57 53.88 54.08 54.04 53.88 52.55 52.43 52.59 51.94 51.44 51.29 51.24 50.26 49.96 49.63 49.56
61.26 61.72 62.13 61.72 62.18 63.68 63.93 63.27 61.78 61.02 61.43 62.09 63.13 64.91 65.46 64.93 64.45 63.43 63.34 61.55 59.60 58.78 59.00 58.11 57.46 55.11 55.31 55.42 52.80 52.23 49.88 51.06 51.43 51.70 52.10 51.57 51.51 51.33 50.47 49.98 49.75 49.57 48.93
61.56 62.07 62.95 63.36 63.52 64.05 64.22 63.76 62.00 61.69 61.77 61.57 62.12 63.32 64.68 64.69 63.58 63.03 63.16 61.04 59.93 58.90 57.68 57.82 56.92 55.79 53.53 54.24 53.12 50.68 48.31 45.11 48.34 51.89 51.28 50.74 50.63 50.03 49.93 49.77 49.95 48.87 47.92
62.75 63.29 63.55 63.87 64.27 64.70 64.96 63.78 61.92 59.74 58.46 60.54 61.78 63.10 62.97 63.52 62.65 62.74 61.93 60.63 58.97 58.28 57.29 56.42 57.06 56.79 55.53 52.85 52.12 49.31 47.44 46.56 44.29 44.54 49.29 49.05 49.61 48.66 49.50 49.24 49.00 48.22 47.44
64.15 63.98 64.57 64.02 63.89 64.71 64.89 64.67 63.23 61.52 61.02 61.87 62.21 62.87 62.56 62.99 62.92 61.52 60.37 58.07 57.52 57.71 56.97 55.68 56.52 55.84 55.11 53.14 47.56 45.26 47.08 47.30 48.89 44.28 42.52 45.67 47.85 48.28 48.66 48.41 47.80 47.34 46.86
64.56 65.29 64.85 64.34 64.02 64.95 65.19 65.01 64.67 63.41 62.84 60.84 61.62 62.27 62.32 61.93 61.43 60.61 58.80 57.79 57.47 55.95 55.40 54.43 56.96 55.60 51.24 48.10 45.03 46.30 43.93 44.27 44.11 42.67 42.93 44.02 43.92 46.14 47.48 47.60 46.75 46.12 46.03

GFSSE_sfc_wetblb_066.txt.gz
Wetbulb
69.16 71.03 71.92 72.45 72.57 72.41 72.04 71.72 71.31 70.92 70.85 71.01 70.94 70.89 70.72 70.88 70.73 71.08 71.69 71.72 71.72 71.27 69.65 69.13 68.30 67.71 67.52 67.40 67.33 67.34 68.14 68.36 67.93 67.83 67.18 66.74 66.98 67.30 66.91 67.37 66.49 64.24 66.36
66.08 71.46 71.57 71.96 72.23 72.17 71.99 71.47 71.02 70.74 70.79 70.84 70.74 70.49 70.45 70.65 71.33 71.58 71.56 71.13 70.76 69.94 68.81 67.84 67.46 67.30 67.02 66.43 66.33 66.43 66.76 67.97 67.51 67.58 67.07 65.93 66.47 66.86 66.84 65.90 66.14 63.99 66.50
62.43 70.16 71.94 71.44 71.92 72.18 71.93 71.45 70.89 70.81 70.75 70.67 70.45 70.34 70.57 70.87 71.28 71.58 71.32 70.24 69.87 69.20 67.92 67.80 67.35 66.96 66.24 65.55 65.76 66.02 66.31 66.40 66.26 66.79 65.76 61.30 62.18 65.03 65.18 64.75 64.87 64.82 65.11
62.77 69.62 71.43 70.50 71.45 71.80 71.24 70.75 70.48 70.70 70.57 70.30 70.25 70.23 70.31 70.80 70.99 71.36 70.65 69.36 68.99 68.97 67.94 67.39 67.00 66.35 65.46 65.06 65.44 65.74 65.93 66.04 66.11 65.36 60.22 59.83 60.58 64.42 64.28 63.63 63.58 63.80 64.13
69.33 70.11 71.52 70.41 70.42 71.13 70.46 70.09 70.14 70.02 69.56 69.44 69.79 70.31 70.53 70.82 71.12 71.06 70.16 68.53 68.78 68.81 67.35 66.96 66.28 65.44 64.55 65.00 64.88 64.72 64.53 64.83 64.60 61.21 58.10 57.90 58.54 61.95 62.61 62.33 62.09 62.52 62.38
69.31 70.12 68.86 69.67 70.07 70.38 70.08 70.05 69.66 69.20 68.76 69.06 69.58 70.42 71.16 71.28 71.09 70.55 69.09 68.29 68.75 68.02 66.56 65.85 64.80 64.10 64.02 64.00 63.47 63.69 63.76 63.67 64.27 58.80 57.58 58.63 58.25 61.71 61.58 61.32 60.99 60.87 61.17
66.08 67.63 65.86 64.73 68.88 69.69 70.09 69.80 69.09 68.79 68.70 68.95 69.56 70.29 70.62 70.87 70.22 69.81 68.37 67.94 67.56 66.86 65.20 64.49 63.84 63.30 62.97 63.08 62.67 62.63 62.32 62.36 59.58 57.91 56.90 56.42 57.33 60.89 61.15 60.55 60.08 59.96 60.17
63.67 62.98 62.64 64.30 63.89 68.01 68.94 68.34 67.90 68.06 68.27 68.36 68.80 69.21 69.75 69.75 69.39 68.65 67.68 67.10 66.54 65.91 65.15 63.83 63.12 62.14 61.82 61.70 61.20 60.61 60.72 61.80 60.72 57.94 57.01 56.23 59.38 60.42 60.45 60.06 59.59 59.29 59.41
64.25 62.43 60.71 60.20 61.33 62.94 63.91 65.04 65.60 66.97 67.37 67.45 67.56 67.23 67.34 67.17 66.91 66.98 66.84 66.38 65.94 65.32 64.36 62.96 61.99 61.90 60.61 60.31 59.52 59.12 59.81 60.83 57.64 58.24 57.94 56.26 59.58 59.74 59.80 59.50 59.31 58.83 58.76
63.51 63.06 60.41 59.29 59.13 58.98 60.33 62.97 63.85 66.19 66.26 66.32 66.34 65.96 65.38 65.64 66.01 65.92 65.67 65.72 65.34 64.53 63.36 62.16 61.37 60.67 59.23 58.67 57.49 57.54 59.06 59.35 56.44 57.27 56.74 56.73 59.28 59.41 59.12 58.92 58.57 58.16 57.97
58.60 60.05 60.44 58.65 57.88 57.73 58.23 60.02 62.01 66.12 65.66 65.34 65.24 64.53 62.94 62.71 62.40 62.71 64.15 64.35 64.30 63.54 62.56 61.24 60.05 59.41 58.17 57.24 58.17 57.72 57.90 52.09 54.02 56.61 56.69 60.65 59.31 59.02 58.57 58.04 57.59 57.11 57.04
56.78 57.98 58.49 58.18 58.38 58.72 59.73 57.61 59.23 63.03 63.73 63.34 62.96 62.19 61.67 60.62 61.93 62.72 63.56 63.45 63.09 62.37 61.62 60.92 60.11 59.01 57.77 51.48 51.74 56.32 51.62 52.36 52.58 55.20 54.72 60.37 59.29 58.96 57.99 57.22 56.74 55.96 56.01
56.60 57.41 57.84 58.02 58.63 58.78 58.70 57.94 61.09 61.68 62.49 62.78 62.58 62.42 61.95 62.14 61.52 60.99 60.21 59.28 58.71 58.90 54.86 56.21 55.87 54.59 55.16 53.39 52.74 52.19 51.88 51.00 50.75 50.28 54.87 58.32 59.87 59.03 57.74 56.69 56.03 55.35 54.82
56.33 57.09 57.72 58.16 58.65 58.47 59.10 60.21 60.84 61.19 61.12 60.83 63.12 62.72 62.31 61.49 61.21 59.75 58.60 58.68 57.54 56.86 54.06 55.55 56.15 55.04 53.39 53.16 52.64 51.57 51.19 50.01 49.99 50.65 53.75 55.90 58.75 58.47 58.32 56.96 55.97 54.76 53.80
55.72 56.63 56.93 58.22 58.37 58.67 58.81 60.04 60.69 60.66 60.44 61.59 62.85 63.38 62.45 61.55 61.07 60.25 59.96 58.65 57.89 58.81 57.55 57.39 54.93 53.85 52.96 52.19 51.70 51.21 50.72 50.10 50.84 52.87 53.50 57.65 57.47 58.76 56.83 57.39 55.27 53.94 53.80
56.08 56.12 57.11 57.73 59.42 58.35 58.94 59.45 59.71 60.59 61.95 61.96 62.86 63.73 64.32 62.33 62.26 60.59 60.96 59.31 59.17 59.00 58.40 57.09 55.08 53.44 52.38 51.71 51.04 50.55 50.00 50.60 50.51 52.40 52.17 53.27 57.08 57.96 56.74 54.58 53.98 53.34 52.79
55.44 56.41 56.61 57.97 58.68 58.58 57.54 57.69 58.36 58.50 61.23 61.67 62.20 63.90 64.04 63.87 62.93 61.89 60.49 60.01 59.18 58.98 58.37 57.26 55.29 54.32 52.12 52.83 51.02 50.57 50.41 49.67 49.45 49.76 52.24 51.88 52.52 55.36 56.04 54.67 53.25 51.57 50.11
56.00 56.99 57.44 58.48 57.84 58.20 58.98 57.73 60.12 60.22 60.54 61.31 62.14 62.53 63.27 63.14 62.92 61.88 60.79 59.88 59.30 58.84 57.28 55.12 54.08 52.85 52.31 50.90 49.77 49.64 49.70 49.69 49.14 48.93 49.65 51.53 51.50 51.85 54.21 53.97 51.63 49.51 48.38
57.30 56.99 56.01 57.47 58.25 59.68 60.76 60.78 61.37 61.15 61.18 61.14 61.86 62.45 62.67 62.59 62.80 61.66 61.00 59.78 59.25 58.07 56.72 56.22 54.90 54.28 51.50 50.11 50.68 50.43 50.39 49.73 48.80 50.40 48.86 48.51 47.65 47.31 48.88 52.74 51.76 50.59 48.76
58.21 56.24 56.62 57.61 58.96 60.51 61.53 61.88 61.27 60.99 60.75 60.76 60.62 61.97 62.45 61.63 62.81 62.18 60.58 59.83 58.03 57.29 56.30 54.88 54.86 54.07 52.58 50.94 52.39 51.02 50.82 50.30 49.72 48.59 47.86 49.64 48.60 48.14 46.72 46.99 46.11 46.64 49.92
58.73 58.53 58.82 58.56 60.92 61.06 59.73 59.38 59.10 59.23 59.45 59.75 60.48 61.50 63.56 63.63 63.60 62.33 60.38 60.32 58.09 56.74 55.54 55.04 55.07 53.53 51.28 51.33 49.59 49.54 49.89 50.24 48.67 48.01 48.45 47.95 48.10 48.12 47.18 46.26 45.42 44.95 45.32
58.86 59.81 60.09 60.50 61.17 61.28 60.81 60.40 59.58 59.79 60.09 59.88 60.70 61.63 63.49 63.43 63.56 63.23 62.01 60.51 58.05 56.87 56.37 55.91 54.33 52.36 52.47 52.01 48.37 48.26 44.28 46.26 47.16 48.56 48.55 48.51 46.83 47.40 47.88 47.40 46.22 45.71 45.14
59.00 59.61 59.92 60.28 60.41 61.26 61.51 61.21 60.55 60.04 59.50 59.26 59.71 60.48 62.95 63.71 63.19 62.71 61.86 60.94 58.32 57.50 56.32 56.21 55.05 53.98 51.19 52.22 49.81 46.83 43.65 42.29 43.12 48.55 48.28 46.99 46.54 45.63 45.53 45.70 46.14 46.59 44.39
59.27 60.38 60.81 60.66 60.37 61.19 62.41 61.35 59.81 57.53 56.22 58.28 58.76 60.50 62.75 63.49 62.64 62.80 61.57 60.81 58.57 57.07 55.51 55.27 55.42 53.62 52.68 50.12 49.02 47.71 44.01 43.84 41.62 41.52 45.97 46.61 45.91 45.73 44.50 44.61 44.74 44.93 44.56
60.81 60.38 61.24 61.90 61.45 61.79 62.12 62.03 60.95 58.87 58.55 58.65 59.78 59.62 61.77 61.77 61.42 61.49 60.90 59.87 56.45 55.88 55.07 55.78 53.73 53.23 52.51 51.11 48.39 43.45 43.87 44.52 45.59 41.63 39.87 41.57 44.17 44.11 44.48 45.61 44.41 42.92 43.59
61.97 62.03 61.37 61.75 61.95 62.58 62.83 62.28 62.00 59.99 59.31 58.11 58.70 58.98 60.84 60.88 60.92 60.88 59.87 57.17 56.82 55.07 54.55 55.01 54.24 52.79 51.17 46.52 44.98 43.67 43.47 43.37 42.72 41.96 37.77 39.00 39.59 41.39 43.23 43.30 42.42 41.76 41.96

GFSSE_sfc_wetblb_069.txt.gz
Wetbulb
69.01 71.79 71.69 72.46 72.64 72.27 71.73 71.43 70.86 70.82 70.99 71.21 71.09 71.03 71.02 71.22 71.76 71.96 71.54 70.81 70.49 70.18 68.80 68.13 67.94 67.79 68.13 68.22 67.85 68.34 68.56 67.95 67.56 67.76 67.50 66.93 66.90 66.71 66.41 65.95 66.00 64.77 66.95
63.20 69.77 69.68 72.16 72.53 72.32 71.86 71.42 70.85 70.78 71.14 71.21 71.04 70.82 70.94 71.82 71.75 71.66 71.00 70.42 69.78 68.78 68.11 67.55 66.86 66.96 67.31 67.52 67.57 68.19 68.14 67.40 66.64 66.23 65.35 65.46 65.45 66.06 65.79 65.19 66.12 64.66 66.38
63.55 64.52 66.90 68.95 72.06 72.13 71.74 71.35 71.09 71.21 71.21 71.06 70.77 70.94 71.69 71.87 71.53 70.83 70.22 69.56 69.41 68.72 67.74 67.14 66.05 65.84 66.29 66.23 66.74 66.67 66.19 66.30 65.57 64.97 63.61 60.66 61.48 64.57 64.80 64.59 64.42 64.56 65.03
64.43 64.03 64.19 65.33 69.12 71.88 71.35 70.86 70.78 71.14 71.06 70.79 70.77 71.47 71.67 71.60 70.85 70.03 69.39 68.86 68.95 68.46 67.10 66.33 65.60 65.52 65.69 65.18 65.37 65.58 65.44 64.11 63.40 62.05 58.72 58.81 60.90 63.77 63.80 63.47 63.32 63.41 64.18
63.14 63.64 63.95 66.81 69.83 71.35 70.94 70.52 70.51 70.31 70.07 70.22 70.30 71.19 71.65 71.43 70.32 69.51 68.85 68.51 68.54 67.74 66.64 65.75 65.07 64.49 63.99 64.52 64.50 64.37 64.84 63.67 62.34 59.09 56.10 56.83 58.49 61.76 62.59 62.19 62.05 62.85 63.43
68.10 67.47 67.88 68.89 69.94 70.72 70.82 70.57 70.03 69.57 69.42 69.45 69.84 70.74 71.50 71.19 69.80 69.21 68.45 68.29 68.15 66.98 65.77 64.88 63.85 62.90 63.46 63.60 63.66 63.43 63.80 62.25 60.16 55.52 54.54 58.59 57.78 61.88 61.56 61.16 60.92 61.65 61.60
65.09 64.79 65.23 65.22 67.21 65.34 70.59 70.27 69.51 69.08 69.06 69.19 69.76 70.14 70.47 70.30 69.16 68.54 68.07 67.45 66.98 66.10 64.79 63.89 62.73 62.10 62.61 62.70 62.45 62.60 63.20 61.26 56.31 54.98 53.78 54.37 57.48 61.18 61.30 60.71 60.48 60.90 60.54
63.03 63.27 64.24 65.56 64.63 63.78 62.88 69.00 68.70 68.64 68.77 69.47 69.76 70.02 69.96 69.18 68.44 68.07 67.25 66.70 66.27 65.80 64.50 63.20 62.46 61.76 61.87 61.50 61.81 61.44 61.98 60.59 57.29 55.31 54.58 54.79 59.92 60.74 60.81 60.01 59.71 59.94 59.61
61.74 61.05 61.91 62.50 62.46 63.26 62.38 65.41 66.03 66.77 68.24 68.99 69.13 68.85 68.69 67.46 67.23 67.02 66.51 66.40 65.87 65.28 63.58 62.43 61.76 61.76 61.05 60.44 60.09 59.96 60.39 60.60 55.80 55.71 56.31 54.54 60.20 60.31 60.34 59.78 59.57 59.29 59.13
61.78 59.89 59.76 60.28 60.58 60.63 61.02 62.61 62.76 63.42 65.43 66.87 67.17 66.99 66.19 66.25 66.15 66.12 65.72 65.64 65.21 64.37 62.78 61.52 61.48 60.39 59.13 58.37 58.32 58.21 59.26 59.80 55.25 55.05 55.00 56.49 59.62 59.82 59.64 59.11 58.60 58.55 58.51
59.86 59.51 58.21 58.58 59.39 59.61 59.73 60.82 62.24 63.81 65.56 64.45 65.16 64.94 63.96 63.47 62.91 63.17 64.37 64.56 64.38 63.72 62.85 61.23 60.56 58.99 57.68 56.79 56.86 57.58 56.15 54.63 54.97 55.27 55.24 60.24 59.46 59.31 58.92 58.12 57.66 57.54 57.18
57.17 57.62 57.69 57.22 57.52 58.51 59.56 59.60 60.44 63.23 63.17 62.23 61.43 60.15 60.91 61.11 61.65 62.50 63.28 63.76 63.63 62.99 62.30 61.07 59.69 58.53 54.96 49.32 50.17 53.63 48.76 53.10 54.73 54.35 55.96 60.50 59.25 58.92 58.32 57.34 56.69 56.65 56.08
57.13 57.61 58.14 58.05 58.76 57.52 56.74 58.25 60.09 61.67 62.04 61.47 60.53 59.43 60.91 61.04 60.35 59.79 59.53 59.03 57.96 59.23 56.21 56.05 54.43 52.33 52.53 49.95 49.31 48.74 48.61 49.31 48.56 51.23 57.67 60.60 59.57 58.99 58.23 57.29 56.28 55.60 55.47
55.99 56.69 57.61 58.32 58.63 57.08 57.01 58.15 60.46 61.30 61.30 60.74 60.05 61.04 59.69 58.73 57.66 57.68 57.08 56.55 54.44 53.76 51.29 52.06 52.61 51.34 49.97 50.63 49.87 48.99 47.70 46.83 46.55 48.46 54.45 59.12 60.18 58.90 58.23 57.18 56.13 55.11 54.18
55.84 56.81 57.93 58.33 57.96 58.77 59.53 60.42 60.62 60.83 59.86 60.50 60.63 61.09 59.46 58.57 56.79 57.13 56.87 55.88 55.29 54.47 52.71 53.86 51.59 51.54 49.95 49.58 49.14 48.82 48.22 47.68 49.17 50.03 50.23 57.42 59.06 59.15 58.49 57.35 56.46 55.11 54.25
55.97 56.37 57.95 58.24 58.24 59.18 58.51 58.98 59.89 60.49 59.64 60.85 60.65 60.80 60.50 59.11 57.89 57.24 56.62 56.00 55.43 56.04 55.72 53.24 51.93 50.86 49.71 49.25 48.53 48.36 48.16 48.21 50.45 50.96 51.87 53.80 57.32 58.63 57.70 56.44 55.93 53.95 53.43
56.09 56.76 57.41 58.10 57.94 57.58 57.16 58.49 59.06 59.61 60.64 60.05 60.70 61.47 60.22 60.19 57.84 58.35 57.30 56.44 56.73 56.35 55.82 53.61 52.63 51.01 49.93 49.62 48.59 48.40 47.98 47.72 47.65 50.10 51.00 51.24 54.12 56.73 57.05 55.77 54.77 53.12 51.51
55.95 56.00 57.58 58.79 57.24 57.85 57.83 58.32 58.54 58.53 59.37 59.55 59.96 60.35 60.74 61.22 60.24 58.97 57.89 57.75 57.19 56.91 55.21 53.17 52.05 50.74 49.65 48.54 47.14 46.69 47.13 47.57 46.97 46.94 50.37 50.45 50.12 51.52 55.22 55.81 53.64 51.47 49.58
55.70 56.78 57.08 58.01 57.22 57.87 57.62 57.58 57.75 57.73 57.85 58.49 58.92 59.31 60.27 60.89 60.57 59.50 58.39 57.99 57.08 55.74 54.15 53.34 52.00 50.98 49.63 48.10 47.78 47.19 46.65 46.21 46.29 48.50 47.38 49.35 49.11 48.92 48.56 54.29 53.26 51.83 49.94
56.01 56.39 56.56 57.30 56.85 57.06 57.51 55.53 57.25 56.03 57.13 57.45 58.49 59.71 59.94 59.91 60.59 59.66 59.03 57.09 55.90 55.02 54.34 53.53 52.07 52.59 50.39 48.31 50.98 49.38 47.09 47.11 45.79 45.38 45.64 47.39 45.57 46.51 47.36 47.35 47.00 47.16 51.37
55.26 54.54 54.79 55.61 55.72 56.54 55.46 54.72 56.78 55.33 55.44 55.88 56.76 59.89 59.73 59.50 60.31 59.05 58.09 57.21 55.39 54.74 54.08 52.89 51.85 51.60 49.86 49.52 47.38 46.67 46.95 46.99 46.38 45.98 45.02 45.26 46.19 45.59 44.75 44.66 43.35 43.07 46.85
52.69 53.22 54.10 54.75 55.20 57.28 57.92 57.62 56.01 56.74 55.66 55.80 56.44 57.64 60.67 60.03 60.32 59.77 58.39 57.82 55.48 54.47 54.11 52.29 52.17 50.88 50.99 49.67 46.34 46.21 43.16 44.57 45.67 46.16 45.69 46.26 45.74 45.53 45.66 45.11 44.24 43.18 42.45
52.21 52.92 53.87 55.01 56.46 58.41 58.09 57.13 55.68 56.11 55.91 55.58 55.27 57.07 60.33 61.52 61.76 61.20 59.86 58.84 56.32 55.63 54.63 52.87 52.04 51.43 50.65 51.35 48.65 47.61 43.12 40.76 41.98 45.02 45.56 47.46 46.50 44.16 44.12 44.63 44.55 44.27 43.49
54.88 55.68 56.27 56.74 58.12 58.57 58.18 57.34 56.28 55.97 55.24 56.34 55.70 56.27 60.60 61.48 61.69 61.48 60.91 60.11 57.40 56.58 55.04 53.94 55.22 54.53 51.85 50.00 48.87 46.91 44.84 44.04 40.27 39.46 43.43 45.67 46.32 44.31 42.97 42.44 43.05 44.03 42.49
56.33 57.26 57.43 57.81 57.90 58.52 58.55 58.27 56.94 55.56 55.61 55.25 55.54 56.56 59.86 60.96 61.27 61.42 60.26 58.96 56.91 56.65 55.51 55.14 54.79 53.55 52.93 51.50 48.46 44.84 44.82 44.49 44.29 40.45 37.82 41.77 44.34 42.54 42.34 42.54 42.70 42.69 42.36
57.55 57.46 57.80 57.42 57.40 58.13 58.49 58.78 59.08 57.67 54.70 54.08 55.29 55.87 58.68 60.27 60.45 60.16 60.51 59.49 57.30 55.48 54.63 53.53 53.65 53.40 51.23 48.57 46.59 45.64 44.93 43.70 43.21 42.02 39.67 39.19 38.65 41.12 41.72 42.01 42.47 41.00 40.43

GFSSE_sfc_wetblb_072.txt.gz
Wetbulb
69.81 70.66 71.76 72.49 72.25 72.07 71.58 71.19 71.07 70.84 71.24 71.83 71.73 71.83 71.80 71.66 71.30 70.81 70.52 70.23 70.03 69.69 68.50 68.68 69.50 68.67 68.29 67.81 67.27 67.38 67.52 67.88 67.61 67.55 66.68 66.21 66.53 66.34 66.68 66.46 66.41 64.23 66.24
69.52 71.05 71.34 72.09 72.04 71.79 71.07 70.98 70.81 70.86 71.07 71.42 71.41 71.86 71.47 71.16 70.56 70.44 70.18 69.64 69.41 68.92 67.88 68.15 68.57 68.31 68.02 67.57 67.66 67.34 65.90 66.43 66.01 65.69 65.39 65.53 65.64 65.39 65.88 65.62 65.95 64.97 66.63
65.96 69.72 71.32 71.12 71.41 71.45 70.67 71.18 71.07 71.14 71.13 71.03 71.41 71.58 71.47 70.92 70.59 69.95 69.37 69.08 68.80 68.21 66.96 67.93 67.67 67.41 67.06 65.90 65.57 66.24 64.94 64.36 64.60 64.03 63.85 60.44 61.02 64.79 64.67 64.14 65.35 66.22 65.98
65.36 64.70 68.05 66.86 68.37 68.26 70.54 70.68 70.98 71.32 70.86 71.12 71.54 71.64 71.10 70.73 70.07 69.51 69.17 68.52 68.32 67.94 66.67 67.18 67.18 66.52 65.05 64.64 65.92 65.63 64.14 62.84 62.28 61.68 58.19 58.80 60.37 63.91 63.72 63.46 64.54 64.76 64.94
64.28 64.28 64.83 66.88 66.05 69.20 69.96 70.09 70.78 70.62 70.26 70.95 71.42 71.30 70.82 70.27 69.78 69.36 68.68 67.96 67.71 67.33 65.82 66.67 66.13 64.65 63.57 64.74 64.70 64.47 63.45 62.09 61.32 58.52 55.09 56.39 58.45 61.44 62.69 63.07 62.60 62.92 62.00
66.54 64.68 64.30 65.97 66.43 67.34 69.33 69.73 70.45 69.97 69.86 70.36 70.86 70.64 70.29 69.90 69.75 69.11 68.14 67.59 67.35 66.67 65.26 65.13 64.24 63.28 63.50 64.78 64.39 63.52 62.48 60.99 58.86 53.88 54.50 58.83 57.54 61.82 62.01 62.15 61.51 61.30 61.11
64.89 64.62 66.99 65.01 65.34 64.63 65.28 65.33 69.86 69.63 69.64 70.16 70.54 69.68 69.45 69.47 69.15 68.24 67.45 66.98 66.56 65.73 63.83 63.02 62.75 63.37 63.02 64.12 63.31 62.12 61.27 59.98 54.79 53.16 53.65 54.77 57.58 61.39 61.58 61.51 60.83 60.26 59.86
62.09 63.67 64.99 64.96 65.37 64.05 63.06 64.39 68.60 68.76 69.16 69.67 69.78 68.91 68.90 68.76 68.20 67.61 66.92 66.33 65.83 65.10 63.80 62.43 62.82 62.91 62.48 63.11 63.14 61.49 60.55 59.64 55.79 53.44 54.14 55.26 60.15 60.95 61.09 60.90 60.07 59.47 59.41
61.13 62.21 62.69 63.19 63.34 63.22 62.53 64.27 66.57 66.31 68.23 69.16 68.70 68.01 67.85 67.53 66.84 66.76 66.27 66.02 64.89 63.94 63.01 62.38 61.89 61.79 61.59 61.05 62.17 61.08 59.90 58.94 54.17 54.61 55.69 54.85 60.72 60.62 60.60 60.32 59.73 59.05 58.72
59.38 60.10 60.35 60.72 60.65 60.46 60.56 62.03 62.42 63.18 65.11 67.42 67.35 66.99 66.40 66.03 65.96 65.63 65.33 65.12 64.50 63.45 62.43 61.78 61.01 60.87 60.55 60.26 61.72 60.63 59.88 58.51 52.95 53.01 53.62 56.73 60.20 60.20 59.97 59.39 59.27 58.48 57.95
58.34 58.45 60.23 60.12 59.98 59.76 59.99 61.09 61.08 62.19 63.97 65.86 65.90 65.72 64.39 63.77 63.30 62.36 64.00 64.19 63.93 63.13 61.99 61.07 60.61 58.83 57.49 58.97 60.64 59.90 58.09 53.71 53.27 53.48 53.98 60.28 59.78 59.74 59.09 58.47 57.94 57.82 57.50
56.36 57.10 58.64 58.97 58.77 59.12 59.43 58.78 58.99 60.75 62.40 62.73 62.27 61.41 62.15 61.59 61.74 62.43 63.33 63.48 63.29 62.47 61.15 60.32 59.91 58.22 54.01 49.11 50.53 55.60 52.42 53.43 53.50 53.85 55.24 60.26 59.32 59.20 58.32 57.80 57.20 56.82 56.77
56.72 56.96 57.24 58.03 58.76 57.63 57.76 57.62 59.48 61.05 61.62 60.66 60.45 60.83 61.26 61.57 61.07 60.08 60.07 59.22 58.53 58.77 55.18 53.95 51.29 50.97 48.89 47.84 47.47 48.35 50.56 51.86 51.85 54.09 58.35 60.22 59.39 59.02 58.14 56.88 56.72 56.36 55.52
56.76 56.86 57.67 58.29 57.50 57.56 56.94 57.36 59.51 60.52 61.10 60.22 60.27 60.63 59.71 58.25 56.90 56.18 56.08 54.78 53.65 52.88 51.17 50.61 51.27 49.14 48.51 48.43 47.81 47.51 47.73 48.53 49.44 52.18 57.49 60.05 59.49 58.74 58.40 57.34 56.13 55.25 54.46
55.86 56.98 57.74 57.81 56.27 57.21 57.56 57.77 58.80 60.60 59.88 59.69 60.51 59.61 58.59 56.71 55.70 54.99 54.06 52.87 52.59 51.03 52.30 52.14 49.93 49.04 47.91 48.00 47.80 47.42 46.64 46.67 47.99 50.14 51.82 59.54 60.01 59.13 58.33 57.73 56.54 55.68 54.10
56.36 57.10 57.76 57.54 57.54 57.77 58.43 59.85 60.40 60.11 59.99 60.12 60.60 59.73 58.37 56.50 55.72 54.76 53.70 53.54 53.27 51.39 53.57 51.68 50.73 49.52 48.56 48.23 47.54 47.55 47.74 48.25 48.18 49.10 50.38 54.25 58.92 59.78 59.23 57.73 56.63 54.87 54.21
56.60 57.69 57.26 58.05 58.70 58.72 59.01 59.94 59.97 59.53 60.44 60.03 60.53 59.84 58.88 56.93 55.56 55.66 53.85 53.82 53.92 53.55 53.90 51.42 50.52 49.39 48.19 48.32 47.03 46.67 47.25 48.87 48.87 49.76 50.64 51.61 54.61 57.83 58.01 57.11 55.62 54.75 53.08
56.53 56.86 57.84 58.67 58.00 57.91 58.01 59.43 59.41 59.15 59.91 60.31 60.38 59.76 59.24 57.73 56.88 56.75 55.28 54.85 55.56 54.88 53.96 52.09 50.79 49.08 47.81 47.28 45.92 45.95 45.34 46.16 48.26 48.81 50.07 50.81 51.06 52.27 55.78 56.93 55.32 53.61 50.85
56.50 56.89 57.83 57.37 56.56 56.46 56.76 56.73 57.67 57.77 58.68 59.50 59.79 59.46 58.72 58.50 58.66 57.45 56.34 56.00 55.63 54.93 53.21 52.41 50.58 49.63 47.72 46.84 46.32 45.16 45.27 45.49 45.17 48.38 49.01 49.51 49.12 49.80 49.77 55.56 55.27 53.61 51.27
56.08 56.86 57.55 56.40 56.66 56.88 57.18 56.54 56.99 56.49 57.63 58.20 58.38 58.57 59.35 59.54 59.02 57.43 56.42 56.41 55.23 54.04 52.28 51.47 50.58 50.57 49.14 47.73 49.13 47.47 44.87 44.88 44.44 44.25 47.04 49.40 48.59 48.62 48.34 48.73 49.21 47.84 52.29
55.64 56.36 56.79 56.19 56.54 57.18 55.54 54.74 55.11 54.88 54.40 55.20 56.80 58.30 58.57 58.68 58.80 57.41 57.35 55.77 54.48 53.50 52.86 51.95 50.70 49.91 50.04 47.48 46.53 45.37 45.29 45.31 43.84 43.96 43.68 44.74 44.92 44.97 46.51 46.39 44.89 43.11 46.94
54.24 54.64 54.26 55.57 55.43 55.62 55.52 54.15 55.94 54.47 54.20 56.50 56.09 58.01 58.82 58.20 58.63 57.72 57.29 56.04 54.13 53.05 52.50 51.86 50.81 49.72 49.75 48.33 45.63 46.95 44.74 45.42 45.06 45.05 43.65 43.99 43.22 44.05 45.16 44.88 43.19 42.85 42.93
53.44 53.36 53.31 54.90 54.87 55.46 55.92 54.37 54.37 54.78 54.11 54.15 53.97 55.58 58.36 58.58 58.55 58.68 57.54 56.66 55.20 53.78 52.77 51.55 50.47 50.12 48.51 49.41 49.23 47.86 44.37 43.34 43.63 45.44 45.31 44.63 44.60 43.46 44.36 44.10 43.62 43.61 42.87
52.40 53.05 53.16 53.96 53.59 55.21 56.61 54.98 54.45 54.54 53.84 54.99 54.45 54.84 56.72 59.07 58.93 59.58 58.84 57.33 55.69 54.62 53.18 52.93 52.55 51.29 51.59 50.82 49.83 47.45 45.88 45.34 42.51 41.71 44.43 44.96 45.95 45.63 45.17 43.67 42.89 43.11 42.93
52.22 52.00 52.63 53.46 54.23 55.68 57.09 56.09 55.92 54.64 55.85 54.81 53.80 54.15 55.73 58.77 59.64 59.79 59.59 58.21 56.62 55.96 55.03 54.77 53.35 52.14 52.50 51.04 49.13 45.43 45.09 45.48 45.61 43.12 41.67 42.89 44.80 44.50 44.92 43.94 41.55 41.33 41.87
51.84 51.97 52.62 52.97 54.04 55.86 57.40 56.75 56.00 55.47 53.34 53.21 54.62 54.12 54.99 58.32 59.45 59.99 60.08 59.83 58.84 56.18 54.75 54.76 53.63 53.36 52.47 50.96 48.35 46.58 45.94 45.04 44.42 43.72 42.05 41.88 40.49 41.63 43.06 42.97 40.97 41.98 41.27

GFSSE_sfc_wetblb_075.txt.gz
Wetbulb
69.50 70.34 71.68 72.11 71.91 71.44 71.39 71.18 71.36 71.38 71.09 71.51 71.63 71.66 71.58 71.53 71.48 71.12 70.51 70.15 69.93 70.21 69.15 68.82 69.18 68.16 67.75 67.51 67.34 67.23 67.69 67.47 66.99 65.70 66.47 66.67 67.08 66.74 66.77 66.14 66.02 63.67 66.36
68.46 70.73 71.29 71.60 71.74 71.27 71.41 71.25 71.25 71.38 71.32 71.30 71.29 71.41 71.15 71.08 70.91 70.41 69.90 69.54 69.85 70.11 68.96 68.57 68.07 67.69 67.19 66.65 66.45 66.09 65.51 65.71 65.99 66.09 65.60 65.61 66.22 65.77 66.46 67.12 67.16 65.11 66.18
68.04 69.84 70.92 70.88 71.38 71.29 71.09 71.39 71.26 71.83 72.00 71.85 71.43 71.13 70.99 70.77 70.48 69.87 69.56 69.27 69.34 69.64 68.55 68.36 68.20 68.10 67.11 66.45 65.61 65.15 64.81 64.50 64.70 64.20 63.77 59.60 61.27 65.11 66.21 65.76 65.72 65.65 65.63
66.00 65.58 68.05 67.32 68.67 70.82 70.89 70.87 70.87 71.26 71.87 71.59 71.43 70.94 70.72 70.28 70.02 69.59 68.93 68.17 69.12 69.24 68.30 67.96 67.19 66.74 66.33 66.36 64.88 63.99 63.87 63.05 62.49 61.29 57.62 58.24 60.61 64.43 65.23 64.66 63.99 64.25 64.15
64.23 64.61 66.43 65.98 65.69 67.17 68.34 67.97 68.83 69.93 70.08 71.22 70.95 70.91 70.55 70.14 69.75 69.12 67.88 67.42 68.46 68.85 67.64 66.59 65.39 65.81 66.12 65.24 64.31 63.00 62.29 61.92 61.37 58.15 55.31 56.15 58.01 62.35 63.49 62.64 61.64 61.98 61.34
63.80 64.10 65.87 66.29 65.92 66.95 68.13 68.89 67.70 68.61 69.02 70.09 70.62 70.52 70.11 70.02 69.41 68.51 67.47 67.15 68.25 68.37 66.16 64.46 64.27 65.09 64.87 64.31 63.53 62.19 61.35 60.81 58.70 53.77 54.83 58.99 57.45 62.87 62.43 61.74 60.97 60.94 60.68
64.03 65.02 63.72 65.63 65.73 65.67 65.95 66.30 68.12 68.36 68.85 69.35 69.98 69.58 69.47 69.37 68.69 67.72 66.82 66.63 67.03 66.75 64.52 63.66 65.16 65.82 64.38 63.24 62.37 61.42 60.85 59.68 54.36 53.26 53.81 54.79 58.12 62.21 62.03 61.01 60.61 60.09 59.74
63.14 64.70 63.86 65.61 64.93 64.58 63.62 64.07 65.70 66.99 67.45 68.78 69.14 69.01 69.01 68.59 67.75 67.27 66.37 65.84 65.36 65.03 64.24 63.90 64.99 64.44 63.56 62.33 61.25 61.15 60.72 59.54 55.47 53.34 54.40 55.63 60.50 61.67 61.44 60.59 59.88 59.32 58.88
62.25 63.13 63.58 63.96 63.89 64.25 64.92 64.70 65.23 65.76 67.09 67.85 68.22 67.95 67.69 67.04 66.63 66.38 65.91 65.13 64.57 63.62 63.31 62.80 63.16 64.07 62.97 61.97 61.46 60.63 59.90 58.55 53.15 54.28 55.70 55.68 60.90 61.20 61.16 60.19 59.47 58.70 58.53
60.12 60.73 60.81 61.85 61.75 61.23 61.33 65.30 65.92 65.76 65.56 66.11 66.17 67.03 66.37 66.03 65.84 65.58 64.82 64.24 63.44 62.68 62.45 61.92 61.76 62.55 62.98 61.58 60.78 60.09 59.71 57.62 52.39 52.81 53.72 57.24 60.39 60.88 60.76 59.78 59.10 58.35 58.05
58.70 59.68 60.34 60.26 60.28 59.93 61.13 63.29 63.73 65.02 65.29 65.35 65.77 65.80 64.28 63.79 63.22 61.82 63.33 63.39 62.77 61.85 61.69 60.58 60.19 62.30 62.13 61.17 60.83 59.81 57.26 53.25 53.07 53.18 54.31 60.54 60.01 60.34 59.85 59.18 58.64 57.76 57.19
57.16 58.24 59.14 59.31 59.29 59.86 60.25 59.26 60.46 62.61 62.96 63.37 63.43 63.08 62.43 61.00 60.91 61.76 62.41 62.57 61.85 61.12 60.94 60.65 58.84 58.37 58.01 57.07 57.44 56.87 52.68 52.58 52.87 53.47 55.07 60.27 59.52 59.85 59.15 58.32 58.00 57.49 56.31
56.59 57.44 58.41 58.72 59.07 58.67 58.11 58.72 59.49 60.93 61.42 60.96 61.53 61.43 61.02 61.29 61.23 60.31 59.26 58.19 55.62 56.33 51.72 52.50 51.02 49.32 48.25 50.36 50.14 51.13 51.93 52.26 52.46 53.82 57.80 60.10 59.27 59.11 58.79 58.02 57.29 56.58 55.68
56.23 56.59 57.75 58.29 57.61 56.88 57.69 58.04 59.64 60.71 60.69 60.33 60.74 60.74 59.94 58.90 57.75 56.76 55.93 54.28 51.19 50.01 49.90 50.37 49.16 47.48 47.12 48.22 49.71 49.76 50.58 50.85 52.02 53.88 57.41 59.92 59.67 58.99 58.35 57.61 56.86 55.77 54.91
55.97 56.53 57.53 57.16 56.29 55.97 57.05 58.32 58.93 60.09 60.68 60.47 60.59 59.81 59.02 57.60 56.19 54.88 53.04 51.26 49.65 50.03 50.72 49.08 47.99 47.68 46.65 46.73 47.20 48.57 48.96 49.88 51.74 53.20 54.59 59.49 59.74 58.86 58.51 58.14 56.84 55.65 54.41
56.47 56.81 57.83 56.15 56.43 56.86 56.77 58.14 58.37 60.11 59.60 60.49 60.00 58.85 57.80 56.64 55.35 53.47 51.73 50.58 49.57 50.86 51.14 48.89 48.06 47.28 46.76 46.67 45.67 45.91 46.41 47.74 48.94 50.80 52.67 56.17 59.00 59.50 58.90 57.86 56.99 56.38 54.83
56.73 57.48 57.29 56.29 56.90 57.03 57.05 57.73 59.54 59.64 59.58 59.45 59.20 58.35 56.76 55.70 53.99 52.59 51.53 51.01 50.85 51.61 50.79 49.40 48.54 47.51 46.64 47.07 46.41 46.37 46.96 47.07 46.70 48.24 50.66 52.13 55.91 58.64 59.00 58.49 56.92 55.24 54.34
56.98 56.97 57.76 58.25 57.38 58.26 58.29 58.95 59.96 59.75 59.42 59.70 59.10 58.09 56.45 55.94 55.19 53.30 52.56 52.33 53.06 52.62 51.18 49.77 48.50 47.30 46.53 45.88 45.10 45.01 46.54 47.56 47.16 47.41 48.85 50.87 52.36 53.07 56.49 57.27 57.07 55.13 52.74
56.85 57.50 57.40 58.03 57.38 58.23 58.74 58.52 58.58 58.69 59.09 59.77 59.05 58.39 56.68 56.05 56.47 54.69 53.58 53.47 54.04 53.55 52.23 51.13 49.80 48.74 46.49 45.67 45.07 44.07 43.63 45.33 47.14 48.93 48.15 49.28 50.40 50.53 50.76 56.50 56.37 55.33 52.70
56.61 57.45 57.79 57.69 57.59 57.46 56.93 57.03 57.05 57.07 57.95 59.24 59.10 58.64 57.65 56.11 56.69 55.77 54.55 54.24 54.66 53.47 52.60 51.36 50.06 48.83 47.67 46.66 47.69 45.92 43.99 43.82 43.54 44.78 46.84 49.13 49.01 49.07 49.30 50.24 51.33 50.20 53.24
56.18 56.60 57.28 56.35 56.37 56.56 55.98 55.23 54.93 54.82 56.20 57.01 58.56 58.33 58.21 57.48 57.00 56.29 55.16 54.41 54.18 53.54 53.07 51.73 49.73 49.24 48.23 46.41 45.01 44.33 44.57 44.82 43.60 42.58 43.33 46.38 47.64 48.12 47.72 47.33 47.00 44.76 47.81
54.73 55.91 56.59 55.54 56.09 56.39 56.29 56.22 56.37 55.38 55.39 56.12 56.82 57.09 58.24 57.91 57.49 56.83 56.09 55.04 54.53 53.24 51.69 50.07 49.77 49.21 48.57 46.94 44.90 45.38 43.25 44.15 45.00 45.51 42.85 42.87 44.14 43.92 45.93 46.34 45.38 43.91 42.29
53.77 55.02 55.37 55.04 55.15 56.32 56.04 54.27 55.00 54.94 54.59 53.88 53.46 55.10 56.62 57.60 57.81 57.11 56.51 55.50 53.46 52.68 51.61 50.55 50.20 49.97 48.18 48.45 49.28 47.43 44.59 43.58 44.28 44.44 44.48 45.07 44.27 43.96 44.24 44.91 44.39 43.28 42.31
53.53 53.95 53.88 54.80 54.73 55.36 55.18 52.98 53.48 52.66 51.93 53.31 53.63 53.86 55.62 57.20 56.92 57.60 56.89 55.68 54.49 53.24 51.72 51.76 51.35 50.36 50.18 48.59 48.57 47.32 46.65 47.09 43.94 42.88 44.86 45.47 46.51 45.64 44.74 43.50 43.02 44.76 44.32
53.26 53.16 52.91 53.30 54.69 55.47 54.98 53.43 52.92 51.26 52.04 52.56 53.16 53.57 53.34 56.15 57.30 57.54 57.52 55.74 55.40 54.39 54.43 53.63 52.60 50.68 51.56 51.80 49.03 45.45 45.14 45.74 45.77 44.23 42.93 44.37 45.49 45.60 45.65 45.42 44.84 43.90 43.56
51.72 51.78 52.28 51.85 52.34 53.85 54.43 54.66 52.70 52.68 52.75 52.62 52.32 52.64 52.75 54.33 56.61 57.52 57.71 57.31 56.94 55.97 54.16 53.81 53.55 51.95 51.20 51.04 49.41 47.40 45.12 45.42 44.84 44.64 43.43 43.76 43.22 43.40 43.34 43.52 43.43 43.64 43.56

GFSSE_sfc_wetblb_078.txt.gz
Wetbulb
67.39 70.13 71.70 72.10 72.03 71.84 71.55 71.33 71.91 71.97 72.06 72.38 72.00 71.76 71.76 71.78 71.78 71.57 71.35 71.11 70.89 70.79 69.45 68.68 69.02 68.20 68.16 67.98 67.17 67.40 67.65 67.11 67.33 67.77 67.10 67.07 66.85 66.09 66.00 65.66 66.68 65.36 66.80
67.26 70.73 70.96 71.41 71.75 71.64 71.65 71.17 71.53 72.01 72.29 72.22 71.71 71.58 71.48 71.50 71.19 70.81 70.47 70.26 70.37 70.14 68.92 68.35 67.96 67.73 67.70 67.43 66.82 66.22 66.68 66.45 66.29 66.99 66.73 66.37 67.51 67.55 67.16 66.48 66.10 64.90 65.71
69.16 70.30 70.06 70.10 70.86 71.43 70.65 70.80 71.23 72.09 72.14 71.86 71.73 71.45 71.42 71.11 70.76 70.28 70.11 69.91 69.96 69.79 68.54 68.02 67.62 67.20 66.97 66.60 66.06 65.51 65.08 64.74 64.75 64.39 63.69 61.56 64.31 66.92 66.70 65.95 65.16 64.69 64.43
67.18 67.97 67.70 69.22 69.34 69.63 69.23 69.58 69.95 71.59 71.71 71.66 71.55 71.33 71.21 70.60 70.22 70.11 69.71 69.30 69.47 69.48 68.11 67.62 67.90 66.72 65.86 65.39 64.85 64.65 64.14 63.43 62.85 61.76 58.13 59.48 63.16 65.38 65.07 64.45 63.64 63.61 62.92
65.25 66.29 66.31 67.24 66.57 66.82 67.20 66.36 68.61 70.30 70.83 70.87 70.88 71.09 70.87 70.41 70.15 69.74 69.20 68.88 69.32 69.69 68.81 68.59 68.08 66.79 65.00 64.73 64.39 63.29 62.86 62.43 61.56 58.42 56.36 57.81 60.88 62.68 63.40 62.50 61.74 61.82 61.49
64.46 65.20 65.98 66.37 66.84 66.88 66.88 66.19 65.62 68.33 69.44 70.03 70.14 70.32 70.26 70.00 69.67 69.05 68.73 68.69 68.81 68.40 67.02 67.11 67.29 65.39 64.44 63.81 63.30 62.38 61.89 61.15 59.02 55.06 56.56 60.44 58.98 62.80 62.31 61.59 61.09 60.67 60.51
63.91 64.17 65.77 65.27 65.16 65.46 66.71 66.02 66.41 66.69 68.46 68.94 69.80 69.56 69.53 69.36 68.61 68.20 68.07 68.07 67.57 66.75 65.83 66.42 65.35 64.21 63.71 62.88 62.08 61.64 60.92 59.87 54.71 54.13 54.85 56.67 59.23 62.06 62.17 61.21 60.67 60.32 60.00
63.41 64.38 64.72 66.17 66.44 66.23 67.27 67.97 67.42 67.03 67.84 68.51 68.88 68.87 69.13 68.38 67.59 67.54 67.65 66.88 65.69 65.58 66.36 66.25 64.93 63.59 62.74 62.25 61.52 61.21 60.78 59.44 55.59 54.37 55.23 57.51 60.81 61.80 61.47 60.57 59.77 59.52 59.41
62.14 63.97 62.89 64.57 64.20 64.58 64.45 65.58 66.62 67.06 67.31 67.60 68.06 68.10 67.80 67.05 66.36 66.72 66.49 65.63 64.83 65.50 66.42 65.19 63.90 63.13 62.67 61.95 61.47 60.89 60.13 58.59 54.04 55.15 56.33 57.59 61.33 61.45 60.83 60.18 59.58 58.93 58.70
60.35 61.26 62.73 63.11 60.87 60.57 62.84 65.14 65.13 66.16 66.14 66.49 66.97 66.99 66.33 65.84 65.64 65.14 64.58 64.22 64.06 65.06 65.62 64.38 63.40 62.66 62.25 61.58 60.95 60.52 59.96 57.97 53.59 54.44 55.15 58.46 61.28 61.14 60.67 60.01 59.54 58.77 58.16
59.37 60.00 60.72 60.48 60.46 59.80 60.78 64.38 65.11 66.37 65.51 65.44 65.47 65.60 64.23 63.61 62.82 61.13 62.30 62.95 62.85 62.78 63.87 64.43 63.10 62.12 61.36 60.98 60.67 59.90 57.06 53.68 54.02 54.49 55.76 61.05 61.21 61.05 60.20 59.45 58.83 58.48 57.67
57.49 58.61 59.39 59.55 59.58 60.44 60.19 62.45 64.41 64.05 63.97 63.55 63.55 63.28 62.73 61.75 60.54 61.27 61.25 62.15 61.91 61.61 62.51 63.25 63.28 61.56 59.51 57.26 57.35 56.67 53.38 53.56 53.76 54.44 56.31 60.70 60.32 60.65 60.02 59.04 57.93 57.63 57.08
57.13 58.07 58.65 58.64 59.59 59.07 58.21 61.02 62.25 61.80 62.50 62.20 61.80 61.80 60.51 60.54 60.65 59.82 58.38 57.14 56.58 56.96 56.49 58.74 58.53 54.20 54.73 53.98 52.53 52.49 52.92 53.25 53.54 54.77 58.44 60.32 59.94 59.79 59.56 58.81 57.64 56.98 56.34
56.40 57.13 58.30 58.73 58.03 57.86 58.52 59.96 61.25 61.27 60.98 60.25 60.97 60.30 60.11 59.31 58.28 57.04 55.36 52.52 49.62 49.60 49.11 49.04 49.45 49.78 51.27 51.52 52.15 52.09 52.05 52.31 52.88 54.70 58.07 59.87 59.75 59.39 59.21 58.29 57.34 56.36 55.66
56.00 56.76 57.50 57.66 56.97 57.05 56.66 58.74 60.60 60.93 60.57 60.61 60.50 59.82 59.12 57.73 56.20 54.96 52.40 50.80 49.48 50.17 48.87 47.62 47.79 49.28 50.27 50.49 50.66 51.63 51.19 51.87 53.18 54.42 55.76 59.40 59.42 59.04 58.63 58.19 57.02 56.27 55.41
56.24 56.84 57.02 56.64 56.54 57.07 57.06 58.85 59.72 60.47 60.66 60.73 59.51 58.32 58.01 56.90 55.41 53.54 51.29 50.29 50.42 51.08 48.59 47.68 47.03 47.53 47.88 48.12 48.39 50.08 50.26 51.20 52.59 53.50 54.86 57.21 58.97 59.41 58.88 58.17 57.71 56.80 55.70
56.68 57.68 56.44 56.30 56.60 56.62 57.54 58.15 59.40 59.87 60.47 60.26 58.82 57.09 56.88 56.08 54.41 52.91 51.20 50.37 50.82 51.53 49.35 47.94 47.17 47.09 45.69 46.22 46.65 47.18 48.21 49.53 50.87 52.32 53.93 54.85 57.05 58.75 59.15 58.89 57.32 56.77 55.73
57.13 57.20 57.03 57.43 56.70 57.23 57.09 57.84 59.45 59.14 59.56 59.75 58.52 56.86 55.97 55.41 53.95 52.52 51.63 51.05 51.62 51.98 50.15 48.65 47.73 46.51 46.26 45.29 44.63 46.17 46.91 47.43 47.37 49.36 51.36 52.81 54.29 55.45 57.89 58.85 58.53 56.39 55.03
57.14 57.38 57.16 57.27 56.70 57.64 57.82 59.05 59.18 59.37 59.09 58.82 58.31 57.08 56.01 55.68 54.80 52.94 52.21 51.95 51.96 52.32 50.32 49.46 48.26 47.53 46.12 45.58 44.99 44.59 45.69 47.12 47.06 48.16 48.27 50.44 52.33 52.79 53.06 57.06 57.28 56.54 55.04
57.33 57.60 57.99 57.32 57.36 58.32 58.13 58.22 58.43 58.49 58.90 59.01 58.12 57.15 56.03 55.06 55.04 53.25 53.00 52.65 52.68 52.24 50.90 50.32 49.53 49.14 47.53 46.22 46.92 45.45 44.28 44.28 44.72 46.23 47.02 48.53 50.24 51.40 51.11 52.15 53.58 52.97 54.47
56.84 57.27 57.58 56.86 57.28 57.38 56.86 56.48 56.68 56.78 57.65 58.33 58.23 57.67 55.93 56.01 56.01 54.54 53.74 52.74 53.48 52.67 51.63 50.41 49.98 49.29 47.47 46.63 45.39 44.86 44.95 45.02 44.19 43.12 44.25 46.78 48.18 49.66 49.72 49.58 50.37 49.22 50.30
55.78 56.85 56.91 56.72 56.70 56.83 56.66 57.51 57.16 55.64 56.70 58.19 58.28 57.77 57.51 55.89 55.44 55.17 54.23 53.50 53.95 52.64 51.69 50.70 49.94 48.14 48.08 46.68 44.92 44.42 42.64 44.78 45.26 45.48 44.42 44.74 46.70 48.34 48.74 48.79 48.41 48.07 46.60
54.88 55.72 56.31 56.10 56.24 56.73 56.97 56.36 55.54 55.55 55.85 55.23 55.01 56.02 56.36 56.96 56.08 55.87 55.27 54.44 53.87 53.08 52.28 50.25 49.60 49.22 47.69 47.09 46.95 45.99 43.26 42.41 43.89 46.00 46.58 45.24 44.99 45.43 46.87 47.42 47.56 47.35 46.06
54.05 55.30 56.49 55.95 55.72 56.55 56.59 55.95 54.28 54.65 54.42 55.36 54.26 55.27 55.81 56.82 57.00 56.82 56.46 55.60 54.48 53.31 51.49 51.37 50.81 49.55 49.24 47.43 47.77 48.02 47.20 47.77 44.72 44.24 44.57 45.99 45.69 44.66 45.03 45.04 45.70 45.97 45.43
54.19 54.16 54.00 54.80 54.68 55.77 55.00 55.49 53.66 52.57 53.31 53.83 53.80 53.99 54.18 55.85 56.74 57.10 56.66 55.15 54.01 53.39 52.96 51.61 50.51 49.65 50.37 49.46 47.50 44.88 44.97 46.20 46.61 45.34 45.28 44.21 45.52 46.33 46.72 46.22 45.47 44.76 44.88
53.13 53.02 52.17 53.27 53.89 54.87 54.64 52.84 53.00 51.49 51.94 51.50 52.14 53.10 53.64 53.72 55.57 55.96 56.56 56.14 55.39 54.63 53.19 52.99 52.00 50.51 50.33 49.85 48.26 47.40 47.47 46.33 45.56 45.10 44.06 45.19 44.99 45.74 44.64 44.84 44.63 44.70 44.55

GFSSE_sfc_wetblb_081.txt.gz
Wetbulb
68.48 71.15 71.74 72.42 72.35 72.07 72.14 72.58 71.97 71.74 72.16 72.51 72.34 71.89 71.63 71.97 71.94 71.87 71.85 71.59 71.34 71.36 70.20 69.53 70.17 69.20 68.62 67.86 67.56 68.19 68.63 68.57 68.31 68.19 68.01 67.22 67.20 67.34 67.80 67.58 67.63 65.68 67.10
69.43 71.93 71.09 71.98 72.05 71.99 71.87 72.37 72.15 72.22 72.38 72.44 71.94 71.45 71.67 71.71 71.81 71.72 71.51 71.15 70.85 70.17 69.44 68.93 68.80 68.76 67.98 66.89 67.89 67.41 67.60 67.89 67.41 67.75 68.46 67.87 67.45 67.31 66.95 66.35 66.52 64.82 65.44
69.84 72.03 71.86 71.04 71.82 71.85 71.80 72.38 72.34 72.53 72.58 72.29 71.84 71.89 71.89 71.91 71.62 71.14 70.80 70.31 70.26 69.99 68.52 68.36 68.04 68.09 67.36 66.88 66.73 66.22 65.81 65.80 66.11 66.65 67.95 65.99 65.85 66.56 65.82 65.10 64.77 64.27 64.70
66.34 70.32 71.57 70.50 70.90 71.17 71.29 71.40 72.18 72.52 72.38 71.99 71.96 71.86 71.64 71.28 71.02 70.75 70.31 69.72 69.70 69.71 68.32 67.91 67.66 67.46 66.64 66.16 65.81 64.97 64.54 64.33 63.77 65.16 65.98 65.05 64.89 65.51 65.00 64.32 63.50 64.15 63.74
66.33 67.57 69.81 69.26 69.56 69.85 69.81 69.15 70.33 71.09 70.04 71.01 71.46 71.69 71.18 70.89 70.85 70.48 69.67 69.14 69.21 69.12 67.81 67.36 66.94 66.23 65.55 65.73 65.04 64.35 63.99 63.26 63.84 64.15 64.25 63.35 63.00 63.22 63.39 63.07 62.55 62.51 62.29
66.77 66.75 67.17 67.53 68.55 69.39 69.02 68.92 68.34 68.31 69.09 69.52 70.68 70.97 70.79 70.70 70.58 69.84 69.11 68.67 69.11 69.10 69.03 66.98 66.28 65.32 65.07 64.47 64.20 63.68 62.66 62.06 63.39 63.32 62.79 62.16 62.14 62.73 62.70 61.61 61.69 61.60 61.43
66.04 65.67 66.30 66.57 67.49 67.40 67.59 68.18 67.89 67.25 68.12 68.78 70.06 70.15 70.10 70.13 70.00 69.32 68.83 68.66 68.64 68.70 68.34 66.95 65.11 64.00 64.19 63.77 62.75 62.26 61.68 61.98 62.00 61.89 62.03 62.00 62.01 62.20 62.39 61.83 60.99 60.78 60.59
64.81 65.37 65.73 65.52 65.73 66.16 67.90 67.07 66.24 67.38 67.28 68.25 68.73 69.29 69.31 69.26 68.85 68.58 68.25 67.56 67.13 67.67 67.32 66.10 64.28 63.19 63.11 62.70 61.94 61.59 61.22 61.37 61.48 61.45 61.43 61.85 61.71 62.04 61.88 61.17 60.40 60.17 59.96
63.78 64.84 66.10 66.24 66.45 66.94 66.21 66.49 65.65 66.36 66.91 67.02 67.86 68.00 67.95 67.61 67.57 67.81 66.91 66.36 66.48 67.03 66.35 65.19 64.10 63.47 62.96 62.10 61.43 61.18 60.40 61.39 61.16 61.14 60.78 61.29 61.62 61.38 61.20 60.59 60.19 59.86 59.62
61.82 64.32 63.98 63.99 63.41 63.52 65.74 64.62 66.22 66.23 65.72 66.44 67.05 66.80 66.16 66.44 66.94 66.18 65.20 66.00 66.52 66.58 65.52 64.55 63.57 63.13 62.59 61.98 61.23 60.79 60.36 60.66 61.02 61.02 61.19 61.12 61.41 61.57 61.01 60.40 59.88 59.41 58.92
60.68 60.93 63.34 62.11 61.62 62.32 63.92 64.92 65.50 66.48 66.05 66.07 66.66 65.90 64.61 65.80 65.47 64.12 63.94 65.60 66.41 65.44 64.40 63.85 63.16 62.42 61.83 61.31 61.03 60.25 60.02 60.24 60.55 60.80 60.99 61.67 61.52 61.57 60.98 60.02 59.27 58.87 58.28
58.80 59.48 60.23 61.54 60.98 61.45 62.55 65.01 66.44 64.88 65.31 65.03 65.92 64.13 63.69 63.78 63.35 62.09 63.07 64.67 65.38 64.38 63.79 63.29 62.55 61.72 60.66 60.10 60.00 58.92 59.44 60.00 60.22 60.32 60.88 61.42 61.27 61.17 60.42 59.56 59.00 58.40 57.77
58.66 58.93 59.38 59.91 60.93 61.00 62.55 63.91 64.75 64.98 64.47 63.96 63.22 62.83 61.92 61.66 62.17 61.85 60.77 61.61 63.76 64.28 63.13 62.30 61.40 60.10 59.78 59.17 58.57 58.93 59.35 59.63 60.04 60.00 60.41 61.20 60.98 60.87 59.77 58.98 58.20 57.65 56.94
58.02 58.21 59.11 59.18 58.56 59.36 61.23 61.96 62.30 64.23 62.80 62.35 62.23 61.61 61.32 61.17 60.17 60.39 57.27 57.69 59.16 61.85 63.01 61.67 59.99 59.82 59.08 58.25 58.21 58.50 59.07 59.21 59.57 59.80 60.20 60.53 60.84 60.36 59.96 58.82 57.95 56.92 56.19
57.60 57.87 58.15 58.51 58.25 59.40 59.40 60.83 61.61 61.44 61.66 61.19 61.13 62.35 60.93 58.58 57.12 56.51 55.12 54.83 54.99 56.71 59.02 58.34 57.97 57.85 57.81 57.62 57.91 57.97 58.32 58.98 59.48 59.39 59.65 59.93 60.11 59.90 59.47 58.78 57.78 56.98 55.82
57.38 57.58 57.77 57.46 57.96 58.85 59.10 60.34 60.43 60.25 60.35 60.58 60.69 61.26 60.16 57.51 55.59 54.30 53.53 53.86 53.95 55.56 55.60 55.61 57.10 57.71 57.42 57.45 56.96 57.42 57.74 58.31 58.96 59.24 59.31 59.10 59.25 59.82 59.32 58.29 57.71 56.91 56.48
57.41 57.92 56.88 56.90 57.92 58.76 58.77 60.00 60.39 60.23 60.36 59.71 59.46 59.59 59.85 57.47 55.63 54.37 53.97 53.37 53.86 54.27 53.38 54.43 55.24 56.61 56.30 56.58 56.33 56.89 57.34 58.18 58.45 58.49 59.06 59.28 58.91 58.72 59.26 59.24 58.06 57.31 56.71
57.79 57.37 57.10 57.22 57.21 58.55 58.14 59.67 60.04 60.46 60.60 59.86 59.44 59.20 58.92 57.96 55.63 55.40 54.63 55.44 55.45 54.11 53.69 52.86 53.27 54.48 54.28 54.43 54.48 54.80 55.52 56.69 57.69 58.07 58.73 59.00 59.01 58.89 58.64 59.44 59.40 58.05 56.53
57.92 57.64 56.73 57.02 57.26 58.18 58.18 59.87 59.96 59.46 59.80 59.24 59.20 58.30 58.20 57.39 57.03 55.40 55.70 55.95 56.33 53.97 54.10 53.15 52.68 52.74 51.86 52.00 52.00 52.33 52.85 53.93 55.08 56.03 57.03 58.34 59.00 59.03 58.79 58.43 58.64 57.67 57.04
57.83 58.27 57.39 56.75 57.57 58.31 59.13 59.38 59.35 59.30 59.12 59.54 59.23 58.59 58.03 57.54 56.96 56.37 55.94 54.85 54.88 53.94 54.90 54.23 53.60 53.49 52.82 51.97 50.25 50.81 51.83 52.97 53.34 52.96 53.99 56.35 57.58 58.49 58.65 58.66 58.55 56.69 56.02
57.47 57.98 57.33 56.44 57.01 58.03 57.48 57.78 57.78 57.40 58.50 58.57 58.88 58.26 58.60 58.15 57.30 56.89 57.08 56.23 55.82 56.19 56.07 55.94 54.69 53.64 51.94 52.27 51.09 51.36 51.37 51.90 52.16 52.76 53.76 53.13 53.45 56.17 56.85 56.71 57.78 57.02 54.77
56.55 57.60 57.64 57.02 57.17 57.56 57.70 58.06 58.13 57.80 58.62 58.51 58.70 58.03 58.41 58.94 57.88 57.43 57.55 56.56 56.87 56.84 56.92 55.79 55.18 53.82 54.65 53.44 52.51 52.51 51.12 52.00 51.93 52.39 52.39 52.06 51.04 50.69 51.37 52.07 54.49 53.21 52.46
56.01 57.07 57.36 57.18 57.37 57.43 58.23 57.58 57.24 57.32 57.38 57.12 57.28 57.01 58.89 58.69 58.55 58.38 58.23 57.88 57.74 57.89 57.09 56.71 56.16 55.86 54.53 53.74 54.33 54.99 51.19 50.94 52.19 53.34 52.24 51.62 51.13 49.79 50.46 52.17 50.56 51.47 50.83
55.82 57.50 57.64 57.52 57.23 57.47 57.70 57.22 56.37 55.84 55.26 56.69 56.52 57.11 58.25 59.64 58.67 58.61 58.66 58.51 58.48 58.36 57.95 57.62 56.99 56.81 56.34 54.34 52.88 53.51 54.45 54.40 52.21 51.88 50.40 52.73 52.42 51.55 52.09 51.11 50.75 50.43 50.09
55.73 56.41 57.07 57.48 57.47 57.47 57.42 57.32 56.60 56.32 57.06 57.69 57.43 58.34 59.33 59.90 59.45 58.69 59.19 59.38 59.26 58.85 58.79 58.58 57.60 56.35 57.01 56.76 55.02 53.67 52.99 53.10 52.84 52.41 50.53 49.30 51.19 51.13 52.91 49.39 48.96 47.48 47.62
55.35 55.36 56.36 56.41 57.59 58.12 57.67 58.05 56.72 57.44 57.67 56.71 56.65 58.14 58.83 59.63 59.92 60.63 60.08 59.72 60.03 59.78 59.13 58.83 58.83 57.96 57.30 56.86 56.80 55.02 54.56 52.66 50.65 50.57 48.45 49.27 51.98 53.52 53.42 50.62 50.03 47.08 47.17

GFSSE_sfc_wetblb_087.txt.gz
Wetbulb
71.83 73.28 72.09 72.49 72.62 73.58 73.31 72.68 72.42 72.33 72.74 73.10 73.00 72.32 71.96 72.37 72.34 71.93 71.82 71.72 71.63 71.85 70.58 70.22 70.61 70.49 70.31 69.59 69.19 70.01 70.12 69.82 69.44 69.69 69.81 69.35 69.06 69.08 68.78 69.35 68.83 67.77 68.93
72.93 73.96 71.52 72.40 72.55 73.02 73.51 72.85 72.44 72.35 72.87 73.08 72.51 71.98 72.12 72.34 72.26 71.94 71.84 71.80 71.58 71.77 70.43 70.23 69.96 69.75 69.24 68.86 69.27 69.36 69.00 68.79 68.77 69.09 69.15 68.17 68.13 68.11 67.77 67.67 67.98 66.70 67.38
72.18 73.08 72.94 71.49 72.02 72.92 73.40 73.00 72.61 72.67 72.95 73.03 72.46 72.07 72.22 72.31 72.02 71.71 71.75 71.41 71.24 71.17 70.07 69.66 69.50 68.95 68.74 68.54 68.62 68.79 68.48 68.29 68.28 68.44 68.27 65.97 65.83 66.92 67.04 66.36 66.60 66.34 66.39
71.87 73.11 73.00 71.12 71.79 72.40 72.75 71.86 72.07 72.71 72.99 72.55 72.12 72.15 72.34 72.37 71.98 71.74 71.18 70.55 70.79 70.89 69.61 68.97 68.43 68.13 67.64 67.40 67.54 68.27 68.36 68.18 67.71 67.21 64.83 64.44 65.11 65.93 65.85 65.40 65.43 65.57 65.29
71.21 72.44 72.75 70.74 71.18 72.04 71.97 71.46 71.26 71.70 71.22 71.69 71.60 72.15 72.27 72.33 72.01 71.56 70.63 69.95 70.23 70.45 69.52 68.71 68.05 67.44 66.58 66.68 66.66 67.18 66.93 67.48 67.02 65.79 64.74 64.46 64.43 64.42 64.75 64.58 64.58 64.48 65.02
70.36 72.03 70.74 69.76 70.92 71.65 70.95 70.74 70.46 69.75 69.59 69.77 70.80 71.41 71.59 71.23 71.44 70.33 69.65 69.39 69.69 70.28 69.42 68.25 67.51 66.45 66.04 65.91 65.87 65.88 65.45 65.68 65.74 64.67 63.71 64.48 63.46 64.32 64.11 63.55 63.31 63.07 63.69
69.48 70.97 71.91 68.99 69.83 71.12 71.60 69.88 68.39 67.75 68.07 66.03 65.16 68.65 70.01 70.10 70.40 69.71 69.13 69.05 69.07 69.25 68.86 67.51 66.41 65.55 65.51 65.07 65.04 64.46 64.18 63.92 64.33 63.62 63.24 62.90 62.93 63.47 63.57 63.09 62.57 62.22 62.34
68.69 69.87 70.42 68.70 67.89 68.51 69.68 68.50 67.52 67.78 66.06 65.80 66.14 68.25 68.74 68.90 68.67 68.92 68.69 68.45 68.21 67.68 67.13 66.46 66.06 65.04 64.61 64.23 63.85 63.01 62.70 63.21 63.79 63.17 62.76 62.72 62.81 62.92 62.93 62.39 61.72 61.42 61.28
68.15 68.86 70.19 70.62 68.52 65.65 67.56 67.19 67.07 66.69 66.87 67.36 66.54 66.87 66.87 67.72 67.54 67.80 68.18 67.95 67.63 66.90 66.27 65.44 65.17 64.58 64.20 63.43 62.97 62.41 61.53 63.17 63.44 62.78 62.39 62.15 62.69 62.52 62.43 61.91 61.37 61.07 60.90
66.66 67.94 68.48 69.79 69.44 68.41 69.06 65.77 65.65 65.98 65.69 65.79 66.58 65.99 65.63 66.55 67.06 67.30 67.48 67.37 67.03 66.26 65.56 64.55 64.27 63.86 63.38 62.70 62.11 61.41 61.34 62.45 62.93 62.42 61.89 61.92 62.39 62.33 62.26 61.66 61.07 60.67 60.50
65.56 66.60 67.45 68.19 68.15 67.86 68.25 67.91 65.87 65.78 65.83 65.75 65.79 64.76 61.61 66.05 66.81 67.58 66.79 66.15 65.85 65.15 64.51 64.07 63.40 62.75 62.24 61.83 61.50 61.24 61.89 62.82 62.60 62.13 61.48 62.23 62.24 62.42 61.77 61.00 60.60 60.20 59.90
64.14 65.23 66.03 66.27 67.04 67.64 66.83 67.50 67.32 67.28 66.76 67.08 65.67 65.50 65.05 65.19 66.25 67.07 66.55 65.19 64.87 64.26 63.95 63.38 62.59 61.91 61.00 60.64 60.84 60.68 62.54 62.95 62.48 61.71 61.18 62.23 61.82 61.91 61.21 60.60 60.08 59.76 59.29
64.46 64.30 64.52 63.80 63.51 66.49 66.69 66.30 66.19 67.07 66.70 65.94 65.50 64.94 64.47 64.70 64.81 66.86 66.05 65.28 64.38 63.05 62.10 61.59 60.58 59.72 60.19 60.04 60.62 62.14 62.54 62.92 62.20 61.54 61.25 61.98 61.91 61.56 60.91 60.04 59.46 58.92 58.62
63.00 62.43 63.33 62.56 61.48 62.21 62.76 64.28 66.68 67.19 67.10 65.24 64.28 64.01 63.92 63.59 63.32 65.54 65.25 64.04 62.73 61.91 61.42 59.98 60.48 62.48 61.36 60.20 60.68 61.65 62.12 62.15 61.94 61.22 61.10 61.24 61.73 61.14 60.84 60.18 59.32 58.55 57.91
63.30 61.04 61.95 62.69 61.29 61.49 62.07 63.80 64.21 66.02 66.98 65.00 64.39 63.85 63.79 62.93 62.68 63.05 63.89 63.96 62.10 62.76 62.07 60.88 62.20 61.15 60.92 60.65 61.04 61.01 61.17 61.91 62.02 60.93 60.64 60.85 60.91 60.92 60.23 59.95 59.02 58.19 57.43
63.40 61.67 61.48 61.98 61.87 61.74 60.80 61.43 64.23 64.97 65.74 64.67 63.73 63.00 62.34 61.08 61.86 62.42 62.94 62.63 63.58 63.13 62.86 62.40 61.94 60.80 59.97 60.15 60.45 60.97 60.79 61.41 61.66 61.27 60.89 60.61 60.31 60.73 60.40 59.44 58.55 57.88 57.10
63.17 62.99 61.40 61.71 61.26 61.32 62.35 61.81 62.37 63.76 62.74 62.06 60.33 60.15 60.05 59.90 60.03 60.55 61.98 62.64 63.63 63.90 63.95 62.87 61.34 60.68 59.12 59.22 59.62 60.06 60.37 60.93 61.25 61.33 60.53 60.31 59.85 59.48 59.85 60.03 58.65 57.68 56.80
63.37 62.06 60.78 60.41 60.10 60.94 61.15 60.98 60.86 60.62 60.25 59.69 59.60 59.19 59.09 58.27 58.15 58.35 60.10 61.92 63.61 63.52 62.51 61.02 59.82 58.51 59.10 58.48 58.73 59.33 59.94 60.51 60.89 61.48 61.22 60.94 60.08 59.68 58.94 59.86 59.71 58.84 57.39
63.17 62.04 60.17 59.37 59.06 60.08 60.66 60.36 59.27 58.99 58.54 58.21 57.93 57.80 57.46 57.89 57.62 57.56 59.09 59.34 60.68 60.59 60.36 60.38 59.88 59.22 58.17 58.08 57.90 58.59 59.51 59.91 60.24 60.34 60.98 61.18 61.23 60.50 59.52 58.86 59.15 58.81 59.03
63.03 61.16 60.27 59.13 58.79 60.17 59.95 59.55 58.50 57.83 57.97 57.58 57.23 57.11 57.21 57.31 57.91 58.07 57.82 57.29 57.26 56.84 58.37 58.52 58.80 59.91 59.19 58.09 56.54 57.28 58.58 59.35 60.19 59.92 59.98 60.41 60.92 60.97 60.97 60.45 58.54 58.01 58.41
62.41 59.80 59.32 58.24 58.39 59.66 58.46 57.40 56.86 56.38 57.06 56.82 56.57 57.42 57.47 58.55 58.07 57.78 56.79 57.39 56.64 56.60 57.30 59.11 59.37 58.57 57.08 58.38 55.63 55.72 56.59 58.00 58.47 58.94 59.86 59.60 59.41 60.08 60.44 60.38 60.59 59.40 57.48
61.29 60.46 58.59 58.47 58.54 58.93 58.94 57.95 57.21 56.55 56.71 56.80 56.97 57.71 58.39 57.68 57.55 59.22 59.51 58.29 58.66 57.97 58.02 58.76 59.38 57.50 56.73 58.24 55.11 55.81 53.39 54.35 56.45 57.36 58.04 57.88 59.79 59.72 59.33 60.27 60.36 59.71 58.72
60.31 59.69 58.55 58.57 59.15 59.88 59.57 58.84 57.59 57.41 57.46 56.92 56.39 55.77 57.36 57.48 57.34 58.73 61.28 59.51 59.82 59.21 58.87 60.34 60.78 59.12 57.11 57.84 58.84 57.67 54.97 54.09 56.68 57.59 57.71 57.89 59.34 58.36 59.08 58.81 59.22 58.75 59.33
61.44 60.31 60.69 59.41 58.62 59.54 59.87 58.11 56.36 54.63 53.99 55.66 55.37 55.93 57.53 58.99 57.82 56.82 58.48 59.99 59.14 59.83 60.29 60.51 61.42 61.58 60.94 57.67 58.40 58.15 59.78 58.95 55.37 54.71 57.92 58.40 58.87 58.08 58.86 57.83 57.87 58.33 57.49
62.80 59.88 60.29 59.51 58.45 58.75 59.58 58.42 57.23 55.01 54.97 55.58 55.73 56.25 58.25 59.39 59.74 58.86 58.35 60.32 61.98 61.81 62.02 62.56 62.35 60.99 60.87 59.92 58.97 58.53 58.31 58.11 59.36 55.76 53.25 56.29 57.44 58.22 56.98 55.27 56.40 56.47 57.94
62.78 61.12 59.86 58.94 58.18 58.60 58.50 58.29 57.36 56.25 55.44 55.69 55.33 55.64 57.14 57.62 58.13 58.65 59.78 61.85 61.96 62.32 62.37 62.93 62.97 61.91 61.84 61.76 60.67 61.02 59.23 57.44 56.44 56.47 55.32 56.93 56.05 57.43 58.53 58.67 56.27 55.96 58.46

GFSSE_sfc_wetblb_090.txt.gz
Wetbulb
71.21 70.81 71.91 72.67 73.29 73.56 72.92 72.33 72.32 71.79 71.73 72.88 72.59 72.16 72.69 72.38 71.80 71.49 71.44 71.42 71.42 71.66 70.54 70.49 71.59 71.05 70.53 70.83 70.51 70.66 70.54 70.12 69.91 70.20 70.34 70.04 69.94 69.80 69.31 69.53 68.97 67.44 69.26
72.84 71.60 71.69 72.53 73.03 73.69 73.12 72.49 72.27 72.37 72.36 73.06 72.27 72.03 72.49 72.25 71.87 71.75 71.63 71.71 71.57 71.21 71.03 71.12 70.68 70.11 69.87 69.58 70.05 70.11 69.59 69.34 69.02 68.98 69.55 69.32 68.92 68.88 68.51 68.87 68.45 67.59 67.68
72.58 71.26 71.22 71.62 72.65 73.40 73.36 72.67 72.37 72.62 72.99 72.96 72.35 72.22 72.44 72.20 71.97 71.94 71.68 71.35 71.28 71.67 70.94 70.46 69.99 69.82 69.00 69.36 69.21 69.31 69.36 69.13 68.56 68.05 67.98 65.15 65.66 67.76 67.78 66.97 67.02 66.89 66.65
72.10 73.60 72.30 70.83 71.72 72.93 72.99 72.54 72.44 72.58 73.00 72.81 72.30 72.37 72.51 72.18 71.99 71.82 71.48 70.90 70.86 70.98 70.30 70.06 69.77 69.07 68.55 68.94 68.57 68.64 68.69 67.88 67.31 67.42 63.64 64.21 64.90 67.01 67.05 66.47 66.24 65.66 65.30
71.20 72.43 71.52 70.65 71.05 71.91 72.57 72.24 72.17 72.07 71.68 71.65 71.97 72.35 72.55 72.21 72.00 71.87 70.96 70.28 70.61 70.86 69.70 69.42 69.14 68.01 67.94 68.01 68.01 68.04 67.69 67.32 66.19 64.48 61.64 62.41 62.87 65.07 65.60 65.53 64.74 64.87 64.85
70.77 71.89 70.18 70.34 70.89 71.85 71.79 72.10 71.80 71.42 70.32 69.65 65.83 63.18 71.61 72.04 71.68 71.25 70.19 69.76 70.00 70.07 69.40 68.66 67.86 66.83 66.63 66.85 67.09 67.36 66.76 66.33 66.72 61.51 60.37 63.22 61.85 65.25 65.11 64.11 63.66 63.70 64.60
70.73 71.77 71.51 69.53 70.46 71.51 71.79 71.49 71.01 69.88 68.77 67.14 65.02 63.85 65.17 70.36 70.21 69.78 69.57 69.51 69.40 69.48 68.70 67.17 66.75 66.30 66.13 65.93 66.07 64.85 64.02 64.53 62.73 60.56 60.62 60.60 61.88 63.96 63.88 63.25 63.16 62.54 62.45
70.44 71.21 70.54 69.34 69.17 70.23 71.07 69.79 68.72 67.37 66.96 64.77 64.81 64.04 64.20 67.35 68.15 68.31 68.57 68.69 68.94 68.61 67.86 66.81 66.27 65.89 65.46 65.14 64.10 62.95 62.29 63.20 62.63 59.85 59.68 59.69 62.80 63.25 63.20 62.54 61.86 61.74 62.00
69.78 69.71 70.11 69.49 68.13 67.74 68.35 67.85 66.64 67.17 65.33 65.73 65.20 63.54 64.01 66.51 67.04 67.69 67.47 68.47 68.29 67.63 67.01 65.84 65.36 64.89 64.84 64.06 62.83 61.84 62.00 63.29 60.48 60.19 60.20 59.87 62.73 62.80 62.61 62.12 61.90 61.38 61.22
67.69 68.50 68.90 69.19 68.08 67.79 67.33 67.17 66.75 66.47 66.04 65.30 65.34 64.75 64.34 66.02 66.20 66.96 66.95 67.21 67.08 66.73 66.11 65.18 64.84 64.44 63.84 63.02 61.61 61.69 61.50 62.86 59.91 59.37 59.59 60.09 62.68 62.72 62.28 61.98 61.74 61.15 60.71
66.00 66.85 67.17 66.28 68.17 67.72 67.76 66.07 66.24 66.93 66.29 66.00 66.04 65.29 64.39 64.44 64.82 65.88 65.73 65.71 66.05 65.39 64.99 64.29 64.01 63.21 62.36 61.72 61.29 61.63 61.68 59.39 59.27 59.40 59.05 62.53 62.10 62.25 61.75 61.46 61.01 60.54 60.26
64.19 65.26 65.85 65.79 66.54 67.23 67.24 65.93 65.78 66.16 66.00 65.26 64.86 63.80 63.96 63.96 64.85 65.40 65.05 65.15 65.17 64.47 64.07 63.74 62.75 61.99 60.95 58.14 58.34 60.00 58.25 60.19 59.37 58.64 58.76 62.39 62.45 62.15 61.69 61.04 60.50 60.26 59.88
65.47 64.63 64.69 64.00 64.60 66.05 66.15 66.02 66.00 66.02 64.94 64.91 64.35 64.02 63.27 64.24 64.17 63.95 64.16 63.45 62.73 63.17 61.38 61.18 59.96 58.23 57.06 57.15 58.04 57.98 58.90 60.17 59.02 58.30 59.89 61.79 61.74 62.02 61.48 60.97 60.47 59.95 59.27
63.94 63.76 63.84 62.80 62.69 63.78 64.68 64.84 65.28 64.87 64.97 64.17 64.09 64.17 62.94 63.97 63.82 63.88 62.87 61.95 60.52 60.02 58.93 57.91 57.10 57.38 56.88 57.88 58.29 59.50 58.89 59.70 58.57 58.35 59.63 61.26 61.94 61.53 61.13 60.55 60.03 59.38 58.88
62.90 62.07 62.21 62.17 61.59 62.14 62.87 64.10 63.50 64.31 65.09 64.23 64.15 63.96 63.43 63.39 62.87 63.31 62.49 59.99 59.24 58.70 57.20 56.42 57.91 57.59 57.17 56.78 58.25 58.46 58.49 59.24 58.39 58.38 58.14 60.82 61.04 61.24 60.94 60.57 59.92 59.10 58.59
63.06 61.77 61.93 61.82 61.89 61.50 61.62 62.20 63.53 63.76 64.39 64.66 63.75 63.44 63.24 62.94 62.84 62.42 61.75 59.16 59.36 59.34 57.38 57.99 58.10 57.81 57.24 57.10 57.52 58.00 58.33 58.73 58.18 58.13 57.83 58.15 60.15 60.67 60.78 59.99 59.73 59.01 58.60
63.38 62.23 61.43 60.79 61.12 62.08 61.47 61.99 62.49 63.85 63.88 63.50 63.78 63.36 63.20 63.10 62.95 62.16 60.92 59.21 59.42 60.31 58.47 59.83 58.68 58.07 57.24 57.62 56.97 57.40 57.79 58.47 58.32 58.09 57.62 57.23 57.76 59.38 59.82 60.38 59.40 58.41 57.90
62.94 61.33 61.14 60.80 60.13 61.75 61.35 62.04 62.51 62.49 62.92 61.07 60.79 62.92 62.37 62.12 61.72 61.47 60.66 60.86 60.26 60.53 60.23 58.72 57.16 56.13 55.80 56.03 55.70 55.75 56.63 57.49 58.48 57.86 57.75 57.52 57.16 57.28 58.71 59.76 59.71 59.04 57.59
62.79 61.01 59.84 59.89 59.49 60.49 60.80 60.29 59.71 59.25 59.48 59.94 59.50 59.42 60.10 60.14 59.92 60.53 60.18 60.58 60.99 60.34 59.23 58.29 57.03 56.56 54.74 54.97 55.72 55.79 56.76 56.77 57.26 58.73 57.75 56.99 56.99 56.91 56.15 58.62 59.21 58.89 58.80
62.87 60.72 59.23 58.86 60.02 60.37 59.10 58.11 57.95 57.63 57.57 57.79 57.88 57.71 57.85 57.36 57.54 57.78 57.85 58.05 58.25 58.33 58.10 57.12 56.18 57.11 55.46 54.46 55.82 55.66 56.08 56.65 56.79 56.20 57.40 58.44 57.56 57.30 56.52 55.87 56.13 56.13 57.91
61.43 59.89 58.13 58.02 59.38 59.12 57.46 56.18 55.57 54.92 55.51 55.98 56.30 56.53 56.44 56.42 56.56 56.39 56.48 56.06 55.87 55.46 55.95 56.18 56.37 55.78 54.26 56.02 53.24 53.67 53.71 55.42 55.94 55.89 56.28 56.16 56.57 57.32 57.04 57.70 55.66 55.57 55.80
60.45 59.18 58.21 58.40 59.09 58.80 57.99 56.97 56.13 55.30 54.93 55.13 55.71 55.82 55.73 56.12 56.30 56.16 55.60 54.82 54.38 54.22 54.76 55.76 55.53 54.05 54.08 54.41 51.81 51.79 48.71 50.73 52.78 54.40 54.82 55.69 55.34 55.87 56.68 57.01 56.05 55.84 55.53
59.81 58.27 58.10 57.75 58.88 58.72 58.11 56.97 56.49 55.42 54.68 53.72 53.99 54.70 55.48 56.05 56.37 56.19 55.25 54.88 54.80 54.62 54.78 55.47 56.24 53.75 52.03 53.85 55.11 53.25 51.31 49.65 49.96 52.66 53.19 53.44 53.21 54.74 55.24 56.74 56.80 57.07 56.12
60.50 59.06 58.30 58.67 58.73 58.87 57.95 56.11 54.81 53.12 51.71 53.18 53.35 54.22 55.57 56.34 55.83 56.03 55.59 56.43 55.54 56.11 56.43 56.73 58.29 56.05 55.74 52.93 53.86 56.11 55.42 55.32 52.56 50.71 52.81 53.56 54.06 54.22 53.79 54.03 54.39 55.78 55.82
60.89 58.88 58.14 58.56 58.67 58.82 57.77 56.71 54.59 53.34 54.11 54.80 54.54 54.07 54.05 54.91 55.66 56.21 58.29 57.91 57.52 57.41 57.61 57.41 57.98 58.74 57.74 56.90 54.67 53.91 53.83 53.92 54.66 52.48 49.86 51.48 53.52 53.71 54.21 54.45 53.70 53.18 55.18
61.49 59.31 58.14 57.60 57.91 58.83 58.38 56.92 55.31 53.98 54.07 54.05 53.11 53.20 54.43 54.96 56.28 56.16 57.27 57.38 57.88 57.77 58.27 58.91 58.77 58.51 58.03 57.47 57.30 56.52 55.31 53.71 53.00 52.34 50.87 51.57 52.08 53.34 54.74 53.40 52.89 52.94 54.14

GFSSE_sfc_wetblb_093.txt.gz
Wetbulb
68.33 70.33 71.76 73.16 72.91 72.52 72.02 71.63 71.69 72.33 72.70 72.72 72.93 72.98 72.48 72.24 72.10 72.18 72.06 71.84 72.12 72.27 71.52 71.72 72.17 71.23 71.48 71.50 71.66 71.31 70.97 70.50 70.31 70.52 71.06 70.63 70.45 70.11 69.42 69.63 69.28 67.55 69.48
68.98 70.60 71.32 72.40 73.29 72.72 72.36 72.07 71.18 71.06 72.53 72.38 72.83 72.54 71.95 71.87 71.67 71.73 71.55 71.58 71.48 70.85 71.22 71.45 70.99 70.79 70.99 70.56 70.73 70.38 70.15 69.56 69.40 69.68 70.04 69.79 69.49 69.62 69.17 68.62 68.71 67.56 68.47
68.99 70.63 71.31 71.57 72.94 72.81 72.53 72.42 72.22 71.58 72.50 72.36 72.78 72.57 72.19 71.96 71.92 71.85 71.49 71.26 71.19 71.60 71.04 70.81 70.44 70.50 70.30 70.29 70.05 69.52 69.21 68.58 68.16 68.22 68.22 65.17 66.14 68.71 68.50 67.68 67.47 67.26 67.13
69.81 69.79 70.04 71.16 72.33 73.12 72.52 72.22 72.18 72.57 72.97 72.44 72.51 72.53 72.35 72.03 72.01 71.85 71.22 70.83 71.53 71.70 70.73 70.12 69.66 69.81 69.82 69.83 69.31 69.15 68.61 67.88 67.20 66.46 64.66 65.16 65.95 68.00 67.80 66.93 66.12 65.88 65.72
69.59 70.54 69.85 70.32 71.37 72.57 72.40 72.15 71.94 72.19 72.26 71.93 71.14 66.37 66.61 70.26 72.19 71.75 71.16 70.72 71.10 71.36 70.41 69.80 69.07 69.08 68.99 68.66 68.34 67.65 67.51 66.98 65.94 64.04 62.62 63.69 64.70 66.67 66.63 65.76 64.95 64.56 64.59
69.33 70.10 69.15 69.56 70.47 71.87 72.48 72.34 72.11 71.77 71.40 67.84 66.41 65.85 65.29 64.93 70.06 71.47 70.62 70.55 70.86 70.67 69.64 69.18 68.58 68.48 67.95 67.53 67.52 67.32 66.85 65.82 63.47 60.83 61.09 64.09 63.62 65.93 65.59 64.64 64.44 64.28 63.26
68.38 68.86 69.30 69.23 70.30 71.22 71.93 72.41 71.95 71.24 70.72 66.79 66.46 65.89 66.06 63.61 63.94 70.13 69.49 70.00 69.83 69.73 69.24 68.36 67.71 67.60 67.31 67.25 66.89 65.86 64.98 64.37 60.67 59.64 60.05 61.43 62.75 64.83 64.47 63.88 63.64 62.92 62.92
66.39 67.80 68.41 69.65 69.97 70.53 70.79 70.50 70.50 69.99 68.72 66.86 66.39 65.70 64.86 63.45 62.84 67.75 68.58 69.11 69.15 68.85 68.11 67.64 67.21 67.17 66.83 66.10 65.23 63.40 62.35 62.88 60.83 59.28 59.87 61.61 63.43 64.22 64.06 62.58 62.29 62.08 62.17
64.77 66.44 66.46 67.49 68.56 68.81 68.98 68.34 67.56 67.67 67.04 66.57 66.28 65.10 63.81 64.51 66.40 67.69 68.20 68.40 68.60 67.96 67.44 66.97 66.35 66.22 65.63 64.91 63.51 62.16 62.43 62.01 58.79 58.65 59.95 61.14 63.40 63.45 63.25 62.85 62.23 61.51 61.47
63.73 64.28 65.35 65.79 66.64 65.48 66.08 66.87 66.44 66.20 65.86 65.57 65.57 64.66 63.61 64.07 65.79 66.84 66.73 67.63 67.82 67.35 66.85 66.20 65.41 65.12 64.62 63.32 62.19 61.70 62.22 61.87 58.61 58.44 58.91 60.95 62.98 62.59 62.54 62.17 61.77 61.46 61.23
62.12 62.97 63.95 66.42 66.89 66.35 65.16 66.62 66.53 66.58 65.57 65.62 65.15 64.73 63.61 63.66 65.57 65.60 66.13 66.72 66.79 66.39 65.75 65.39 64.66 63.65 62.86 61.98 61.88 61.66 61.02 58.95 58.76 58.34 58.14 61.65 62.26 62.67 62.45 61.96 61.28 61.10 60.94
60.57 61.28 62.19 64.65 66.35 66.42 66.32 63.36 63.75 65.29 64.84 63.93 64.27 63.67 63.42 63.50 63.73 65.41 65.77 65.51 65.51 65.44 64.84 64.36 63.54 62.58 60.19 56.24 57.25 59.36 58.68 58.48 58.13 58.10 58.29 61.81 62.12 62.52 62.15 61.58 61.10 60.75 60.42
60.82 61.21 61.80 61.82 62.73 65.22 65.04 64.61 63.15 63.73 63.81 63.72 63.93 63.62 62.75 63.32 64.07 64.09 64.51 63.89 63.15 63.43 61.72 60.95 60.41 57.88 56.61 55.82 56.09 56.64 58.21 57.80 57.65 58.14 59.80 62.18 62.64 62.38 62.10 61.16 60.78 60.54 59.85
60.49 60.44 60.67 60.62 61.93 62.85 64.86 64.59 64.36 63.53 63.22 63.65 63.55 62.56 61.76 63.15 62.40 63.38 62.62 61.77 60.96 60.22 58.34 58.16 55.97 54.88 54.57 56.20 56.62 57.03 57.82 56.92 57.23 57.50 59.62 60.63 62.04 61.94 61.89 61.40 60.66 60.07 59.39
59.63 59.66 59.38 60.31 60.82 61.50 62.27 63.32 63.59 62.91 63.37 63.37 63.53 62.33 63.45 62.94 62.36 62.54 61.46 60.52 59.10 58.80 57.16 55.59 54.37 54.73 54.30 56.18 56.20 57.48 57.47 56.86 56.99 57.65 57.29 60.65 61.11 61.45 61.26 61.33 60.74 60.22 59.42
59.18 58.64 59.33 59.54 60.03 60.47 58.82 59.82 60.47 62.31 63.58 63.62 63.46 62.52 62.80 63.35 63.02 61.86 59.60 58.39 57.62 56.66 55.60 55.78 55.10 54.28 54.66 55.08 55.95 57.62 57.53 56.98 57.25 57.33 57.62 58.67 60.15 60.91 61.15 60.48 60.29 59.92 59.52
59.48 59.63 59.09 59.33 61.12 60.37 58.70 58.98 59.64 61.03 62.94 63.60 63.20 63.29 62.72 63.37 63.01 60.70 58.51 57.82 56.90 55.13 55.28 55.91 55.62 54.78 53.87 56.16 55.94 56.63 57.35 56.96 57.00 56.95 56.74 56.73 58.21 59.50 60.28 60.89 59.87 59.55 59.22
59.06 58.43 58.90 59.76 59.92 60.89 59.59 59.64 59.45 61.34 62.74 63.81 63.17 63.23 62.72 62.88 62.88 60.05 58.05 57.52 58.14 54.82 56.86 57.19 56.43 54.94 54.23 54.62 53.90 54.30 56.72 56.72 56.58 56.51 56.72 56.58 55.95 56.74 58.81 59.94 60.12 59.93 58.87
59.04 58.66 57.46 57.79 58.99 59.89 60.34 59.43 58.99 60.57 61.36 61.02 62.50 62.91 62.60 62.85 62.75 60.53 58.77 58.14 59.23 55.91 58.12 57.19 54.59 55.39 54.49 54.51 54.50 54.18 54.47 56.50 56.35 56.97 56.37 56.24 55.58 55.10 55.50 59.01 59.09 58.97 59.06
58.37 58.02 57.48 57.65 59.57 59.42 58.88 58.40 58.22 57.88 58.28 59.31 60.35 61.37 62.47 62.49 62.17 60.70 60.20 58.64 58.67 58.12 56.62 56.12 55.19 54.67 54.91 54.68 56.14 54.78 54.35 55.88 56.52 56.15 56.24 56.59 55.97 55.52 55.38 55.17 56.48 56.20 57.80
57.48 56.77 56.63 56.85 58.86 58.10 57.04 56.13 55.77 55.09 55.59 56.17 58.10 58.94 60.20 61.28 60.66 59.88 59.00 58.23 58.77 57.37 55.79 55.33 54.98 54.05 53.15 53.34 52.21 51.97 52.96 54.06 53.81 54.49 56.01 55.30 55.48 55.61 54.98 55.04 54.79 54.87 55.78
56.27 56.39 56.39 57.22 58.69 57.73 57.11 56.71 55.90 55.12 55.32 55.38 56.08 56.26 57.07 58.28 58.89 58.06 57.13 56.14 56.72 56.07 54.46 54.16 54.82 52.73 52.51 53.39 51.10 49.95 47.24 49.31 51.44 53.33 53.55 55.32 54.93 56.05 55.28 54.90 54.29 54.06 53.83
55.78 55.66 56.35 57.56 58.59 57.87 57.48 56.15 55.20 54.73 54.42 53.60 53.38 53.92 55.60 56.83 57.68 57.01 55.67 54.46 54.29 54.24 53.65 53.50 53.74 52.59 51.32 51.27 52.96 50.45 47.53 46.16 47.96 50.31 51.07 52.49 53.36 53.37 55.12 55.55 54.87 54.46 54.24
55.92 56.33 56.80 57.73 58.39 57.69 56.87 55.26 53.43 52.57 51.77 53.18 53.14 53.66 54.66 56.02 55.86 55.58 55.03 54.49 54.17 53.59 52.79 53.82 55.21 53.07 51.39 49.98 51.22 55.31 54.44 53.94 48.62 48.32 50.16 51.12 51.34 52.28 52.85 53.24 54.97 55.06 55.21
56.29 56.04 56.25 57.72 58.05 57.21 56.32 55.29 53.53 52.21 52.41 53.42 53.50 52.98 53.86 54.91 55.65 55.15 54.97 54.69 54.51 54.28 54.02 54.38 55.01 54.19 53.84 52.37 51.70 51.83 52.16 52.87 53.22 50.99 48.11 48.97 50.50 51.60 52.42 52.98 53.73 55.09 55.60
56.20 55.83 56.46 57.32 57.58 56.94 56.04 55.05 52.58 51.63 52.20 51.87 52.22 52.66 52.93 54.09 54.30 54.53 54.68 54.51 54.31 54.82 55.99 55.92 56.28 56.00 55.87 55.33 55.26 54.60 52.78 51.16 50.84 50.76 49.03 49.46 49.19 50.73 52.60 53.45 52.52 52.57 52.84

GFSSE_sfc_wetblb_096.txt.gz
Wetbulb
67.96 70.47 72.06 72.66 72.55 72.09 72.11 71.95 72.09 72.37 72.51 73.12 72.95 72.92 72.73 72.89 72.82 72.65 72.66 72.49 72.73 73.03 72.60 71.94 72.90 72.78 72.68 71.91 72.08 71.72 71.30 70.82 70.53 70.75 70.83 70.40 70.08 69.80 69.68 69.41 69.29 67.34 69.55
68.61 70.46 71.62 72.24 72.32 72.27 71.98 72.03 72.11 72.60 72.69 73.09 72.67 72.43 72.27 72.35 72.36 72.45 72.43 72.42 72.43 72.48 71.62 71.84 72.46 71.91 71.42 71.36 71.13 70.83 70.55 69.95 69.79 69.81 70.28 69.90 69.51 69.51 69.28 68.60 68.82 67.79 68.64
68.63 70.14 71.73 71.82 72.16 72.30 72.21 71.87 71.75 72.75 72.71 72.70 72.46 72.20 72.06 72.04 72.11 71.82 71.75 71.63 72.01 72.16 71.18 71.05 71.67 71.15 70.49 70.64 70.29 70.09 69.52 69.22 68.74 68.70 68.71 66.67 66.61 68.94 68.95 68.21 68.30 68.01 68.09
68.93 69.73 70.19 71.66 71.95 72.15 72.06 71.99 71.61 72.63 72.36 72.66 72.49 72.15 72.09 71.92 71.90 71.86 71.28 70.77 71.44 72.09 71.16 71.26 71.10 70.39 70.23 69.73 69.32 68.97 68.57 68.17 67.52 67.22 65.22 65.95 66.69 68.45 67.87 67.28 67.12 67.00 67.10
68.31 69.12 69.75 70.50 71.57 72.10 71.94 71.79 71.86 72.25 72.10 72.11 70.88 70.37 68.84 70.32 71.76 71.64 70.92 70.95 71.19 71.54 70.64 70.59 70.59 70.05 69.54 68.55 68.14 67.89 67.30 66.80 66.05 64.75 64.01 65.18 65.38 67.02 67.19 66.37 65.80 65.51 65.31
69.36 68.29 68.79 69.50 70.96 72.24 72.22 71.92 71.91 72.11 71.28 68.18 68.41 67.71 67.45 68.27 67.99 69.35 69.87 70.49 71.01 71.30 70.73 69.92 70.18 69.54 68.52 67.73 67.41 67.00 66.21 64.82 63.64 62.28 63.71 65.16 64.49 66.43 65.80 64.70 64.62 64.57 64.14
68.05 67.87 68.09 68.33 69.87 71.86 72.64 72.35 71.64 71.54 69.12 68.01 66.92 66.74 66.18 66.42 66.21 65.90 67.15 68.71 69.90 70.60 70.17 69.59 69.31 68.54 67.78 67.35 66.79 65.30 64.39 63.55 61.10 61.20 62.18 62.94 63.35 65.73 65.18 64.13 63.39 63.10 63.13
67.35 67.56 68.07 69.54 69.80 70.09 71.62 71.62 70.83 70.58 68.10 67.09 66.48 66.38 66.11 65.43 65.66 65.23 64.22 67.87 68.65 68.62 68.89 68.51 67.95 67.61 67.40 66.47 65.21 64.04 63.29 62.74 61.02 60.56 61.43 62.35 64.90 65.00 64.53 63.44 62.52 62.35 62.04
66.34 66.40 66.45 67.47 69.56 69.48 69.03 68.92 69.36 68.86 67.21 67.01 66.59 66.12 66.36 65.35 64.81 64.52 65.98 67.24 68.14 68.07 67.99 67.77 67.31 66.84 66.06 65.00 64.00 63.08 62.32 62.16 59.55 60.48 61.37 61.97 64.37 63.70 63.56 62.75 62.26 62.45 61.62
63.64 64.55 64.65 64.62 65.35 65.92 67.35 67.42 67.71 67.65 66.80 66.77 66.62 66.04 65.19 65.02 65.57 65.12 66.72 66.13 67.48 67.84 67.48 67.00 66.32 65.77 64.43 63.49 63.14 62.32 61.71 61.62 59.00 59.26 59.79 61.47 63.76 63.51 62.92 62.06 62.11 61.93 61.75
61.89 62.87 63.68 64.18 64.60 64.34 64.92 66.84 66.84 66.62 65.97 65.72 65.70 64.51 63.50 61.90 64.21 64.81 65.57 66.57 66.61 66.61 66.57 66.07 65.52 64.57 63.15 62.68 62.58 61.82 60.71 58.56 58.16 58.86 59.64 63.19 63.12 63.18 62.68 62.23 61.48 61.41 61.29
59.90 61.31 61.72 63.77 64.44 64.04 65.83 65.73 65.42 65.34 64.23 63.01 62.86 62.66 61.07 62.93 63.32 65.18 65.50 65.99 66.01 65.67 65.57 65.28 64.61 63.47 60.52 58.26 60.49 60.91 58.37 58.36 57.87 57.51 58.97 62.20 62.21 63.05 62.20 61.69 61.15 61.03 60.96
60.42 60.91 61.15 62.25 63.64 63.72 62.94 62.74 63.50 65.00 62.65 62.24 62.26 61.94 61.29 62.54 64.21 64.58 64.69 64.75 64.14 64.46 62.72 62.31 61.70 58.03 55.50 55.96 57.09 57.64 57.59 57.53 57.45 57.56 60.10 62.17 63.03 62.73 62.19 61.70 61.24 60.93 60.68
59.64 60.21 60.49 60.33 60.84 62.17 63.08 63.40 63.94 63.96 63.70 63.15 63.07 62.78 61.93 62.56 62.35 63.19 63.91 63.62 63.07 61.80 59.64 58.17 56.18 55.14 54.68 56.24 57.36 56.99 56.51 57.03 57.30 57.48 59.56 61.51 62.36 62.04 62.19 61.78 61.28 60.90 60.23
59.31 59.53 58.99 59.27 59.72 60.61 62.18 62.10 63.06 62.62 63.46 63.26 63.31 62.58 62.55 62.20 62.10 63.34 62.68 61.94 60.71 59.79 58.07 54.79 53.57 54.01 53.64 55.02 57.10 56.44 56.07 56.59 56.91 57.75 57.48 60.88 61.45 62.21 61.79 61.83 61.36 60.83 60.14
59.93 59.05 58.54 58.45 59.17 60.34 59.63 60.63 62.02 62.50 62.20 63.40 63.12 62.14 63.19 62.62 61.93 61.49 61.29 59.91 59.21 58.36 57.01 55.34 53.25 52.81 53.48 54.41 56.37 56.13 55.90 56.82 57.27 56.90 57.41 58.59 60.40 61.51 61.93 61.50 61.22 60.72 60.12
59.51 59.01 58.31 58.08 58.65 59.35 57.94 59.77 61.56 62.16 63.18 63.13 62.76 61.62 63.19 62.71 61.84 60.48 59.26 58.41 57.48 56.33 54.54 53.60 52.68 53.17 52.66 55.13 56.00 55.90 55.94 56.78 56.82 56.84 56.62 56.37 58.25 59.64 60.40 61.19 60.84 60.41 59.87
58.65 58.47 58.91 60.03 58.64 58.06 57.24 57.66 58.81 60.15 63.17 63.14 63.01 62.01 63.08 62.94 62.13 59.50 58.50 57.28 56.20 54.69 54.56 53.76 53.95 52.80 52.17 54.63 55.40 55.67 55.52 56.61 56.76 56.50 56.25 55.99 55.73 57.02 59.04 60.38 60.56 60.29 59.97
58.66 58.37 58.02 58.01 57.87 58.76 59.02 59.90 58.00 60.68 62.36 62.90 63.10 62.46 62.60 63.12 61.56 59.42 57.87 56.13 54.26 54.07 55.07 54.51 53.99 54.16 52.25 53.22 54.84 55.22 55.38 55.37 55.78 56.85 55.69 55.55 55.27 55.42 55.42 59.24 59.54 59.61 59.95
58.14 58.07 57.62 57.31 58.30 58.96 59.81 59.05 58.89 59.09 59.83 61.36 62.59 62.61 62.18 62.99 61.09 59.44 57.66 56.08 53.72 55.11 56.07 55.13 54.09 54.34 53.91 53.86 55.28 54.57 55.26 54.92 55.44 55.37 55.51 56.32 55.78 55.18 54.78 55.33 55.92 55.87 58.15
57.35 56.79 56.55 56.90 58.14 58.38 57.64 56.62 56.47 56.25 56.64 57.96 59.99 62.07 62.35 62.67 61.25 59.21 58.20 56.90 53.78 56.16 56.25 55.44 54.42 54.01 53.13 53.34 52.37 52.43 52.62 54.74 54.67 54.98 55.51 54.70 55.04 54.79 54.18 54.50 54.97 53.75 54.92
56.14 56.31 56.26 57.04 57.27 57.59 57.49 56.88 56.24 55.84 55.61 56.60 57.10 58.58 61.88 62.38 61.35 59.39 57.94 57.36 55.13 56.93 55.52 54.85 54.27 51.87 52.37 53.47 52.24 50.09 48.19 49.84 51.76 53.55 54.22 54.17 53.92 54.81 54.41 54.42 53.93 54.01 53.72
55.36 55.34 55.84 56.52 56.89 57.35 57.03 55.92 55.14 54.72 54.39 53.85 54.61 55.67 57.46 61.17 60.63 60.05 57.86 57.80 56.99 56.32 55.10 54.88 54.39 53.51 52.27 51.54 53.40 50.33 46.68 46.17 48.62 50.81 52.28 53.62 53.64 53.82 54.37 54.40 54.20 54.00 53.74
55.08 55.64 56.18 56.83 57.06 57.08 56.06 55.20 53.94 53.13 52.07 53.24 53.59 54.36 55.91 58.43 59.87 59.14 58.06 57.62 56.78 56.29 54.51 54.59 54.04 53.04 53.27 51.37 50.54 54.07 53.09 51.07 47.63 46.35 50.13 51.42 53.16 53.41 53.89 54.40 54.24 54.12 53.88
55.08 55.32 55.94 56.85 56.82 56.64 55.30 54.89 54.12 53.15 53.48 53.35 53.09 53.64 54.53 55.69 57.17 57.58 57.25 56.49 54.90 54.87 53.81 54.55 53.32 52.90 52.36 51.60 50.71 51.50 52.12 52.64 53.09 49.90 46.61 48.28 50.20 51.69 53.50 54.00 54.48 54.16 54.17
55.14 55.24 55.44 56.33 55.77 56.25 55.57 54.77 54.10 53.18 52.78 52.38 52.30 52.70 53.85 54.98 55.18 55.52 55.45 55.33 54.92 54.21 54.12 53.80 54.86 53.67 53.61 52.64 52.81 52.43 52.03 51.43 51.06 50.99 49.51 48.65 48.66 49.57 50.86 51.28 51.84 53.36 54.44

GFSSE_sfc_wetblb_099.txt.gz
Wetbulb
68.24 70.56 71.80 72.32 72.54 72.23 72.13 72.19 71.99 72.11 72.74 73.20 73.30 73.27 73.10 73.08 73.08 72.98 72.64 72.85 72.81 72.82 72.71 73.21 73.04 73.06 72.37 71.95 71.65 71.67 71.06 70.20 69.69 70.60 71.09 70.36 70.17 70.08 69.81 69.28 69.07 67.60 69.80
68.71 71.14 71.07 72.13 72.21 72.13 71.92 72.15 72.08 72.38 72.83 73.05 73.03 72.89 72.79 72.72 72.72 72.56 72.56 72.30 72.88 72.72 72.04 72.37 73.24 72.89 71.90 71.45 71.16 70.80 70.43 70.01 69.73 69.90 70.27 69.86 69.19 69.08 69.32 68.68 68.89 67.99 68.92
69.01 70.89 70.98 71.46 71.96 72.11 72.11 72.15 72.55 72.82 72.77 72.97 72.67 72.65 72.55 72.71 72.72 72.65 72.31 71.72 72.10 71.44 71.66 71.79 71.78 71.73 71.21 71.08 70.71 70.52 70.16 69.63 69.45 69.29 69.20 67.00 66.61 68.86 68.93 68.52 68.90 68.56 68.44
68.82 70.33 70.90 70.98 71.45 71.98 71.76 71.87 72.52 72.77 72.50 72.48 72.46 72.28 72.41 72.32 72.36 72.29 72.05 71.72 71.50 71.25 70.72 71.54 71.33 71.24 70.32 70.28 69.84 69.52 68.98 68.83 68.25 68.05 65.79 65.91 66.50 68.40 68.69 68.13 67.96 67.84 67.78
68.13 69.15 70.51 70.69 71.00 71.69 71.55 71.54 72.10 72.17 72.05 71.86 71.76 71.92 71.93 71.99 71.72 71.73 71.35 71.13 71.47 71.61 70.84 71.18 70.94 70.38 69.63 68.89 68.46 68.18 67.82 67.30 66.75 65.07 63.93 65.25 65.84 67.23 67.76 67.11 66.44 66.22 66.65
67.56 68.32 68.66 70.04 70.61 71.51 71.76 71.56 71.91 71.70 71.32 71.27 70.75 71.24 71.82 71.82 71.64 71.00 70.59 70.84 71.22 71.28 71.31 71.11 70.08 69.40 68.42 67.87 67.25 66.96 66.43 65.79 64.17 62.74 64.16 65.50 64.44 66.92 66.49 65.54 65.50 65.47 65.40
67.05 66.76 68.03 68.64 70.53 71.53 72.02 71.92 71.63 71.25 69.68 69.59 69.17 69.62 70.26 71.05 70.94 70.38 70.19 69.83 69.80 70.32 70.47 70.07 69.33 67.82 67.73 67.15 66.73 65.44 64.76 64.30 61.62 61.87 62.19 62.70 63.76 66.13 65.67 65.19 64.25 63.95 64.24
66.87 66.42 66.85 69.05 70.01 71.05 71.46 71.16 70.79 69.96 68.59 68.11 67.65 67.80 68.59 68.94 68.82 69.28 69.60 69.08 69.34 69.69 69.16 68.59 68.16 67.43 67.40 66.39 65.33 64.26 63.65 63.62 61.83 61.19 61.72 62.65 65.45 65.62 64.63 63.61 63.42 63.19 63.10
66.30 66.05 66.07 67.09 68.84 69.49 69.57 69.72 69.20 68.55 67.48 67.33 67.15 66.68 66.33 66.12 65.66 67.02 67.84 68.44 68.64 68.19 68.06 67.59 67.22 66.76 66.08 65.26 64.26 63.28 62.75 62.86 60.30 61.02 62.06 62.23 65.60 64.69 64.19 63.00 62.88 62.29 62.26
64.89 64.94 65.18 65.57 66.03 67.90 68.80 68.03 68.19 67.79 66.96 66.64 66.71 66.60 66.04 66.04 65.69 65.79 66.02 66.80 67.73 67.65 67.10 66.82 66.70 66.14 64.69 64.02 63.12 62.54 62.10 62.03 59.37 60.12 61.03 62.34 64.15 64.11 63.63 62.99 62.50 62.58 62.09
62.87 63.49 63.38 63.04 63.26 63.53 66.50 67.00 68.06 67.65 66.76 66.35 66.60 66.33 65.15 63.35 63.36 64.29 65.24 66.22 66.82 66.89 66.21 66.72 65.70 64.75 63.08 63.18 62.53 62.06 60.85 58.23 58.76 59.40 60.17 63.53 63.31 63.21 62.67 63.23 62.51 62.08 61.83
60.00 61.46 62.73 62.16 62.19 62.84 65.50 65.28 65.46 67.00 66.44 65.95 65.34 64.35 62.21 60.62 62.38 64.13 65.26 65.95 66.71 66.11 66.26 66.11 64.99 62.93 61.97 60.63 60.71 60.72 57.53 57.86 58.71 58.67 60.10 63.20 63.60 63.38 63.00 62.58 61.84 61.71 61.30
60.04 61.17 61.71 62.40 62.18 62.69 63.23 63.12 65.00 64.60 63.72 63.50 62.84 62.14 60.98 61.89 61.76 62.74 63.47 64.39 64.84 64.66 63.96 63.85 61.85 57.44 59.29 59.26 57.90 56.76 56.94 57.12 57.50 57.96 60.41 62.70 63.14 62.83 62.64 61.78 61.53 61.48 60.86
58.30 60.27 60.29 61.52 61.71 61.73 62.27 62.31 64.03 64.31 63.00 62.50 62.13 61.57 60.03 62.14 62.78 63.01 63.55 62.68 62.88 63.28 61.93 61.29 57.71 55.60 55.89 56.49 56.76 56.70 56.58 56.93 56.66 56.68 59.23 61.62 62.64 62.22 62.84 62.28 61.82 61.27 60.69
58.05 59.48 59.87 59.62 60.89 61.68 61.57 61.54 62.74 63.53 62.98 62.52 62.02 61.36 61.11 61.49 62.42 63.30 63.27 63.30 62.97 62.05 60.73 58.62 56.41 54.88 55.09 55.87 56.47 56.22 56.24 56.06 56.22 57.13 57.28 61.01 61.76 62.38 62.10 62.10 61.91 61.55 61.00
59.30 59.32 58.95 58.98 59.91 60.43 61.48 60.57 61.73 62.33 62.81 62.77 62.36 62.00 61.73 62.22 62.00 62.65 61.76 62.54 61.81 61.01 59.52 57.86 55.21 54.23 54.12 55.48 55.38 56.07 55.52 55.51 55.75 55.71 57.88 59.36 60.45 61.60 62.25 61.84 61.44 61.10 60.65
59.59 59.61 58.57 58.57 58.84 59.57 59.55 59.69 60.48 60.98 62.07 61.88 62.22 61.88 62.32 62.32 61.57 61.96 61.37 60.17 60.42 59.43 57.74 56.33 54.31 53.70 52.84 55.50 54.55 54.45 55.49 55.26 55.50 55.21 56.40 57.03 58.50 59.88 60.86 61.63 61.11 60.40 60.28
59.20 58.67 58.85 59.62 58.37 58.04 57.54 58.33 59.25 61.62 62.23 62.29 62.80 62.09 62.64 62.57 61.42 59.95 60.93 59.55 57.86 57.29 55.98 55.39 53.68 53.12 53.73 54.45 53.84 54.17 55.05 55.55 55.46 55.64 56.47 56.52 56.29 56.90 59.29 60.65 61.11 60.80 60.02
58.89 58.61 58.01 58.22 57.50 57.22 56.88 57.00 57.18 60.73 62.47 62.87 62.76 61.79 62.37 62.43 61.00 59.60 58.98 57.85 56.58 56.26 55.24 54.69 53.47 53.67 53.97 54.64 54.10 53.79 54.68 55.04 55.21 56.47 55.72 55.90 55.85 55.92 56.05 59.53 59.71 59.78 60.32
58.61 58.46 58.25 58.08 57.54 57.30 57.98 57.88 58.16 60.34 61.60 62.13 62.66 62.04 62.35 62.58 60.55 59.10 57.90 56.30 55.65 54.81 54.44 54.06 52.88 52.87 54.43 54.60 55.05 53.72 53.53 54.65 55.33 55.09 55.66 55.97 55.34 55.53 55.80 56.44 56.68 56.51 58.67
57.77 57.48 57.36 56.70 58.07 58.63 57.21 57.18 57.48 57.82 57.76 59.77 61.88 62.31 61.89 62.46 60.38 58.90 57.19 55.68 54.15 54.09 54.42 53.50 53.58 52.82 51.95 55.08 53.05 51.76 51.60 53.65 53.55 54.26 54.91 54.85 54.83 54.99 54.59 54.32 54.29 53.90 54.89
57.06 56.93 56.40 56.69 58.03 58.07 57.83 57.22 55.67 56.38 56.50 57.64 58.67 60.50 62.04 62.19 60.55 59.28 57.48 55.48 52.72 54.06 54.42 53.34 53.71 51.48 51.51 54.60 52.73 51.22 48.62 50.10 51.83 52.97 53.53 54.06 53.63 54.55 53.87 53.73 53.57 53.37 52.59
56.55 55.88 56.14 57.34 57.06 57.31 56.24 54.77 55.09 54.95 54.89 54.83 55.75 57.60 59.13 62.03 60.75 59.63 57.94 55.97 52.72 55.63 54.45 53.54 53.89 53.73 51.91 51.32 54.35 50.83 47.31 47.37 49.30 50.28 51.78 52.65 53.32 52.96 53.18 53.84 53.56 53.61 53.14
55.98 55.92 56.39 56.72 56.10 56.44 56.20 54.54 53.96 53.28 52.75 53.85 54.48 55.15 56.78 59.44 60.88 59.98 58.65 56.74 54.18 56.65 55.01 54.13 54.70 54.32 54.05 51.35 50.98 53.12 52.26 51.02 48.56 45.50 49.21 52.42 52.71 52.67 52.74 52.80 53.57 53.34 53.41
56.11 55.36 56.35 56.18 55.57 55.92 55.66 53.68 53.09 53.51 53.90 53.75 53.68 54.31 55.81 57.02 59.95 59.80 57.97 55.83 54.68 56.50 55.47 54.58 53.18 53.07 54.10 52.26 51.47 51.43 52.57 52.46 51.56 48.02 45.36 47.11 50.23 52.20 53.46 53.63 53.67 53.71 53.73
55.47 55.34 56.01 56.00 55.93 55.90 55.16 52.96 52.56 53.28 52.86 52.37 52.80 53.27 54.39 55.23 57.04 58.66 57.60 56.01 56.14 56.18 55.10 54.18 53.54 53.04 52.62 52.43 52.28 52.34 52.18 51.68 51.15 50.88 48.62 47.61 48.38 50.29 52.98 53.59 53.84 54.13 54.00

GFSSE_sfc_wetblb_102.txt.gz
Wetbulb
67.25 69.28 71.65 72.29 72.43 72.34 72.22 72.10 72.32 72.85 73.50 73.63 73.50 73.35 73.24 73.26 73.16 73.14 72.86 72.92 73.06 73.28 73.68 73.41 73.28 73.43 73.16 72.24 72.14 71.74 70.88 70.91 71.10 71.28 71.11 70.59 70.69 70.52 70.27 70.03 69.85 68.66 70.58
68.41 69.84 71.02 71.99 72.26 72.27 72.13 72.14 72.37 72.87 73.53 73.81 73.37 73.13 73.01 73.13 73.04 72.68 73.00 72.84 72.93 73.51 73.02 72.76 73.21 72.96 72.10 71.87 71.44 70.95 70.37 70.19 69.81 70.19 70.51 70.15 70.01 69.83 69.87 69.39 69.71 69.18 70.35
68.35 70.40 70.78 71.47 72.06 72.25 72.32 72.32 72.40 73.15 73.63 73.63 73.38 73.13 73.06 73.16 72.97 72.73 72.59 72.45 72.81 73.19 72.71 72.39 72.64 72.15 71.50 71.28 71.01 70.57 70.25 69.90 69.53 69.54 69.48 66.77 67.28 69.32 69.39 69.34 69.67 69.84 69.38
69.03 69.94 70.04 71.05 71.52 72.02 72.02 72.08 72.45 73.01 73.22 73.08 73.04 73.01 72.98 72.91 72.74 72.70 72.45 71.36 71.84 72.66 72.61 71.95 72.04 71.62 71.08 70.04 70.08 70.15 69.90 69.38 68.71 68.52 66.12 66.53 66.96 69.03 69.03 68.78 68.85 68.88 68.63
68.56 69.79 69.83 70.69 70.88 71.67 71.76 72.17 72.29 72.23 72.20 72.51 72.49 73.03 73.11 73.04 72.65 72.47 71.83 71.11 71.26 71.76 72.19 71.56 71.28 70.88 70.19 69.44 69.17 69.06 68.92 68.23 67.52 65.55 65.49 65.73 65.83 67.79 68.42 68.15 67.81 67.56 67.98
67.64 68.83 69.39 69.64 70.39 71.36 71.73 72.06 72.23 72.07 71.47 71.48 71.73 72.43 72.68 72.77 72.54 71.99 71.04 70.53 70.47 70.89 71.43 70.79 70.68 69.86 68.87 68.20 67.99 67.74 67.35 66.71 65.38 63.52 64.30 66.57 65.33 67.72 67.25 66.60 67.41 66.69 66.91
66.26 66.74 68.36 68.90 70.24 71.26 71.86 71.79 71.71 71.51 71.03 71.02 71.27 71.61 71.81 71.92 71.44 70.69 69.94 69.87 70.12 70.15 70.83 70.43 69.70 69.03 68.20 67.44 67.17 66.53 65.75 65.22 62.73 62.16 62.49 63.52 64.62 66.80 66.72 65.95 65.40 65.96 65.64
65.68 65.61 67.01 69.73 70.15 70.58 71.25 70.91 70.60 70.06 70.26 69.93 70.19 70.89 71.22 71.13 70.55 70.08 70.11 69.98 69.89 69.81 69.60 69.33 68.37 68.18 67.50 66.82 66.02 64.91 64.56 64.56 62.35 61.37 62.06 62.75 66.38 66.27 65.81 65.02 64.54 64.33 64.07
65.32 64.85 65.18 67.03 69.55 69.78 69.55 69.39 69.12 68.98 68.70 68.36 68.67 69.16 68.84 68.65 69.14 69.79 69.67 69.28 68.66 68.46 68.99 68.76 67.92 67.24 66.73 65.70 64.78 64.12 63.35 63.33 61.23 61.52 62.34 63.19 66.47 65.57 64.73 64.18 63.40 63.26 62.93
64.40 64.24 64.32 65.04 66.35 67.79 68.88 68.49 68.22 68.11 67.52 67.23 66.70 66.90 66.18 66.20 66.47 66.72 67.42 67.91 68.59 68.60 68.30 67.58 67.11 66.31 65.60 64.45 63.92 63.18 62.87 62.36 59.95 60.72 61.40 63.28 65.57 64.66 64.26 63.47 63.25 62.21 61.72
65.01 64.53 63.70 64.40 64.50 65.15 66.57 68.74 68.33 68.11 67.05 66.81 66.94 66.47 65.07 64.71 64.84 65.16 65.47 66.27 66.95 66.57 66.75 66.30 66.02 64.85 64.14 63.66 63.15 62.61 60.95 58.81 58.90 59.53 61.08 64.58 64.92 64.03 64.13 62.46 62.65 62.30 61.97
64.37 64.55 63.45 62.70 62.45 62.66 65.26 67.34 67.27 67.79 66.81 66.25 65.85 65.53 64.68 63.55 63.69 64.50 64.69 65.40 66.46 65.76 65.76 65.82 64.63 64.01 62.78 61.15 61.24 60.39 58.02 58.04 58.46 59.07 60.72 63.86 64.22 64.18 63.92 63.14 62.09 61.86 62.27
62.90 63.24 62.46 61.22 61.11 61.35 65.11 65.90 66.14 66.33 66.71 65.74 65.42 64.47 62.67 62.47 63.37 63.91 62.59 63.65 64.07 64.93 64.08 64.43 62.67 61.04 60.24 59.68 58.27 56.19 56.48 57.16 57.38 58.75 61.49 63.01 63.86 63.51 63.73 62.92 62.46 62.22 61.96
58.50 61.24 61.46 60.84 60.44 60.64 63.96 64.01 64.61 63.52 64.38 64.06 63.77 62.66 62.04 61.65 61.39 63.02 62.93 63.62 63.36 63.05 63.28 62.46 59.67 59.30 59.08 58.49 56.43 55.99 56.36 56.36 56.22 57.68 61.02 62.30 63.32 63.43 63.11 62.71 62.58 61.56 61.29
57.61 58.95 60.09 60.72 61.08 60.91 61.64 62.19 62.95 62.88 62.80 62.08 62.38 61.71 61.49 61.76 61.30 62.21 62.70 62.29 62.87 62.93 62.11 58.46 57.28 58.33 56.99 56.46 56.73 56.60 56.33 56.31 56.45 57.54 58.70 61.02 61.67 62.96 62.78 62.62 62.58 61.56 61.73
58.90 57.99 59.48 60.20 61.37 61.88 61.95 62.16 62.68 63.59 62.74 62.33 61.88 61.51 60.88 60.78 62.27 62.29 62.52 62.21 62.20 61.65 60.93 57.26 56.64 56.68 56.46 56.35 55.54 55.62 55.47 55.88 56.63 56.99 57.85 60.03 60.74 62.18 62.15 62.33 62.10 61.84 61.45
58.76 59.27 59.42 59.64 60.08 62.05 62.73 61.11 61.84 62.20 62.82 62.58 62.03 61.52 60.96 60.51 61.10 62.78 61.83 61.59 61.45 60.95 59.40 56.43 56.03 56.41 55.90 56.01 54.72 54.87 55.56 56.15 56.16 56.48 57.42 57.98 59.98 60.07 61.04 62.04 62.10 61.48 61.18
58.32 58.58 59.70 60.60 59.54 60.61 62.05 60.59 60.71 61.25 61.89 62.10 62.07 61.84 61.38 61.95 61.89 61.90 61.17 61.17 61.70 60.02 58.66 55.88 55.22 55.24 54.86 54.34 53.65 54.17 55.20 55.59 55.23 55.91 56.63 57.05 57.72 58.07 59.85 60.91 61.39 61.49 60.62
58.42 58.79 58.52 59.40 58.83 58.80 57.86 60.20 60.83 61.08 60.90 61.68 61.95 61.61 61.86 62.33 61.34 60.81 61.59 60.18 60.66 58.51 57.35 55.93 54.89 55.10 53.97 53.72 53.57 53.43 54.07 54.33 54.92 56.08 55.71 56.39 56.96 57.12 57.72 59.87 59.94 59.99 60.39
57.91 58.64 58.56 58.68 58.37 57.21 57.47 58.38 59.08 60.19 61.16 61.61 61.41 61.19 62.38 62.26 60.65 59.79 58.76 58.06 58.35 57.53 56.09 55.75 54.35 55.31 54.84 53.97 54.44 53.03 53.16 54.06 54.55 54.45 55.02 56.23 56.02 56.36 56.67 57.60 58.36 57.83 59.02
56.51 57.31 58.01 58.30 56.95 57.69 58.36 58.24 58.14 58.76 58.88 60.36 61.31 61.90 61.84 62.21 60.36 59.25 57.61 56.33 56.63 55.87 54.98 54.64 54.21 54.31 53.98 54.85 52.49 51.45 51.66 53.17 53.91 54.09 55.04 54.88 55.56 55.97 56.22 56.46 56.68 56.28 57.45
56.63 57.05 58.25 58.08 57.65 58.10 58.50 58.92 57.84 58.03 57.55 58.88 60.57 61.78 61.88 62.20 60.38 59.12 57.50 56.25 55.83 55.25 54.00 53.82 54.02 53.63 53.80 54.70 52.48 50.96 49.28 51.22 52.67 53.53 53.90 54.08 53.66 54.90 55.01 55.14 55.19 54.84 54.58
55.77 57.08 57.60 57.21 57.85 58.14 58.21 57.01 55.53 55.31 55.26 55.83 56.97 58.78 60.83 61.87 60.52 59.42 58.04 56.19 55.20 55.51 53.98 53.68 53.87 53.91 52.64 54.07 54.51 50.94 48.31 47.54 49.81 51.78 52.79 53.54 53.60 53.28 54.39 54.48 54.17 54.33 54.21
55.69 57.57 57.17 56.99 57.56 57.66 56.88 55.67 54.28 53.17 52.71 54.27 55.77 56.77 57.96 60.43 60.62 59.72 57.76 55.67 54.36 54.38 53.94 53.73 54.46 54.81 54.29 52.00 53.65 52.56 52.56 51.89 49.04 46.59 50.14 52.41 53.29 53.10 53.11 53.33 53.88 54.13 54.46
55.97 56.27 56.89 57.17 57.02 56.76 56.19 55.65 54.43 54.33 54.31 53.91 54.45 55.49 56.31 57.17 59.88 59.67 58.00 56.29 53.46 54.35 54.84 53.55 53.80 53.35 54.82 53.68 52.50 51.74 51.70 52.35 50.78 48.56 46.52 48.34 51.61 52.98 53.59 53.37 53.67 53.78 54.16
56.09 56.03 56.63 56.28 55.71 55.86 55.20 54.61 53.39 52.52 53.21 53.05 53.56 53.92 55.27 56.21 58.29 59.78 58.80 56.64 54.37 55.04 54.84 53.61 54.34 54.10 53.92 54.28 52.88 52.83 52.14 50.93 50.82 50.35 48.27 48.12 49.20 50.39 52.84 53.70 53.88 54.15 54.42

GFSSE_sfc_wetblb_105.txt.gz
Wetbulb
69.90 71.42 71.15 71.18 71.95 72.55 72.38 72.59 73.00 73.26 73.08 73.54 73.53 73.55 73.37 73.57 73.59 73.39 73.62 73.39 73.54 73.49 73.66 73.52 73.57 73.47 72.94 72.50 72.52 72.00 72.02 71.59 71.20 71.48 71.73 71.61 71.41 71.02 70.87 70.83 70.80 70.60 71.25
71.27 71.64 70.70 70.64 70.97 72.34 72.25 72.53 72.90 73.47 73.45 73.53 73.47 73.29 73.19 73.23 73.21 73.20 73.19 73.23 73.12 73.54 72.95 73.54 73.76 73.52 72.87 72.37 71.52 71.23 71.21 70.90 70.64 70.88 70.99 71.04 70.72 70.63 70.45 70.51 70.31 70.51 70.61
71.11 71.71 71.91 71.06 71.75 72.21 72.36 72.67 73.16 73.86 73.90 73.75 73.67 73.33 73.28 73.16 73.10 73.08 73.06 73.00 73.07 73.42 72.81 72.89 73.29 72.82 72.20 71.57 71.00 70.89 70.60 70.36 70.29 70.13 70.26 69.54 69.46 69.99 70.18 70.37 70.39 70.33 70.17
71.13 71.57 72.24 70.87 71.51 72.11 72.09 72.55 73.01 73.93 73.94 73.64 73.48 73.44 73.36 73.20 73.00 73.07 72.89 72.54 72.77 73.09 73.22 72.46 72.47 72.05 71.76 71.14 70.43 70.29 70.08 69.80 69.19 68.72 68.70 68.65 67.98 69.65 69.65 69.47 69.59 69.79 69.74
70.50 71.15 71.80 70.87 71.08 71.92 72.01 72.02 72.56 73.01 73.13 73.17 73.02 73.41 73.34 73.12 73.06 72.69 72.00 71.20 72.24 72.43 72.99 72.46 71.91 71.60 70.47 69.89 69.22 69.26 69.25 68.69 67.81 68.15 67.67 68.59 68.25 69.23 69.30 69.13 69.17 69.09 69.13
70.23 70.88 70.11 69.84 70.73 71.61 71.87 72.19 72.13 72.38 72.03 72.25 72.41 72.99 73.15 73.18 72.91 71.62 71.35 71.36 71.55 71.36 72.03 72.35 71.46 70.54 69.41 68.78 68.58 68.51 67.93 67.28 67.15 68.00 67.30 68.53 68.58 68.84 68.50 67.90 68.30 68.37 68.10
70.28 70.14 70.24 69.14 70.28 71.31 72.06 72.23 72.12 71.58 71.44 71.65 72.00 72.32 72.46 72.65 72.47 71.14 70.25 69.87 70.42 70.55 71.06 71.36 70.69 69.43 68.81 68.16 67.87 67.38 66.64 66.51 68.41 68.00 67.87 68.33 67.84 67.70 67.55 66.92 66.60 67.20 67.34
69.95 70.80 71.52 70.19 70.15 70.52 70.97 71.22 70.95 70.61 70.52 70.90 71.43 71.53 72.02 71.92 71.25 70.40 69.85 69.70 69.20 69.90 70.15 70.06 69.43 68.69 67.89 67.51 66.80 66.07 65.40 65.95 67.59 67.85 67.83 67.69 67.65 67.26 66.78 65.91 66.12 66.21 65.92
69.70 69.94 71.47 71.44 71.14 69.64 69.25 69.38 69.25 69.42 69.83 69.89 70.32 69.62 70.19 69.96 68.98 69.72 69.27 69.21 69.75 69.46 69.08 69.29 68.56 67.71 67.44 66.66 65.91 64.82 64.14 65.42 67.36 67.13 66.69 67.35 67.22 66.80 66.03 65.08 64.55 64.32 64.08
68.80 69.23 69.68 71.47 71.40 71.74 72.16 68.42 68.22 68.39 68.28 68.53 68.93 68.82 67.50 67.81 68.22 68.43 68.38 68.53 69.09 68.67 68.30 68.38 67.96 67.00 66.44 65.33 64.60 63.85 63.48 64.31 66.71 66.68 66.63 66.74 66.64 65.79 65.36 64.33 63.86 63.45 63.53
66.75 68.69 69.25 69.84 71.05 71.08 71.82 71.40 68.76 68.53 67.79 67.32 68.18 67.18 66.60 69.96 69.50 69.13 68.21 66.38 67.61 67.78 68.50 67.91 66.87 65.55 64.71 64.33 64.03 63.25 63.52 65.99 66.07 65.91 65.91 65.38 65.83 65.19 64.74 64.00 63.05 62.98 63.03
66.09 66.62 68.35 69.15 69.53 70.71 70.40 71.54 69.95 70.31 69.68 68.33 68.86 69.45 69.56 68.84 68.84 68.50 67.47 66.32 67.16 66.52 66.27 66.44 65.51 64.43 64.11 63.88 64.71 63.01 65.27 65.43 65.18 65.49 65.46 64.68 65.50 64.83 63.72 63.34 62.39 62.17 62.66
66.63 66.71 65.97 67.15 68.91 68.99 69.33 69.98 69.74 69.19 68.49 68.01 69.08 67.54 67.13 65.84 66.27 66.92 66.94 67.07 67.29 66.33 67.83 65.09 65.07 64.58 63.33 63.33 62.99 63.97 64.73 64.91 64.68 64.75 64.55 64.21 65.13 64.62 64.12 63.05 62.71 62.62 62.62
65.54 66.13 65.51 66.55 67.92 68.24 68.32 68.52 68.55 67.95 67.04 67.23 66.73 67.95 67.23 65.44 64.78 64.99 64.83 65.27 65.67 67.19 66.78 64.20 64.89 63.10 61.93 62.82 61.86 62.84 63.77 63.89 64.03 63.97 63.76 62.75 63.82 64.42 63.88 63.41 63.40 62.89 62.28
64.27 65.89 65.78 66.59 67.21 66.87 65.69 66.54 67.35 66.62 65.54 65.79 66.73 65.80 67.39 66.10 63.86 66.04 64.63 64.50 65.78 66.39 66.22 62.91 61.90 61.33 60.61 61.92 61.78 61.90 62.29 62.84 63.27 63.18 63.17 61.86 62.77 63.86 63.38 63.45 63.10 62.39 62.34
63.55 64.44 65.52 66.14 66.68 66.14 64.76 64.02 65.31 64.83 64.45 64.54 65.24 65.64 66.20 67.02 65.84 63.64 63.91 64.44 64.69 64.40 64.82 60.78 59.53 59.31 59.13 61.49 60.18 61.14 61.72 62.26 62.31 62.56 62.95 62.91 61.53 62.35 63.07 63.11 62.44 62.46 62.28
63.69 64.24 63.24 65.26 66.29 65.71 65.16 63.49 64.03 65.02 65.27 63.94 63.55 63.80 65.24 65.55 64.16 63.06 63.90 64.17 63.85 61.44 61.49 59.55 58.90 58.58 58.04 60.18 59.46 60.72 61.06 61.34 61.29 61.92 62.30 62.14 61.23 60.51 61.62 62.67 62.31 62.32 61.83
63.39 62.98 63.31 63.42 65.01 65.04 64.29 63.40 63.59 64.35 64.91 64.58 64.27 64.05 64.14 64.14 63.76 64.27 63.72 62.25 62.31 59.72 58.00 58.43 57.39 56.77 57.42 59.02 57.80 59.63 60.49 60.63 61.15 61.45 61.66 61.27 61.26 60.67 60.26 61.16 61.87 61.94 61.40
62.18 62.64 62.63 63.32 63.67 63.83 63.81 63.07 62.81 63.27 63.34 64.00 64.42 63.33 63.88 63.02 63.54 64.13 63.57 62.34 61.36 59.72 56.76 57.10 56.82 56.87 56.98 57.39 57.73 59.00 59.70 59.92 60.42 60.29 60.21 60.93 61.10 61.47 61.52 60.48 60.28 60.35 60.94
57.32 61.83 62.58 63.11 63.64 63.39 62.58 61.79 62.52 61.99 62.24 63.27 63.20 63.10 63.39 62.57 62.42 63.27 62.53 60.95 60.82 58.74 56.92 56.81 56.30 56.55 56.74 56.52 57.36 57.65 59.21 59.72 59.90 60.12 60.48 60.91 61.43 61.72 61.89 61.45 61.15 60.21 59.32
57.23 60.32 61.53 62.09 62.73 62.04 60.07 59.63 60.24 60.54 61.33 61.61 62.56 62.53 62.21 62.59 62.60 62.08 61.33 59.80 60.86 58.43 56.28 56.15 56.27 55.30 56.43 58.63 56.41 55.72 57.19 58.47 58.87 59.42 60.50 60.70 60.49 60.83 60.18 60.91 60.33 60.37 59.77
58.43 60.19 60.93 61.35 61.19 62.63 61.49 61.64 61.83 61.42 61.03 61.09 62.21 62.04 62.01 62.42 62.26 60.67 59.17 57.64 58.21 58.04 56.44 55.68 56.07 55.22 55.48 56.35 55.44 54.96 50.97 53.05 57.06 58.54 59.49 59.56 59.74 60.28 60.05 60.61 60.86 60.68 60.64
58.56 59.37 59.95 60.82 59.85 62.51 62.57 61.60 60.93 59.43 59.18 59.00 59.27 61.00 61.56 62.67 61.02 60.35 58.27 57.49 56.24 55.94 55.32 55.88 56.20 55.85 54.15 55.43 57.21 56.07 50.83 50.26 53.60 56.99 57.61 58.52 58.82 58.84 59.30 59.49 59.74 60.05 60.12
57.55 59.96 59.78 59.98 59.45 61.12 61.30 59.35 59.12 58.50 57.15 57.59 58.27 59.78 61.73 62.51 60.85 60.16 58.42 57.57 57.03 56.27 55.36 55.72 56.53 56.21 55.42 54.14 56.51 56.32 57.52 55.22 52.52 50.69 55.17 56.60 58.29 57.70 58.54 58.95 59.17 59.48 59.49
57.55 59.20 59.35 58.76 58.81 59.74 60.17 60.07 58.59 57.28 57.80 57.88 58.32 57.98 59.95 61.24 61.18 59.58 58.10 56.85 56.65 56.69 55.94 56.27 55.94 55.92 56.36 56.50 55.57 53.84 54.16 55.51 56.17 53.59 51.38 53.47 56.50 57.29 58.47 58.49 58.56 58.44 58.43
58.25 59.16 58.95 57.45 57.65 58.49 59.22 58.31 56.77 56.66 57.56 56.82 56.00 55.89 58.01 57.79 59.05 60.16 58.05 57.30 56.10 55.92 55.50 55.83 56.56 56.44 56.61 57.22 57.21 56.30 54.68 53.62 52.69 53.07 52.66 53.54 53.39 54.71 56.91 57.89 57.68 58.04 58.33

GFSSE_sfc_wetblb_108.txt.gz
Wetbulb
70.63 73.44 71.21 72.04 72.31 72.87 73.03 73.14 73.47 73.40 73.59 73.63 73.64 73.68 73.79 73.74 73.79 73.91 73.96 73.86 73.88 74.13 73.77 73.36 73.58 73.19 72.66 72.37 72.89 72.57 72.27 71.97 71.73 72.04 72.15 71.96 71.94 71.63 71.45 71.75 71.44 71.38 71.42
71.81 73.56 70.49 71.10 72.09 72.77 73.08 73.09 73.32 73.27 73.55 73.75 73.61 73.50 73.53 73.55 73.60 73.81 73.90 73.69 73.68 74.01 73.30 73.11 73.51 73.56 72.74 72.74 72.39 71.98 71.63 71.17 71.18 71.21 71.52 71.43 71.13 71.01 70.93 71.13 70.93 71.22 70.97
72.30 73.62 72.36 70.34 71.87 72.56 72.96 73.32 73.88 73.76 73.92 73.96 73.84 73.58 73.62 73.62 73.68 73.51 73.29 73.17 73.26 73.68 73.33 72.93 73.26 73.33 72.69 72.25 71.13 71.08 71.12 71.09 70.58 70.56 70.96 71.07 70.87 70.67 70.88 70.83 70.58 70.77 70.58
72.80 73.92 73.55 70.55 71.44 72.45 72.58 73.30 73.67 74.07 73.89 73.73 73.80 73.72 73.67 73.71 73.49 73.40 73.08 72.67 72.98 73.56 73.51 73.05 73.11 72.79 72.03 71.36 70.85 70.65 70.70 70.35 69.81 69.99 69.89 69.32 70.39 70.18 70.23 69.80 69.95 70.00 70.31
72.33 73.73 73.78 70.45 71.13 72.08 72.27 72.87 73.43 73.53 73.37 73.37 73.41 73.80 73.66 73.51 73.57 73.28 72.69 72.38 72.93 73.28 72.86 72.80 72.37 72.05 71.28 70.24 69.95 69.82 69.57 69.05 68.64 69.19 69.08 68.85 70.23 69.79 69.74 69.73 69.55 69.59 69.59
72.03 73.13 70.94 69.78 70.92 71.96 72.15 72.76 73.07 73.12 72.74 72.75 72.95 73.42 73.54 73.50 73.35 72.76 71.86 72.04 71.97 72.17 72.84 72.91 71.97 70.94 69.91 69.14 69.20 69.06 68.22 67.96 67.24 69.38 68.37 68.46 68.30 69.22 69.13 68.84 69.01 68.80 68.59
71.96 72.97 73.60 69.48 70.55 71.70 72.32 72.31 72.64 72.38 72.25 72.29 72.61 72.86 73.05 73.12 72.47 71.74 71.31 71.42 71.29 71.87 72.00 71.57 71.21 70.03 69.08 68.76 68.54 67.82 67.27 67.01 69.40 69.29 68.18 68.01 68.99 68.83 68.73 68.23 68.11 68.08 68.03
72.20 72.93 73.49 70.73 70.41 70.76 71.53 71.63 71.26 71.22 71.31 71.60 71.93 72.27 72.56 72.02 71.14 71.04 70.53 70.67 70.44 70.82 70.79 70.76 70.08 68.72 68.70 68.34 67.78 66.75 66.41 66.48 68.12 67.55 67.38 68.65 68.25 68.34 68.03 67.17 67.11 67.23 67.08
73.12 72.95 73.79 73.59 72.24 69.72 69.58 69.99 69.86 69.83 70.48 70.59 70.80 70.96 71.15 70.61 69.91 69.97 70.17 69.91 68.96 69.77 69.20 69.74 69.10 68.03 68.16 67.49 66.74 65.65 65.44 66.34 68.39 67.39 67.01 66.95 67.84 67.23 66.75 66.12 65.47 65.51 65.89
72.18 72.53 73.06 73.42 73.01 72.28 72.88 68.75 68.78 68.89 69.05 69.59 70.21 70.07 68.57 68.62 69.12 68.98 69.13 68.74 68.69 69.58 69.01 69.36 67.63 67.34 66.87 66.14 65.49 65.02 64.69 65.69 68.59 66.97 66.66 66.54 67.29 66.97 66.00 65.38 65.14 64.68 64.39
70.83 71.38 72.36 72.50 72.38 71.92 72.13 71.51 69.02 68.62 68.53 68.37 69.54 68.51 67.03 72.37 71.64 71.01 68.76 68.05 68.47 68.22 68.39 67.88 66.94 66.54 65.21 64.77 64.37 64.42 64.51 68.15 67.36 66.78 66.51 65.90 66.87 66.39 65.67 64.66 64.13 64.00 63.89
69.31 70.24 71.28 72.11 72.24 72.10 71.79 73.05 72.59 72.12 71.51 72.34 71.64 71.59 71.87 71.56 71.43 69.93 68.60 67.07 67.24 66.52 67.26 67.17 66.47 65.16 64.91 65.06 64.17 64.35 68.19 66.99 67.17 66.02 65.29 65.54 66.32 65.67 64.88 64.25 63.70 63.59 63.09
68.86 69.78 70.54 71.74 72.33 71.91 71.70 71.67 71.45 71.26 72.29 72.08 72.44 72.17 71.86 70.84 70.91 70.47 70.49 68.96 69.08 67.16 67.65 68.01 66.16 65.94 65.13 64.00 63.31 63.99 67.15 67.19 66.44 66.29 64.33 64.89 65.73 65.40 64.85 62.99 63.16 63.32 63.00
68.15 69.30 70.55 70.82 71.59 71.80 71.39 71.17 71.61 69.48 70.87 70.41 71.45 70.82 70.57 69.41 69.32 69.42 69.42 68.83 68.50 68.33 68.13 67.93 65.17 66.09 65.04 63.50 63.30 64.93 65.30 66.81 64.64 65.32 63.97 63.68 64.84 64.61 64.40 63.78 63.02 63.30 62.94
68.09 69.37 70.33 69.30 71.15 71.26 70.85 70.63 70.42 70.84 70.00 69.55 69.79 70.33 70.13 68.38 68.28 68.81 67.26 67.18 67.78 67.44 68.33 65.18 66.60 63.87 63.28 63.39 62.97 64.89 64.36 65.38 65.10 65.12 64.33 62.69 63.51 64.54 64.23 63.99 63.76 63.46 63.16
67.23 68.76 70.30 69.68 70.56 71.23 70.71 68.52 69.40 70.20 70.00 69.71 69.45 68.66 69.27 69.66 67.43 68.51 68.06 66.19 67.28 67.63 67.91 65.73 65.83 64.75 62.78 62.80 62.07 64.18 64.38 64.81 65.05 64.76 64.78 63.95 62.19 63.23 63.96 63.99 63.80 62.88 62.99
66.06 67.54 68.95 70.18 70.73 70.82 70.28 68.87 69.18 68.69 68.39 68.87 67.75 67.25 68.19 68.07 68.15 68.26 67.81 66.32 67.23 66.22 65.89 65.51 63.59 64.05 62.57 61.56 62.36 63.72 63.72 64.18 64.36 63.88 62.82 62.16 62.85 60.87 62.23 63.39 62.96 62.45 62.60
64.32 65.40 67.60 68.06 69.43 70.27 69.79 68.65 67.20 66.87 67.25 66.14 66.08 66.19 66.94 66.96 67.67 67.10 66.74 66.48 65.40 65.86 63.98 61.81 60.41 59.60 59.44 60.15 60.95 62.42 62.29 63.42 63.49 62.95 63.29 62.00 62.73 62.93 61.44 61.89 62.52 62.81 62.34
62.09 63.76 65.54 67.92 67.77 69.22 69.60 68.38 66.66 66.45 65.96 67.52 66.77 65.72 65.08 66.27 67.05 66.17 66.39 64.51 64.39 62.59 61.21 60.38 59.36 58.95 58.36 58.72 60.00 62.29 62.35 62.46 62.80 62.05 62.56 62.55 62.67 63.14 61.71 60.67 60.91 61.21 61.60
59.91 61.30 63.25 65.56 67.16 67.81 68.97 67.47 65.34 65.52 65.44 66.49 67.11 66.52 66.94 66.46 65.61 66.16 65.42 64.24 61.94 58.90 57.91 58.11 58.03 58.30 58.01 57.70 58.97 60.36 61.68 61.99 62.22 60.75 61.62 60.83 62.10 62.17 61.35 61.24 61.49 60.99 59.63
61.60 61.68 61.29 63.65 66.01 66.24 65.35 63.63 62.62 62.05 63.39 63.94 65.78 65.95 66.73 65.91 66.46 64.80 64.16 63.13 60.89 57.90 57.74 58.40 57.84 56.62 56.87 58.27 57.92 58.35 59.57 60.53 60.58 59.95 61.34 61.29 61.26 60.62 62.11 62.38 61.99 61.90 60.55
61.87 62.53 62.86 63.85 65.48 65.99 64.23 63.40 64.30 63.31 63.24 64.12 64.60 66.01 65.11 65.58 64.88 63.30 62.45 61.94 60.01 58.52 58.57 58.81 57.62 56.31 56.44 58.16 56.30 55.25 52.61 54.96 58.13 59.76 61.16 60.65 60.88 60.98 60.63 62.16 61.14 60.83 61.70
61.16 62.13 62.52 63.69 64.84 65.91 65.72 63.18 63.86 63.69 63.34 62.51 62.81 63.66 64.25 64.67 63.91 62.83 62.35 61.73 60.62 59.23 56.88 56.94 57.00 56.18 54.34 57.03 58.77 56.45 51.71 50.85 55.34 58.01 58.87 59.93 59.93 60.04 61.23 61.53 61.59 61.70 61.89
61.10 62.47 62.90 63.49 64.36 65.08 65.57 62.37 62.72 62.09 60.71 62.61 62.03 62.76 63.00 63.47 63.00 62.93 63.06 62.07 59.87 59.00 56.92 56.88 57.35 56.56 56.41 55.09 57.33 58.76 59.71 57.68 54.08 52.48 57.15 58.95 59.91 59.10 59.96 60.92 60.95 61.38 61.53
60.93 62.55 62.96 63.21 63.72 63.77 63.82 62.76 63.29 63.76 64.14 64.32 63.88 62.94 61.48 62.54 63.06 62.93 60.61 58.82 57.44 58.07 57.30 57.22 57.10 56.62 56.12 55.92 55.97 56.00 57.73 57.31 58.29 54.66 52.55 54.44 58.20 59.41 60.08 60.20 60.63 60.82 61.15
60.54 61.85 63.04 62.51 62.41 62.24 61.70 62.70 63.49 64.31 64.01 62.36 60.80 59.62 59.29 60.64 62.22 61.36 59.91 58.83 58.27 57.92 56.85 57.11 57.34 56.50 56.30 56.46 56.60 56.70 56.79 56.21 55.26 54.73 53.81 53.67 54.49 57.16 59.10 60.33 60.61 60.71 61.02

GFSSE_sfc_wetblb_111.txt.gz
Wetbulb
71.02 73.61 71.95 72.51 72.93 73.08 73.43 73.54 73.53 73.73 73.81 73.90 74.01 73.98 73.98 74.06 74.11 74.25 74.23 74.04 74.33 74.41 74.38 73.84 73.52 72.89 72.79 72.47 72.92 73.19 72.74 72.44 72.15 72.42 72.72 72.37 72.02 71.74 71.58 71.93 71.26 71.19 71.47
71.59 72.99 71.07 71.98 72.77 72.95 73.03 73.27 73.71 73.98 74.01 73.88 73.86 73.90 73.87 73.78 73.98 74.13 73.91 73.95 74.18 74.29 73.96 73.39 73.22 72.99 72.74 72.75 72.46 72.27 72.05 71.54 71.46 71.66 72.22 71.98 71.63 71.31 71.19 71.14 71.27 70.99 70.98
72.20 73.19 72.39 71.32 72.51 72.79 72.92 73.41 73.81 74.15 74.13 74.13 73.88 73.87 73.85 73.95 73.96 74.00 73.69 73.53 73.81 74.11 73.48 73.04 73.04 72.94 72.60 72.15 71.94 71.74 71.63 71.21 71.01 71.03 71.59 70.32 70.75 71.46 71.16 71.08 70.88 70.89 70.60
72.33 73.37 73.25 70.86 72.07 72.71 73.24 73.61 73.66 74.14 74.05 73.92 73.83 73.80 73.95 73.76 74.01 73.80 73.43 72.71 73.36 73.94 73.59 72.96 73.06 72.70 72.46 71.42 70.72 71.16 71.06 70.70 70.48 70.16 69.83 69.34 70.02 70.87 70.65 70.39 70.68 70.47 70.36
71.79 73.32 73.65 70.52 71.33 72.40 73.00 73.35 73.65 73.60 73.72 73.54 73.44 73.92 73.99 73.90 73.75 73.49 72.65 72.38 73.11 73.74 73.84 73.16 72.97 72.54 71.63 70.48 70.35 70.19 70.31 70.01 69.74 69.76 69.92 68.74 69.31 69.96 70.26 70.18 70.21 69.81 69.47
71.28 72.56 70.02 70.15 71.07 72.04 72.81 73.23 73.66 73.49 72.90 73.00 73.08 73.50 73.77 73.83 73.68 73.05 72.25 72.31 73.00 73.61 73.72 73.34 72.46 71.17 70.04 69.54 69.74 69.49 69.10 68.83 68.58 68.72 68.52 68.54 69.02 69.40 69.52 69.69 69.42 68.92 68.50
71.33 73.56 73.18 69.67 70.81 71.98 72.35 72.90 73.19 73.11 72.75 72.68 72.84 73.09 73.18 73.32 73.22 72.28 72.05 72.06 72.15 72.22 72.32 71.70 71.11 70.07 69.50 69.15 69.05 68.39 67.81 67.44 68.87 68.62 68.29 68.28 69.27 69.28 69.25 68.74 68.22 68.52 68.42
71.95 73.75 74.37 70.85 70.77 71.32 71.69 71.96 71.89 71.88 71.97 72.06 72.24 72.53 72.86 72.65 72.14 71.76 71.43 71.39 71.15 71.33 71.35 71.00 70.28 69.51 69.08 68.79 68.41 67.13 66.55 66.61 68.11 67.58 68.65 68.48 68.71 68.91 68.76 68.36 67.73 67.80 67.63
72.93 73.56 74.51 73.40 71.93 70.09 70.32 70.41 70.41 70.51 71.07 71.39 71.54 71.00 70.79 70.83 70.08 70.72 70.77 70.00 70.40 70.64 70.38 70.41 69.55 68.24 68.26 68.26 66.50 65.98 65.77 66.15 68.28 68.11 67.54 68.41 68.11 68.40 68.10 67.62 66.89 66.82 66.62
72.48 72.90 73.79 73.85 73.29 72.86 72.42 69.26 69.39 69.28 69.89 70.26 70.62 70.15 69.32 68.80 69.63 69.39 69.10 69.53 69.88 69.36 69.88 69.72 68.11 67.77 67.70 66.94 65.73 64.58 64.98 64.90 68.06 67.12 67.94 67.85 67.98 67.77 67.19 66.32 65.84 65.47 65.43
71.06 71.71 72.87 73.03 73.32 73.53 73.15 71.46 69.22 69.28 69.03 69.19 70.15 69.70 68.89 72.11 71.51 71.02 69.40 68.30 68.14 68.15 68.92 68.78 67.84 66.99 66.16 65.16 64.83 64.08 64.45 68.19 66.14 66.30 67.69 66.56 67.82 67.36 66.35 65.60 65.26 64.98 64.82
69.55 70.12 71.37 72.30 72.31 72.75 71.83 72.83 72.00 72.17 72.10 71.58 71.91 72.49 72.72 71.81 71.70 70.56 69.19 67.71 67.96 67.77 67.20 67.15 66.52 65.44 65.61 67.29 65.83 64.79 66.05 66.98 66.69 65.98 66.50 66.24 67.41 66.90 66.08 65.12 64.63 64.35 64.22
69.36 69.44 69.93 71.87 72.71 72.31 71.51 71.96 72.03 71.47 71.81 71.73 72.09 71.97 72.28 71.73 72.30 71.38 71.30 70.79 70.21 67.27 68.16 67.45 66.72 67.50 67.31 66.55 66.22 65.40 65.63 66.05 65.76 65.24 65.13 65.59 66.43 66.25 65.48 64.62 64.16 63.88 63.72
68.01 69.30 69.89 71.05 72.00 72.61 71.42 70.96 71.51 71.70 71.89 71.31 71.89 73.43 72.13 71.76 71.21 70.62 69.42 69.92 69.66 68.61 67.99 68.28 68.16 67.76 66.82 66.30 66.30 65.14 64.91 64.55 65.19 65.79 64.67 64.54 65.53 65.81 65.12 64.22 64.00 63.64 63.13
65.39 68.34 70.02 71.18 71.86 72.24 72.11 71.26 71.46 72.22 70.74 72.10 71.32 72.09 72.06 70.72 70.30 69.89 69.94 69.44 68.66 67.58 68.02 67.89 67.53 66.99 66.02 65.25 65.48 64.63 63.79 63.90 64.27 64.61 64.82 63.27 63.83 65.07 64.41 63.57 64.19 63.83 63.42
64.13 66.51 70.34 71.03 71.86 72.09 71.62 71.90 71.87 72.24 71.80 70.80 70.23 71.05 72.06 71.51 70.56 70.63 69.96 69.17 69.32 69.22 68.81 68.49 67.53 66.42 65.03 64.85 64.19 63.17 63.29 63.70 64.40 63.72 64.63 64.20 62.35 63.62 64.23 64.05 64.07 63.88 63.78
63.58 65.30 69.67 71.03 72.33 71.42 71.37 71.26 71.06 71.02 70.82 71.06 70.01 70.72 71.03 70.87 70.41 69.70 69.11 68.64 69.10 68.74 68.44 67.88 67.07 66.91 65.60 63.99 62.78 62.77 63.00 64.70 63.78 62.95 63.52 63.76 62.87 61.57 62.78 64.00 64.07 63.83 63.32
63.72 64.61 66.65 69.40 71.20 70.97 71.95 71.44 70.51 70.04 70.16 70.04 70.10 69.91 69.84 70.14 70.11 69.09 68.32 68.08 68.90 68.78 67.88 66.74 65.47 64.03 62.94 61.96 61.83 61.91 61.91 63.24 63.89 62.07 62.95 62.90 63.29 63.11 61.91 62.35 63.10 63.43 63.47
62.10 63.64 65.05 68.89 69.65 70.92 71.79 71.41 71.35 70.56 69.50 69.31 69.30 67.81 69.08 67.80 68.16 67.89 68.15 68.30 68.57 66.97 66.08 65.24 62.51 62.38 60.81 60.57 60.68 60.92 61.32 62.44 62.32 62.04 62.45 62.31 62.95 63.24 62.33 61.44 61.37 61.85 62.34
61.09 62.43 63.75 65.62 68.68 69.77 70.59 71.32 70.29 68.86 68.56 68.73 68.25 68.07 68.48 68.25 67.65 67.60 67.38 67.77 67.24 64.67 62.90 62.11 60.37 59.81 59.73 59.78 60.12 59.88 60.22 61.99 62.38 61.84 61.59 61.26 62.29 61.57 62.02 62.16 62.20 61.44 60.40
61.55 61.59 61.87 62.45 65.90 68.52 67.62 67.98 68.73 65.21 65.35 66.01 68.44 68.56 68.07 67.36 66.68 65.84 65.65 65.69 64.92 62.73 61.13 60.71 59.33 58.99 58.35 59.50 58.49 58.62 58.92 61.08 61.98 61.30 62.16 61.31 61.05 61.09 61.04 62.03 62.03 61.58 60.79
61.72 62.53 63.27 63.44 63.75 65.35 67.05 67.68 67.88 64.51 64.68 65.44 66.84 68.23 67.91 67.04 66.13 65.69 65.85 63.72 61.42 60.68 59.90 59.18 57.96 56.97 57.41 58.79 56.95 55.95 53.56 56.60 59.63 59.77 60.91 61.08 60.30 60.44 61.25 61.48 61.93 61.84 61.54
61.57 62.43 62.93 63.63 64.19 65.43 66.82 67.61 65.52 65.11 64.21 63.72 64.16 65.87 66.68 66.70 66.00 66.12 65.78 63.81 60.96 60.04 58.45 58.28 57.80 57.11 55.53 57.63 58.30 55.81 52.36 51.89 55.16 58.62 59.56 60.54 61.62 60.66 60.87 60.07 61.15 61.58 62.03
61.44 62.54 64.05 64.08 64.25 65.12 66.96 66.40 63.81 62.50 61.40 62.81 64.00 65.04 65.51 66.48 65.67 64.96 64.59 62.98 60.96 59.59 58.50 58.51 59.49 57.64 56.70 55.27 57.25 58.49 57.49 56.59 53.24 52.62 57.97 60.13 61.20 59.63 61.12 60.70 61.02 60.76 61.66
60.33 62.01 63.65 64.44 64.42 65.08 65.77 66.43 64.36 62.37 64.33 65.43 65.19 64.83 63.88 65.28 64.29 65.05 64.15 62.04 61.10 59.62 58.97 58.03 57.69 56.96 56.41 55.33 55.51 56.03 56.19 56.19 58.09 54.83 52.30 55.71 58.75 59.11 59.94 60.67 61.49 61.96 62.25
60.22 61.49 62.67 63.41 64.00 64.65 65.46 65.49 64.36 62.88 65.06 64.82 65.11 64.35 62.64 63.83 64.46 63.77 63.27 62.37 62.16 60.79 58.90 57.87 58.03 57.20 56.65 56.10 56.69 56.65 55.94 54.93 55.43 55.45 54.13 54.83 55.18 57.97 58.57 60.34 61.07 61.45 61.79

GFSSE_sfc_wetblb_114.txt.gz
Wetbulb
71.01 71.10 72.43 73.19 73.43 73.65 73.59 73.77 73.90 73.49 73.78 73.86 73.91 74.08 74.03 74.29 74.26 74.15 74.24 74.47 74.84 74.93 74.63 73.83 74.00 73.24 72.81 72.94 73.15 72.71 72.87 72.57 72.35 72.75 72.94 72.96 72.03 71.93 72.02 71.89 71.28 70.35 71.72
71.57 71.63 71.82 72.57 73.16 73.41 73.22 73.24 73.54 73.79 73.96 73.99 73.83 73.95 73.78 73.85 74.09 74.01 73.99 74.15 74.22 74.78 74.28 73.73 73.61 72.91 72.62 72.69 72.54 72.30 72.05 71.68 71.44 71.86 72.26 72.59 72.19 71.90 71.64 71.49 71.01 70.37 70.99
70.91 71.16 71.47 71.79 72.67 73.19 73.18 73.69 74.03 74.25 74.10 74.10 73.98 73.77 73.73 73.81 73.93 73.86 73.70 73.73 73.85 74.56 73.86 73.51 73.14 72.84 72.74 72.22 71.46 71.89 71.57 71.20 71.04 71.23 71.11 69.18 69.68 71.67 71.54 71.17 70.99 71.01 70.76
71.55 71.51 71.36 71.47 72.36 72.98 73.15 73.71 74.06 74.31 74.13 73.97 73.96 73.85 73.68 73.80 73.78 73.73 73.33 73.01 73.64 74.15 73.66 73.21 73.16 72.94 72.50 71.66 71.16 71.13 70.94 70.79 70.58 70.37 68.86 68.83 69.04 70.92 71.00 70.74 70.59 70.42 70.13
71.13 72.07 71.48 70.92 71.77 72.76 73.10 73.49 73.63 73.76 73.42 73.70 73.54 73.84 73.86 73.95 73.77 73.53 72.88 72.36 73.26 73.97 73.91 73.38 73.06 72.14 71.46 70.69 70.46 70.42 70.38 70.12 69.90 69.83 67.75 68.07 68.03 70.22 70.84 70.53 70.06 69.64 69.75
70.80 72.76 69.27 70.23 71.33 72.42 72.99 73.54 73.58 73.35 72.89 72.93 73.08 73.48 73.87 73.95 73.69 73.19 72.20 72.21 73.25 73.84 73.43 73.76 72.22 71.13 70.46 69.77 69.68 69.57 69.32 69.38 69.00 67.14 67.16 68.66 67.21 70.01 69.78 69.66 69.34 69.17 68.76
71.95 71.85 70.54 69.81 70.99 72.10 73.09 73.54 73.43 73.10 72.63 72.74 73.06 73.16 73.12 73.44 73.15 72.47 71.89 72.06 72.18 72.17 72.63 71.97 71.32 70.34 69.55 69.20 69.32 68.80 68.34 68.08 67.47 64.93 66.57 67.12 67.23 69.54 69.52 68.97 68.84 68.54 68.62
73.40 73.05 71.03 70.60 70.86 71.36 72.21 72.54 72.39 72.21 72.16 72.22 72.37 72.54 72.93 72.82 71.72 71.96 71.57 71.75 71.42 71.38 71.51 70.78 70.10 69.61 69.11 68.89 68.52 67.65 67.05 66.94 66.41 66.96 66.46 66.93 68.47 69.22 69.18 68.58 68.31 68.07 67.70
73.60 73.54 71.56 71.30 70.95 70.44 70.26 70.69 70.84 71.11 71.38 71.48 71.55 71.47 71.61 70.40 70.36 70.57 71.17 70.62 70.28 70.52 69.54 69.67 69.02 68.71 68.60 68.48 67.61 66.17 65.81 64.99 65.05 66.41 66.95 66.40 68.99 68.87 68.55 68.31 67.51 66.99 66.84
72.33 73.48 72.25 71.77 71.39 71.03 70.69 69.53 69.69 69.83 70.12 70.57 70.94 70.51 70.41 69.58 69.90 69.72 69.74 69.86 69.68 69.94 69.34 69.58 68.31 67.80 67.64 67.04 66.28 65.68 64.99 64.59 64.39 66.32 66.15 66.09 68.40 68.58 68.38 67.45 67.04 66.38 66.13
70.69 71.52 72.64 72.09 71.52 71.36 71.06 70.54 69.29 69.58 69.65 69.69 70.43 69.83 68.48 71.30 70.60 70.22 69.17 68.75 69.26 68.92 68.25 68.94 67.62 67.09 66.35 66.28 65.86 64.65 64.33 64.63 65.12 64.04 66.31 66.59 68.20 68.37 67.69 66.85 66.04 65.86 65.51
68.92 69.61 71.44 71.61 71.47 71.79 71.36 70.88 70.41 70.54 70.32 70.64 71.20 70.83 70.34 71.18 70.49 69.81 68.81 68.11 68.04 67.26 67.82 67.44 67.24 66.30 65.59 65.40 64.52 65.05 64.94 65.85 64.95 65.70 65.04 66.15 67.41 67.62 67.11 65.96 65.63 65.28 65.47
69.10 68.93 69.55 71.31 71.96 71.38 70.07 71.11 70.69 70.63 70.37 69.99 70.33 70.62 70.88 70.64 69.94 69.07 68.75 67.92 67.75 66.95 66.61 66.37 65.69 65.64 65.99 65.52 64.65 64.64 65.08 64.79 64.93 65.45 64.97 65.73 66.78 67.26 66.77 65.89 65.30 64.90 64.46
67.94 68.47 68.70 70.72 71.49 71.28 70.72 70.67 70.66 69.81 70.25 69.83 69.96 70.25 70.30 70.06 69.56 68.92 68.13 67.98 67.59 66.89 65.67 65.52 65.50 64.68 65.53 65.37 65.08 64.73 63.84 64.83 64.25 65.09 64.52 64.79 66.01 66.98 66.28 65.73 65.03 64.80 64.01
65.89 67.90 68.01 69.51 70.55 71.39 71.23 69.81 70.20 70.38 70.19 70.07 70.15 70.44 70.34 69.75 68.86 68.78 68.07 67.79 67.12 66.91 65.94 65.32 65.14 65.24 65.18 64.60 64.61 64.43 63.57 63.48 63.97 62.90 63.72 63.56 64.10 65.81 65.76 65.28 64.88 64.39 63.58
63.44 66.71 68.49 68.72 70.42 71.24 70.85 70.78 69.53 71.23 70.15 70.30 70.13 70.20 71.10 70.26 69.11 68.31 67.76 67.14 67.02 67.16 66.45 65.68 65.28 64.84 64.90 64.21 63.97 64.02 63.25 63.22 63.36 63.59 63.85 63.14 63.01 64.03 64.47 64.63 64.40 64.14 64.18
62.28 63.97 68.33 68.95 70.67 70.84 70.86 70.44 70.70 69.95 70.71 69.35 69.84 69.94 70.17 70.18 69.47 68.27 67.77 67.19 66.87 66.37 65.66 65.32 64.92 64.36 64.05 64.01 63.05 62.83 62.91 62.54 62.93 63.11 63.07 62.62 62.16 61.85 62.81 63.72 64.17 63.98 63.78
61.31 62.25 68.37 69.44 70.61 70.35 70.57 70.38 69.74 69.74 69.94 70.14 69.27 68.94 69.26 69.73 69.46 68.01 67.34 66.89 66.99 65.75 65.28 64.46 63.92 62.92 62.99 62.32 62.26 61.76 61.74 61.84 62.65 62.96 62.35 61.94 61.69 61.60 61.57 62.42 63.38 63.89 63.97
59.63 62.85 63.85 68.92 70.50 70.17 70.14 70.77 70.01 69.46 69.17 68.63 69.14 69.05 68.79 68.99 68.93 67.77 67.17 66.75 66.90 65.32 64.33 63.92 63.72 62.73 62.13 61.91 61.38 61.37 61.24 61.29 61.54 62.41 61.07 61.41 61.55 61.10 60.70 61.78 61.92 61.94 62.66
59.49 62.45 64.29 67.86 69.34 70.36 69.92 69.61 70.22 69.21 68.49 68.44 67.98 68.06 67.90 67.06 68.21 66.88 66.03 66.29 66.23 65.35 63.99 63.67 62.79 63.20 61.92 60.91 61.01 60.51 60.65 61.02 61.20 59.99 60.27 61.16 60.77 60.79 60.43 60.47 60.64 60.55 60.90
61.14 60.71 61.98 63.72 67.73 68.71 68.35 68.35 68.17 67.50 66.82 66.89 67.11 67.33 66.56 66.41 67.00 66.14 65.55 64.86 65.13 63.82 62.47 62.49 61.08 59.96 59.36 60.48 59.26 58.60 58.88 59.82 59.71 59.39 60.36 59.65 59.68 59.87 59.78 59.84 59.69 59.65 59.91
60.09 62.26 63.02 63.03 62.99 65.34 67.56 67.28 68.17 68.02 67.21 66.46 66.16 66.84 67.21 66.86 66.50 65.24 64.97 63.63 63.94 62.36 61.33 60.79 59.44 57.93 58.37 60.05 57.49 56.61 54.00 55.74 57.77 58.65 59.18 59.53 58.46 59.52 59.95 60.10 59.52 59.36 58.99
61.15 62.24 61.97 62.25 62.82 63.40 62.95 66.15 66.58 66.01 64.81 63.63 63.86 64.40 66.58 66.29 65.80 65.26 64.22 63.63 62.76 61.72 60.25 59.91 59.29 57.64 56.29 57.93 58.80 56.03 52.18 51.13 54.58 56.88 57.32 58.40 58.01 58.01 58.66 59.55 59.44 59.11 58.99
60.93 62.64 62.49 63.36 63.11 63.44 64.69 63.83 64.96 63.01 61.89 62.98 63.29 63.69 65.35 65.48 65.02 64.92 64.53 62.87 61.61 60.97 59.62 59.31 59.20 58.45 57.59 56.05 57.29 57.63 56.43 56.01 52.33 50.93 55.63 56.59 57.78 57.36 57.60 57.89 58.45 58.63 59.16
60.63 61.73 62.23 63.05 63.16 63.36 64.01 64.17 64.73 63.45 63.48 63.15 62.69 62.51 63.29 64.15 64.44 64.08 64.25 62.78 60.97 60.08 59.51 58.76 58.25 57.78 57.70 57.05 56.38 55.35 55.15 55.37 55.31 53.12 50.32 53.45 56.53 57.34 57.71 57.73 57.58 57.39 58.37
60.25 60.64 61.29 61.26 60.90 63.30 63.58 64.01 64.68 63.07 62.63 61.98 62.42 61.83 62.33 63.36 63.67 64.10 63.45 62.43 61.12 59.78 58.82 58.69 58.59 58.03 57.14 57.47 57.00 56.32 55.24 54.31 53.87 53.82 51.64 52.80 53.55 55.54 56.70 57.61 58.37 57.34 57.82

GFSSE_sfc_wetblb_117.txt.gz
Wetbulb
68.90 71.24 72.14 72.92 73.32 73.40 73.68 73.29 72.87 73.21 73.58 74.00 74.12 74.02 73.93 74.01 73.85 74.10 74.33 74.50 74.57 75.04 74.45 73.98 73.83 73.26 73.28 72.93 72.94 72.84 72.79 72.38 72.03 72.75 73.11 73.03 72.40 72.26 72.18 72.03 71.47 70.49 71.69
69.82 71.51 71.58 72.52 73.01 73.23 73.26 73.46 73.01 73.37 73.94 74.02 74.11 73.91 73.74 73.72 73.72 73.91 74.18 74.41 74.65 74.97 74.18 73.65 73.48 72.98 72.81 72.47 72.62 72.53 72.31 71.77 71.52 71.78 72.33 72.91 72.71 72.06 71.99 71.53 71.16 70.72 71.46
69.76 71.17 71.71 71.76 72.75 72.91 73.23 73.40 73.72 73.96 74.15 74.02 73.90 73.74 73.84 73.81 73.74 73.61 73.69 73.82 74.45 74.97 74.28 73.63 73.21 72.98 72.50 72.11 71.73 71.73 71.66 71.03 70.94 70.92 71.21 69.18 69.84 71.89 71.42 71.47 71.32 71.20 71.18
69.43 70.40 70.85 71.33 72.00 72.64 72.88 73.20 73.69 74.12 74.13 73.91 73.86 73.84 73.75 73.86 73.78 73.71 73.29 72.83 73.62 74.15 74.25 73.50 73.11 72.72 72.00 71.38 71.12 71.11 70.97 70.72 70.44 70.32 68.40 67.83 69.29 71.36 71.36 70.85 71.16 70.71 70.25
69.21 70.02 70.78 70.71 71.54 72.44 72.95 73.29 73.52 73.66 73.26 73.46 73.55 73.93 73.94 73.92 73.83 73.51 72.67 72.41 73.54 74.00 73.90 73.55 73.16 72.49 71.27 70.38 70.17 70.29 70.23 70.09 69.51 68.26 66.42 67.10 67.67 70.38 71.07 70.34 70.20 69.95 69.80
69.32 69.94 69.54 69.89 70.92 72.27 73.04 73.27 73.38 73.04 72.26 72.85 72.97 73.71 73.94 74.02 73.80 73.18 71.94 72.35 73.48 73.88 74.07 73.70 72.92 71.47 70.11 69.60 69.75 69.62 69.31 68.43 66.51 65.61 65.47 68.75 66.76 70.22 70.06 69.40 68.91 69.20 69.28
68.80 68.63 69.34 69.43 70.86 72.23 73.07 73.24 72.92 71.96 71.78 72.29 72.64 73.02 73.40 73.58 73.20 72.34 71.55 71.87 71.95 72.10 73.09 72.40 71.55 70.33 69.60 69.14 69.17 68.75 68.16 67.09 65.42 64.38 65.18 65.93 67.93 69.71 69.34 69.31 69.01 69.00 68.28
68.15 68.51 69.23 70.20 70.68 71.40 72.40 72.45 71.91 71.82 71.82 71.79 72.01 72.21 72.85 72.47 71.92 71.80 71.34 71.36 71.50 71.40 70.87 70.74 70.20 69.81 69.23 68.94 68.80 66.76 67.05 66.16 65.37 65.34 66.49 65.41 68.55 69.29 69.55 68.95 68.70 68.30 67.85
69.53 68.28 68.60 69.16 70.04 70.26 70.38 70.68 70.57 70.83 70.92 71.14 71.46 71.32 71.27 70.90 70.56 71.01 70.91 71.05 70.18 69.66 69.84 69.62 69.12 68.81 68.65 68.36 68.09 66.63 65.76 65.91 64.07 64.71 63.27 66.43 68.86 69.31 69.01 68.72 67.98 67.55 67.33
69.70 68.56 68.08 68.17 68.33 67.84 68.69 69.60 69.75 69.91 70.14 69.84 70.55 70.59 70.33 69.79 69.55 69.80 70.03 70.15 70.12 68.90 69.38 69.26 68.64 68.17 68.17 67.45 66.94 65.96 64.86 65.25 64.08 65.51 66.20 65.68 68.42 69.12 68.84 68.23 67.55 66.56 66.36
70.06 68.93 68.58 68.40 68.20 67.57 67.66 69.20 69.41 69.82 69.78 69.36 69.93 69.56 68.94 69.19 68.94 69.31 68.79 68.73 69.46 68.57 68.73 68.33 67.86 67.21 66.63 66.27 65.93 65.13 64.69 64.07 63.65 65.36 65.18 66.17 68.12 68.72 68.30 67.66 66.55 66.11 65.90
66.64 68.58 69.10 68.24 68.26 68.26 69.69 67.84 67.45 68.92 69.08 69.35 69.12 68.45 68.92 68.78 68.38 69.32 68.42 67.94 68.50 67.94 68.07 67.70 67.16 66.34 65.59 63.89 63.62 64.88 63.39 64.70 64.27 64.21 63.89 65.92 68.08 68.44 68.08 67.23 66.26 65.87 65.39
66.62 68.44 68.97 68.73 68.67 68.54 68.63 67.81 68.11 67.79 67.97 68.31 68.22 68.33 67.50 69.03 68.04 67.92 66.89 66.69 66.13 66.76 66.14 66.35 65.33 64.71 63.93 62.97 62.45 62.42 62.79 63.85 64.36 63.58 63.63 65.44 67.10 67.93 67.73 66.80 66.22 65.80 65.20
66.21 66.65 68.49 68.66 68.76 68.65 67.55 67.95 67.95 68.11 67.64 67.48 67.59 67.79 68.04 67.00 66.49 65.97 66.09 65.88 65.42 64.30 64.42 64.20 63.49 63.69 63.85 63.72 63.02 62.48 63.03 63.58 63.25 63.42 63.72 64.46 65.82 67.55 67.30 66.85 66.21 65.72 64.98
65.77 66.22 67.46 68.53 68.80 68.66 66.97 68.69 67.98 68.00 68.13 67.83 67.56 67.87 67.97 67.21 66.31 65.97 65.61 65.84 65.85 64.96 64.07 63.93 63.56 63.01 63.29 63.20 63.26 62.92 62.36 62.37 62.79 62.70 63.30 63.69 64.14 66.18 67.33 66.91 66.44 65.71 64.79
66.41 65.89 66.46 67.95 68.89 68.75 68.09 66.80 67.16 67.70 68.04 67.69 67.50 68.12 67.27 67.41 66.55 66.17 65.32 65.41 65.08 65.24 64.00 64.16 63.62 62.98 62.94 62.46 62.63 63.12 61.84 61.74 62.53 61.76 62.39 62.72 62.51 64.30 65.82 66.41 65.82 65.38 64.55
58.67 66.20 65.06 67.18 68.56 68.42 67.70 67.48 66.68 68.08 68.18 67.41 67.67 67.83 68.41 67.77 66.83 66.20 65.57 64.78 65.17 64.89 63.62 63.63 62.79 62.58 62.13 63.57 62.08 63.71 61.63 61.36 62.21 63.12 63.44 63.03 62.42 62.12 63.29 64.69 65.21 64.98 64.34
55.17 61.84 65.27 67.91 68.25 68.75 67.99 67.37 67.24 68.02 68.09 67.33 67.39 67.16 68.17 68.12 67.39 66.02 65.71 64.42 64.47 63.67 63.29 63.45 62.91 61.61 61.72 61.83 60.49 60.37 60.73 61.22 62.55 62.86 63.16 62.62 62.29 62.33 61.60 62.93 63.77 64.17 64.22
55.74 56.90 65.19 66.83 67.63 67.85 67.46 67.97 66.54 66.03 67.48 67.69 66.85 66.99 66.05 67.12 66.96 66.05 65.64 64.73 64.18 63.00 62.12 62.57 60.83 61.43 61.54 61.39 60.69 61.61 61.03 60.68 61.52 63.13 62.39 61.80 61.30 60.74 60.48 61.51 61.65 62.11 63.08
54.15 56.15 63.82 66.76 67.87 67.95 68.11 66.99 66.63 65.73 65.62 65.87 67.33 67.17 66.36 66.50 66.81 65.55 65.28 64.80 64.62 62.70 61.18 61.77 61.58 59.56 61.41 61.32 61.49 60.84 60.60 60.38 61.30 61.27 61.75 61.60 61.17 60.50 60.22 60.73 61.36 60.73 61.00
53.68 55.98 61.05 66.43 67.34 67.25 66.22 65.15 64.22 65.39 64.98 63.78 64.87 66.16 66.62 66.44 67.01 66.27 65.29 64.44 64.78 63.09 62.40 62.03 62.13 61.26 59.73 60.34 59.74 59.33 59.79 60.58 60.47 60.39 61.01 60.56 60.50 60.05 60.17 60.35 60.11 60.85 60.84
54.77 56.26 56.56 62.35 66.94 67.37 67.11 66.46 65.44 64.66 64.65 65.42 63.83 64.45 65.46 64.74 65.65 66.35 65.47 63.79 63.09 62.31 62.43 61.74 60.53 58.92 59.06 60.66 57.78 56.49 53.95 56.35 58.72 60.05 59.65 59.72 59.61 59.81 59.51 59.54 59.24 58.99 59.35
54.56 55.47 56.54 57.29 58.69 62.98 65.90 64.51 63.11 62.79 61.93 61.38 61.77 62.61 63.85 64.43 64.78 65.23 64.52 63.50 62.88 61.29 60.72 60.86 60.13 59.33 57.53 59.22 59.30 56.39 52.49 51.57 55.13 57.66 58.01 58.61 58.25 58.60 59.10 58.94 58.93 58.70 58.58
54.14 56.17 57.00 58.53 58.54 59.26 58.74 61.64 62.21 61.64 59.53 60.35 60.94 61.72 63.55 65.00 65.24 65.31 64.38 63.09 61.23 60.63 60.38 60.41 60.11 59.18 57.92 56.11 58.64 57.70 55.45 55.12 52.61 51.62 56.03 57.60 57.81 57.72 58.37 58.91 58.98 58.57 58.50
54.36 54.99 56.62 57.96 58.31 58.89 58.54 59.15 62.20 60.84 62.02 60.37 60.57 60.83 61.25 63.87 64.89 64.63 63.97 62.60 61.15 60.34 58.71 59.73 59.62 58.77 58.28 57.03 57.45 56.85 55.13 55.47 55.31 53.53 51.45 54.04 56.66 57.28 57.74 58.09 58.22 58.36 57.85
53.74 53.58 53.73 53.86 54.64 56.01 57.78 58.02 61.60 60.86 60.39 59.63 59.97 60.55 61.43 62.41 63.71 63.17 63.72 62.32 61.64 60.97 59.73 59.31 59.33 58.61 58.18 57.82 57.86 56.97 55.46 54.69 54.19 53.70 52.57 53.47 53.75 55.31 56.71 57.26 57.31 57.62 57.32

GFSSE_sfc_wetblb_120.txt.gz
Wetbulb
68.94 70.75 72.18 73.39 73.50 73.10 72.74 72.80 72.83 72.93 73.49 73.74 73.75 73.87 73.80 74.02 74.05 74.21 74.37 74.48 74.43 74.65 73.86 73.68 73.78 73.93 73.33 72.85 73.31 72.88 72.34 71.91 71.91 72.33 73.14 73.06 72.96 72.71 72.35 72.16 71.68 70.65 71.74
70.03 71.05 71.51 72.56 73.29 73.35 73.05 72.77 72.86 73.23 73.74 73.88 73.65 73.61 73.49 73.71 73.94 74.24 74.42 74.38 74.55 74.40 73.76 73.43 73.09 73.31 73.11 72.78 72.57 72.27 71.63 71.59 71.49 71.74 72.48 72.52 72.59 72.24 71.93 71.40 71.39 70.79 71.46
69.89 70.82 71.52 71.76 72.73 73.27 73.64 73.29 73.35 73.76 73.91 73.79 73.62 73.45 73.46 73.60 73.67 73.94 74.17 74.22 74.38 74.20 73.61 73.28 73.11 72.59 72.53 72.21 71.59 71.49 71.59 71.23 70.97 71.06 71.02 68.31 70.30 71.62 71.51 71.23 71.35 71.21 70.74
70.03 70.59 70.90 71.38 72.11 72.57 72.98 73.17 73.39 73.98 73.86 73.76 73.67 73.65 73.67 73.60 73.36 73.59 73.65 73.58 74.06 74.34 73.68 73.36 73.01 72.39 72.01 71.62 71.01 71.12 71.01 70.56 70.06 69.67 67.71 68.51 69.79 70.89 71.29 70.81 70.54 70.62 70.69
69.63 70.42 70.62 70.81 71.27 72.16 72.45 72.93 73.20 73.42 73.08 73.21 73.30 73.65 73.82 73.67 73.54 73.12 72.61 72.68 73.12 73.78 73.98 73.29 72.78 71.84 71.00 70.22 70.05 70.23 70.22 69.67 68.71 67.45 65.20 67.52 68.04 70.34 70.83 70.42 70.19 70.13 69.89
68.84 69.77 69.52 69.88 70.88 72.08 72.68 73.02 73.28 72.90 72.49 72.55 72.70 73.39 73.67 73.85 73.46 72.71 72.03 72.54 73.25 73.55 73.88 73.43 72.34 71.29 69.80 69.49 69.46 69.55 69.20 67.90 66.67 65.69 65.94 68.05 67.32 70.21 70.32 69.79 69.73 69.55 69.19
67.78 68.78 69.38 69.16 70.80 71.98 73.07 73.16 72.72 72.17 72.07 72.09 72.64 72.81 73.21 73.42 73.12 72.12 71.58 72.31 72.62 72.92 72.87 72.36 71.49 70.20 69.36 69.07 68.97 68.34 67.21 66.87 65.27 65.13 64.96 65.43 67.85 70.30 70.17 69.30 68.92 68.90 68.92
66.94 68.24 68.89 70.08 70.83 71.41 72.11 72.11 71.26 70.48 71.21 71.48 71.95 72.33 72.71 72.41 71.91 71.60 71.20 71.61 71.46 71.90 71.62 71.18 70.13 69.69 69.11 68.94 68.59 67.30 66.09 66.29 65.73 65.25 65.56 65.43 68.30 69.61 69.41 69.23 68.73 68.38 68.26
67.11 67.68 68.00 69.01 70.47 70.43 70.10 70.14 69.70 69.97 70.47 70.72 70.86 71.12 71.25 70.72 70.61 70.77 70.91 71.14 70.96 70.75 70.45 70.21 69.34 68.81 68.76 68.49 67.92 64.89 65.19 65.40 63.97 62.05 65.94 66.50 69.06 69.18 69.38 68.78 67.86 67.61 67.30
66.58 66.96 67.21 67.18 68.47 69.53 70.21 69.24 69.19 69.53 69.49 69.94 70.20 70.32 69.71 69.41 69.61 70.05 69.84 70.21 70.19 69.99 69.82 69.43 68.64 68.24 68.15 67.46 66.81 64.87 64.64 65.07 62.96 62.19 64.71 65.91 68.79 68.81 69.05 68.35 67.71 67.09 66.33
66.29 66.22 66.80 67.09 66.44 66.28 68.15 69.94 69.37 69.62 69.40 69.17 69.78 69.78 68.85 68.94 68.94 69.41 69.09 68.93 69.40 68.74 68.83 68.63 67.97 67.37 66.76 66.49 65.91 64.53 64.41 62.97 63.61 64.52 64.07 66.79 68.67 68.94 68.98 68.15 67.07 66.48 65.98
65.56 65.72 66.53 66.71 66.44 66.17 68.94 69.15 69.24 69.93 69.95 69.03 68.97 68.98 68.92 67.68 67.28 68.69 68.40 67.86 68.62 68.09 67.78 67.38 67.12 66.58 66.04 64.18 63.77 64.43 63.15 63.34 63.59 62.86 63.59 66.26 68.34 68.85 68.81 67.79 66.74 66.18 65.56
67.23 66.81 66.87 66.76 66.60 66.76 67.23 67.09 67.81 68.36 67.97 68.14 68.40 67.07 67.34 68.15 67.36 67.07 66.21 66.81 66.56 67.28 66.40 65.98 65.33 64.45 63.96 62.87 61.70 61.79 62.37 62.84 62.98 63.34 64.19 65.85 67.60 68.78 68.56 67.72 66.80 65.90 65.26
67.17 67.57 67.41 67.17 66.92 66.89 66.91 66.51 66.77 66.87 67.18 67.41 68.63 67.45 67.23 67.34 66.41 65.76 65.24 65.00 64.75 64.09 64.43 63.93 63.20 62.95 62.75 62.42 61.56 61.42 61.99 62.27 61.89 61.61 63.40 64.85 66.40 67.82 68.36 67.72 66.95 66.12 65.17
66.05 67.61 67.61 67.61 67.37 67.37 67.12 66.52 66.74 66.46 66.53 66.66 66.98 67.41 67.57 66.93 66.75 65.58 65.04 64.86 64.09 63.13 63.69 62.80 62.31 62.13 62.11 61.98 61.74 61.56 61.86 61.67 62.03 61.44 61.28 63.40 64.56 66.88 67.96 67.34 67.19 66.66 65.51
65.85 66.15 68.02 67.85 67.79 67.80 67.42 67.19 66.76 66.81 66.65 66.65 66.60 67.39 67.46 67.21 66.78 65.31 64.91 64.97 64.45 63.48 63.17 63.26 62.54 61.75 61.85 62.01 61.65 61.83 61.43 61.30 61.15 61.08 62.01 63.45 62.86 64.63 66.06 67.01 66.69 66.58 65.97
65.48 66.30 66.94 67.64 68.09 67.88 67.05 67.60 67.05 67.20 67.50 66.88 66.88 66.83 67.12 66.94 66.47 65.82 64.84 64.57 64.44 64.66 62.91 62.51 61.36 61.04 61.55 61.51 60.76 61.71 61.73 60.90 61.04 60.63 60.81 62.55 62.89 62.18 63.20 65.12 65.79 66.20 65.48
65.50 65.09 65.60 68.15 67.77 67.78 67.22 66.75 66.63 67.14 67.29 67.34 66.90 67.30 67.01 66.74 66.54 65.48 64.96 64.46 64.28 64.03 63.06 62.61 61.91 61.23 61.36 61.31 59.49 60.53 62.29 62.03 61.02 61.27 62.19 62.45 62.63 63.39 62.43 63.19 63.88 65.02 64.83
56.39 64.59 64.58 66.17 66.92 67.31 67.18 66.80 66.38 66.98 66.97 67.17 67.29 67.21 67.30 67.08 66.63 66.00 65.37 63.98 63.77 63.10 62.72 62.54 61.77 61.77 61.09 60.85 61.16 61.12 61.39 61.29 60.96 62.19 61.95 62.26 61.97 62.33 62.43 62.03 62.55 62.61 63.35
51.11 57.80 64.09 65.31 66.56 67.40 67.30 66.75 65.47 66.56 66.72 66.72 66.96 67.11 66.38 67.34 66.56 65.98 65.04 64.13 63.91 62.34 60.77 61.43 61.08 58.50 61.61 61.93 61.26 61.10 60.97 61.38 61.18 60.51 61.57 62.20 61.66 60.89 60.59 60.71 61.58 60.99 61.11
49.93 51.83 62.77 64.00 65.66 66.89 66.45 65.48 64.34 64.27 64.81 65.36 66.25 66.81 66.34 66.38 66.61 65.46 64.91 64.98 64.95 63.02 61.41 61.09 61.20 60.98 60.57 61.79 59.49 59.53 59.87 60.46 60.42 60.57 61.29 61.36 61.04 60.39 60.06 60.33 60.40 60.10 60.79
52.32 53.46 61.93 64.32 65.30 66.41 66.71 66.68 64.98 64.06 63.90 65.07 65.39 65.78 66.49 65.74 66.03 66.27 65.19 64.38 64.92 63.38 60.94 61.10 61.68 59.87 59.49 61.23 58.18 56.59 54.30 56.75 59.34 59.91 60.20 60.66 60.26 60.43 59.56 59.87 60.11 59.79 59.96
53.28 56.51 63.11 65.54 65.89 66.31 66.22 64.38 62.85 62.62 61.60 61.37 61.27 63.57 65.12 65.45 65.45 65.76 65.20 64.39 64.16 63.80 62.55 62.40 61.70 60.46 58.34 59.99 59.29 56.63 52.85 52.20 55.46 58.74 58.82 59.95 59.69 59.41 59.36 59.56 59.35 59.22 59.28
52.47 55.76 57.54 59.06 59.52 60.47 62.42 62.64 60.78 62.19 62.15 61.55 62.59 63.01 63.48 64.66 64.55 64.87 64.02 63.42 63.58 63.29 62.64 61.83 61.38 60.64 59.16 57.65 59.08 58.45 56.13 55.54 52.66 51.76 57.11 58.14 59.24 58.47 58.47 58.76 58.94 58.53 58.58
51.67 51.67 52.64 53.83 54.12 56.42 57.22 58.28 61.53 60.94 61.69 60.07 59.89 61.76 62.89 63.61 64.70 65.12 64.27 63.98 63.00 62.37 61.40 60.74 60.25 59.46 59.26 57.92 57.84 57.09 55.49 55.43 55.35 52.99 51.86 54.94 57.11 58.31 58.64 58.24 58.34 58.12 58.12
49.81 50.46 50.63 51.05 51.23 52.71 53.83 54.61 56.72 58.62 59.78 59.50 59.26 59.98 60.13 61.67 64.10 64.29 64.18 63.25 62.91 61.88 60.17 60.30 60.09 59.41 58.76 58.06 57.68 57.83 56.57 55.42 54.18 53.83 52.36 54.35 54.34 55.93 57.93 58.28 57.94 57.94 58.18

GFSSE_sfc_wetblb_123.txt.gz
Wetbulb
67.64 70.28 72.39 72.95 73.25 72.84 72.69 72.45 72.47 72.62 73.24 73.70 73.80 73.80 73.92 73.97 74.03 74.31 74.28 74.28 74.20 74.40 73.68 73.40 74.17 74.08 73.45 72.95 73.16 72.66 72.08 72.00 72.21 72.67 73.15 72.93 72.76 72.78 72.29 72.04 71.77 70.55 71.66
68.72 70.84 71.83 72.69 72.90 72.90 72.84 72.47 72.57 72.76 73.29 73.70 73.73 73.65 73.68 73.80 74.05 74.22 74.26 74.22 74.07 73.88 73.48 73.33 73.55 73.13 72.76 72.60 72.38 72.22 72.22 71.67 71.64 71.42 71.91 72.73 72.36 72.26 71.92 71.49 71.45 70.58 71.46
68.86 70.66 71.93 72.08 72.72 72.83 73.08 73.01 73.06 73.38 73.65 73.49 73.46 73.47 73.65 73.82 74.07 74.05 74.02 73.91 73.98 73.80 73.28 73.16 73.03 72.83 72.43 72.31 71.82 71.87 71.70 71.36 71.05 70.95 70.80 68.80 69.44 71.47 71.44 71.01 71.07 71.34 71.15
69.42 70.31 70.93 71.69 72.42 72.77 72.76 72.71 73.11 73.39 73.41 73.31 73.23 73.44 73.51 73.83 73.97 74.08 73.89 73.62 73.66 73.99 73.48 73.08 72.54 72.21 71.93 71.48 71.25 71.15 70.97 70.52 70.19 69.79 68.29 68.57 69.00 71.04 71.09 70.90 70.83 70.83 70.64
69.24 70.14 70.31 70.85 71.60 72.52 72.65 72.70 72.83 73.07 72.87 72.80 72.87 73.32 73.55 73.60 73.79 73.71 73.31 72.99 73.57 73.88 73.28 72.71 72.01 71.63 70.91 70.27 70.28 70.39 69.95 69.24 68.46 67.18 65.02 66.67 68.72 70.29 70.90 70.44 70.21 70.20 69.93
68.91 69.47 69.59 69.79 70.77 72.02 72.67 72.77 72.91 72.68 72.12 72.28 72.46 73.00 73.53 73.49 73.31 72.82 72.39 72.40 73.48 73.90 73.62 72.40 71.63 70.82 69.62 69.40 69.51 69.41 68.11 67.94 67.12 65.51 66.05 68.23 67.05 70.39 70.48 70.03 70.05 69.75 69.14
68.00 68.63 69.41 69.21 70.35 71.65 72.58 72.84 72.58 72.00 71.52 71.97 72.32 72.59 72.84 72.95 72.58 71.75 71.66 71.94 72.23 73.25 73.12 72.55 71.16 70.00 69.13 68.87 68.87 68.22 66.87 66.96 64.98 64.83 65.46 65.59 67.35 70.35 70.27 69.61 69.03 69.07 69.16
67.30 68.09 68.85 69.99 70.44 71.07 71.83 72.07 71.33 71.08 71.14 71.28 71.70 72.03 72.41 72.27 71.76 71.37 71.39 71.67 71.60 71.81 71.50 70.87 70.02 69.44 68.91 68.83 68.12 67.05 66.12 66.35 65.47 64.74 65.12 65.44 68.38 70.23 70.15 69.36 68.79 68.60 68.60
67.03 67.57 68.13 69.21 70.31 70.23 70.01 70.07 69.73 70.09 70.38 70.52 70.81 70.85 71.02 70.62 70.27 70.52 70.86 71.31 71.05 71.01 70.79 70.12 69.34 68.63 68.63 68.25 67.01 65.63 64.91 65.65 63.48 64.19 65.25 65.84 69.46 69.93 69.68 68.33 67.91 67.94 67.99
65.97 66.67 67.97 69.14 69.84 70.28 69.89 68.74 68.42 68.96 69.28 69.60 70.09 69.77 69.12 69.27 69.63 69.69 69.67 70.29 70.29 70.23 70.06 69.61 68.53 68.06 68.01 67.28 65.95 65.05 64.73 64.72 61.47 63.58 64.22 65.25 69.30 69.43 69.61 68.62 67.83 67.24 66.74
64.64 65.94 67.28 67.88 68.63 69.20 69.67 69.73 69.01 69.37 69.17 69.01 69.62 69.28 68.00 68.70 68.87 69.23 68.60 69.05 69.57 69.17 69.03 68.87 67.91 67.23 66.63 66.11 65.23 64.87 64.47 62.98 60.12 62.53 63.46 66.89 68.86 69.17 69.47 68.47 67.55 66.83 66.27
63.12 64.59 66.22 67.05 66.92 67.32 68.66 69.79 69.94 69.96 69.99 70.10 69.89 69.24 68.63 67.16 67.27 68.67 68.22 68.06 68.68 68.08 67.99 67.70 67.28 66.42 65.93 63.70 64.19 64.46 62.25 62.25 62.46 62.27 62.72 66.52 68.34 69.26 69.10 68.20 67.27 66.40 65.86
63.22 64.40 65.36 66.01 66.26 67.16 68.06 68.26 68.25 68.60 68.60 69.26 68.02 67.27 68.04 67.59 66.71 66.68 66.39 66.96 66.53 67.12 66.15 65.84 65.01 64.43 63.65 62.73 61.91 61.57 61.77 61.88 62.34 61.63 62.71 65.83 68.42 69.04 68.64 68.25 67.11 66.31 65.82
62.98 63.72 65.03 65.55 65.67 65.74 67.03 66.84 67.08 67.25 67.44 67.56 68.45 65.77 66.84 68.36 66.73 65.35 65.64 65.19 64.93 64.97 64.19 63.65 62.74 62.82 62.49 61.91 61.06 60.88 61.19 61.73 61.46 61.38 62.07 64.53 66.87 68.25 68.52 68.14 67.33 66.47 65.62
64.39 64.21 64.90 65.46 65.28 65.79 65.58 66.27 66.43 66.11 66.65 66.89 67.48 67.19 67.09 67.46 67.05 65.76 64.56 64.33 64.25 63.54 63.60 62.44 61.95 61.75 61.41 61.19 60.72 60.70 60.82 61.11 61.32 60.99 61.24 63.80 64.74 66.92 68.35 67.98 67.57 66.84 65.89
65.85 65.46 65.12 65.18 65.43 65.76 65.53 65.12 65.63 66.03 66.33 66.36 66.79 67.70 67.23 67.37 67.03 65.30 64.38 63.93 63.54 63.57 62.96 62.99 61.89 61.03 60.75 60.91 60.57 60.38 60.78 60.70 60.76 59.99 60.85 62.44 63.04 64.81 66.17 67.59 67.16 66.81 66.13
65.57 66.53 66.16 65.36 65.40 65.43 65.54 65.06 64.76 65.42 65.61 65.52 65.94 66.80 67.46 66.58 65.81 65.04 64.43 63.77 63.84 62.90 62.11 61.35 60.59 60.17 59.91 60.58 60.21 60.37 60.33 60.44 60.47 60.11 60.04 60.54 61.76 61.42 63.04 65.46 66.26 66.69 66.19
64.57 64.77 66.87 67.52 66.07 65.74 65.60 66.00 65.56 65.53 65.55 65.29 65.41 65.81 66.42 66.58 65.95 64.88 64.18 63.84 63.52 63.14 62.29 61.77 60.61 59.13 59.45 59.71 58.67 59.59 61.70 60.51 60.36 59.68 59.72 60.21 61.13 62.50 62.36 63.10 64.57 65.23 65.28
64.20 64.57 64.48 66.89 66.58 66.36 66.11 66.63 66.07 65.73 65.97 66.04 65.79 65.59 65.80 66.24 66.13 65.27 64.75 63.60 63.21 62.82 62.15 61.91 59.87 60.20 60.21 60.48 59.85 59.87 60.82 61.70 61.70 61.60 60.75 60.13 60.31 61.91 62.99 62.56 62.52 62.41 63.09
61.20 64.34 64.30 66.15 66.65 66.87 66.84 65.38 64.07 64.65 65.04 65.65 66.04 66.24 65.80 66.09 66.16 65.63 64.68 63.55 63.63 62.26 61.76 61.60 61.51 60.35 60.80 61.51 61.27 60.83 61.26 61.38 61.37 61.35 61.59 61.94 61.61 61.93 62.41 62.58 62.57 61.96 61.19
51.32 57.74 62.55 63.40 65.33 66.30 65.84 64.29 63.71 64.73 65.11 65.00 66.04 66.29 65.93 66.29 65.95 65.61 64.93 63.65 63.91 62.91 61.39 61.27 60.49 60.75 60.60 62.11 59.53 59.41 59.75 60.61 60.79 61.11 61.33 61.47 61.29 60.96 60.86 61.77 61.85 61.18 61.18
48.71 50.77 59.70 62.48 64.23 65.67 66.25 65.88 65.58 65.54 64.64 65.38 65.66 66.09 66.20 66.22 65.80 65.64 64.85 64.10 64.68 63.81 61.98 61.51 62.00 60.26 60.51 61.43 58.57 57.22 55.07 56.88 59.43 60.01 60.60 61.13 60.93 61.23 60.27 60.59 60.63 59.93 60.21
48.09 48.98 57.03 61.38 63.01 64.96 65.70 64.02 62.28 62.21 61.45 61.40 62.47 64.56 65.79 65.28 65.80 66.05 65.06 64.49 63.74 63.45 61.98 61.88 62.15 61.13 58.85 60.37 59.35 56.04 52.69 51.36 54.08 58.71 59.12 60.03 60.27 60.19 60.25 59.78 59.86 59.62 59.64
50.89 56.24 57.11 58.55 59.31 61.99 63.05 62.13 61.76 61.83 60.48 62.47 63.33 64.63 64.28 65.06 65.06 65.80 64.83 64.22 64.45 64.06 63.09 62.51 62.81 62.01 60.67 58.62 59.33 58.38 56.49 55.01 52.54 51.93 57.26 59.04 60.20 59.76 59.65 59.51 59.51 59.40 59.52
50.30 50.58 51.63 52.73 53.50 54.97 57.33 59.58 60.30 60.06 60.97 60.59 60.66 61.44 61.65 63.85 64.41 64.89 65.20 64.50 64.08 63.85 63.53 62.81 62.04 61.26 60.59 59.26 58.51 57.40 55.43 53.01 55.36 53.18 51.93 55.05 58.44 59.59 59.72 59.29 59.18 58.58 58.92
48.34 48.57 49.20 49.16 49.09 50.22 52.03 52.18 52.39 52.49 54.69 57.88 59.10 59.89 60.27 61.49 63.13 63.80 64.30 64.16 64.40 63.12 62.57 62.14 61.61 61.01 60.25 59.47 58.92 57.75 56.62 55.44 54.38 53.85 52.62 54.27 54.99 56.84 58.34 58.73 58.41 58.11 58.34

GFSSE_sfc_wetblb_126.txt.gz
Wetbulb
66.57 70.41 72.09 73.16 73.15 72.68 72.29 72.17 72.59 72.76 73.50 74.10 74.18 74.08 74.12 74.01 73.95 74.19 74.20 74.22 74.22 74.38 73.56 73.51 74.18 73.71 73.66 73.71 73.39 72.67 72.27 72.13 72.54 73.12 73.44 72.87 72.82 72.42 72.21 72.39 71.63 70.89 72.12
67.77 70.96 71.64 72.78 72.94 72.86 72.47 72.49 72.47 72.96 73.63 74.04 73.90 73.94 73.82 73.85 74.02 74.02 73.95 74.09 73.97 74.11 73.31 73.07 73.71 73.29 72.87 72.69 72.48 72.40 72.39 71.84 71.52 71.73 71.96 72.52 72.29 72.03 71.76 71.52 71.43 70.70 71.55
68.51 70.78 71.39 71.97 72.56 72.84 72.78 72.89 72.94 73.50 73.71 73.86 73.69 73.65 73.72 73.94 73.91 73.91 73.90 73.66 73.70 73.94 73.49 73.27 72.94 72.82 72.59 72.29 72.24 72.03 71.91 71.45 70.88 71.24 70.91 68.97 70.21 71.53 71.29 71.30 71.13 71.43 70.98
69.47 70.67 71.01 71.72 72.25 72.65 72.48 72.77 72.87 73.52 73.53 73.37 73.42 73.69 73.77 73.84 73.96 73.89 73.66 73.19 73.38 73.81 73.12 73.04 72.67 72.30 71.93 71.67 71.46 71.29 71.15 70.60 70.12 69.92 68.40 68.72 70.34 71.21 71.40 71.13 71.06 71.02 71.01
69.13 70.58 70.87 71.14 71.61 72.38 72.31 72.49 72.62 72.77 72.66 72.76 73.16 73.65 73.94 73.99 74.06 73.85 73.21 73.02 73.37 73.75 72.82 72.67 72.20 71.49 71.13 70.54 70.23 70.27 70.00 69.04 68.71 67.54 66.70 68.10 69.52 70.33 71.11 70.77 70.64 70.09 69.73
68.66 70.08 70.07 70.25 71.09 72.07 72.36 72.59 72.69 72.33 71.97 72.10 72.65 73.17 73.75 73.82 73.81 73.36 72.56 72.89 73.24 73.42 73.07 72.05 71.45 70.95 69.84 69.55 69.16 68.90 68.30 67.88 67.39 66.70 66.83 68.75 68.65 70.79 70.72 70.26 70.02 69.83 69.31
68.04 68.67 69.66 69.57 70.89 71.82 72.65 72.79 72.37 71.80 71.60 71.81 72.21 72.55 72.94 73.37 73.14 72.56 72.03 72.54 72.78 72.87 72.65 72.05 71.02 70.01 69.14 69.15 68.37 67.70 67.39 67.03 65.76 65.67 66.29 66.68 67.90 70.44 70.24 69.72 69.75 69.05 68.72
67.51 68.11 68.89 69.95 70.58 71.11 71.74 71.82 71.24 70.93 70.87 71.15 71.78 71.99 72.22 72.22 71.66 71.69 71.40 71.66 72.04 72.29 71.75 70.75 69.70 69.29 68.87 68.77 68.02 66.63 66.34 66.47 65.72 65.29 65.56 66.41 68.90 70.27 70.29 69.53 69.05 68.63 68.78
66.56 67.26 67.73 68.81 69.81 69.75 70.01 70.26 69.62 69.82 70.15 70.49 70.71 70.89 71.04 70.43 70.15 70.82 71.06 71.10 71.27 71.16 70.51 69.78 69.01 68.39 68.49 68.00 67.26 65.85 65.30 65.85 64.48 64.68 65.54 66.07 69.59 70.17 70.19 69.04 68.55 68.77 68.14
65.03 65.68 67.28 67.82 68.79 69.60 70.32 69.04 68.86 69.17 69.08 69.66 69.84 69.68 69.35 69.18 69.35 69.73 70.12 70.35 70.67 70.49 69.92 69.25 68.37 68.01 67.85 66.74 66.05 64.91 64.78 65.10 63.73 64.20 64.98 66.36 69.81 70.18 69.76 68.70 68.32 68.13 67.90
65.23 66.25 67.25 67.83 68.48 69.09 69.49 69.66 68.86 69.31 68.95 68.79 69.44 68.94 67.91 68.94 68.85 68.98 68.92 69.25 69.71 69.58 69.07 68.66 67.86 67.10 66.63 65.84 65.63 64.89 64.67 62.75 62.39 63.60 64.18 66.63 69.15 69.67 69.25 68.58 67.94 67.47 67.00
63.15 64.81 66.19 66.92 67.51 68.05 68.65 69.58 69.05 69.89 69.92 69.93 69.69 68.95 68.25 67.37 67.86 68.14 68.20 68.38 68.80 68.46 68.33 67.93 67.21 66.40 65.57 64.88 63.88 64.69 62.65 62.27 61.70 62.75 63.46 66.36 69.20 69.40 69.05 68.37 67.70 67.07 66.47
62.71 64.08 65.46 66.33 67.07 67.24 67.70 68.32 68.36 69.11 69.09 69.02 69.00 69.05 68.77 66.94 66.98 67.30 66.35 67.28 66.96 67.64 66.74 66.22 65.52 64.54 63.48 64.17 62.57 62.17 61.92 61.88 61.84 62.22 63.28 65.56 68.03 69.35 68.82 68.56 67.63 66.62 66.18
61.61 63.07 65.18 65.86 65.64 66.46 67.63 67.33 67.27 67.61 67.93 68.06 68.06 67.95 67.80 67.77 66.73 66.01 65.96 65.40 65.29 65.11 64.39 64.19 63.28 63.19 62.69 62.20 61.86 61.29 61.56 61.63 61.79 61.91 61.96 64.24 66.70 68.66 68.80 68.76 67.74 67.07 66.10
60.21 62.34 64.04 65.10 64.96 65.83 66.47 66.78 66.92 67.04 67.01 67.76 67.89 67.14 67.84 67.06 66.90 65.99 64.69 64.88 64.65 63.88 63.57 62.74 62.05 61.81 61.87 61.35 61.11 61.23 61.12 61.24 61.63 61.55 61.47 62.83 64.65 67.04 68.48 68.81 68.15 67.24 66.47
61.81 61.58 63.67 64.38 64.81 65.43 65.69 66.01 66.04 66.53 66.54 66.48 66.76 67.45 67.01 67.54 66.83 66.69 64.56 63.95 63.25 63.68 62.96 62.71 62.20 61.05 60.99 60.97 60.41 60.46 60.90 61.04 61.24 61.19 61.43 62.48 62.74 63.59 66.29 67.89 67.70 67.42 66.91
64.57 63.17 63.33 63.99 64.27 64.60 64.81 65.03 65.34 65.69 65.84 65.32 65.77 66.81 66.86 66.86 66.67 65.83 65.05 63.95 63.16 62.48 62.15 61.51 60.50 60.10 59.86 60.39 59.98 59.98 60.32 60.87 60.77 60.62 60.62 61.37 62.67 61.21 62.43 65.50 66.33 67.11 66.73
65.01 64.70 64.10 64.62 64.26 64.09 64.44 64.25 64.35 64.68 64.90 64.77 65.25 66.14 66.23 66.00 65.81 64.59 64.48 64.18 62.34 61.78 61.53 60.85 59.97 59.08 58.98 59.79 60.21 60.47 61.09 60.57 60.55 60.56 60.05 60.49 61.50 62.64 61.96 62.97 64.07 65.56 66.25
64.46 64.97 65.27 64.38 63.59 64.02 64.03 64.35 63.86 63.72 63.96 63.54 63.57 64.84 65.61 65.83 64.84 64.22 63.70 62.88 62.76 62.12 61.17 61.13 59.35 59.38 60.12 60.32 60.02 60.61 61.27 61.45 61.60 62.02 60.87 60.08 60.42 61.72 62.20 62.14 62.35 62.64 63.81
63.12 64.48 65.65 65.89 64.85 64.30 64.14 64.32 64.12 64.09 64.48 64.46 64.46 64.48 64.61 65.70 65.41 64.30 63.70 62.62 63.26 63.16 61.92 60.71 61.20 60.68 61.20 61.18 60.97 60.80 61.17 61.98 61.84 61.66 61.62 61.79 60.49 61.24 62.31 63.04 62.82 62.05 61.05
60.80 63.10 63.64 65.41 65.87 65.23 64.35 63.68 63.60 63.39 64.46 64.76 64.83 64.95 64.70 65.10 65.36 65.13 64.95 62.87 63.03 62.69 62.86 62.54 62.24 60.85 60.41 61.62 60.01 59.71 60.21 61.29 60.47 61.18 61.67 61.64 61.72 61.75 62.16 62.47 62.50 62.34 62.00
53.81 61.05 62.71 64.01 65.57 65.74 65.51 64.76 63.25 64.34 64.93 64.77 65.80 65.18 65.19 65.19 65.10 65.43 65.05 63.91 63.47 62.87 62.19 62.19 61.96 60.07 61.05 61.79 58.84 57.93 55.79 56.83 59.73 60.55 61.30 61.09 61.31 61.72 61.16 61.49 62.21 61.95 61.72
46.57 51.34 59.68 62.45 64.21 65.58 65.92 64.10 61.03 61.63 62.57 63.47 64.22 64.90 65.36 65.44 65.08 65.22 64.97 64.40 63.63 63.88 62.43 62.20 62.39 61.63 59.54 60.85 59.87 57.56 53.13 51.18 55.10 58.67 59.04 60.24 60.85 60.88 61.41 60.83 61.36 61.18 61.05
51.43 50.90 56.57 59.35 60.54 62.15 63.43 63.65 61.79 62.49 61.92 62.07 63.73 64.88 65.48 65.49 65.64 65.53 65.13 64.38 63.97 64.08 62.18 62.32 62.83 62.53 61.37 59.16 60.31 58.70 56.78 54.13 50.80 51.21 56.73 58.61 59.45 59.80 60.23 60.21 60.36 60.42 60.20
49.49 50.14 51.90 52.75 53.10 56.30 59.74 61.62 61.43 59.52 60.48 59.43 61.17 62.11 62.30 64.25 64.82 65.05 64.76 64.31 64.20 64.47 63.53 62.17 62.16 62.45 61.95 60.67 59.53 58.24 56.17 55.33 55.34 54.01 51.73 55.09 58.26 59.90 60.52 60.14 60.05 60.03 59.93
46.98 46.76 47.04 47.67 48.30 50.05 52.16 53.65 55.04 55.83 56.73 59.57 60.10 58.11 59.11 61.40 63.61 64.07 64.62 64.76 64.88 64.79 64.02 62.98 62.74 62.50 61.59 61.33 60.61 58.95 57.49 56.77 54.49 53.44 51.23 52.58 54.82 57.52 59.84 60.16 59.67 59.45 59.53